<?xml version="1.0" encoding="UTF-8" standalone="no" ?>
<gpx xmlns="http://www.topografix.com/GPX/1/1" xmlns:xsi="http://www.w3.org/2001/XMLSchema-instance" xsi:schemaLocation="http://www.topografix.com/GPX/1/1 http://www.topografix.com/GPX/1/1/gpx.xsd" version="1.1" creator="VisuGPX - https://www.visugpx.com">
  <metadata>
    <name>25-OCT-21 18:20:22</name>
    <desc><![CDATA[Départ Bourbach-Le-Haut, route jusqu'au col du Hundsruck puis descente sur le plan Diebolt Scheurer puis rectangle rouge jusqu'au niveau de la place du roi de Rome et là à gauche prendre rectangle rouge et blanc jusqu'à Thann route vers la gare et ensuite piste cyclable de la Thur direction Bitschwiller-lès-Thann et Willer sur Thur. Dans Willer prendre la route qui monte à Goldbach mais au niveau du parking prendre à gauche le chemin triangle jaune qui monte vers Goutte puis Altenbach, avant le village continuer sur triangle jaune vers Fuchswald puis Rennenbachfels pour rejoindre la route qui va de Geishouse au Haag au niveau du totem sculpté. Prendre le chemin croix jaune qui va au Haag en passant par Sattelfels. Descente, rectangle jaune et au lieu dit Mittlerer Storken prendre triangle bleu vers l'abri du Faucon-Crécerelle, ensuite après Bessayfels rejoindre le GR 532. Au niveau de Geishouse prendre à droite la petite route jusqu'à St-Amarin . Retour par piste cyclable jusqu'à Bitschwiller-lès-Thann . Avant la sortie du village prendre à droite une route forestière qui monte jusqu'au Col du Hundsruck. Et descente sur B-L-H par la route.]]></desc>
  </metadata>
  <trk>
    <name><![CDATA[25-OCT-21 18:20:22]]></name>
    <trkseg>
      <trkpt lat="47.79386" lon="7.02995">
        <ele>448.59</ele>
        <time>2021-10-25T11:05:35Z</time>
      </trkpt>
      <trkpt lat="47.79386" lon="7.02995">
        <ele>445.71</ele>
        <time>2021-10-25T11:05:36Z</time>
      </trkpt>
      <trkpt lat="47.79386" lon="7.02996">
        <ele>447.15</ele>
        <time>2021-10-25T11:05:40Z</time>
      </trkpt>
      <trkpt lat="47.79386" lon="7.02998">
        <ele>445.23</ele>
        <time>2021-10-25T11:05:45Z</time>
      </trkpt>
      <trkpt lat="47.79387" lon="7.02998">
        <ele>447.15</ele>
        <time>2021-10-25T11:06:03Z</time>
      </trkpt>
      <trkpt lat="47.79387" lon="7.02997">
        <ele>448.59</ele>
        <time>2021-10-25T11:06:26Z</time>
      </trkpt>
      <trkpt lat="47.79386" lon="7.02999">
        <ele>449.07</ele>
        <time>2021-10-25T11:06:41Z</time>
      </trkpt>
      <trkpt lat="47.79391" lon="7.0302">
        <ele>451.96</ele>
        <time>2021-10-25T11:06:50Z</time>
      </trkpt>
      <trkpt lat="47.79394" lon="7.03018">
        <ele>452.44</ele>
        <time>2021-10-25T11:06:51Z</time>
      </trkpt>
      <trkpt lat="47.79398" lon="7.03015">
        <ele>452.44</ele>
        <time>2021-10-25T11:06:52Z</time>
      </trkpt>
      <trkpt lat="47.79402" lon="7.03012">
        <ele>453.4</ele>
        <time>2021-10-25T11:06:53Z</time>
      </trkpt>
      <trkpt lat="47.79406" lon="7.03011">
        <ele>454.36</ele>
        <time>2021-10-25T11:06:54Z</time>
      </trkpt>
      <trkpt lat="47.79408" lon="7.0301">
        <ele>455.32</ele>
        <time>2021-10-25T11:06:55Z</time>
      </trkpt>
      <trkpt lat="47.79409" lon="7.0301">
        <ele>455.32</ele>
        <time>2021-10-25T11:06:56Z</time>
      </trkpt>
      <trkpt lat="47.79412" lon="7.0301">
        <ele>456.28</ele>
        <time>2021-10-25T11:07:10Z</time>
      </trkpt>
      <trkpt lat="47.79416" lon="7.03014">
        <ele>456.76</ele>
        <time>2021-10-25T11:07:15Z</time>
      </trkpt>
      <trkpt lat="47.79419" lon="7.0302">
        <ele>457.24</ele>
        <time>2021-10-25T11:07:19Z</time>
      </trkpt>
      <trkpt lat="47.7942" lon="7.03022">
        <ele>457.72</ele>
        <time>2021-10-25T11:07:20Z</time>
      </trkpt>
      <trkpt lat="47.79422" lon="7.03024">
        <ele>457.72</ele>
        <time>2021-10-25T11:07:21Z</time>
      </trkpt>
      <trkpt lat="47.79423" lon="7.03027">
        <ele>458.21</ele>
        <time>2021-10-25T11:07:22Z</time>
      </trkpt>
      <trkpt lat="47.79424" lon="7.03029">
        <ele>458.21</ele>
        <time>2021-10-25T11:07:23Z</time>
      </trkpt>
      <trkpt lat="47.79441" lon="7.03065">
        <ele>461.57</ele>
        <time>2021-10-25T11:07:33Z</time>
      </trkpt>
      <trkpt lat="47.79455" lon="7.03095">
        <ele>465.42</ele>
        <time>2021-10-25T11:07:40Z</time>
      </trkpt>
      <trkpt lat="47.79457" lon="7.03099">
        <ele>464.93</ele>
        <time>2021-10-25T11:07:41Z</time>
      </trkpt>
      <trkpt lat="47.79482" lon="7.03125">
        <ele>467.82</ele>
        <time>2021-10-25T11:07:51Z</time>
      </trkpt>
      <trkpt lat="47.79499" lon="7.03094">
        <ele>470.7</ele>
        <time>2021-10-25T11:08:01Z</time>
      </trkpt>
      <trkpt lat="47.79505" lon="7.03051">
        <ele>473.59</ele>
        <time>2021-10-25T11:08:12Z</time>
      </trkpt>
      <trkpt lat="47.79513" lon="7.03011">
        <ele>476.95</ele>
        <time>2021-10-25T11:08:22Z</time>
      </trkpt>
      <trkpt lat="47.79531" lon="7.02983">
        <ele>479.35</ele>
        <time>2021-10-25T11:08:32Z</time>
      </trkpt>
      <trkpt lat="47.79535" lon="7.02969">
        <ele>480.32</ele>
        <time>2021-10-25T11:08:36Z</time>
      </trkpt>
      <trkpt lat="47.79538" lon="7.02967">
        <ele>480.8</ele>
        <time>2021-10-25T11:08:37Z</time>
      </trkpt>
      <trkpt lat="47.79541" lon="7.02966">
        <ele>480.8</ele>
        <time>2021-10-25T11:08:38Z</time>
      </trkpt>
      <trkpt lat="47.79543" lon="7.02965">
        <ele>481.28</ele>
        <time>2021-10-25T11:08:39Z</time>
      </trkpt>
      <trkpt lat="47.79546" lon="7.02964">
        <ele>481.76</ele>
        <time>2021-10-25T11:08:40Z</time>
      </trkpt>
      <trkpt lat="47.79549" lon="7.02963">
        <ele>481.76</ele>
        <time>2021-10-25T11:08:41Z</time>
      </trkpt>
      <trkpt lat="47.79593" lon="7.0294">
        <ele>484.16</ele>
        <time>2021-10-25T11:08:54Z</time>
      </trkpt>
      <trkpt lat="47.79637" lon="7.02903">
        <ele>487.53</ele>
        <time>2021-10-25T11:09:08Z</time>
      </trkpt>
      <trkpt lat="47.79678" lon="7.02886">
        <ele>490.41</ele>
        <time>2021-10-25T11:09:20Z</time>
      </trkpt>
      <trkpt lat="47.79713" lon="7.02868">
        <ele>493.77</ele>
        <time>2021-10-25T11:09:31Z</time>
      </trkpt>
      <trkpt lat="47.79737" lon="7.0284">
        <ele>497.62</ele>
        <time>2021-10-25T11:09:41Z</time>
      </trkpt>
      <trkpt lat="47.79773" lon="7.02794">
        <ele>499.54</ele>
        <time>2021-10-25T11:09:55Z</time>
      </trkpt>
      <trkpt lat="47.79808" lon="7.02776">
        <ele>502.91</ele>
        <time>2021-10-25T11:10:07Z</time>
      </trkpt>
      <trkpt lat="47.79825" lon="7.02729">
        <ele>503.87</ele>
        <time>2021-10-25T11:10:18Z</time>
      </trkpt>
      <trkpt lat="47.79822" lon="7.027">
        <ele>503.39</ele>
        <time>2021-10-25T11:10:23Z</time>
      </trkpt>
      <trkpt lat="47.7982" lon="7.02674">
        <ele>502.43</ele>
        <time>2021-10-25T11:10:26Z</time>
      </trkpt>
      <trkpt lat="47.7982" lon="7.02655">
        <ele>501.46</ele>
        <time>2021-10-25T11:10:28Z</time>
      </trkpt>
      <trkpt lat="47.79827" lon="7.02617">
        <ele>500.5</ele>
        <time>2021-10-25T11:10:32Z</time>
      </trkpt>
      <trkpt lat="47.79833" lon="7.0261">
        <ele>500.5</ele>
        <time>2021-10-25T11:10:33Z</time>
      </trkpt>
      <trkpt lat="47.7984" lon="7.02604">
        <ele>500.02</ele>
        <time>2021-10-25T11:10:34Z</time>
      </trkpt>
      <trkpt lat="47.79849" lon="7.02604">
        <ele>500.02</ele>
        <time>2021-10-25T11:10:35Z</time>
      </trkpt>
      <trkpt lat="47.79899" lon="7.02585">
        <ele>500.5</ele>
        <time>2021-10-25T11:10:43Z</time>
      </trkpt>
      <trkpt lat="47.79903" lon="7.02584">
        <ele>500.02</ele>
        <time>2021-10-25T11:10:44Z</time>
      </trkpt>
      <trkpt lat="47.79908" lon="7.02585">
        <ele>500.5</ele>
        <time>2021-10-25T11:10:45Z</time>
      </trkpt>
      <trkpt lat="47.79913" lon="7.02587">
        <ele>500.5</ele>
        <time>2021-10-25T11:10:46Z</time>
      </trkpt>
      <trkpt lat="47.79916" lon="7.02592">
        <ele>500.5</ele>
        <time>2021-10-25T11:10:47Z</time>
      </trkpt>
      <trkpt lat="47.79918" lon="7.02595">
        <ele>500.5</ele>
        <time>2021-10-25T11:10:48Z</time>
      </trkpt>
      <trkpt lat="47.79919" lon="7.02603">
        <ele>500.98</ele>
        <time>2021-10-25T11:10:49Z</time>
      </trkpt>
      <trkpt lat="47.79916" lon="7.02617">
        <ele>500.98</ele>
        <time>2021-10-25T11:10:52Z</time>
      </trkpt>
      <trkpt lat="47.79912" lon="7.0262">
        <ele>500.98</ele>
        <time>2021-10-25T11:10:53Z</time>
      </trkpt>
      <trkpt lat="47.79909" lon="7.02624">
        <ele>500.98</ele>
        <time>2021-10-25T11:10:54Z</time>
      </trkpt>
      <trkpt lat="47.79896" lon="7.02647">
        <ele>501.46</ele>
        <time>2021-10-25T11:10:59Z</time>
      </trkpt>
      <trkpt lat="47.79895" lon="7.02653">
        <ele>501.95</ele>
        <time>2021-10-25T11:11:00Z</time>
      </trkpt>
      <trkpt lat="47.79893" lon="7.0266">
        <ele>501.95</ele>
        <time>2021-10-25T11:11:01Z</time>
      </trkpt>
      <trkpt lat="47.79892" lon="7.02665">
        <ele>501.95</ele>
        <time>2021-10-25T11:11:02Z</time>
      </trkpt>
      <trkpt lat="47.79891" lon="7.02671">
        <ele>501.95</ele>
        <time>2021-10-25T11:11:03Z</time>
      </trkpt>
      <trkpt lat="47.79891" lon="7.02676">
        <ele>502.43</ele>
        <time>2021-10-25T11:11:04Z</time>
      </trkpt>
      <trkpt lat="47.79891" lon="7.02681">
        <ele>502.43</ele>
        <time>2021-10-25T11:11:05Z</time>
      </trkpt>
      <trkpt lat="47.79888" lon="7.02733">
        <ele>505.31</ele>
        <time>2021-10-25T11:11:16Z</time>
      </trkpt>
      <trkpt lat="47.79891" lon="7.02779">
        <ele>508.19</ele>
        <time>2021-10-25T11:11:26Z</time>
      </trkpt>
      <trkpt lat="47.799" lon="7.02831">
        <ele>511.56</ele>
        <time>2021-10-25T11:11:37Z</time>
      </trkpt>
      <trkpt lat="47.79902" lon="7.02861">
        <ele>513.48</ele>
        <time>2021-10-25T11:11:43Z</time>
      </trkpt>
      <trkpt lat="47.79919" lon="7.0291">
        <ele>516.37</ele>
        <time>2021-10-25T11:11:54Z</time>
      </trkpt>
      <trkpt lat="47.79948" lon="7.02945">
        <ele>519.73</ele>
        <time>2021-10-25T11:12:05Z</time>
      </trkpt>
      <trkpt lat="47.79977" lon="7.02983">
        <ele>523.09</ele>
        <time>2021-10-25T11:12:15Z</time>
      </trkpt>
      <trkpt lat="47.79977" lon="7.03007">
        <ele>524.06</ele>
        <time>2021-10-25T11:12:19Z</time>
      </trkpt>
      <trkpt lat="47.79965" lon="7.03043">
        <ele>525.5</ele>
        <time>2021-10-25T11:12:27Z</time>
      </trkpt>
      <trkpt lat="47.79959" lon="7.03065">
        <ele>526.46</ele>
        <time>2021-10-25T11:12:31Z</time>
      </trkpt>
      <trkpt lat="47.7996" lon="7.03073">
        <ele>526.46</ele>
        <time>2021-10-25T11:12:32Z</time>
      </trkpt>
      <trkpt lat="47.7997" lon="7.03151">
        <ele>529.34</ele>
        <time>2021-10-25T11:12:44Z</time>
      </trkpt>
      <trkpt lat="47.79996" lon="7.03205">
        <ele>532.71</ele>
        <time>2021-10-25T11:12:56Z</time>
      </trkpt>
      <trkpt lat="47.8002" lon="7.03249">
        <ele>536.07</ele>
        <time>2021-10-25T11:13:06Z</time>
      </trkpt>
      <trkpt lat="47.80049" lon="7.03288">
        <ele>539.44</ele>
        <time>2021-10-25T11:13:16Z</time>
      </trkpt>
      <trkpt lat="47.80078" lon="7.0331">
        <ele>542.32</ele>
        <time>2021-10-25T11:13:25Z</time>
      </trkpt>
      <trkpt lat="47.80085" lon="7.03314">
        <ele>543.28</ele>
        <time>2021-10-25T11:13:27Z</time>
      </trkpt>
      <trkpt lat="47.80122" lon="7.03327">
        <ele>546.65</ele>
        <time>2021-10-25T11:13:37Z</time>
      </trkpt>
      <trkpt lat="47.80143" lon="7.03333">
        <ele>549.05</ele>
        <time>2021-10-25T11:13:43Z</time>
      </trkpt>
      <trkpt lat="47.80181" lon="7.03358">
        <ele>551.93</ele>
        <time>2021-10-25T11:13:54Z</time>
      </trkpt>
      <trkpt lat="47.80216" lon="7.03407">
        <ele>554.82</ele>
        <time>2021-10-25T11:14:06Z</time>
      </trkpt>
      <trkpt lat="47.80261" lon="7.03423">
        <ele>557.22</ele>
        <time>2021-10-25T11:14:18Z</time>
      </trkpt>
      <trkpt lat="47.80269" lon="7.03426">
        <ele>557.7</ele>
        <time>2021-10-25T11:14:20Z</time>
      </trkpt>
      <trkpt lat="47.80274" lon="7.03428">
        <ele>557.7</ele>
        <time>2021-10-25T11:14:21Z</time>
      </trkpt>
      <trkpt lat="47.80312" lon="7.0345">
        <ele>560.59</ele>
        <time>2021-10-25T11:14:30Z</time>
      </trkpt>
      <trkpt lat="47.80315" lon="7.03451">
        <ele>561.07</ele>
        <time>2021-10-25T11:14:31Z</time>
      </trkpt>
      <trkpt lat="47.80324" lon="7.03456">
        <ele>561.55</ele>
        <time>2021-10-25T11:14:33Z</time>
      </trkpt>
      <trkpt lat="47.80328" lon="7.03459">
        <ele>562.03</ele>
        <time>2021-10-25T11:14:34Z</time>
      </trkpt>
      <trkpt lat="47.80348" lon="7.03486">
        <ele>562.03</ele>
        <time>2021-10-25T11:14:40Z</time>
      </trkpt>
      <trkpt lat="47.80347" lon="7.0349">
        <ele>562.03</ele>
        <time>2021-10-25T11:14:41Z</time>
      </trkpt>
      <trkpt lat="47.80345" lon="7.03494">
        <ele>562.51</ele>
        <time>2021-10-25T11:14:42Z</time>
      </trkpt>
      <trkpt lat="47.80343" lon="7.03497">
        <ele>562.51</ele>
        <time>2021-10-25T11:14:43Z</time>
      </trkpt>
      <trkpt lat="47.80341" lon="7.03499">
        <ele>562.99</ele>
        <time>2021-10-25T11:14:44Z</time>
      </trkpt>
      <trkpt lat="47.80339" lon="7.03502">
        <ele>563.47</ele>
        <time>2021-10-25T11:14:45Z</time>
      </trkpt>
      <trkpt lat="47.80335" lon="7.03504">
        <ele>563.47</ele>
        <time>2021-10-25T11:14:46Z</time>
      </trkpt>
      <trkpt lat="47.80317" lon="7.03526">
        <ele>566.83</ele>
        <time>2021-10-25T11:14:54Z</time>
      </trkpt>
      <trkpt lat="47.8031" lon="7.03545">
        <ele>568.28</ele>
        <time>2021-10-25T11:14:57Z</time>
      </trkpt>
      <trkpt lat="47.80309" lon="7.03553">
        <ele>568.28</ele>
        <time>2021-10-25T11:14:58Z</time>
      </trkpt>
      <trkpt lat="47.80307" lon="7.0356">
        <ele>568.76</ele>
        <time>2021-10-25T11:14:59Z</time>
      </trkpt>
      <trkpt lat="47.80302" lon="7.03577">
        <ele>569.24</ele>
        <time>2021-10-25T11:15:02Z</time>
      </trkpt>
      <trkpt lat="47.80278" lon="7.03576">
        <ele>571.16</ele>
        <time>2021-10-25T11:15:09Z</time>
      </trkpt>
      <trkpt lat="47.80261" lon="7.03577">
        <ele>573.08</ele>
        <time>2021-10-25T11:15:14Z</time>
      </trkpt>
      <trkpt lat="47.80252" lon="7.03585">
        <ele>573.08</ele>
        <time>2021-10-25T11:15:16Z</time>
      </trkpt>
      <trkpt lat="47.80247" lon="7.03588">
        <ele>573.08</ele>
        <time>2021-10-25T11:15:17Z</time>
      </trkpt>
      <trkpt lat="47.80196" lon="7.03599">
        <ele>575.97</ele>
        <time>2021-10-25T11:15:27Z</time>
      </trkpt>
      <trkpt lat="47.80167" lon="7.03604">
        <ele>578.37</ele>
        <time>2021-10-25T11:15:33Z</time>
      </trkpt>
      <trkpt lat="47.80161" lon="7.03604">
        <ele>578.85</ele>
        <time>2021-10-25T11:15:34Z</time>
      </trkpt>
      <trkpt lat="47.80155" lon="7.03604">
        <ele>579.33</ele>
        <time>2021-10-25T11:15:35Z</time>
      </trkpt>
      <trkpt lat="47.8015" lon="7.03604">
        <ele>579.81</ele>
        <time>2021-10-25T11:15:36Z</time>
      </trkpt>
      <trkpt lat="47.80145" lon="7.03605">
        <ele>580.29</ele>
        <time>2021-10-25T11:15:37Z</time>
      </trkpt>
      <trkpt lat="47.8014" lon="7.03607">
        <ele>580.29</ele>
        <time>2021-10-25T11:15:38Z</time>
      </trkpt>
      <trkpt lat="47.80134" lon="7.03611">
        <ele>580.77</ele>
        <time>2021-10-25T11:15:39Z</time>
      </trkpt>
      <trkpt lat="47.80129" lon="7.03616">
        <ele>580.77</ele>
        <time>2021-10-25T11:15:40Z</time>
      </trkpt>
      <trkpt lat="47.80126" lon="7.03622">
        <ele>580.77</ele>
        <time>2021-10-25T11:15:41Z</time>
      </trkpt>
      <trkpt lat="47.80124" lon="7.03628">
        <ele>580.77</ele>
        <time>2021-10-25T11:15:42Z</time>
      </trkpt>
      <trkpt lat="47.80122" lon="7.03635">
        <ele>582.7</ele>
        <time>2021-10-25T11:15:43Z</time>
      </trkpt>
      <trkpt lat="47.80122" lon="7.03642">
        <ele>581.73</ele>
        <time>2021-10-25T11:15:44Z</time>
      </trkpt>
      <trkpt lat="47.80123" lon="7.03648">
        <ele>581.73</ele>
        <time>2021-10-25T11:15:45Z</time>
      </trkpt>
      <trkpt lat="47.80121" lon="7.03655">
        <ele>581.73</ele>
        <time>2021-10-25T11:15:46Z</time>
      </trkpt>
      <trkpt lat="47.80122" lon="7.03659">
        <ele>582.22</ele>
        <time>2021-10-25T11:15:47Z</time>
      </trkpt>
      <trkpt lat="47.80147" lon="7.03698">
        <ele>585.58</ele>
        <time>2021-10-25T11:15:57Z</time>
      </trkpt>
      <trkpt lat="47.80172" lon="7.0374">
        <ele>588.95</ele>
        <time>2021-10-25T11:16:07Z</time>
      </trkpt>
      <trkpt lat="47.80177" lon="7.03748">
        <ele>589.43</ele>
        <time>2021-10-25T11:16:09Z</time>
      </trkpt>
      <trkpt lat="47.80183" lon="7.03756">
        <ele>590.39</ele>
        <time>2021-10-25T11:16:11Z</time>
      </trkpt>
      <trkpt lat="47.80212" lon="7.0379">
        <ele>593.75</ele>
        <time>2021-10-25T11:16:20Z</time>
      </trkpt>
      <trkpt lat="47.80249" lon="7.03806">
        <ele>596.64</ele>
        <time>2021-10-25T11:16:30Z</time>
      </trkpt>
      <trkpt lat="47.8028" lon="7.03802">
        <ele>600</ele>
        <time>2021-10-25T11:16:38Z</time>
      </trkpt>
      <trkpt lat="47.80302" lon="7.03813">
        <ele>602.4</ele>
        <time>2021-10-25T11:16:44Z</time>
      </trkpt>
      <trkpt lat="47.80305" lon="7.03816">
        <ele>602.88</ele>
        <time>2021-10-25T11:16:45Z</time>
      </trkpt>
      <trkpt lat="47.80331" lon="7.03851">
        <ele>605.77</ele>
        <time>2021-10-25T11:16:53Z</time>
      </trkpt>
      <trkpt lat="47.80342" lon="7.0388">
        <ele>608.17</ele>
        <time>2021-10-25T11:16:58Z</time>
      </trkpt>
      <trkpt lat="47.80364" lon="7.03937">
        <ele>611.54</ele>
        <time>2021-10-25T11:17:08Z</time>
      </trkpt>
      <trkpt lat="47.80383" lon="7.03988">
        <ele>614.42</ele>
        <time>2021-10-25T11:17:18Z</time>
      </trkpt>
      <trkpt lat="47.80386" lon="7.03999">
        <ele>615.38</ele>
        <time>2021-10-25T11:17:20Z</time>
      </trkpt>
      <trkpt lat="47.804" lon="7.04048">
        <ele>618.75</ele>
        <time>2021-10-25T11:17:29Z</time>
      </trkpt>
      <trkpt lat="47.80413" lon="7.04083">
        <ele>620.67</ele>
        <time>2021-10-25T11:17:36Z</time>
      </trkpt>
      <trkpt lat="47.80417" lon="7.04083">
        <ele>621.15</ele>
        <time>2021-10-25T11:17:37Z</time>
      </trkpt>
      <trkpt lat="47.80421" lon="7.04082">
        <ele>621.15</ele>
        <time>2021-10-25T11:17:38Z</time>
      </trkpt>
      <trkpt lat="47.80424" lon="7.04079">
        <ele>621.63</ele>
        <time>2021-10-25T11:17:39Z</time>
      </trkpt>
      <trkpt lat="47.80426" lon="7.04074">
        <ele>621.63</ele>
        <time>2021-10-25T11:17:40Z</time>
      </trkpt>
      <trkpt lat="47.80428" lon="7.04068">
        <ele>621.63</ele>
        <time>2021-10-25T11:17:41Z</time>
      </trkpt>
      <trkpt lat="47.80428" lon="7.04061">
        <ele>622.11</ele>
        <time>2021-10-25T11:17:42Z</time>
      </trkpt>
      <trkpt lat="47.80427" lon="7.04055">
        <ele>622.11</ele>
        <time>2021-10-25T11:17:43Z</time>
      </trkpt>
      <trkpt lat="47.80425" lon="7.04049">
        <ele>623.55</ele>
        <time>2021-10-25T11:17:44Z</time>
      </trkpt>
      <trkpt lat="47.80422" lon="7.04043">
        <ele>622.59</ele>
        <time>2021-10-25T11:17:45Z</time>
      </trkpt>
      <trkpt lat="47.80419" lon="7.04036">
        <ele>622.11</ele>
        <time>2021-10-25T11:17:46Z</time>
      </trkpt>
      <trkpt lat="47.80399" lon="7.03943">
        <ele>625.47</ele>
        <time>2021-10-25T11:18:00Z</time>
      </trkpt>
      <trkpt lat="47.80392" lon="7.03918">
        <ele>626.44</ele>
        <time>2021-10-25T11:18:04Z</time>
      </trkpt>
      <trkpt lat="47.80384" lon="7.0389">
        <ele>627.88</ele>
        <time>2021-10-25T11:18:09Z</time>
      </trkpt>
      <trkpt lat="47.80382" lon="7.03884">
        <ele>628.36</ele>
        <time>2021-10-25T11:18:10Z</time>
      </trkpt>
      <trkpt lat="47.80373" lon="7.03827">
        <ele>631.72</ele>
        <time>2021-10-25T11:18:20Z</time>
      </trkpt>
      <trkpt lat="47.80378" lon="7.0378">
        <ele>634.61</ele>
        <time>2021-10-25T11:18:29Z</time>
      </trkpt>
      <trkpt lat="47.80391" lon="7.03729">
        <ele>637.97</ele>
        <time>2021-10-25T11:18:39Z</time>
      </trkpt>
      <trkpt lat="47.80402" lon="7.03676">
        <ele>640.86</ele>
        <time>2021-10-25T11:18:49Z</time>
      </trkpt>
      <trkpt lat="47.80405" lon="7.03672">
        <ele>640.86</ele>
        <time>2021-10-25T11:18:50Z</time>
      </trkpt>
      <trkpt lat="47.80408" lon="7.03668">
        <ele>641.34</ele>
        <time>2021-10-25T11:18:51Z</time>
      </trkpt>
      <trkpt lat="47.80412" lon="7.03665">
        <ele>641.82</ele>
        <time>2021-10-25T11:18:52Z</time>
      </trkpt>
      <trkpt lat="47.80415" lon="7.03662">
        <ele>642.3</ele>
        <time>2021-10-25T11:18:53Z</time>
      </trkpt>
      <trkpt lat="47.80419" lon="7.03659">
        <ele>642.78</ele>
        <time>2021-10-25T11:18:54Z</time>
      </trkpt>
      <trkpt lat="47.80423" lon="7.03657">
        <ele>642.78</ele>
        <time>2021-10-25T11:18:55Z</time>
      </trkpt>
      <trkpt lat="47.80427" lon="7.03655">
        <ele>643.26</ele>
        <time>2021-10-25T11:18:56Z</time>
      </trkpt>
      <trkpt lat="47.80436" lon="7.03652">
        <ele>643.26</ele>
        <time>2021-10-25T11:18:58Z</time>
      </trkpt>
      <trkpt lat="47.8045" lon="7.03649">
        <ele>643.74</ele>
        <time>2021-10-25T11:19:01Z</time>
      </trkpt>
      <trkpt lat="47.80455" lon="7.03647">
        <ele>643.74</ele>
        <time>2021-10-25T11:19:02Z</time>
      </trkpt>
      <trkpt lat="47.80459" lon="7.03644">
        <ele>643.74</ele>
        <time>2021-10-25T11:19:03Z</time>
      </trkpt>
      <trkpt lat="47.80468" lon="7.03637">
        <ele>643.74</ele>
        <time>2021-10-25T11:19:05Z</time>
      </trkpt>
      <trkpt lat="47.80472" lon="7.03632">
        <ele>644.22</ele>
        <time>2021-10-25T11:19:06Z</time>
      </trkpt>
      <trkpt lat="47.8049" lon="7.03576">
        <ele>646.62</ele>
        <time>2021-10-25T11:19:16Z</time>
      </trkpt>
      <trkpt lat="47.80489" lon="7.03554">
        <ele>647.59</ele>
        <time>2021-10-25T11:19:19Z</time>
      </trkpt>
      <trkpt lat="47.8049" lon="7.03548">
        <ele>648.07</ele>
        <time>2021-10-25T11:19:20Z</time>
      </trkpt>
      <trkpt lat="47.80494" lon="7.03544">
        <ele>648.07</ele>
        <time>2021-10-25T11:19:21Z</time>
      </trkpt>
      <trkpt lat="47.80498" lon="7.03544">
        <ele>648.55</ele>
        <time>2021-10-25T11:19:22Z</time>
      </trkpt>
      <trkpt lat="47.805" lon="7.03548">
        <ele>648.55</ele>
        <time>2021-10-25T11:19:23Z</time>
      </trkpt>
      <trkpt lat="47.80501" lon="7.03554">
        <ele>649.03</ele>
        <time>2021-10-25T11:19:24Z</time>
      </trkpt>
      <trkpt lat="47.80501" lon="7.0356">
        <ele>649.51</ele>
        <time>2021-10-25T11:19:25Z</time>
      </trkpt>
      <trkpt lat="47.805" lon="7.03567">
        <ele>649.99</ele>
        <time>2021-10-25T11:19:26Z</time>
      </trkpt>
      <trkpt lat="47.80494" lon="7.0361">
        <ele>651.91</ele>
        <time>2021-10-25T11:19:33Z</time>
      </trkpt>
      <trkpt lat="47.80492" lon="7.03615">
        <ele>652.39</ele>
        <time>2021-10-25T11:19:34Z</time>
      </trkpt>
      <trkpt lat="47.80486" lon="7.0363">
        <ele>653.35</ele>
        <time>2021-10-25T11:19:37Z</time>
      </trkpt>
      <trkpt lat="47.80483" lon="7.03635">
        <ele>653.83</ele>
        <time>2021-10-25T11:19:38Z</time>
      </trkpt>
      <trkpt lat="47.80471" lon="7.03658">
        <ele>655.28</ele>
        <time>2021-10-25T11:19:43Z</time>
      </trkpt>
      <trkpt lat="47.80467" lon="7.03661">
        <ele>655.76</ele>
        <time>2021-10-25T11:19:44Z</time>
      </trkpt>
      <trkpt lat="47.80463" lon="7.03662">
        <ele>657.2</ele>
        <time>2021-10-25T11:19:45Z</time>
      </trkpt>
      <trkpt lat="47.80458" lon="7.03663">
        <ele>656.72</ele>
        <time>2021-10-25T11:19:46Z</time>
      </trkpt>
      <trkpt lat="47.80453" lon="7.03664">
        <ele>656.24</ele>
        <time>2021-10-25T11:19:47Z</time>
      </trkpt>
      <trkpt lat="47.80448" lon="7.03666">
        <ele>656.24</ele>
        <time>2021-10-25T11:19:48Z</time>
      </trkpt>
      <trkpt lat="47.80444" lon="7.03669">
        <ele>656.72</ele>
        <time>2021-10-25T11:19:49Z</time>
      </trkpt>
      <trkpt lat="47.8044" lon="7.03673">
        <ele>656.72</ele>
        <time>2021-10-25T11:19:50Z</time>
      </trkpt>
      <trkpt lat="47.80437" lon="7.03679">
        <ele>657.2</ele>
        <time>2021-10-25T11:19:51Z</time>
      </trkpt>
      <trkpt lat="47.80434" lon="7.03684">
        <ele>657.2</ele>
        <time>2021-10-25T11:19:52Z</time>
      </trkpt>
      <trkpt lat="47.80432" lon="7.0369">
        <ele>657.68</ele>
        <time>2021-10-25T11:19:53Z</time>
      </trkpt>
      <trkpt lat="47.8043" lon="7.03696">
        <ele>657.68</ele>
        <time>2021-10-25T11:19:54Z</time>
      </trkpt>
      <trkpt lat="47.80428" lon="7.03702">
        <ele>658.16</ele>
        <time>2021-10-25T11:19:55Z</time>
      </trkpt>
      <trkpt lat="47.80425" lon="7.03715">
        <ele>658.64</ele>
        <time>2021-10-25T11:19:57Z</time>
      </trkpt>
      <trkpt lat="47.80423" lon="7.03742">
        <ele>660.08</ele>
        <time>2021-10-25T11:20:01Z</time>
      </trkpt>
      <trkpt lat="47.80422" lon="7.03748">
        <ele>660.56</ele>
        <time>2021-10-25T11:20:02Z</time>
      </trkpt>
      <trkpt lat="47.80421" lon="7.03797">
        <ele>663.45</ele>
        <time>2021-10-25T11:20:10Z</time>
      </trkpt>
      <trkpt lat="47.80433" lon="7.0385">
        <ele>666.81</ele>
        <time>2021-10-25T11:20:20Z</time>
      </trkpt>
      <trkpt lat="47.80456" lon="7.03904">
        <ele>670.18</ele>
        <time>2021-10-25T11:20:30Z</time>
      </trkpt>
      <trkpt lat="47.80459" lon="7.03909">
        <ele>670.18</ele>
        <time>2021-10-25T11:20:31Z</time>
      </trkpt>
      <trkpt lat="47.80484" lon="7.03949">
        <ele>673.54</ele>
        <time>2021-10-25T11:20:40Z</time>
      </trkpt>
      <trkpt lat="47.80511" lon="7.0399">
        <ele>676.42</ele>
        <time>2021-10-25T11:20:50Z</time>
      </trkpt>
      <trkpt lat="47.80531" lon="7.0403">
        <ele>679.79</ele>
        <time>2021-10-25T11:20:59Z</time>
      </trkpt>
      <trkpt lat="47.80545" lon="7.04066">
        <ele>681.71</ele>
        <time>2021-10-25T11:21:06Z</time>
      </trkpt>
      <trkpt lat="47.80555" lon="7.04093">
        <ele>683.63</ele>
        <time>2021-10-25T11:21:11Z</time>
      </trkpt>
      <trkpt lat="47.80557" lon="7.04099">
        <ele>683.63</ele>
        <time>2021-10-25T11:21:12Z</time>
      </trkpt>
      <trkpt lat="47.80571" lon="7.04135">
        <ele>687</ele>
        <time>2021-10-25T11:21:19Z</time>
      </trkpt>
      <trkpt lat="47.80573" lon="7.04141">
        <ele>687</ele>
        <time>2021-10-25T11:21:20Z</time>
      </trkpt>
      <trkpt lat="47.80595" lon="7.0419">
        <ele>690.36</ele>
        <time>2021-10-25T11:21:29Z</time>
      </trkpt>
      <trkpt lat="47.80614" lon="7.04225">
        <ele>693.25</ele>
        <time>2021-10-25T11:21:36Z</time>
      </trkpt>
      <trkpt lat="47.80616" lon="7.0423">
        <ele>693.25</ele>
        <time>2021-10-25T11:21:37Z</time>
      </trkpt>
      <trkpt lat="47.80644" lon="7.04266">
        <ele>697.57</ele>
        <time>2021-10-25T11:21:46Z</time>
      </trkpt>
      <trkpt lat="47.80662" lon="7.04289">
        <ele>694.69</ele>
        <time>2021-10-25T11:21:51Z</time>
      </trkpt>
      <trkpt lat="47.80666" lon="7.04295">
        <ele>694.21</ele>
        <time>2021-10-25T11:21:52Z</time>
      </trkpt>
      <trkpt lat="47.8067" lon="7.04301">
        <ele>694.21</ele>
        <time>2021-10-25T11:21:53Z</time>
      </trkpt>
      <trkpt lat="47.80718" lon="7.04395">
        <ele>690.84</ele>
        <time>2021-10-25T11:22:04Z</time>
      </trkpt>
      <trkpt lat="47.80747" lon="7.04462">
        <ele>687.96</ele>
        <time>2021-10-25T11:22:11Z</time>
      </trkpt>
      <trkpt lat="47.80752" lon="7.04471">
        <ele>687.48</ele>
        <time>2021-10-25T11:22:12Z</time>
      </trkpt>
      <trkpt lat="47.80758" lon="7.0448">
        <ele>687</ele>
        <time>2021-10-25T11:22:13Z</time>
      </trkpt>
      <trkpt lat="47.80774" lon="7.04507">
        <ele>686.04</ele>
        <time>2021-10-25T11:22:16Z</time>
      </trkpt>
      <trkpt lat="47.80798" lon="7.04558">
        <ele>684.12</ele>
        <time>2021-10-25T11:22:21Z</time>
      </trkpt>
      <trkpt lat="47.80805" lon="7.04567">
        <ele>683.63</ele>
        <time>2021-10-25T11:22:22Z</time>
      </trkpt>
      <trkpt lat="47.80811" lon="7.04574">
        <ele>683.15</ele>
        <time>2021-10-25T11:22:23Z</time>
      </trkpt>
      <trkpt lat="47.80819" lon="7.0458">
        <ele>682.67</ele>
        <time>2021-10-25T11:22:24Z</time>
      </trkpt>
      <trkpt lat="47.80826" lon="7.04584">
        <ele>681.71</ele>
        <time>2021-10-25T11:22:25Z</time>
      </trkpt>
      <trkpt lat="47.80835" lon="7.04585">
        <ele>681.23</ele>
        <time>2021-10-25T11:22:26Z</time>
      </trkpt>
      <trkpt lat="47.80843" lon="7.04586">
        <ele>680.75</ele>
        <time>2021-10-25T11:22:27Z</time>
      </trkpt>
      <trkpt lat="47.80852" lon="7.04586">
        <ele>680.27</ele>
        <time>2021-10-25T11:22:28Z</time>
      </trkpt>
      <trkpt lat="47.80861" lon="7.04589">
        <ele>679.79</ele>
        <time>2021-10-25T11:22:29Z</time>
      </trkpt>
      <trkpt lat="47.80869" lon="7.04594">
        <ele>678.83</ele>
        <time>2021-10-25T11:22:30Z</time>
      </trkpt>
      <trkpt lat="47.80878" lon="7.04602">
        <ele>677.39</ele>
        <time>2021-10-25T11:22:31Z</time>
      </trkpt>
      <trkpt lat="47.80886" lon="7.0461">
        <ele>675.94</ele>
        <time>2021-10-25T11:22:32Z</time>
      </trkpt>
      <trkpt lat="47.80915" lon="7.04638">
        <ele>673.06</ele>
        <time>2021-10-25T11:22:35Z</time>
      </trkpt>
      <trkpt lat="47.80936" lon="7.04658">
        <ele>670.66</ele>
        <time>2021-10-25T11:22:37Z</time>
      </trkpt>
      <trkpt lat="47.80948" lon="7.04669">
        <ele>669.22</ele>
        <time>2021-10-25T11:22:38Z</time>
      </trkpt>
      <trkpt lat="47.80959" lon="7.04681">
        <ele>667.77</ele>
        <time>2021-10-25T11:22:39Z</time>
      </trkpt>
      <trkpt lat="47.8097" lon="7.04695">
        <ele>666.33</ele>
        <time>2021-10-25T11:22:40Z</time>
      </trkpt>
      <trkpt lat="47.80982" lon="7.0471">
        <ele>664.89</ele>
        <time>2021-10-25T11:22:41Z</time>
      </trkpt>
      <trkpt lat="47.80993" lon="7.04723">
        <ele>662.97</ele>
        <time>2021-10-25T11:22:42Z</time>
      </trkpt>
      <trkpt lat="47.81014" lon="7.04745">
        <ele>660.08</ele>
        <time>2021-10-25T11:22:44Z</time>
      </trkpt>
      <trkpt lat="47.81024" lon="7.04755">
        <ele>658.64</ele>
        <time>2021-10-25T11:22:45Z</time>
      </trkpt>
      <trkpt lat="47.81025" lon="7.0477">
        <ele>657.2</ele>
        <time>2021-10-25T11:22:46Z</time>
      </trkpt>
      <trkpt lat="47.81015" lon="7.04792">
        <ele>656.24</ele>
        <time>2021-10-25T11:22:47Z</time>
      </trkpt>
      <trkpt lat="47.8102" lon="7.048">
        <ele>655.28</ele>
        <time>2021-10-25T11:22:48Z</time>
      </trkpt>
      <trkpt lat="47.81027" lon="7.04803">
        <ele>654.31</ele>
        <time>2021-10-25T11:22:49Z</time>
      </trkpt>
      <trkpt lat="47.81036" lon="7.04803">
        <ele>653.35</ele>
        <time>2021-10-25T11:22:50Z</time>
      </trkpt>
      <trkpt lat="47.81057" lon="7.04801">
        <ele>650.47</ele>
        <time>2021-10-25T11:22:52Z</time>
      </trkpt>
      <trkpt lat="47.8108" lon="7.048">
        <ele>649.03</ele>
        <time>2021-10-25T11:22:54Z</time>
      </trkpt>
      <trkpt lat="47.81105" lon="7.04804">
        <ele>645.18</ele>
        <time>2021-10-25T11:22:56Z</time>
      </trkpt>
      <trkpt lat="47.81118" lon="7.04812">
        <ele>643.74</ele>
        <time>2021-10-25T11:22:57Z</time>
      </trkpt>
      <trkpt lat="47.81132" lon="7.04821">
        <ele>642.3</ele>
        <time>2021-10-25T11:22:58Z</time>
      </trkpt>
      <trkpt lat="47.81146" lon="7.04831">
        <ele>640.38</ele>
        <time>2021-10-25T11:22:59Z</time>
      </trkpt>
      <trkpt lat="47.81159" lon="7.04843">
        <ele>638.93</ele>
        <time>2021-10-25T11:23:00Z</time>
      </trkpt>
      <trkpt lat="47.8117" lon="7.04857">
        <ele>637.49</ele>
        <time>2021-10-25T11:23:01Z</time>
      </trkpt>
      <trkpt lat="47.81181" lon="7.04871">
        <ele>635.57</ele>
        <time>2021-10-25T11:23:02Z</time>
      </trkpt>
      <trkpt lat="47.81193" lon="7.04887">
        <ele>634.13</ele>
        <time>2021-10-25T11:23:03Z</time>
      </trkpt>
      <trkpt lat="47.81205" lon="7.04902">
        <ele>632.68</ele>
        <time>2021-10-25T11:23:04Z</time>
      </trkpt>
      <trkpt lat="47.81216" lon="7.04918">
        <ele>631.24</ele>
        <time>2021-10-25T11:23:05Z</time>
      </trkpt>
      <trkpt lat="47.81228" lon="7.04933">
        <ele>629.8</ele>
        <time>2021-10-25T11:23:06Z</time>
      </trkpt>
      <trkpt lat="47.81267" lon="7.04982">
        <ele>625.47</ele>
        <time>2021-10-25T11:23:09Z</time>
      </trkpt>
      <trkpt lat="47.81275" lon="7.04991">
        <ele>625.47</ele>
        <time>2021-10-25T11:23:10Z</time>
      </trkpt>
      <trkpt lat="47.8131" lon="7.05037">
        <ele>621.63</ele>
        <time>2021-10-25T11:23:13Z</time>
      </trkpt>
      <trkpt lat="47.81335" lon="7.05079">
        <ele>620.19</ele>
        <time>2021-10-25T11:23:16Z</time>
      </trkpt>
      <trkpt lat="47.81365" lon="7.05142">
        <ele>616.82</ele>
        <time>2021-10-25T11:23:20Z</time>
      </trkpt>
      <trkpt lat="47.8139" lon="7.05203">
        <ele>613.46</ele>
        <time>2021-10-25T11:23:24Z</time>
      </trkpt>
      <trkpt lat="47.81402" lon="7.05241">
        <ele>612.02</ele>
        <time>2021-10-25T11:23:26Z</time>
      </trkpt>
      <trkpt lat="47.81417" lon="7.05316">
        <ele>608.65</ele>
        <time>2021-10-25T11:23:30Z</time>
      </trkpt>
      <trkpt lat="47.81422" lon="7.05342">
        <ele>607.69</ele>
        <time>2021-10-25T11:23:32Z</time>
      </trkpt>
      <trkpt lat="47.81427" lon="7.05357">
        <ele>607.21</ele>
        <time>2021-10-25T11:23:33Z</time>
      </trkpt>
      <trkpt lat="47.81459" lon="7.0541">
        <ele>603.85</ele>
        <time>2021-10-25T11:23:37Z</time>
      </trkpt>
      <trkpt lat="47.81474" lon="7.05428">
        <ele>603.36</ele>
        <time>2021-10-25T11:23:39Z</time>
      </trkpt>
      <trkpt lat="47.81506" lon="7.0546">
        <ele>599.52</ele>
        <time>2021-10-25T11:23:43Z</time>
      </trkpt>
      <trkpt lat="47.81533" lon="7.05479">
        <ele>598.08</ele>
        <time>2021-10-25T11:23:46Z</time>
      </trkpt>
      <trkpt lat="47.8153" lon="7.05495">
        <ele>596.64</ele>
        <time>2021-10-25T11:23:47Z</time>
      </trkpt>
      <trkpt lat="47.81538" lon="7.05501">
        <ele>594.71</ele>
        <time>2021-10-25T11:23:48Z</time>
      </trkpt>
      <trkpt lat="47.81529" lon="7.05513">
        <ele>593.75</ele>
        <time>2021-10-25T11:23:49Z</time>
      </trkpt>
      <trkpt lat="47.8153" lon="7.0552">
        <ele>592.79</ele>
        <time>2021-10-25T11:23:50Z</time>
      </trkpt>
      <trkpt lat="47.81523" lon="7.05529">
        <ele>591.83</ele>
        <time>2021-10-25T11:23:51Z</time>
      </trkpt>
      <trkpt lat="47.81515" lon="7.05538">
        <ele>591.35</ele>
        <time>2021-10-25T11:23:52Z</time>
      </trkpt>
      <trkpt lat="47.8151" lon="7.05547">
        <ele>590.39</ele>
        <time>2021-10-25T11:23:53Z</time>
      </trkpt>
      <trkpt lat="47.81504" lon="7.05555">
        <ele>589.43</ele>
        <time>2021-10-25T11:23:54Z</time>
      </trkpt>
      <trkpt lat="47.81498" lon="7.05563">
        <ele>588.46</ele>
        <time>2021-10-25T11:23:55Z</time>
      </trkpt>
      <trkpt lat="47.81483" lon="7.05595">
        <ele>586.06</ele>
        <time>2021-10-25T11:23:58Z</time>
      </trkpt>
      <trkpt lat="47.81479" lon="7.05608">
        <ele>585.1</ele>
        <time>2021-10-25T11:23:59Z</time>
      </trkpt>
      <trkpt lat="47.81476" lon="7.05623">
        <ele>583.66</ele>
        <time>2021-10-25T11:24:00Z</time>
      </trkpt>
      <trkpt lat="47.81464" lon="7.05657">
        <ele>581.25</ele>
        <time>2021-10-25T11:24:02Z</time>
      </trkpt>
      <trkpt lat="47.81447" lon="7.05711">
        <ele>576.93</ele>
        <time>2021-10-25T11:24:05Z</time>
      </trkpt>
      <trkpt lat="47.81434" lon="7.05757">
        <ele>573.08</ele>
        <time>2021-10-25T11:24:08Z</time>
      </trkpt>
      <trkpt lat="47.81428" lon="7.05808">
        <ele>570.68</ele>
        <time>2021-10-25T11:24:15Z</time>
      </trkpt>
      <trkpt lat="47.81428" lon="7.05813">
        <ele>570.68</ele>
        <time>2021-10-25T11:24:16Z</time>
      </trkpt>
      <trkpt lat="47.81429" lon="7.05818">
        <ele>570.2</ele>
        <time>2021-10-25T11:24:17Z</time>
      </trkpt>
      <trkpt lat="47.81431" lon="7.05822">
        <ele>570.2</ele>
        <time>2021-10-25T11:24:18Z</time>
      </trkpt>
      <trkpt lat="47.81433" lon="7.05826">
        <ele>569.72</ele>
        <time>2021-10-25T11:24:19Z</time>
      </trkpt>
      <trkpt lat="47.81434" lon="7.0583">
        <ele>569.72</ele>
        <time>2021-10-25T11:24:20Z</time>
      </trkpt>
      <trkpt lat="47.81435" lon="7.05833">
        <ele>569.24</ele>
        <time>2021-10-25T11:24:21Z</time>
      </trkpt>
      <trkpt lat="47.81452" lon="7.05849">
        <ele>567.8</ele>
        <time>2021-10-25T11:24:31Z</time>
      </trkpt>
      <trkpt lat="47.81454" lon="7.05853">
        <ele>567.8</ele>
        <time>2021-10-25T11:24:33Z</time>
      </trkpt>
      <trkpt lat="47.81454" lon="7.05856">
        <ele>567.8</ele>
        <time>2021-10-25T11:24:34Z</time>
      </trkpt>
      <trkpt lat="47.81452" lon="7.0586">
        <ele>567.32</ele>
        <time>2021-10-25T11:24:35Z</time>
      </trkpt>
      <trkpt lat="47.81451" lon="7.05863">
        <ele>567.32</ele>
        <time>2021-10-25T11:24:36Z</time>
      </trkpt>
      <trkpt lat="47.8145" lon="7.05866">
        <ele>567.32</ele>
        <time>2021-10-25T11:24:37Z</time>
      </trkpt>
      <trkpt lat="47.8145" lon="7.0587">
        <ele>566.83</ele>
        <time>2021-10-25T11:24:38Z</time>
      </trkpt>
      <trkpt lat="47.8145" lon="7.05875">
        <ele>566.35</ele>
        <time>2021-10-25T11:24:39Z</time>
      </trkpt>
      <trkpt lat="47.81449" lon="7.0588">
        <ele>566.35</ele>
        <time>2021-10-25T11:24:40Z</time>
      </trkpt>
      <trkpt lat="47.81448" lon="7.05885">
        <ele>565.87</ele>
        <time>2021-10-25T11:24:41Z</time>
      </trkpt>
      <trkpt lat="47.81448" lon="7.05888">
        <ele>565.39</ele>
        <time>2021-10-25T11:24:42Z</time>
      </trkpt>
      <trkpt lat="47.81446" lon="7.05905">
        <ele>564.43</ele>
        <time>2021-10-25T11:24:44Z</time>
      </trkpt>
      <trkpt lat="47.81447" lon="7.05913">
        <ele>563.95</ele>
        <time>2021-10-25T11:24:45Z</time>
      </trkpt>
      <trkpt lat="47.81449" lon="7.05928">
        <ele>563.95</ele>
        <time>2021-10-25T11:24:47Z</time>
      </trkpt>
      <trkpt lat="47.8145" lon="7.05943">
        <ele>563.95</ele>
        <time>2021-10-25T11:24:49Z</time>
      </trkpt>
      <trkpt lat="47.81452" lon="7.05949">
        <ele>563.95</ele>
        <time>2021-10-25T11:24:50Z</time>
      </trkpt>
      <trkpt lat="47.81454" lon="7.05956">
        <ele>563.95</ele>
        <time>2021-10-25T11:24:51Z</time>
      </trkpt>
      <trkpt lat="47.81457" lon="7.05962">
        <ele>563.95</ele>
        <time>2021-10-25T11:24:52Z</time>
      </trkpt>
      <trkpt lat="47.81459" lon="7.05968">
        <ele>563.95</ele>
        <time>2021-10-25T11:24:53Z</time>
      </trkpt>
      <trkpt lat="47.81462" lon="7.05975">
        <ele>563.95</ele>
        <time>2021-10-25T11:24:54Z</time>
      </trkpt>
      <trkpt lat="47.81464" lon="7.05983">
        <ele>563.95</ele>
        <time>2021-10-25T11:24:55Z</time>
      </trkpt>
      <trkpt lat="47.81466" lon="7.0599">
        <ele>563.95</ele>
        <time>2021-10-25T11:24:56Z</time>
      </trkpt>
      <trkpt lat="47.8147" lon="7.06005">
        <ele>563.95</ele>
        <time>2021-10-25T11:24:58Z</time>
      </trkpt>
      <trkpt lat="47.81472" lon="7.06012">
        <ele>563.95</ele>
        <time>2021-10-25T11:24:59Z</time>
      </trkpt>
      <trkpt lat="47.81477" lon="7.06039">
        <ele>563.95</ele>
        <time>2021-10-25T11:25:03Z</time>
      </trkpt>
      <trkpt lat="47.81479" lon="7.0606">
        <ele>563.95</ele>
        <time>2021-10-25T11:25:06Z</time>
      </trkpt>
      <trkpt lat="47.8148" lon="7.06092">
        <ele>563.47</ele>
        <time>2021-10-25T11:25:10Z</time>
      </trkpt>
      <trkpt lat="47.81483" lon="7.06106">
        <ele>563.47</ele>
        <time>2021-10-25T11:25:12Z</time>
      </trkpt>
      <trkpt lat="47.81484" lon="7.06114">
        <ele>563.47</ele>
        <time>2021-10-25T11:25:13Z</time>
      </trkpt>
      <trkpt lat="47.81495" lon="7.06172">
        <ele>563.47</ele>
        <time>2021-10-25T11:25:23Z</time>
      </trkpt>
      <trkpt lat="47.81512" lon="7.06245">
        <ele>562.99</ele>
        <time>2021-10-25T11:25:34Z</time>
      </trkpt>
      <trkpt lat="47.8153" lon="7.06314">
        <ele>562.03</ele>
        <time>2021-10-25T11:25:44Z</time>
      </trkpt>
      <trkpt lat="47.81538" lon="7.06336">
        <ele>562.03</ele>
        <time>2021-10-25T11:25:46Z</time>
      </trkpt>
      <trkpt lat="47.81545" lon="7.06355">
        <ele>562.99</ele>
        <time>2021-10-25T11:25:48Z</time>
      </trkpt>
      <trkpt lat="47.81549" lon="7.06363">
        <ele>561.55</ele>
        <time>2021-10-25T11:25:49Z</time>
      </trkpt>
      <trkpt lat="47.81552" lon="7.06371">
        <ele>561.55</ele>
        <time>2021-10-25T11:25:50Z</time>
      </trkpt>
      <trkpt lat="47.81554" lon="7.0638">
        <ele>561.55</ele>
        <time>2021-10-25T11:25:51Z</time>
      </trkpt>
      <trkpt lat="47.81556" lon="7.0639">
        <ele>561.07</ele>
        <time>2021-10-25T11:25:52Z</time>
      </trkpt>
      <trkpt lat="47.81559" lon="7.06399">
        <ele>561.07</ele>
        <time>2021-10-25T11:25:53Z</time>
      </trkpt>
      <trkpt lat="47.81561" lon="7.06407">
        <ele>561.07</ele>
        <time>2021-10-25T11:25:54Z</time>
      </trkpt>
      <trkpt lat="47.81564" lon="7.06415">
        <ele>561.07</ele>
        <time>2021-10-25T11:25:55Z</time>
      </trkpt>
      <trkpt lat="47.81568" lon="7.0646">
        <ele>560.59</ele>
        <time>2021-10-25T11:26:01Z</time>
      </trkpt>
      <trkpt lat="47.81568" lon="7.06467">
        <ele>560.59</ele>
        <time>2021-10-25T11:26:02Z</time>
      </trkpt>
      <trkpt lat="47.81564" lon="7.06509">
        <ele>559.62</ele>
        <time>2021-10-25T11:26:09Z</time>
      </trkpt>
      <trkpt lat="47.81563" lon="7.06515">
        <ele>559.14</ele>
        <time>2021-10-25T11:26:10Z</time>
      </trkpt>
      <trkpt lat="47.81562" lon="7.06521">
        <ele>559.14</ele>
        <time>2021-10-25T11:26:11Z</time>
      </trkpt>
      <trkpt lat="47.8156" lon="7.06546">
        <ele>558.66</ele>
        <time>2021-10-25T11:26:14Z</time>
      </trkpt>
      <trkpt lat="47.81558" lon="7.06556">
        <ele>558.66</ele>
        <time>2021-10-25T11:26:15Z</time>
      </trkpt>
      <trkpt lat="47.81557" lon="7.06566">
        <ele>558.66</ele>
        <time>2021-10-25T11:26:16Z</time>
      </trkpt>
      <trkpt lat="47.81557" lon="7.06575">
        <ele>558.18</ele>
        <time>2021-10-25T11:26:17Z</time>
      </trkpt>
      <trkpt lat="47.81555" lon="7.06583">
        <ele>558.18</ele>
        <time>2021-10-25T11:26:18Z</time>
      </trkpt>
      <trkpt lat="47.81553" lon="7.06591">
        <ele>558.18</ele>
        <time>2021-10-25T11:26:19Z</time>
      </trkpt>
      <trkpt lat="47.81547" lon="7.06614">
        <ele>558.18</ele>
        <time>2021-10-25T11:26:22Z</time>
      </trkpt>
      <trkpt lat="47.81525" lon="7.06652">
        <ele>556.74</ele>
        <time>2021-10-25T11:26:30Z</time>
      </trkpt>
      <trkpt lat="47.8149" lon="7.06672">
        <ele>555.3</ele>
        <time>2021-10-25T11:26:39Z</time>
      </trkpt>
      <trkpt lat="47.81485" lon="7.06674">
        <ele>555.3</ele>
        <time>2021-10-25T11:26:40Z</time>
      </trkpt>
      <trkpt lat="47.81461" lon="7.06678">
        <ele>554.82</ele>
        <time>2021-10-25T11:26:44Z</time>
      </trkpt>
      <trkpt lat="47.81456" lon="7.06679">
        <ele>554.82</ele>
        <time>2021-10-25T11:26:45Z</time>
      </trkpt>
      <trkpt lat="47.81449" lon="7.06682">
        <ele>554.34</ele>
        <time>2021-10-25T11:26:46Z</time>
      </trkpt>
      <trkpt lat="47.81444" lon="7.06683">
        <ele>554.34</ele>
        <time>2021-10-25T11:26:47Z</time>
      </trkpt>
      <trkpt lat="47.81439" lon="7.06685">
        <ele>553.86</ele>
        <time>2021-10-25T11:26:48Z</time>
      </trkpt>
      <trkpt lat="47.81435" lon="7.06686">
        <ele>553.38</ele>
        <time>2021-10-25T11:26:49Z</time>
      </trkpt>
      <trkpt lat="47.8143" lon="7.06688">
        <ele>552.9</ele>
        <time>2021-10-25T11:26:50Z</time>
      </trkpt>
      <trkpt lat="47.81426" lon="7.0669">
        <ele>552.9</ele>
        <time>2021-10-25T11:26:51Z</time>
      </trkpt>
      <trkpt lat="47.81421" lon="7.06693">
        <ele>552.41</ele>
        <time>2021-10-25T11:26:52Z</time>
      </trkpt>
      <trkpt lat="47.81417" lon="7.06697">
        <ele>551.93</ele>
        <time>2021-10-25T11:26:53Z</time>
      </trkpt>
      <trkpt lat="47.8141" lon="7.06703">
        <ele>551.45</ele>
        <time>2021-10-25T11:26:54Z</time>
      </trkpt>
      <trkpt lat="47.81403" lon="7.06708">
        <ele>551.45</ele>
        <time>2021-10-25T11:26:55Z</time>
      </trkpt>
      <trkpt lat="47.81396" lon="7.06713">
        <ele>550.97</ele>
        <time>2021-10-25T11:26:56Z</time>
      </trkpt>
      <trkpt lat="47.81389" lon="7.06717">
        <ele>550.49</ele>
        <time>2021-10-25T11:26:57Z</time>
      </trkpt>
      <trkpt lat="47.81382" lon="7.06723">
        <ele>550.01</ele>
        <time>2021-10-25T11:26:58Z</time>
      </trkpt>
      <trkpt lat="47.81365" lon="7.06736">
        <ele>549.05</ele>
        <time>2021-10-25T11:27:00Z</time>
      </trkpt>
      <trkpt lat="47.81326" lon="7.06777">
        <ele>547.13</ele>
        <time>2021-10-25T11:27:05Z</time>
      </trkpt>
      <trkpt lat="47.81285" lon="7.06836">
        <ele>544.24</ele>
        <time>2021-10-25T11:27:11Z</time>
      </trkpt>
      <trkpt lat="47.81281" lon="7.06848">
        <ele>544.24</ele>
        <time>2021-10-25T11:27:12Z</time>
      </trkpt>
      <trkpt lat="47.81278" lon="7.06859">
        <ele>543.28</ele>
        <time>2021-10-25T11:27:13Z</time>
      </trkpt>
      <trkpt lat="47.81276" lon="7.0687">
        <ele>543.28</ele>
        <time>2021-10-25T11:27:14Z</time>
      </trkpt>
      <trkpt lat="47.81276" lon="7.0688">
        <ele>542.8</ele>
        <time>2021-10-25T11:27:15Z</time>
      </trkpt>
      <trkpt lat="47.81276" lon="7.0689">
        <ele>542.32</ele>
        <time>2021-10-25T11:27:16Z</time>
      </trkpt>
      <trkpt lat="47.81277" lon="7.06899">
        <ele>542.32</ele>
        <time>2021-10-25T11:27:17Z</time>
      </trkpt>
      <trkpt lat="47.81277" lon="7.06907">
        <ele>541.84</ele>
        <time>2021-10-25T11:27:18Z</time>
      </trkpt>
      <trkpt lat="47.81277" lon="7.06916">
        <ele>541.36</ele>
        <time>2021-10-25T11:27:19Z</time>
      </trkpt>
      <trkpt lat="47.81275" lon="7.06925">
        <ele>540.88</ele>
        <time>2021-10-25T11:27:20Z</time>
      </trkpt>
      <trkpt lat="47.81273" lon="7.06934">
        <ele>540.4</ele>
        <time>2021-10-25T11:27:21Z</time>
      </trkpt>
      <trkpt lat="47.8127" lon="7.06942">
        <ele>540.4</ele>
        <time>2021-10-25T11:27:22Z</time>
      </trkpt>
      <trkpt lat="47.81267" lon="7.06948">
        <ele>539.44</ele>
        <time>2021-10-25T11:27:23Z</time>
      </trkpt>
      <trkpt lat="47.81262" lon="7.06954">
        <ele>538.96</ele>
        <time>2021-10-25T11:27:24Z</time>
      </trkpt>
      <trkpt lat="47.81257" lon="7.06959">
        <ele>538.48</ele>
        <time>2021-10-25T11:27:25Z</time>
      </trkpt>
      <trkpt lat="47.81251" lon="7.06965">
        <ele>537.99</ele>
        <time>2021-10-25T11:27:26Z</time>
      </trkpt>
      <trkpt lat="47.81245" lon="7.06971">
        <ele>537.51</ele>
        <time>2021-10-25T11:27:27Z</time>
      </trkpt>
      <trkpt lat="47.81238" lon="7.06977">
        <ele>537.03</ele>
        <time>2021-10-25T11:27:28Z</time>
      </trkpt>
      <trkpt lat="47.81231" lon="7.06984">
        <ele>536.55</ele>
        <time>2021-10-25T11:27:29Z</time>
      </trkpt>
      <trkpt lat="47.81214" lon="7.07003">
        <ele>535.11</ele>
        <time>2021-10-25T11:27:32Z</time>
      </trkpt>
      <trkpt lat="47.81207" lon="7.07009">
        <ele>534.63</ele>
        <time>2021-10-25T11:27:33Z</time>
      </trkpt>
      <trkpt lat="47.812" lon="7.07013">
        <ele>534.15</ele>
        <time>2021-10-25T11:27:34Z</time>
      </trkpt>
      <trkpt lat="47.81192" lon="7.07015">
        <ele>533.67</ele>
        <time>2021-10-25T11:27:35Z</time>
      </trkpt>
      <trkpt lat="47.81185" lon="7.07017">
        <ele>533.19</ele>
        <time>2021-10-25T11:27:36Z</time>
      </trkpt>
      <trkpt lat="47.81178" lon="7.07018">
        <ele>532.71</ele>
        <time>2021-10-25T11:27:37Z</time>
      </trkpt>
      <trkpt lat="47.81171" lon="7.0702">
        <ele>532.23</ele>
        <time>2021-10-25T11:27:38Z</time>
      </trkpt>
      <trkpt lat="47.8116" lon="7.07026">
        <ele>531.75</ele>
        <time>2021-10-25T11:27:40Z</time>
      </trkpt>
      <trkpt lat="47.81155" lon="7.07031">
        <ele>531.27</ele>
        <time>2021-10-25T11:27:41Z</time>
      </trkpt>
      <trkpt lat="47.8115" lon="7.07037">
        <ele>530.79</ele>
        <time>2021-10-25T11:27:42Z</time>
      </trkpt>
      <trkpt lat="47.81145" lon="7.07044">
        <ele>530.79</ele>
        <time>2021-10-25T11:27:43Z</time>
      </trkpt>
      <trkpt lat="47.81142" lon="7.07052">
        <ele>530.3</ele>
        <time>2021-10-25T11:27:44Z</time>
      </trkpt>
      <trkpt lat="47.81139" lon="7.0706">
        <ele>529.34</ele>
        <time>2021-10-25T11:27:45Z</time>
      </trkpt>
      <trkpt lat="47.81137" lon="7.07068">
        <ele>529.34</ele>
        <time>2021-10-25T11:27:46Z</time>
      </trkpt>
      <trkpt lat="47.81129" lon="7.07101">
        <ele>528.86</ele>
        <time>2021-10-25T11:27:49Z</time>
      </trkpt>
      <trkpt lat="47.81123" lon="7.07149">
        <ele>525.5</ele>
        <time>2021-10-25T11:27:53Z</time>
      </trkpt>
      <trkpt lat="47.81118" lon="7.07211">
        <ele>523.09</ele>
        <time>2021-10-25T11:27:58Z</time>
      </trkpt>
      <trkpt lat="47.81118" lon="7.07289">
        <ele>519.73</ele>
        <time>2021-10-25T11:28:04Z</time>
      </trkpt>
      <trkpt lat="47.8112" lon="7.07312">
        <ele>518.77</ele>
        <time>2021-10-25T11:28:06Z</time>
      </trkpt>
      <trkpt lat="47.81121" lon="7.07323">
        <ele>518.29</ele>
        <time>2021-10-25T11:28:07Z</time>
      </trkpt>
      <trkpt lat="47.81122" lon="7.07334">
        <ele>517.81</ele>
        <time>2021-10-25T11:28:08Z</time>
      </trkpt>
      <trkpt lat="47.81124" lon="7.07344">
        <ele>517.33</ele>
        <time>2021-10-25T11:28:09Z</time>
      </trkpt>
      <trkpt lat="47.81127" lon="7.07355">
        <ele>516.85</ele>
        <time>2021-10-25T11:28:10Z</time>
      </trkpt>
      <trkpt lat="47.8113" lon="7.07364">
        <ele>516.37</ele>
        <time>2021-10-25T11:28:11Z</time>
      </trkpt>
      <trkpt lat="47.81134" lon="7.07371">
        <ele>515.88</ele>
        <time>2021-10-25T11:28:12Z</time>
      </trkpt>
      <trkpt lat="47.81142" lon="7.07387">
        <ele>514.92</ele>
        <time>2021-10-25T11:28:14Z</time>
      </trkpt>
      <trkpt lat="47.81147" lon="7.07396">
        <ele>514.44</ele>
        <time>2021-10-25T11:28:15Z</time>
      </trkpt>
      <trkpt lat="47.81151" lon="7.07407">
        <ele>513.48</ele>
        <time>2021-10-25T11:28:16Z</time>
      </trkpt>
      <trkpt lat="47.81178" lon="7.07466">
        <ele>510.6</ele>
        <time>2021-10-25T11:28:22Z</time>
      </trkpt>
      <trkpt lat="47.81183" lon="7.07476">
        <ele>510.12</ele>
        <time>2021-10-25T11:28:23Z</time>
      </trkpt>
      <trkpt lat="47.81188" lon="7.07487">
        <ele>509.64</ele>
        <time>2021-10-25T11:28:24Z</time>
      </trkpt>
      <trkpt lat="47.8119" lon="7.07499">
        <ele>508.67</ele>
        <time>2021-10-25T11:28:25Z</time>
      </trkpt>
      <trkpt lat="47.8119" lon="7.07511">
        <ele>508.19</ele>
        <time>2021-10-25T11:28:26Z</time>
      </trkpt>
      <trkpt lat="47.81187" lon="7.07523">
        <ele>507.71</ele>
        <time>2021-10-25T11:28:27Z</time>
      </trkpt>
      <trkpt lat="47.81184" lon="7.07533">
        <ele>507.23</ele>
        <time>2021-10-25T11:28:28Z</time>
      </trkpt>
      <trkpt lat="47.81182" lon="7.07542">
        <ele>506.27</ele>
        <time>2021-10-25T11:28:29Z</time>
      </trkpt>
      <trkpt lat="47.81168" lon="7.07564">
        <ele>504.83</ele>
        <time>2021-10-25T11:28:36Z</time>
      </trkpt>
      <trkpt lat="47.81166" lon="7.0757">
        <ele>504.83</ele>
        <time>2021-10-25T11:28:51Z</time>
      </trkpt>
      <trkpt lat="47.81164" lon="7.07571">
        <ele>504.83</ele>
        <time>2021-10-25T11:28:52Z</time>
      </trkpt>
      <trkpt lat="47.81161" lon="7.07574">
        <ele>505.31</ele>
        <time>2021-10-25T11:28:55Z</time>
      </trkpt>
      <trkpt lat="47.8116" lon="7.07576">
        <ele>505.31</ele>
        <time>2021-10-25T11:28:56Z</time>
      </trkpt>
      <trkpt lat="47.81161" lon="7.07579">
        <ele>504.83</ele>
        <time>2021-10-25T11:28:57Z</time>
      </trkpt>
      <trkpt lat="47.81161" lon="7.07582">
        <ele>505.31</ele>
        <time>2021-10-25T11:28:58Z</time>
      </trkpt>
      <trkpt lat="47.81161" lon="7.07584">
        <ele>505.79</ele>
        <time>2021-10-25T11:28:59Z</time>
      </trkpt>
      <trkpt lat="47.81164" lon="7.07588">
        <ele>507.23</ele>
        <time>2021-10-25T11:29:02Z</time>
      </trkpt>
      <trkpt lat="47.81168" lon="7.07592">
        <ele>508.19</ele>
        <time>2021-10-25T11:29:07Z</time>
      </trkpt>
      <trkpt lat="47.81167" lon="7.0759">
        <ele>508.19</ele>
        <time>2021-10-25T11:29:08Z</time>
      </trkpt>
      <trkpt lat="47.81167" lon="7.07586">
        <ele>507.71</ele>
        <time>2021-10-25T11:29:09Z</time>
      </trkpt>
      <trkpt lat="47.81166" lon="7.07583">
        <ele>507.23</ele>
        <time>2021-10-25T11:29:10Z</time>
      </trkpt>
      <trkpt lat="47.81165" lon="7.0758">
        <ele>507.23</ele>
        <time>2021-10-25T11:29:11Z</time>
      </trkpt>
      <trkpt lat="47.81163" lon="7.07574">
        <ele>506.27</ele>
        <time>2021-10-25T11:29:14Z</time>
      </trkpt>
      <trkpt lat="47.81161" lon="7.07572">
        <ele>505.79</ele>
        <time>2021-10-25T11:29:15Z</time>
      </trkpt>
      <trkpt lat="47.81159" lon="7.07571">
        <ele>505.79</ele>
        <time>2021-10-25T11:29:16Z</time>
      </trkpt>
      <trkpt lat="47.81158" lon="7.07571">
        <ele>505.79</ele>
        <time>2021-10-25T11:29:17Z</time>
      </trkpt>
      <trkpt lat="47.81153" lon="7.07571">
        <ele>505.79</ele>
        <time>2021-10-25T11:29:19Z</time>
      </trkpt>
      <trkpt lat="47.81112" lon="7.07558">
        <ele>505.31</ele>
        <time>2021-10-25T11:29:29Z</time>
      </trkpt>
      <trkpt lat="47.81106" lon="7.07556">
        <ele>505.31</ele>
        <time>2021-10-25T11:29:30Z</time>
      </trkpt>
      <trkpt lat="47.81076" lon="7.07551">
        <ele>504.83</ele>
        <time>2021-10-25T11:29:35Z</time>
      </trkpt>
      <trkpt lat="47.81069" lon="7.07552">
        <ele>504.83</ele>
        <time>2021-10-25T11:29:36Z</time>
      </trkpt>
      <trkpt lat="47.81064" lon="7.07552">
        <ele>504.83</ele>
        <time>2021-10-25T11:29:37Z</time>
      </trkpt>
      <trkpt lat="47.81058" lon="7.07552">
        <ele>504.83</ele>
        <time>2021-10-25T11:29:38Z</time>
      </trkpt>
      <trkpt lat="47.81052" lon="7.07552">
        <ele>504.83</ele>
        <time>2021-10-25T11:29:39Z</time>
      </trkpt>
      <trkpt lat="47.81046" lon="7.07552">
        <ele>504.83</ele>
        <time>2021-10-25T11:29:40Z</time>
      </trkpt>
      <trkpt lat="47.8104" lon="7.07552">
        <ele>504.83</ele>
        <time>2021-10-25T11:29:41Z</time>
      </trkpt>
      <trkpt lat="47.81034" lon="7.07551">
        <ele>504.83</ele>
        <time>2021-10-25T11:29:42Z</time>
      </trkpt>
      <trkpt lat="47.81027" lon="7.07551">
        <ele>504.83</ele>
        <time>2021-10-25T11:29:43Z</time>
      </trkpt>
      <trkpt lat="47.81023" lon="7.07549">
        <ele>504.83</ele>
        <time>2021-10-25T11:29:44Z</time>
      </trkpt>
      <trkpt lat="47.80974" lon="7.07537">
        <ele>504.83</ele>
        <time>2021-10-25T11:29:56Z</time>
      </trkpt>
      <trkpt lat="47.8097" lon="7.07538">
        <ele>505.31</ele>
        <time>2021-10-25T11:29:57Z</time>
      </trkpt>
      <trkpt lat="47.80968" lon="7.0754">
        <ele>504.83</ele>
        <time>2021-10-25T11:29:58Z</time>
      </trkpt>
      <trkpt lat="47.80941" lon="7.076">
        <ele>504.35</ele>
        <time>2021-10-25T11:30:05Z</time>
      </trkpt>
      <trkpt lat="47.8094" lon="7.07608">
        <ele>504.35</ele>
        <time>2021-10-25T11:30:06Z</time>
      </trkpt>
      <trkpt lat="47.80941" lon="7.07615">
        <ele>504.35</ele>
        <time>2021-10-25T11:30:07Z</time>
      </trkpt>
      <trkpt lat="47.80948" lon="7.0765">
        <ele>504.35</ele>
        <time>2021-10-25T11:30:12Z</time>
      </trkpt>
      <trkpt lat="47.8095" lon="7.07657">
        <ele>504.83</ele>
        <time>2021-10-25T11:30:13Z</time>
      </trkpt>
      <trkpt lat="47.80952" lon="7.07663">
        <ele>504.35</ele>
        <time>2021-10-25T11:30:14Z</time>
      </trkpt>
      <trkpt lat="47.80964" lon="7.07699">
        <ele>504.35</ele>
        <time>2021-10-25T11:30:19Z</time>
      </trkpt>
      <trkpt lat="47.80966" lon="7.07707">
        <ele>504.35</ele>
        <time>2021-10-25T11:30:20Z</time>
      </trkpt>
      <trkpt lat="47.80968" lon="7.07715">
        <ele>504.35</ele>
        <time>2021-10-25T11:30:21Z</time>
      </trkpt>
      <trkpt lat="47.80971" lon="7.0773">
        <ele>503.87</ele>
        <time>2021-10-25T11:30:23Z</time>
      </trkpt>
      <trkpt lat="47.80978" lon="7.07752">
        <ele>504.35</ele>
        <time>2021-10-25T11:30:26Z</time>
      </trkpt>
      <trkpt lat="47.80987" lon="7.07782">
        <ele>503.87</ele>
        <time>2021-10-25T11:30:30Z</time>
      </trkpt>
      <trkpt lat="47.8099" lon="7.0779">
        <ele>503.87</ele>
        <time>2021-10-25T11:30:31Z</time>
      </trkpt>
      <trkpt lat="47.80992" lon="7.07798">
        <ele>503.87</ele>
        <time>2021-10-25T11:30:32Z</time>
      </trkpt>
      <trkpt lat="47.80994" lon="7.07806">
        <ele>503.87</ele>
        <time>2021-10-25T11:30:33Z</time>
      </trkpt>
      <trkpt lat="47.80995" lon="7.07814">
        <ele>503.87</ele>
        <time>2021-10-25T11:30:34Z</time>
      </trkpt>
      <trkpt lat="47.80997" lon="7.07833">
        <ele>503.39</ele>
        <time>2021-10-25T11:30:36Z</time>
      </trkpt>
      <trkpt lat="47.80998" lon="7.07863">
        <ele>500.98</ele>
        <time>2021-10-25T11:30:39Z</time>
      </trkpt>
      <trkpt lat="47.81003" lon="7.0791">
        <ele>498.58</ele>
        <time>2021-10-25T11:30:43Z</time>
      </trkpt>
      <trkpt lat="47.81009" lon="7.07933">
        <ele>497.62</ele>
        <time>2021-10-25T11:30:45Z</time>
      </trkpt>
      <trkpt lat="47.81013" lon="7.07944">
        <ele>496.66</ele>
        <time>2021-10-25T11:30:46Z</time>
      </trkpt>
      <trkpt lat="47.81016" lon="7.07954">
        <ele>496.18</ele>
        <time>2021-10-25T11:30:47Z</time>
      </trkpt>
      <trkpt lat="47.81018" lon="7.07966">
        <ele>495.7</ele>
        <time>2021-10-25T11:30:48Z</time>
      </trkpt>
      <trkpt lat="47.81019" lon="7.07977">
        <ele>495.22</ele>
        <time>2021-10-25T11:30:49Z</time>
      </trkpt>
      <trkpt lat="47.81019" lon="7.07989">
        <ele>494.74</ele>
        <time>2021-10-25T11:30:50Z</time>
      </trkpt>
      <trkpt lat="47.81018" lon="7.08">
        <ele>493.77</ele>
        <time>2021-10-25T11:30:51Z</time>
      </trkpt>
      <trkpt lat="47.81017" lon="7.08041">
        <ele>491.85</ele>
        <time>2021-10-25T11:30:54Z</time>
      </trkpt>
      <trkpt lat="47.81015" lon="7.08084">
        <ele>489.93</ele>
        <time>2021-10-25T11:30:57Z</time>
      </trkpt>
      <trkpt lat="47.81013" lon="7.08098">
        <ele>489.45</ele>
        <time>2021-10-25T11:30:58Z</time>
      </trkpt>
      <trkpt lat="47.80994" lon="7.08235">
        <ele>486.56</ele>
        <time>2021-10-25T11:31:09Z</time>
      </trkpt>
      <trkpt lat="47.80982" lon="7.0834">
        <ele>483.68</ele>
        <time>2021-10-25T11:31:19Z</time>
      </trkpt>
      <trkpt lat="47.80983" lon="7.08349">
        <ele>483.2</ele>
        <time>2021-10-25T11:31:20Z</time>
      </trkpt>
      <trkpt lat="47.80984" lon="7.08358">
        <ele>483.2</ele>
        <time>2021-10-25T11:31:21Z</time>
      </trkpt>
      <trkpt lat="47.80988" lon="7.08369">
        <ele>481.76</ele>
        <time>2021-10-25T11:31:27Z</time>
      </trkpt>
      <trkpt lat="47.80986" lon="7.08355">
        <ele>482.72</ele>
        <time>2021-10-25T11:31:37Z</time>
      </trkpt>
      <trkpt lat="47.80986" lon="7.08356">
        <ele>483.2</ele>
        <time>2021-10-25T11:32:00Z</time>
      </trkpt>
      <trkpt lat="47.80986" lon="7.08355">
        <ele>483.68</ele>
        <time>2021-10-25T11:32:21Z</time>
      </trkpt>
      <trkpt lat="47.80985" lon="7.08355">
        <ele>484.64</ele>
        <time>2021-10-25T11:32:50Z</time>
      </trkpt>
      <trkpt lat="47.80986" lon="7.08358">
        <ele>484.64</ele>
        <time>2021-10-25T11:32:59Z</time>
      </trkpt>
      <trkpt lat="47.80989" lon="7.08365">
        <ele>484.64</ele>
        <time>2021-10-25T11:33:02Z</time>
      </trkpt>
      <trkpt lat="47.81" lon="7.08374">
        <ele>484.64</ele>
        <time>2021-10-25T11:33:07Z</time>
      </trkpt>
      <trkpt lat="47.81036" lon="7.08378">
        <ele>485.6</ele>
        <time>2021-10-25T11:33:18Z</time>
      </trkpt>
      <trkpt lat="47.81057" lon="7.08383">
        <ele>485.6</ele>
        <time>2021-10-25T11:33:23Z</time>
      </trkpt>
      <trkpt lat="47.81062" lon="7.08386">
        <ele>485.6</ele>
        <time>2021-10-25T11:33:24Z</time>
      </trkpt>
      <trkpt lat="47.81066" lon="7.0839">
        <ele>485.6</ele>
        <time>2021-10-25T11:33:25Z</time>
      </trkpt>
      <trkpt lat="47.81071" lon="7.08396">
        <ele>485.12</ele>
        <time>2021-10-25T11:33:26Z</time>
      </trkpt>
      <trkpt lat="47.81075" lon="7.08404">
        <ele>484.64</ele>
        <time>2021-10-25T11:33:27Z</time>
      </trkpt>
      <trkpt lat="47.81079" lon="7.08413">
        <ele>483.2</ele>
        <time>2021-10-25T11:33:28Z</time>
      </trkpt>
      <trkpt lat="47.81089" lon="7.08431">
        <ele>480.8</ele>
        <time>2021-10-25T11:33:30Z</time>
      </trkpt>
      <trkpt lat="47.81103" lon="7.08457">
        <ele>477.43</ele>
        <time>2021-10-25T11:33:33Z</time>
      </trkpt>
      <trkpt lat="47.81112" lon="7.08484">
        <ele>474.55</ele>
        <time>2021-10-25T11:33:36Z</time>
      </trkpt>
      <trkpt lat="47.81112" lon="7.08493">
        <ele>473.59</ele>
        <time>2021-10-25T11:33:37Z</time>
      </trkpt>
      <trkpt lat="47.81111" lon="7.08502">
        <ele>472.14</ele>
        <time>2021-10-25T11:33:38Z</time>
      </trkpt>
      <trkpt lat="47.81104" lon="7.0853">
        <ele>468.78</ele>
        <time>2021-10-25T11:33:41Z</time>
      </trkpt>
      <trkpt lat="47.811" lon="7.08556">
        <ele>465.42</ele>
        <time>2021-10-25T11:33:44Z</time>
      </trkpt>
      <trkpt lat="47.81099" lon="7.08565">
        <ele>464.45</ele>
        <time>2021-10-25T11:33:45Z</time>
      </trkpt>
      <trkpt lat="47.81099" lon="7.08574">
        <ele>463.49</ele>
        <time>2021-10-25T11:33:46Z</time>
      </trkpt>
      <trkpt lat="47.81096" lon="7.08602">
        <ele>459.65</ele>
        <time>2021-10-25T11:33:49Z</time>
      </trkpt>
      <trkpt lat="47.81094" lon="7.08612">
        <ele>458.69</ele>
        <time>2021-10-25T11:33:50Z</time>
      </trkpt>
      <trkpt lat="47.81093" lon="7.08622">
        <ele>458.69</ele>
        <time>2021-10-25T11:33:51Z</time>
      </trkpt>
      <trkpt lat="47.81089" lon="7.08642">
        <ele>455.32</ele>
        <time>2021-10-25T11:33:53Z</time>
      </trkpt>
      <trkpt lat="47.81081" lon="7.08686">
        <ele>451.96</ele>
        <time>2021-10-25T11:33:58Z</time>
      </trkpt>
      <trkpt lat="47.8108" lon="7.08694">
        <ele>451.96</ele>
        <time>2021-10-25T11:33:59Z</time>
      </trkpt>
      <trkpt lat="47.81068" lon="7.08755">
        <ele>450.03</ele>
        <time>2021-10-25T11:34:08Z</time>
      </trkpt>
      <trkpt lat="47.81055" lon="7.08799">
        <ele>449.55</ele>
        <time>2021-10-25T11:34:17Z</time>
      </trkpt>
      <trkpt lat="47.81052" lon="7.08814">
        <ele>449.07</ele>
        <time>2021-10-25T11:34:20Z</time>
      </trkpt>
      <trkpt lat="47.8105" lon="7.08821">
        <ele>449.07</ele>
        <time>2021-10-25T11:34:21Z</time>
      </trkpt>
      <trkpt lat="47.81049" lon="7.08827">
        <ele>448.59</ele>
        <time>2021-10-25T11:34:22Z</time>
      </trkpt>
      <trkpt lat="47.81047" lon="7.08834">
        <ele>448.59</ele>
        <time>2021-10-25T11:34:23Z</time>
      </trkpt>
      <trkpt lat="47.81045" lon="7.0884">
        <ele>448.59</ele>
        <time>2021-10-25T11:34:24Z</time>
      </trkpt>
      <trkpt lat="47.81042" lon="7.08847">
        <ele>448.59</ele>
        <time>2021-10-25T11:34:25Z</time>
      </trkpt>
      <trkpt lat="47.8104" lon="7.08855">
        <ele>448.11</ele>
        <time>2021-10-25T11:34:26Z</time>
      </trkpt>
      <trkpt lat="47.81021" lon="7.08898">
        <ele>446.67</ele>
        <time>2021-10-25T11:34:34Z</time>
      </trkpt>
      <trkpt lat="47.81017" lon="7.08901">
        <ele>446.19</ele>
        <time>2021-10-25T11:34:35Z</time>
      </trkpt>
      <trkpt lat="47.81012" lon="7.08905">
        <ele>445.23</ele>
        <time>2021-10-25T11:34:36Z</time>
      </trkpt>
      <trkpt lat="47.81001" lon="7.08919">
        <ele>443.31</ele>
        <time>2021-10-25T11:34:38Z</time>
      </trkpt>
      <trkpt lat="47.80991" lon="7.08935">
        <ele>440.42</ele>
        <time>2021-10-25T11:34:40Z</time>
      </trkpt>
      <trkpt lat="47.80988" lon="7.08942">
        <ele>439.94</ele>
        <time>2021-10-25T11:34:41Z</time>
      </trkpt>
      <trkpt lat="47.80986" lon="7.08949">
        <ele>439.46</ele>
        <time>2021-10-25T11:34:42Z</time>
      </trkpt>
      <trkpt lat="47.80984" lon="7.08956">
        <ele>438.98</ele>
        <time>2021-10-25T11:34:43Z</time>
      </trkpt>
      <trkpt lat="47.80982" lon="7.08966">
        <ele>438.98</ele>
        <time>2021-10-25T11:34:44Z</time>
      </trkpt>
      <trkpt lat="47.80982" lon="7.08973">
        <ele>438.5</ele>
        <time>2021-10-25T11:34:45Z</time>
      </trkpt>
      <trkpt lat="47.80984" lon="7.08979">
        <ele>438.5</ele>
        <time>2021-10-25T11:34:46Z</time>
      </trkpt>
      <trkpt lat="47.80986" lon="7.08987">
        <ele>437.54</ele>
        <time>2021-10-25T11:34:52Z</time>
      </trkpt>
      <trkpt lat="47.80985" lon="7.0899">
        <ele>437.54</ele>
        <time>2021-10-25T11:35:07Z</time>
      </trkpt>
      <trkpt lat="47.80984" lon="7.08994">
        <ele>437.06</ele>
        <time>2021-10-25T11:35:08Z</time>
      </trkpt>
      <trkpt lat="47.80983" lon="7.08998">
        <ele>436.58</ele>
        <time>2021-10-25T11:35:09Z</time>
      </trkpt>
      <trkpt lat="47.80982" lon="7.09003">
        <ele>436.58</ele>
        <time>2021-10-25T11:35:10Z</time>
      </trkpt>
      <trkpt lat="47.80981" lon="7.0901">
        <ele>436.1</ele>
        <time>2021-10-25T11:35:11Z</time>
      </trkpt>
      <trkpt lat="47.80979" lon="7.09024">
        <ele>434.65</ele>
        <time>2021-10-25T11:35:13Z</time>
      </trkpt>
      <trkpt lat="47.80978" lon="7.09082">
        <ele>431.29</ele>
        <time>2021-10-25T11:35:19Z</time>
      </trkpt>
      <trkpt lat="47.80977" lon="7.09113">
        <ele>428.89</ele>
        <time>2021-10-25T11:35:22Z</time>
      </trkpt>
      <trkpt lat="47.80982" lon="7.09159">
        <ele>426</ele>
        <time>2021-10-25T11:35:27Z</time>
      </trkpt>
      <trkpt lat="47.80988" lon="7.09193">
        <ele>422.64</ele>
        <time>2021-10-25T11:35:30Z</time>
      </trkpt>
      <trkpt lat="47.80993" lon="7.09218">
        <ele>420.71</ele>
        <time>2021-10-25T11:35:32Z</time>
      </trkpt>
      <trkpt lat="47.81001" lon="7.09247">
        <ele>418.79</ele>
        <time>2021-10-25T11:35:34Z</time>
      </trkpt>
      <trkpt lat="47.81017" lon="7.09299">
        <ele>414.95</ele>
        <time>2021-10-25T11:35:38Z</time>
      </trkpt>
      <trkpt lat="47.81022" lon="7.0932">
        <ele>413.02</ele>
        <time>2021-10-25T11:35:40Z</time>
      </trkpt>
      <trkpt lat="47.81021" lon="7.09331">
        <ele>412.54</ele>
        <time>2021-10-25T11:35:41Z</time>
      </trkpt>
      <trkpt lat="47.81019" lon="7.09341">
        <ele>411.58</ele>
        <time>2021-10-25T11:35:42Z</time>
      </trkpt>
      <trkpt lat="47.81015" lon="7.09359">
        <ele>410.62</ele>
        <time>2021-10-25T11:35:44Z</time>
      </trkpt>
      <trkpt lat="47.8101" lon="7.09376">
        <ele>408.7</ele>
        <time>2021-10-25T11:35:46Z</time>
      </trkpt>
      <trkpt lat="47.81008" lon="7.09383">
        <ele>408.22</ele>
        <time>2021-10-25T11:35:47Z</time>
      </trkpt>
      <trkpt lat="47.81005" lon="7.09392">
        <ele>407.74</ele>
        <time>2021-10-25T11:35:48Z</time>
      </trkpt>
      <trkpt lat="47.81004" lon="7.09407">
        <ele>406.77</ele>
        <time>2021-10-25T11:35:50Z</time>
      </trkpt>
      <trkpt lat="47.81004" lon="7.09415">
        <ele>406.29</ele>
        <time>2021-10-25T11:35:51Z</time>
      </trkpt>
      <trkpt lat="47.81006" lon="7.09424">
        <ele>406.29</ele>
        <time>2021-10-25T11:35:52Z</time>
      </trkpt>
      <trkpt lat="47.8101" lon="7.09443">
        <ele>404.37</ele>
        <time>2021-10-25T11:35:54Z</time>
      </trkpt>
      <trkpt lat="47.81015" lon="7.09452">
        <ele>403.41</ele>
        <time>2021-10-25T11:35:55Z</time>
      </trkpt>
      <trkpt lat="47.81018" lon="7.09463">
        <ele>402.45</ele>
        <time>2021-10-25T11:35:56Z</time>
      </trkpt>
      <trkpt lat="47.81021" lon="7.09474">
        <ele>401.49</ele>
        <time>2021-10-25T11:35:57Z</time>
      </trkpt>
      <trkpt lat="47.81024" lon="7.09486">
        <ele>400.53</ele>
        <time>2021-10-25T11:35:58Z</time>
      </trkpt>
      <trkpt lat="47.81028" lon="7.09499">
        <ele>399.57</ele>
        <time>2021-10-25T11:35:59Z</time>
      </trkpt>
      <trkpt lat="47.81031" lon="7.09511">
        <ele>399.08</ele>
        <time>2021-10-25T11:36:00Z</time>
      </trkpt>
      <trkpt lat="47.81034" lon="7.09524">
        <ele>398.12</ele>
        <time>2021-10-25T11:36:01Z</time>
      </trkpt>
      <trkpt lat="47.81035" lon="7.09537">
        <ele>397.16</ele>
        <time>2021-10-25T11:36:02Z</time>
      </trkpt>
      <trkpt lat="47.81036" lon="7.09547">
        <ele>396.2</ele>
        <time>2021-10-25T11:36:03Z</time>
      </trkpt>
      <trkpt lat="47.81036" lon="7.09558">
        <ele>395.24</ele>
        <time>2021-10-25T11:36:04Z</time>
      </trkpt>
      <trkpt lat="47.81035" lon="7.09568">
        <ele>394.28</ele>
        <time>2021-10-25T11:36:05Z</time>
      </trkpt>
      <trkpt lat="47.81033" lon="7.09578">
        <ele>393.8</ele>
        <time>2021-10-25T11:36:06Z</time>
      </trkpt>
      <trkpt lat="47.8103" lon="7.096">
        <ele>391.87</ele>
        <time>2021-10-25T11:36:08Z</time>
      </trkpt>
      <trkpt lat="47.81029" lon="7.09613">
        <ele>391.39</ele>
        <time>2021-10-25T11:36:09Z</time>
      </trkpt>
      <trkpt lat="47.81029" lon="7.09626">
        <ele>389.95</ele>
        <time>2021-10-25T11:36:10Z</time>
      </trkpt>
      <trkpt lat="47.81029" lon="7.09639">
        <ele>389.47</ele>
        <time>2021-10-25T11:36:11Z</time>
      </trkpt>
      <trkpt lat="47.81029" lon="7.09651">
        <ele>388.51</ele>
        <time>2021-10-25T11:36:12Z</time>
      </trkpt>
      <trkpt lat="47.81027" lon="7.09693">
        <ele>385.15</ele>
        <time>2021-10-25T11:36:16Z</time>
      </trkpt>
      <trkpt lat="47.81028" lon="7.09711">
        <ele>383.22</ele>
        <time>2021-10-25T11:36:19Z</time>
      </trkpt>
      <trkpt lat="47.81032" lon="7.09717">
        <ele>382.74</ele>
        <time>2021-10-25T11:36:22Z</time>
      </trkpt>
      <trkpt lat="47.81042" lon="7.09713">
        <ele>382.26</ele>
        <time>2021-10-25T11:36:35Z</time>
      </trkpt>
      <trkpt lat="47.81041" lon="7.09711">
        <ele>381.78</ele>
        <time>2021-10-25T11:36:36Z</time>
      </trkpt>
      <trkpt lat="47.81041" lon="7.09709">
        <ele>381.78</ele>
        <time>2021-10-25T11:36:37Z</time>
      </trkpt>
      <trkpt lat="47.81041" lon="7.09706">
        <ele>381.3</ele>
        <time>2021-10-25T11:36:38Z</time>
      </trkpt>
      <trkpt lat="47.81043" lon="7.09678">
        <ele>377.94</ele>
        <time>2021-10-25T11:36:43Z</time>
      </trkpt>
      <trkpt lat="47.81045" lon="7.09642">
        <ele>374.09</ele>
        <time>2021-10-25T11:36:47Z</time>
      </trkpt>
      <trkpt lat="47.81049" lon="7.09624">
        <ele>371.69</ele>
        <time>2021-10-25T11:36:49Z</time>
      </trkpt>
      <trkpt lat="47.81053" lon="7.09617">
        <ele>370.73</ele>
        <time>2021-10-25T11:36:50Z</time>
      </trkpt>
      <trkpt lat="47.81059" lon="7.09609">
        <ele>369.28</ele>
        <time>2021-10-25T11:36:51Z</time>
      </trkpt>
      <trkpt lat="47.81067" lon="7.09603">
        <ele>368.32</ele>
        <time>2021-10-25T11:36:52Z</time>
      </trkpt>
      <trkpt lat="47.81089" lon="7.09589">
        <ele>366.4</ele>
        <time>2021-10-25T11:36:54Z</time>
      </trkpt>
      <trkpt lat="47.81097" lon="7.09584">
        <ele>365.44</ele>
        <time>2021-10-25T11:36:55Z</time>
      </trkpt>
      <trkpt lat="47.81103" lon="7.0958">
        <ele>364.96</ele>
        <time>2021-10-25T11:36:56Z</time>
      </trkpt>
      <trkpt lat="47.81114" lon="7.09553">
        <ele>362.55</ele>
        <time>2021-10-25T11:37:00Z</time>
      </trkpt>
      <trkpt lat="47.81116" lon="7.09545">
        <ele>362.55</ele>
        <time>2021-10-25T11:37:01Z</time>
      </trkpt>
      <trkpt lat="47.81118" lon="7.09535">
        <ele>362.07</ele>
        <time>2021-10-25T11:37:02Z</time>
      </trkpt>
      <trkpt lat="47.81118" lon="7.09526">
        <ele>361.59</ele>
        <time>2021-10-25T11:37:03Z</time>
      </trkpt>
      <trkpt lat="47.81117" lon="7.09516">
        <ele>360.63</ele>
        <time>2021-10-25T11:37:04Z</time>
      </trkpt>
      <trkpt lat="47.81113" lon="7.09484">
        <ele>357.75</ele>
        <time>2021-10-25T11:37:07Z</time>
      </trkpt>
      <trkpt lat="47.81111" lon="7.09465">
        <ele>355.83</ele>
        <time>2021-10-25T11:37:09Z</time>
      </trkpt>
      <trkpt lat="47.81111" lon="7.09456">
        <ele>355.34</ele>
        <time>2021-10-25T11:37:10Z</time>
      </trkpt>
      <trkpt lat="47.81112" lon="7.09447">
        <ele>354.38</ele>
        <time>2021-10-25T11:37:11Z</time>
      </trkpt>
      <trkpt lat="47.81114" lon="7.09427">
        <ele>352.46</ele>
        <time>2021-10-25T11:37:13Z</time>
      </trkpt>
      <trkpt lat="47.81118" lon="7.09418">
        <ele>351.5</ele>
        <time>2021-10-25T11:37:14Z</time>
      </trkpt>
      <trkpt lat="47.81122" lon="7.09409">
        <ele>350.54</ele>
        <time>2021-10-25T11:37:15Z</time>
      </trkpt>
      <trkpt lat="47.81127" lon="7.09401">
        <ele>349.58</ele>
        <time>2021-10-25T11:37:16Z</time>
      </trkpt>
      <trkpt lat="47.81132" lon="7.09391">
        <ele>348.62</ele>
        <time>2021-10-25T11:37:17Z</time>
      </trkpt>
      <trkpt lat="47.81137" lon="7.0938">
        <ele>348.13</ele>
        <time>2021-10-25T11:37:18Z</time>
      </trkpt>
      <trkpt lat="47.81141" lon="7.09367">
        <ele>347.17</ele>
        <time>2021-10-25T11:37:19Z</time>
      </trkpt>
      <trkpt lat="47.81145" lon="7.09356">
        <ele>345.73</ele>
        <time>2021-10-25T11:37:20Z</time>
      </trkpt>
      <trkpt lat="47.81149" lon="7.09346">
        <ele>344.77</ele>
        <time>2021-10-25T11:37:21Z</time>
      </trkpt>
      <trkpt lat="47.81153" lon="7.09338">
        <ele>343.81</ele>
        <time>2021-10-25T11:37:22Z</time>
      </trkpt>
      <trkpt lat="47.81158" lon="7.09331">
        <ele>342.85</ele>
        <time>2021-10-25T11:37:23Z</time>
      </trkpt>
      <trkpt lat="47.81163" lon="7.09325">
        <ele>341.89</ele>
        <time>2021-10-25T11:37:24Z</time>
      </trkpt>
      <trkpt lat="47.81168" lon="7.09321">
        <ele>340.92</ele>
        <time>2021-10-25T11:37:25Z</time>
      </trkpt>
      <trkpt lat="47.81173" lon="7.09318">
        <ele>339.96</ele>
        <time>2021-10-25T11:37:26Z</time>
      </trkpt>
      <trkpt lat="47.81178" lon="7.09315">
        <ele>339</ele>
        <time>2021-10-25T11:37:27Z</time>
      </trkpt>
      <trkpt lat="47.81184" lon="7.09311">
        <ele>338.04</ele>
        <time>2021-10-25T11:37:28Z</time>
      </trkpt>
      <trkpt lat="47.8119" lon="7.09306">
        <ele>337.08</ele>
        <time>2021-10-25T11:37:29Z</time>
      </trkpt>
      <trkpt lat="47.81204" lon="7.09294">
        <ele>333.71</ele>
        <time>2021-10-25T11:37:32Z</time>
      </trkpt>
      <trkpt lat="47.81209" lon="7.0929">
        <ele>333.23</ele>
        <time>2021-10-25T11:37:33Z</time>
      </trkpt>
      <trkpt lat="47.81228" lon="7.09275">
        <ele>330.83</ele>
        <time>2021-10-25T11:37:39Z</time>
      </trkpt>
      <trkpt lat="47.8123" lon="7.09275">
        <ele>330.83</ele>
        <time>2021-10-25T11:37:40Z</time>
      </trkpt>
      <trkpt lat="47.81232" lon="7.09276">
        <ele>330.35</ele>
        <time>2021-10-25T11:37:41Z</time>
      </trkpt>
      <trkpt lat="47.81234" lon="7.09283">
        <ele>329.39</ele>
        <time>2021-10-25T11:37:44Z</time>
      </trkpt>
      <trkpt lat="47.81234" lon="7.09286">
        <ele>328.91</ele>
        <time>2021-10-25T11:37:45Z</time>
      </trkpt>
      <trkpt lat="47.81234" lon="7.09289">
        <ele>328.91</ele>
        <time>2021-10-25T11:37:46Z</time>
      </trkpt>
      <trkpt lat="47.81232" lon="7.09321">
        <ele>325.54</ele>
        <time>2021-10-25T11:37:55Z</time>
      </trkpt>
      <trkpt lat="47.81235" lon="7.09325">
        <ele>325.06</ele>
        <time>2021-10-25T11:37:56Z</time>
      </trkpt>
      <trkpt lat="47.81239" lon="7.09327">
        <ele>324.58</ele>
        <time>2021-10-25T11:37:57Z</time>
      </trkpt>
      <trkpt lat="47.81248" lon="7.09329">
        <ele>323.14</ele>
        <time>2021-10-25T11:37:59Z</time>
      </trkpt>
      <trkpt lat="47.81251" lon="7.09332">
        <ele>322.66</ele>
        <time>2021-10-25T11:38:00Z</time>
      </trkpt>
      <trkpt lat="47.81255" lon="7.09337">
        <ele>322.18</ele>
        <time>2021-10-25T11:38:01Z</time>
      </trkpt>
      <trkpt lat="47.81258" lon="7.09343">
        <ele>321.22</ele>
        <time>2021-10-25T11:38:02Z</time>
      </trkpt>
      <trkpt lat="47.8126" lon="7.09349">
        <ele>320.74</ele>
        <time>2021-10-25T11:38:03Z</time>
      </trkpt>
      <trkpt lat="47.81263" lon="7.09354">
        <ele>320.26</ele>
        <time>2021-10-25T11:38:04Z</time>
      </trkpt>
      <trkpt lat="47.81284" lon="7.09396">
        <ele>316.89</ele>
        <time>2021-10-25T11:38:10Z</time>
      </trkpt>
      <trkpt lat="47.81296" lon="7.09422">
        <ele>315.45</ele>
        <time>2021-10-25T11:38:14Z</time>
      </trkpt>
      <trkpt lat="47.81296" lon="7.09429">
        <ele>315.45</ele>
        <time>2021-10-25T11:38:15Z</time>
      </trkpt>
      <trkpt lat="47.81296" lon="7.09437">
        <ele>315.45</ele>
        <time>2021-10-25T11:38:16Z</time>
      </trkpt>
      <trkpt lat="47.81294" lon="7.09443">
        <ele>315.45</ele>
        <time>2021-10-25T11:38:17Z</time>
      </trkpt>
      <trkpt lat="47.81292" lon="7.0945">
        <ele>314.97</ele>
        <time>2021-10-25T11:38:18Z</time>
      </trkpt>
      <trkpt lat="47.81289" lon="7.09456">
        <ele>314.49</ele>
        <time>2021-10-25T11:38:19Z</time>
      </trkpt>
      <trkpt lat="47.81287" lon="7.09462">
        <ele>314.97</ele>
        <time>2021-10-25T11:38:20Z</time>
      </trkpt>
      <trkpt lat="47.81284" lon="7.09468">
        <ele>314.49</ele>
        <time>2021-10-25T11:38:21Z</time>
      </trkpt>
      <trkpt lat="47.81279" lon="7.09481">
        <ele>314.49</ele>
        <time>2021-10-25T11:38:23Z</time>
      </trkpt>
      <trkpt lat="47.81275" lon="7.09486">
        <ele>314.49</ele>
        <time>2021-10-25T11:38:24Z</time>
      </trkpt>
      <trkpt lat="47.81272" lon="7.09492">
        <ele>314.49</ele>
        <time>2021-10-25T11:38:25Z</time>
      </trkpt>
      <trkpt lat="47.81269" lon="7.09498">
        <ele>314.01</ele>
        <time>2021-10-25T11:38:26Z</time>
      </trkpt>
      <trkpt lat="47.81267" lon="7.09504">
        <ele>314.01</ele>
        <time>2021-10-25T11:38:27Z</time>
      </trkpt>
      <trkpt lat="47.81264" lon="7.0951">
        <ele>314.01</ele>
        <time>2021-10-25T11:38:28Z</time>
      </trkpt>
      <trkpt lat="47.8126" lon="7.09516">
        <ele>314.49</ele>
        <time>2021-10-25T11:38:29Z</time>
      </trkpt>
      <trkpt lat="47.81239" lon="7.0955">
        <ele>314.01</ele>
        <time>2021-10-25T11:38:35Z</time>
      </trkpt>
      <trkpt lat="47.81237" lon="7.09556">
        <ele>313.53</ele>
        <time>2021-10-25T11:38:36Z</time>
      </trkpt>
      <trkpt lat="47.81235" lon="7.09563">
        <ele>313.53</ele>
        <time>2021-10-25T11:38:37Z</time>
      </trkpt>
      <trkpt lat="47.81224" lon="7.09601">
        <ele>313.05</ele>
        <time>2021-10-25T11:38:43Z</time>
      </trkpt>
      <trkpt lat="47.81189" lon="7.09683">
        <ele>313.53</ele>
        <time>2021-10-25T11:38:56Z</time>
      </trkpt>
      <trkpt lat="47.81165" lon="7.09738">
        <ele>313.53</ele>
        <time>2021-10-25T11:39:05Z</time>
      </trkpt>
      <trkpt lat="47.81162" lon="7.09745">
        <ele>313.53</ele>
        <time>2021-10-25T11:39:06Z</time>
      </trkpt>
      <trkpt lat="47.81148" lon="7.09777">
        <ele>314.01</ele>
        <time>2021-10-25T11:39:11Z</time>
      </trkpt>
      <trkpt lat="47.81146" lon="7.09785">
        <ele>314.01</ele>
        <time>2021-10-25T11:39:12Z</time>
      </trkpt>
      <trkpt lat="47.81136" lon="7.09806">
        <ele>314.49</ele>
        <time>2021-10-25T11:39:15Z</time>
      </trkpt>
      <trkpt lat="47.81132" lon="7.09813">
        <ele>314.49</ele>
        <time>2021-10-25T11:39:16Z</time>
      </trkpt>
      <trkpt lat="47.81107" lon="7.09868">
        <ele>314.97</ele>
        <time>2021-10-25T11:39:24Z</time>
      </trkpt>
      <trkpt lat="47.81105" lon="7.09874">
        <ele>314.97</ele>
        <time>2021-10-25T11:39:25Z</time>
      </trkpt>
      <trkpt lat="47.81103" lon="7.09879">
        <ele>315.45</ele>
        <time>2021-10-25T11:39:26Z</time>
      </trkpt>
      <trkpt lat="47.81072" lon="7.09942">
        <ele>315.45</ele>
        <time>2021-10-25T11:39:36Z</time>
      </trkpt>
      <trkpt lat="47.81063" lon="7.09959">
        <ele>315.93</ele>
        <time>2021-10-25T11:39:39Z</time>
      </trkpt>
      <trkpt lat="47.81044" lon="7.10002">
        <ele>316.41</ele>
        <time>2021-10-25T11:39:47Z</time>
      </trkpt>
      <trkpt lat="47.81041" lon="7.10007">
        <ele>316.41</ele>
        <time>2021-10-25T11:39:48Z</time>
      </trkpt>
      <trkpt lat="47.81039" lon="7.10012">
        <ele>316.41</ele>
        <time>2021-10-25T11:39:49Z</time>
      </trkpt>
      <trkpt lat="47.81037" lon="7.10016">
        <ele>316.41</ele>
        <time>2021-10-25T11:39:50Z</time>
      </trkpt>
      <trkpt lat="47.81035" lon="7.1002">
        <ele>316.41</ele>
        <time>2021-10-25T11:39:51Z</time>
      </trkpt>
      <trkpt lat="47.81005" lon="7.10068">
        <ele>316.41</ele>
        <time>2021-10-25T11:40:02Z</time>
      </trkpt>
      <trkpt lat="47.80999" lon="7.10075">
        <ele>315.93</ele>
        <time>2021-10-25T11:40:04Z</time>
      </trkpt>
      <trkpt lat="47.8099" lon="7.1009">
        <ele>315.45</ele>
        <time>2021-10-25T11:40:07Z</time>
      </trkpt>
      <trkpt lat="47.80988" lon="7.10095">
        <ele>315.45</ele>
        <time>2021-10-25T11:40:08Z</time>
      </trkpt>
      <trkpt lat="47.80972" lon="7.10138">
        <ele>314.49</ele>
        <time>2021-10-25T11:40:15Z</time>
      </trkpt>
      <trkpt lat="47.80957" lon="7.102">
        <ele>314.01</ele>
        <time>2021-10-25T11:40:29Z</time>
      </trkpt>
      <trkpt lat="47.80957" lon="7.10202">
        <ele>314.01</ele>
        <time>2021-10-25T11:40:47Z</time>
      </trkpt>
      <trkpt lat="47.80957" lon="7.10204">
        <ele>314.01</ele>
        <time>2021-10-25T11:40:52Z</time>
      </trkpt>
      <trkpt lat="47.80958" lon="7.10208">
        <ele>314.01</ele>
        <time>2021-10-25T11:40:53Z</time>
      </trkpt>
      <trkpt lat="47.80963" lon="7.1022">
        <ele>314.01</ele>
        <time>2021-10-25T11:40:56Z</time>
      </trkpt>
      <trkpt lat="47.80963" lon="7.10225">
        <ele>313.53</ele>
        <time>2021-10-25T11:40:57Z</time>
      </trkpt>
      <trkpt lat="47.80962" lon="7.10232">
        <ele>313.53</ele>
        <time>2021-10-25T11:40:58Z</time>
      </trkpt>
      <trkpt lat="47.8095" lon="7.10282">
        <ele>313.05</ele>
        <time>2021-10-25T11:41:09Z</time>
      </trkpt>
      <trkpt lat="47.80947" lon="7.10301">
        <ele>313.53</ele>
        <time>2021-10-25T11:41:24Z</time>
      </trkpt>
      <trkpt lat="47.80931" lon="7.10383">
        <ele>312.57</ele>
        <time>2021-10-25T11:41:33Z</time>
      </trkpt>
      <trkpt lat="47.80925" lon="7.10411">
        <ele>312.57</ele>
        <time>2021-10-25T11:41:36Z</time>
      </trkpt>
      <trkpt lat="47.8088" lon="7.10519">
        <ele>312.09</ele>
        <time>2021-10-25T11:41:49Z</time>
      </trkpt>
      <trkpt lat="47.80866" lon="7.10595">
        <ele>311.6</ele>
        <time>2021-10-25T11:42:00Z</time>
      </trkpt>
      <trkpt lat="47.80863" lon="7.10641">
        <ele>312.09</ele>
        <time>2021-10-25T11:42:12Z</time>
      </trkpt>
      <trkpt lat="47.80862" lon="7.10649">
        <ele>312.57</ele>
        <time>2021-10-25T11:42:15Z</time>
      </trkpt>
      <trkpt lat="47.80862" lon="7.10651">
        <ele>312.09</ele>
        <time>2021-10-25T11:42:19Z</time>
      </trkpt>
      <trkpt lat="47.80876" lon="7.10649">
        <ele>311.6</ele>
        <time>2021-10-25T11:42:26Z</time>
      </trkpt>
      <trkpt lat="47.8088" lon="7.10673">
        <ele>311.12</ele>
        <time>2021-10-25T11:42:33Z</time>
      </trkpt>
      <trkpt lat="47.80878" lon="7.10663">
        <ele>311.6</ele>
        <time>2021-10-25T11:42:39Z</time>
      </trkpt>
      <trkpt lat="47.80877" lon="7.1066">
        <ele>311.6</ele>
        <time>2021-10-25T11:42:53Z</time>
      </trkpt>
      <trkpt lat="47.80876" lon="7.10657">
        <ele>312.09</ele>
        <time>2021-10-25T11:43:05Z</time>
      </trkpt>
      <trkpt lat="47.80874" lon="7.10654">
        <ele>312.57</ele>
        <time>2021-10-25T11:43:29Z</time>
      </trkpt>
      <trkpt lat="47.80873" lon="7.10653">
        <ele>313.05</ele>
        <time>2021-10-25T11:43:55Z</time>
      </trkpt>
      <trkpt lat="47.80873" lon="7.10652">
        <ele>313.53</ele>
        <time>2021-10-25T11:44:23Z</time>
      </trkpt>
      <trkpt lat="47.80872" lon="7.10654">
        <ele>314.01</ele>
        <time>2021-10-25T11:45:01Z</time>
      </trkpt>
      <trkpt lat="47.80871" lon="7.10653">
        <ele>314.49</ele>
        <time>2021-10-25T11:45:41Z</time>
      </trkpt>
      <trkpt lat="47.80872" lon="7.10655">
        <ele>314.97</ele>
        <time>2021-10-25T11:46:12Z</time>
      </trkpt>
      <trkpt lat="47.80874" lon="7.10653">
        <ele>315.45</ele>
        <time>2021-10-25T11:46:45Z</time>
      </trkpt>
      <trkpt lat="47.80875" lon="7.10652">
        <ele>315.45</ele>
        <time>2021-10-25T11:46:58Z</time>
      </trkpt>
      <trkpt lat="47.80875" lon="7.10652">
        <ele>315.45</ele>
        <time>2021-10-25T11:46:59Z</time>
      </trkpt>
      <trkpt lat="47.80877" lon="7.10668">
        <ele>314.97</ele>
        <time>2021-10-25T11:47:08Z</time>
      </trkpt>
      <trkpt lat="47.80871" lon="7.10692">
        <ele>315.45</ele>
        <time>2021-10-25T11:47:18Z</time>
      </trkpt>
      <trkpt lat="47.80869" lon="7.10706">
        <ele>315.45</ele>
        <time>2021-10-25T11:47:23Z</time>
      </trkpt>
      <trkpt lat="47.80859" lon="7.10722">
        <ele>315.93</ele>
        <time>2021-10-25T11:47:33Z</time>
      </trkpt>
      <trkpt lat="47.80851" lon="7.1075">
        <ele>316.89</ele>
        <time>2021-10-25T11:47:44Z</time>
      </trkpt>
      <trkpt lat="47.80845" lon="7.10775">
        <ele>316.41</ele>
        <time>2021-10-25T11:47:53Z</time>
      </trkpt>
      <trkpt lat="47.80835" lon="7.10823">
        <ele>315.93</ele>
        <time>2021-10-25T11:48:07Z</time>
      </trkpt>
      <trkpt lat="47.80825" lon="7.10865">
        <ele>315.45</ele>
        <time>2021-10-25T11:48:19Z</time>
      </trkpt>
      <trkpt lat="47.80824" lon="7.10874">
        <ele>315.45</ele>
        <time>2021-10-25T11:48:22Z</time>
      </trkpt>
      <trkpt lat="47.80832" lon="7.10906">
        <ele>314.97</ele>
        <time>2021-10-25T11:48:30Z</time>
      </trkpt>
      <trkpt lat="47.80877" lon="7.10939">
        <ele>314.97</ele>
        <time>2021-10-25T11:48:44Z</time>
      </trkpt>
      <trkpt lat="47.80902" lon="7.10948">
        <ele>315.45</ele>
        <time>2021-10-25T11:48:52Z</time>
      </trkpt>
      <trkpt lat="47.8091" lon="7.10934">
        <ele>315.45</ele>
        <time>2021-10-25T11:48:56Z</time>
      </trkpt>
      <trkpt lat="47.8093" lon="7.10849">
        <ele>315.45</ele>
        <time>2021-10-25T11:49:12Z</time>
      </trkpt>
      <trkpt lat="47.80932" lon="7.10843">
        <ele>315.45</ele>
        <time>2021-10-25T11:49:13Z</time>
      </trkpt>
      <trkpt lat="47.80943" lon="7.10816">
        <ele>315.45</ele>
        <time>2021-10-25T11:49:18Z</time>
      </trkpt>
      <trkpt lat="47.80946" lon="7.10811">
        <ele>315.45</ele>
        <time>2021-10-25T11:49:19Z</time>
      </trkpt>
      <trkpt lat="47.80967" lon="7.10785">
        <ele>315.93</ele>
        <time>2021-10-25T11:49:25Z</time>
      </trkpt>
      <trkpt lat="47.80971" lon="7.10781">
        <ele>315.93</ele>
        <time>2021-10-25T11:49:26Z</time>
      </trkpt>
      <trkpt lat="47.80985" lon="7.10763">
        <ele>315.93</ele>
        <time>2021-10-25T11:49:30Z</time>
      </trkpt>
      <trkpt lat="47.80989" lon="7.10758">
        <ele>315.93</ele>
        <time>2021-10-25T11:49:31Z</time>
      </trkpt>
      <trkpt lat="47.80993" lon="7.10753">
        <ele>315.93</ele>
        <time>2021-10-25T11:49:32Z</time>
      </trkpt>
      <trkpt lat="47.80996" lon="7.10748">
        <ele>315.93</ele>
        <time>2021-10-25T11:49:33Z</time>
      </trkpt>
      <trkpt lat="47.81" lon="7.10744">
        <ele>315.93</ele>
        <time>2021-10-25T11:49:34Z</time>
      </trkpt>
      <trkpt lat="47.81003" lon="7.10739">
        <ele>315.93</ele>
        <time>2021-10-25T11:49:35Z</time>
      </trkpt>
      <trkpt lat="47.81007" lon="7.10735">
        <ele>315.93</ele>
        <time>2021-10-25T11:49:36Z</time>
      </trkpt>
      <trkpt lat="47.81021" lon="7.10717">
        <ele>316.41</ele>
        <time>2021-10-25T11:49:40Z</time>
      </trkpt>
      <trkpt lat="47.81048" lon="7.10684">
        <ele>316.89</ele>
        <time>2021-10-25T11:49:48Z</time>
      </trkpt>
      <trkpt lat="47.81051" lon="7.1068">
        <ele>316.89</ele>
        <time>2021-10-25T11:49:49Z</time>
      </trkpt>
      <trkpt lat="47.81054" lon="7.10675">
        <ele>316.89</ele>
        <time>2021-10-25T11:49:50Z</time>
      </trkpt>
      <trkpt lat="47.81064" lon="7.10657">
        <ele>316.89</ele>
        <time>2021-10-25T11:49:54Z</time>
      </trkpt>
      <trkpt lat="47.81077" lon="7.10621">
        <ele>316.89</ele>
        <time>2021-10-25T11:50:00Z</time>
      </trkpt>
      <trkpt lat="47.81089" lon="7.10579">
        <ele>316.89</ele>
        <time>2021-10-25T11:50:08Z</time>
      </trkpt>
      <trkpt lat="47.81091" lon="7.10579">
        <ele>316.89</ele>
        <time>2021-10-25T11:50:09Z</time>
      </trkpt>
      <trkpt lat="47.81093" lon="7.1058">
        <ele>316.89</ele>
        <time>2021-10-25T11:50:10Z</time>
      </trkpt>
      <trkpt lat="47.81096" lon="7.10581">
        <ele>316.89</ele>
        <time>2021-10-25T11:50:11Z</time>
      </trkpt>
      <trkpt lat="47.81098" lon="7.10583">
        <ele>316.89</ele>
        <time>2021-10-25T11:50:12Z</time>
      </trkpt>
      <trkpt lat="47.811" lon="7.10586">
        <ele>316.89</ele>
        <time>2021-10-25T11:50:13Z</time>
      </trkpt>
      <trkpt lat="47.81112" lon="7.10601">
        <ele>316.89</ele>
        <time>2021-10-25T11:50:17Z</time>
      </trkpt>
      <trkpt lat="47.81143" lon="7.1063">
        <ele>316.89</ele>
        <time>2021-10-25T11:50:29Z</time>
      </trkpt>
      <trkpt lat="47.81148" lon="7.10631">
        <ele>316.89</ele>
        <time>2021-10-25T11:50:39Z</time>
      </trkpt>
      <trkpt lat="47.81148" lon="7.10629">
        <ele>316.89</ele>
        <time>2021-10-25T11:50:40Z</time>
      </trkpt>
      <trkpt lat="47.81149" lon="7.10627">
        <ele>316.89</ele>
        <time>2021-10-25T11:50:41Z</time>
      </trkpt>
      <trkpt lat="47.8115" lon="7.10623">
        <ele>316.89</ele>
        <time>2021-10-25T11:50:42Z</time>
      </trkpt>
      <trkpt lat="47.8115" lon="7.10619">
        <ele>316.89</ele>
        <time>2021-10-25T11:50:43Z</time>
      </trkpt>
      <trkpt lat="47.81151" lon="7.10614">
        <ele>317.37</ele>
        <time>2021-10-25T11:50:44Z</time>
      </trkpt>
      <trkpt lat="47.81152" lon="7.1061">
        <ele>317.37</ele>
        <time>2021-10-25T11:50:45Z</time>
      </trkpt>
      <trkpt lat="47.81156" lon="7.10531">
        <ele>317.85</ele>
        <time>2021-10-25T11:51:00Z</time>
      </trkpt>
      <trkpt lat="47.81163" lon="7.10485">
        <ele>318.81</ele>
        <time>2021-10-25T11:51:10Z</time>
      </trkpt>
      <trkpt lat="47.81171" lon="7.1047">
        <ele>320.26</ele>
        <time>2021-10-25T11:51:15Z</time>
      </trkpt>
      <trkpt lat="47.81174" lon="7.10469">
        <ele>320.26</ele>
        <time>2021-10-25T11:51:16Z</time>
      </trkpt>
      <trkpt lat="47.81177" lon="7.1047">
        <ele>320.26</ele>
        <time>2021-10-25T11:51:17Z</time>
      </trkpt>
      <trkpt lat="47.8118" lon="7.1047">
        <ele>320.74</ele>
        <time>2021-10-25T11:51:18Z</time>
      </trkpt>
      <trkpt lat="47.81184" lon="7.10471">
        <ele>320.74</ele>
        <time>2021-10-25T11:51:19Z</time>
      </trkpt>
      <trkpt lat="47.81187" lon="7.10471">
        <ele>320.74</ele>
        <time>2021-10-25T11:51:20Z</time>
      </trkpt>
      <trkpt lat="47.81231" lon="7.10484">
        <ele>320.74</ele>
        <time>2021-10-25T11:51:34Z</time>
      </trkpt>
      <trkpt lat="47.81266" lon="7.10499">
        <ele>320.74</ele>
        <time>2021-10-25T11:51:44Z</time>
      </trkpt>
      <trkpt lat="47.81307" lon="7.10485">
        <ele>322.18</ele>
        <time>2021-10-25T11:51:56Z</time>
      </trkpt>
      <trkpt lat="47.81324" lon="7.10467">
        <ele>324.1</ele>
        <time>2021-10-25T11:52:03Z</time>
      </trkpt>
      <trkpt lat="47.81357" lon="7.10423">
        <ele>327.47</ele>
        <time>2021-10-25T11:52:17Z</time>
      </trkpt>
      <trkpt lat="47.81364" lon="7.10387">
        <ele>329.87</ele>
        <time>2021-10-25T11:52:27Z</time>
      </trkpt>
      <trkpt lat="47.81335" lon="7.10366">
        <ele>327.95</ele>
        <time>2021-10-25T11:52:37Z</time>
      </trkpt>
      <trkpt lat="47.81303" lon="7.10324">
        <ele>325.54</ele>
        <time>2021-10-25T11:52:49Z</time>
      </trkpt>
      <trkpt lat="47.81282" lon="7.1027">
        <ele>323.62</ele>
        <time>2021-10-25T11:53:01Z</time>
      </trkpt>
      <trkpt lat="47.81275" lon="7.10254">
        <ele>323.62</ele>
        <time>2021-10-25T11:53:04Z</time>
      </trkpt>
      <trkpt lat="47.81273" lon="7.10248">
        <ele>323.62</ele>
        <time>2021-10-25T11:53:05Z</time>
      </trkpt>
      <trkpt lat="47.81271" lon="7.10242">
        <ele>323.14</ele>
        <time>2021-10-25T11:53:06Z</time>
      </trkpt>
      <trkpt lat="47.81269" lon="7.10228">
        <ele>323.14</ele>
        <time>2021-10-25T11:53:08Z</time>
      </trkpt>
      <trkpt lat="47.81268" lon="7.10221">
        <ele>322.66</ele>
        <time>2021-10-25T11:53:09Z</time>
      </trkpt>
      <trkpt lat="47.81268" lon="7.10213">
        <ele>322.66</ele>
        <time>2021-10-25T11:53:10Z</time>
      </trkpt>
      <trkpt lat="47.81268" lon="7.10205">
        <ele>322.66</ele>
        <time>2021-10-25T11:53:11Z</time>
      </trkpt>
      <trkpt lat="47.81268" lon="7.10198">
        <ele>322.18</ele>
        <time>2021-10-25T11:53:12Z</time>
      </trkpt>
      <trkpt lat="47.81267" lon="7.10191">
        <ele>322.18</ele>
        <time>2021-10-25T11:53:13Z</time>
      </trkpt>
      <trkpt lat="47.81267" lon="7.10184">
        <ele>322.66</ele>
        <time>2021-10-25T11:53:14Z</time>
      </trkpt>
      <trkpt lat="47.81269" lon="7.1017">
        <ele>322.18</ele>
        <time>2021-10-25T11:53:16Z</time>
      </trkpt>
      <trkpt lat="47.81271" lon="7.10163">
        <ele>322.18</ele>
        <time>2021-10-25T11:53:17Z</time>
      </trkpt>
      <trkpt lat="47.81285" lon="7.10125">
        <ele>321.7</ele>
        <time>2021-10-25T11:53:23Z</time>
      </trkpt>
      <trkpt lat="47.81288" lon="7.10119">
        <ele>321.7</ele>
        <time>2021-10-25T11:53:24Z</time>
      </trkpt>
      <trkpt lat="47.81314" lon="7.10079">
        <ele>322.66</ele>
        <time>2021-10-25T11:53:32Z</time>
      </trkpt>
      <trkpt lat="47.81349" lon="7.10008">
        <ele>323.62</ele>
        <time>2021-10-25T11:53:46Z</time>
      </trkpt>
      <trkpt lat="47.81361" lon="7.09984">
        <ele>324.1</ele>
        <time>2021-10-25T11:53:51Z</time>
      </trkpt>
      <trkpt lat="47.81365" lon="7.09973">
        <ele>324.1</ele>
        <time>2021-10-25T11:53:53Z</time>
      </trkpt>
      <trkpt lat="47.81391" lon="7.09899">
        <ele>324.58</ele>
        <time>2021-10-25T11:54:07Z</time>
      </trkpt>
      <trkpt lat="47.81394" lon="7.09895">
        <ele>324.58</ele>
        <time>2021-10-25T11:54:08Z</time>
      </trkpt>
      <trkpt lat="47.81438" lon="7.09865">
        <ele>325.54</ele>
        <time>2021-10-25T11:54:21Z</time>
      </trkpt>
      <trkpt lat="47.81486" lon="7.0982">
        <ele>326.5</ele>
        <time>2021-10-25T11:54:36Z</time>
      </trkpt>
      <trkpt lat="47.81499" lon="7.09807">
        <ele>326.99</ele>
        <time>2021-10-25T11:54:40Z</time>
      </trkpt>
      <trkpt lat="47.81502" lon="7.09802">
        <ele>326.99</ele>
        <time>2021-10-25T11:54:41Z</time>
      </trkpt>
      <trkpt lat="47.81505" lon="7.09796">
        <ele>326.99</ele>
        <time>2021-10-25T11:54:42Z</time>
      </trkpt>
      <trkpt lat="47.81507" lon="7.0979">
        <ele>326.99</ele>
        <time>2021-10-25T11:54:43Z</time>
      </trkpt>
      <trkpt lat="47.81509" lon="7.09783">
        <ele>326.99</ele>
        <time>2021-10-25T11:54:44Z</time>
      </trkpt>
      <trkpt lat="47.81514" lon="7.09763">
        <ele>326.5</ele>
        <time>2021-10-25T11:54:47Z</time>
      </trkpt>
      <trkpt lat="47.81519" lon="7.09743">
        <ele>326.5</ele>
        <time>2021-10-25T11:54:50Z</time>
      </trkpt>
      <trkpt lat="47.8152" lon="7.09736">
        <ele>326.5</ele>
        <time>2021-10-25T11:54:51Z</time>
      </trkpt>
      <trkpt lat="47.81538" lon="7.09625">
        <ele>326.5</ele>
        <time>2021-10-25T11:55:06Z</time>
      </trkpt>
      <trkpt lat="47.81545" lon="7.09551">
        <ele>326.99</ele>
        <time>2021-10-25T11:55:16Z</time>
      </trkpt>
      <trkpt lat="47.81546" lon="7.09544">
        <ele>326.99</ele>
        <time>2021-10-25T11:55:17Z</time>
      </trkpt>
      <trkpt lat="47.81557" lon="7.09503">
        <ele>327.95</ele>
        <time>2021-10-25T11:55:23Z</time>
      </trkpt>
      <trkpt lat="47.81563" lon="7.09466">
        <ele>328.43</ele>
        <time>2021-10-25T11:55:28Z</time>
      </trkpt>
      <trkpt lat="47.81563" lon="7.0946">
        <ele>328.91</ele>
        <time>2021-10-25T11:55:29Z</time>
      </trkpt>
      <trkpt lat="47.81564" lon="7.09453">
        <ele>328.91</ele>
        <time>2021-10-25T11:55:30Z</time>
      </trkpt>
      <trkpt lat="47.8157" lon="7.09373">
        <ele>330.35</ele>
        <time>2021-10-25T11:55:41Z</time>
      </trkpt>
      <trkpt lat="47.8157" lon="7.09366">
        <ele>330.35</ele>
        <time>2021-10-25T11:55:42Z</time>
      </trkpt>
      <trkpt lat="47.81572" lon="7.09344">
        <ele>330.83</ele>
        <time>2021-10-25T11:55:45Z</time>
      </trkpt>
      <trkpt lat="47.81573" lon="7.09336">
        <ele>330.83</ele>
        <time>2021-10-25T11:55:46Z</time>
      </trkpt>
      <trkpt lat="47.81575" lon="7.09329">
        <ele>330.83</ele>
        <time>2021-10-25T11:55:47Z</time>
      </trkpt>
      <trkpt lat="47.81604" lon="7.0922">
        <ele>329.87</ele>
        <time>2021-10-25T11:56:01Z</time>
      </trkpt>
      <trkpt lat="47.8162" lon="7.09147">
        <ele>330.83</ele>
        <time>2021-10-25T11:56:11Z</time>
      </trkpt>
      <trkpt lat="47.81634" lon="7.09114">
        <ele>331.31</ele>
        <time>2021-10-25T11:56:17Z</time>
      </trkpt>
      <trkpt lat="47.81636" lon="7.09109">
        <ele>331.79</ele>
        <time>2021-10-25T11:56:18Z</time>
      </trkpt>
      <trkpt lat="47.81638" lon="7.09103">
        <ele>331.79</ele>
        <time>2021-10-25T11:56:19Z</time>
      </trkpt>
      <trkpt lat="47.8164" lon="7.09097">
        <ele>332.27</ele>
        <time>2021-10-25T11:56:20Z</time>
      </trkpt>
      <trkpt lat="47.81642" lon="7.09092">
        <ele>332.27</ele>
        <time>2021-10-25T11:56:21Z</time>
      </trkpt>
      <trkpt lat="47.81667" lon="7.09041">
        <ele>334.2</ele>
        <time>2021-10-25T11:56:32Z</time>
      </trkpt>
      <trkpt lat="47.81697" lon="7.08999">
        <ele>337.08</ele>
        <time>2021-10-25T11:56:43Z</time>
      </trkpt>
      <trkpt lat="47.81717" lon="7.08977">
        <ele>338.04</ele>
        <time>2021-10-25T11:56:49Z</time>
      </trkpt>
      <trkpt lat="47.81778" lon="7.08944">
        <ele>335.64</ele>
        <time>2021-10-25T11:57:01Z</time>
      </trkpt>
      <trkpt lat="47.81783" lon="7.08942">
        <ele>335.16</ele>
        <time>2021-10-25T11:57:02Z</time>
      </trkpt>
      <trkpt lat="47.81813" lon="7.08927">
        <ele>334.2</ele>
        <time>2021-10-25T11:57:07Z</time>
      </trkpt>
      <trkpt lat="47.81818" lon="7.08922">
        <ele>333.71</ele>
        <time>2021-10-25T11:57:08Z</time>
      </trkpt>
      <trkpt lat="47.81823" lon="7.08918">
        <ele>333.71</ele>
        <time>2021-10-25T11:57:09Z</time>
      </trkpt>
      <trkpt lat="47.81831" lon="7.08909">
        <ele>333.71</ele>
        <time>2021-10-25T11:57:11Z</time>
      </trkpt>
      <trkpt lat="47.81835" lon="7.08903">
        <ele>333.71</ele>
        <time>2021-10-25T11:57:12Z</time>
      </trkpt>
      <trkpt lat="47.81837" lon="7.08897">
        <ele>333.71</ele>
        <time>2021-10-25T11:57:13Z</time>
      </trkpt>
      <trkpt lat="47.8184" lon="7.0889">
        <ele>333.71</ele>
        <time>2021-10-25T11:57:14Z</time>
      </trkpt>
      <trkpt lat="47.81841" lon="7.08883">
        <ele>333.23</ele>
        <time>2021-10-25T11:57:15Z</time>
      </trkpt>
      <trkpt lat="47.81843" lon="7.08875">
        <ele>333.23</ele>
        <time>2021-10-25T11:57:16Z</time>
      </trkpt>
      <trkpt lat="47.81845" lon="7.08867">
        <ele>333.23</ele>
        <time>2021-10-25T11:57:17Z</time>
      </trkpt>
      <trkpt lat="47.81852" lon="7.0884">
        <ele>332.75</ele>
        <time>2021-10-25T11:57:21Z</time>
      </trkpt>
      <trkpt lat="47.81857" lon="7.08827">
        <ele>333.23</ele>
        <time>2021-10-25T11:57:23Z</time>
      </trkpt>
      <trkpt lat="47.81859" lon="7.08821">
        <ele>333.23</ele>
        <time>2021-10-25T11:57:24Z</time>
      </trkpt>
      <trkpt lat="47.81861" lon="7.08814">
        <ele>333.23</ele>
        <time>2021-10-25T11:57:25Z</time>
      </trkpt>
      <trkpt lat="47.81862" lon="7.08808">
        <ele>333.23</ele>
        <time>2021-10-25T11:57:26Z</time>
      </trkpt>
      <trkpt lat="47.81864" lon="7.08801">
        <ele>333.23</ele>
        <time>2021-10-25T11:57:27Z</time>
      </trkpt>
      <trkpt lat="47.81866" lon="7.08794">
        <ele>333.23</ele>
        <time>2021-10-25T11:57:28Z</time>
      </trkpt>
      <trkpt lat="47.81869" lon="7.08788">
        <ele>333.23</ele>
        <time>2021-10-25T11:57:29Z</time>
      </trkpt>
      <trkpt lat="47.8187" lon="7.08782">
        <ele>333.23</ele>
        <time>2021-10-25T11:57:30Z</time>
      </trkpt>
      <trkpt lat="47.81895" lon="7.08737">
        <ele>334.2</ele>
        <time>2021-10-25T11:57:40Z</time>
      </trkpt>
      <trkpt lat="47.81924" lon="7.08677">
        <ele>334.68</ele>
        <time>2021-10-25T11:57:50Z</time>
      </trkpt>
      <trkpt lat="47.81964" lon="7.08604">
        <ele>335.16</ele>
        <time>2021-10-25T11:58:02Z</time>
      </trkpt>
      <trkpt lat="47.81974" lon="7.08588">
        <ele>336.6</ele>
        <time>2021-10-25T11:58:05Z</time>
      </trkpt>
      <trkpt lat="47.82007" lon="7.08517">
        <ele>335.64</ele>
        <time>2021-10-25T11:58:17Z</time>
      </trkpt>
      <trkpt lat="47.8201" lon="7.0851">
        <ele>335.64</ele>
        <time>2021-10-25T11:58:18Z</time>
      </trkpt>
      <trkpt lat="47.82013" lon="7.08504">
        <ele>335.64</ele>
        <time>2021-10-25T11:58:19Z</time>
      </trkpt>
      <trkpt lat="47.82017" lon="7.08497">
        <ele>335.64</ele>
        <time>2021-10-25T11:58:20Z</time>
      </trkpt>
      <trkpt lat="47.82021" lon="7.08492">
        <ele>335.64</ele>
        <time>2021-10-25T11:58:21Z</time>
      </trkpt>
      <trkpt lat="47.82025" lon="7.08488">
        <ele>335.64</ele>
        <time>2021-10-25T11:58:22Z</time>
      </trkpt>
      <trkpt lat="47.82029" lon="7.08484">
        <ele>335.64</ele>
        <time>2021-10-25T11:58:23Z</time>
      </trkpt>
      <trkpt lat="47.82034" lon="7.0848">
        <ele>335.64</ele>
        <time>2021-10-25T11:58:24Z</time>
      </trkpt>
      <trkpt lat="47.82038" lon="7.08478">
        <ele>336.12</ele>
        <time>2021-10-25T11:58:25Z</time>
      </trkpt>
      <trkpt lat="47.82042" lon="7.08475">
        <ele>336.12</ele>
        <time>2021-10-25T11:58:26Z</time>
      </trkpt>
      <trkpt lat="47.82051" lon="7.08471">
        <ele>336.12</ele>
        <time>2021-10-25T11:58:28Z</time>
      </trkpt>
      <trkpt lat="47.82056" lon="7.08471">
        <ele>336.12</ele>
        <time>2021-10-25T11:58:29Z</time>
      </trkpt>
      <trkpt lat="47.82065" lon="7.08471">
        <ele>336.12</ele>
        <time>2021-10-25T11:58:31Z</time>
      </trkpt>
      <trkpt lat="47.82069" lon="7.08471">
        <ele>336.6</ele>
        <time>2021-10-25T11:58:32Z</time>
      </trkpt>
      <trkpt lat="47.82072" lon="7.08471">
        <ele>336.6</ele>
        <time>2021-10-25T11:58:33Z</time>
      </trkpt>
      <trkpt lat="47.82076" lon="7.0847">
        <ele>336.6</ele>
        <time>2021-10-25T11:58:34Z</time>
      </trkpt>
      <trkpt lat="47.82079" lon="7.0847">
        <ele>336.6</ele>
        <time>2021-10-25T11:58:35Z</time>
      </trkpt>
      <trkpt lat="47.82087" lon="7.08471">
        <ele>336.6</ele>
        <time>2021-10-25T11:58:37Z</time>
      </trkpt>
      <trkpt lat="47.82106" lon="7.08475">
        <ele>337.08</ele>
        <time>2021-10-25T11:58:41Z</time>
      </trkpt>
      <trkpt lat="47.8211" lon="7.08476">
        <ele>337.08</ele>
        <time>2021-10-25T11:58:42Z</time>
      </trkpt>
      <trkpt lat="47.82113" lon="7.08477">
        <ele>337.08</ele>
        <time>2021-10-25T11:58:43Z</time>
      </trkpt>
      <trkpt lat="47.82116" lon="7.08478">
        <ele>337.08</ele>
        <time>2021-10-25T11:58:44Z</time>
      </trkpt>
      <trkpt lat="47.8212" lon="7.08479">
        <ele>336.6</ele>
        <time>2021-10-25T11:58:45Z</time>
      </trkpt>
      <trkpt lat="47.82162" lon="7.08489">
        <ele>337.08</ele>
        <time>2021-10-25T11:58:53Z</time>
      </trkpt>
      <trkpt lat="47.82172" lon="7.0849">
        <ele>337.08</ele>
        <time>2021-10-25T11:58:55Z</time>
      </trkpt>
      <trkpt lat="47.82177" lon="7.08491">
        <ele>337.08</ele>
        <time>2021-10-25T11:58:56Z</time>
      </trkpt>
      <trkpt lat="47.82181" lon="7.08491">
        <ele>337.08</ele>
        <time>2021-10-25T11:58:57Z</time>
      </trkpt>
      <trkpt lat="47.82185" lon="7.08492">
        <ele>337.08</ele>
        <time>2021-10-25T11:58:58Z</time>
      </trkpt>
      <trkpt lat="47.82189" lon="7.08492">
        <ele>337.08</ele>
        <time>2021-10-25T11:58:59Z</time>
      </trkpt>
      <trkpt lat="47.82206" lon="7.08489">
        <ele>337.56</ele>
        <time>2021-10-25T11:59:03Z</time>
      </trkpt>
      <trkpt lat="47.82211" lon="7.08488">
        <ele>337.08</ele>
        <time>2021-10-25T11:59:04Z</time>
      </trkpt>
      <trkpt lat="47.82262" lon="7.08482">
        <ele>337.56</ele>
        <time>2021-10-25T11:59:17Z</time>
      </trkpt>
      <trkpt lat="47.82265" lon="7.08485">
        <ele>337.56</ele>
        <time>2021-10-25T11:59:18Z</time>
      </trkpt>
      <trkpt lat="47.82269" lon="7.08487">
        <ele>337.56</ele>
        <time>2021-10-25T11:59:19Z</time>
      </trkpt>
      <trkpt lat="47.823" lon="7.08513">
        <ele>338.04</ele>
        <time>2021-10-25T11:59:28Z</time>
      </trkpt>
      <trkpt lat="47.82332" lon="7.08542">
        <ele>339</ele>
        <time>2021-10-25T11:59:37Z</time>
      </trkpt>
      <trkpt lat="47.82367" lon="7.08554">
        <ele>339.96</ele>
        <time>2021-10-25T11:59:48Z</time>
      </trkpt>
      <trkpt lat="47.8242" lon="7.08563">
        <ele>340.92</ele>
        <time>2021-10-25T11:59:58Z</time>
      </trkpt>
      <trkpt lat="47.82465" lon="7.08556">
        <ele>342.85</ele>
        <time>2021-10-25T12:00:07Z</time>
      </trkpt>
      <trkpt lat="47.82469" lon="7.08555">
        <ele>341.41</ele>
        <time>2021-10-25T12:00:08Z</time>
      </trkpt>
      <trkpt lat="47.82486" lon="7.08549">
        <ele>341.41</ele>
        <time>2021-10-25T12:00:12Z</time>
      </trkpt>
      <trkpt lat="47.8249" lon="7.08547">
        <ele>341.41</ele>
        <time>2021-10-25T12:00:13Z</time>
      </trkpt>
      <trkpt lat="47.82494" lon="7.08544">
        <ele>341.41</ele>
        <time>2021-10-25T12:00:14Z</time>
      </trkpt>
      <trkpt lat="47.82498" lon="7.08542">
        <ele>341.41</ele>
        <time>2021-10-25T12:00:15Z</time>
      </trkpt>
      <trkpt lat="47.82503" lon="7.08541">
        <ele>341.89</ele>
        <time>2021-10-25T12:00:16Z</time>
      </trkpt>
      <trkpt lat="47.82507" lon="7.0854">
        <ele>341.89</ele>
        <time>2021-10-25T12:00:17Z</time>
      </trkpt>
      <trkpt lat="47.82511" lon="7.08538">
        <ele>341.89</ele>
        <time>2021-10-25T12:00:18Z</time>
      </trkpt>
      <trkpt lat="47.82515" lon="7.08536">
        <ele>341.89</ele>
        <time>2021-10-25T12:00:19Z</time>
      </trkpt>
      <trkpt lat="47.82518" lon="7.08534">
        <ele>341.89</ele>
        <time>2021-10-25T12:00:20Z</time>
      </trkpt>
      <trkpt lat="47.82521" lon="7.08531">
        <ele>342.37</ele>
        <time>2021-10-25T12:00:21Z</time>
      </trkpt>
      <trkpt lat="47.82523" lon="7.08529">
        <ele>342.37</ele>
        <time>2021-10-25T12:00:22Z</time>
      </trkpt>
      <trkpt lat="47.82531" lon="7.08521">
        <ele>342.85</ele>
        <time>2021-10-25T12:00:25Z</time>
      </trkpt>
      <trkpt lat="47.82578" lon="7.08517">
        <ele>343.81</ele>
        <time>2021-10-25T12:00:36Z</time>
      </trkpt>
      <trkpt lat="47.82611" lon="7.08513">
        <ele>344.29</ele>
        <time>2021-10-25T12:00:44Z</time>
      </trkpt>
      <trkpt lat="47.82627" lon="7.08515">
        <ele>344.77</ele>
        <time>2021-10-25T12:00:48Z</time>
      </trkpt>
      <trkpt lat="47.82641" lon="7.08512">
        <ele>345.25</ele>
        <time>2021-10-25T12:00:51Z</time>
      </trkpt>
      <trkpt lat="47.82646" lon="7.08511">
        <ele>345.25</ele>
        <time>2021-10-25T12:00:52Z</time>
      </trkpt>
      <trkpt lat="47.82683" lon="7.08503">
        <ele>345.25</ele>
        <time>2021-10-25T12:01:00Z</time>
      </trkpt>
      <trkpt lat="47.82692" lon="7.085">
        <ele>345.73</ele>
        <time>2021-10-25T12:01:02Z</time>
      </trkpt>
      <trkpt lat="47.82738" lon="7.0848">
        <ele>347.17</ele>
        <time>2021-10-25T12:01:14Z</time>
      </trkpt>
      <trkpt lat="47.82778" lon="7.08481">
        <ele>350.06</ele>
        <time>2021-10-25T12:01:26Z</time>
      </trkpt>
      <trkpt lat="47.82791" lon="7.08482">
        <ele>351.02</ele>
        <time>2021-10-25T12:01:30Z</time>
      </trkpt>
      <trkpt lat="47.82825" lon="7.08464">
        <ele>352.94</ele>
        <time>2021-10-25T12:01:41Z</time>
      </trkpt>
      <trkpt lat="47.82848" lon="7.08439">
        <ele>352.46</ele>
        <time>2021-10-25T12:01:48Z</time>
      </trkpt>
      <trkpt lat="47.829" lon="7.08407">
        <ele>350.06</ele>
        <time>2021-10-25T12:01:58Z</time>
      </trkpt>
      <trkpt lat="47.82919" lon="7.08397">
        <ele>349.1</ele>
        <time>2021-10-25T12:02:01Z</time>
      </trkpt>
      <trkpt lat="47.82925" lon="7.08392">
        <ele>348.62</ele>
        <time>2021-10-25T12:02:02Z</time>
      </trkpt>
      <trkpt lat="47.82931" lon="7.08387">
        <ele>348.62</ele>
        <time>2021-10-25T12:02:03Z</time>
      </trkpt>
      <trkpt lat="47.82966" lon="7.08362">
        <ele>349.1</ele>
        <time>2021-10-25T12:02:10Z</time>
      </trkpt>
      <trkpt lat="47.8297" lon="7.08357">
        <ele>349.1</ele>
        <time>2021-10-25T12:02:11Z</time>
      </trkpt>
      <trkpt lat="47.82972" lon="7.08352">
        <ele>349.1</ele>
        <time>2021-10-25T12:02:12Z</time>
      </trkpt>
      <trkpt lat="47.83005" lon="7.08296">
        <ele>347.65</ele>
        <time>2021-10-25T12:02:21Z</time>
      </trkpt>
      <trkpt lat="47.8301" lon="7.08292">
        <ele>347.65</ele>
        <time>2021-10-25T12:02:22Z</time>
      </trkpt>
      <trkpt lat="47.83014" lon="7.08288">
        <ele>347.65</ele>
        <time>2021-10-25T12:02:23Z</time>
      </trkpt>
      <trkpt lat="47.83047" lon="7.0827">
        <ele>348.13</ele>
        <time>2021-10-25T12:02:32Z</time>
      </trkpt>
      <trkpt lat="47.83051" lon="7.08268">
        <ele>348.13</ele>
        <time>2021-10-25T12:02:33Z</time>
      </trkpt>
      <trkpt lat="47.83109" lon="7.08251">
        <ele>348.13</ele>
        <time>2021-10-25T12:02:46Z</time>
      </trkpt>
      <trkpt lat="47.83157" lon="7.08245">
        <ele>348.62</ele>
        <time>2021-10-25T12:02:57Z</time>
      </trkpt>
      <trkpt lat="47.832" lon="7.08202">
        <ele>349.1</ele>
        <time>2021-10-25T12:03:08Z</time>
      </trkpt>
      <trkpt lat="47.83204" lon="7.08197">
        <ele>348.62</ele>
        <time>2021-10-25T12:03:09Z</time>
      </trkpt>
      <trkpt lat="47.83208" lon="7.08192">
        <ele>349.1</ele>
        <time>2021-10-25T12:03:10Z</time>
      </trkpt>
      <trkpt lat="47.83212" lon="7.08186">
        <ele>348.62</ele>
        <time>2021-10-25T12:03:11Z</time>
      </trkpt>
      <trkpt lat="47.83216" lon="7.08181">
        <ele>349.1</ele>
        <time>2021-10-25T12:03:12Z</time>
      </trkpt>
      <trkpt lat="47.83263" lon="7.08118">
        <ele>349.58</ele>
        <time>2021-10-25T12:03:25Z</time>
      </trkpt>
      <trkpt lat="47.83274" lon="7.08105">
        <ele>349.58</ele>
        <time>2021-10-25T12:03:28Z</time>
      </trkpt>
      <trkpt lat="47.83277" lon="7.08102">
        <ele>349.58</ele>
        <time>2021-10-25T12:03:29Z</time>
      </trkpt>
      <trkpt lat="47.83281" lon="7.08099">
        <ele>349.58</ele>
        <time>2021-10-25T12:03:30Z</time>
      </trkpt>
      <trkpt lat="47.83285" lon="7.08097">
        <ele>349.58</ele>
        <time>2021-10-25T12:03:31Z</time>
      </trkpt>
      <trkpt lat="47.83289" lon="7.08095">
        <ele>349.58</ele>
        <time>2021-10-25T12:03:32Z</time>
      </trkpt>
      <trkpt lat="47.83293" lon="7.08094">
        <ele>350.06</ele>
        <time>2021-10-25T12:03:33Z</time>
      </trkpt>
      <trkpt lat="47.83298" lon="7.08093">
        <ele>350.06</ele>
        <time>2021-10-25T12:03:34Z</time>
      </trkpt>
      <trkpt lat="47.83302" lon="7.08092">
        <ele>350.06</ele>
        <time>2021-10-25T12:03:35Z</time>
      </trkpt>
      <trkpt lat="47.83366" lon="7.08099">
        <ele>351.02</ele>
        <time>2021-10-25T12:03:49Z</time>
      </trkpt>
      <trkpt lat="47.83418" lon="7.08117">
        <ele>352.46</ele>
        <time>2021-10-25T12:04:01Z</time>
      </trkpt>
      <trkpt lat="47.83472" lon="7.08137">
        <ele>353.9</ele>
        <time>2021-10-25T12:04:14Z</time>
      </trkpt>
      <trkpt lat="47.83476" lon="7.08139">
        <ele>354.38</ele>
        <time>2021-10-25T12:04:15Z</time>
      </trkpt>
      <trkpt lat="47.83531" lon="7.08164">
        <ele>354.86</ele>
        <time>2021-10-25T12:04:27Z</time>
      </trkpt>
      <trkpt lat="47.83581" lon="7.08174">
        <ele>355.34</ele>
        <time>2021-10-25T12:04:40Z</time>
      </trkpt>
      <trkpt lat="47.83603" lon="7.0818">
        <ele>355.34</ele>
        <time>2021-10-25T12:04:45Z</time>
      </trkpt>
      <trkpt lat="47.83607" lon="7.08182">
        <ele>355.83</ele>
        <time>2021-10-25T12:04:46Z</time>
      </trkpt>
      <trkpt lat="47.83611" lon="7.08183">
        <ele>355.83</ele>
        <time>2021-10-25T12:04:47Z</time>
      </trkpt>
      <trkpt lat="47.83615" lon="7.08184">
        <ele>355.83</ele>
        <time>2021-10-25T12:04:48Z</time>
      </trkpt>
      <trkpt lat="47.83619" lon="7.08185">
        <ele>355.83</ele>
        <time>2021-10-25T12:04:49Z</time>
      </trkpt>
      <trkpt lat="47.83623" lon="7.08185">
        <ele>356.31</ele>
        <time>2021-10-25T12:04:50Z</time>
      </trkpt>
      <trkpt lat="47.83665" lon="7.08179">
        <ele>357.75</ele>
        <time>2021-10-25T12:05:03Z</time>
      </trkpt>
      <trkpt lat="47.83684" lon="7.08181">
        <ele>358.23</ele>
        <time>2021-10-25T12:05:08Z</time>
      </trkpt>
      <trkpt lat="47.83693" lon="7.08185">
        <ele>358.23</ele>
        <time>2021-10-25T12:05:10Z</time>
      </trkpt>
      <trkpt lat="47.83722" lon="7.08202">
        <ele>359.19</ele>
        <time>2021-10-25T12:05:19Z</time>
      </trkpt>
      <trkpt lat="47.8377" lon="7.08208">
        <ele>360.63</ele>
        <time>2021-10-25T12:05:32Z</time>
      </trkpt>
      <trkpt lat="47.83809" lon="7.08211">
        <ele>363.04</ele>
        <time>2021-10-25T12:05:45Z</time>
      </trkpt>
      <trkpt lat="47.83857" lon="7.08219">
        <ele>363.52</ele>
        <time>2021-10-25T12:05:58Z</time>
      </trkpt>
      <trkpt lat="47.83866" lon="7.08222">
        <ele>364</ele>
        <time>2021-10-25T12:06:00Z</time>
      </trkpt>
      <trkpt lat="47.83869" lon="7.08223">
        <ele>364</ele>
        <time>2021-10-25T12:06:01Z</time>
      </trkpt>
      <trkpt lat="47.83872" lon="7.08226">
        <ele>364</ele>
        <time>2021-10-25T12:06:02Z</time>
      </trkpt>
      <trkpt lat="47.83875" lon="7.08229">
        <ele>364.48</ele>
        <time>2021-10-25T12:06:03Z</time>
      </trkpt>
      <trkpt lat="47.83878" lon="7.08232">
        <ele>364.48</ele>
        <time>2021-10-25T12:06:04Z</time>
      </trkpt>
      <trkpt lat="47.8388" lon="7.08235">
        <ele>364.96</ele>
        <time>2021-10-25T12:06:05Z</time>
      </trkpt>
      <trkpt lat="47.839" lon="7.08256">
        <ele>366.88</ele>
        <time>2021-10-25T12:06:15Z</time>
      </trkpt>
      <trkpt lat="47.83903" lon="7.08255">
        <ele>366.88</ele>
        <time>2021-10-25T12:06:16Z</time>
      </trkpt>
      <trkpt lat="47.83907" lon="7.08253">
        <ele>366.88</ele>
        <time>2021-10-25T12:06:17Z</time>
      </trkpt>
      <trkpt lat="47.83909" lon="7.0825">
        <ele>367.36</ele>
        <time>2021-10-25T12:06:18Z</time>
      </trkpt>
      <trkpt lat="47.83911" lon="7.08245">
        <ele>366.88</ele>
        <time>2021-10-25T12:06:19Z</time>
      </trkpt>
      <trkpt lat="47.83912" lon="7.08241">
        <ele>366.88</ele>
        <time>2021-10-25T12:06:20Z</time>
      </trkpt>
      <trkpt lat="47.83913" lon="7.08235">
        <ele>366.88</ele>
        <time>2021-10-25T12:06:21Z</time>
      </trkpt>
      <trkpt lat="47.83918" lon="7.08206">
        <ele>366.4</ele>
        <time>2021-10-25T12:06:26Z</time>
      </trkpt>
      <trkpt lat="47.83925" lon="7.08173">
        <ele>365.44</ele>
        <time>2021-10-25T12:06:31Z</time>
      </trkpt>
      <trkpt lat="47.83927" lon="7.08166">
        <ele>364.96</ele>
        <time>2021-10-25T12:06:32Z</time>
      </trkpt>
      <trkpt lat="47.83948" lon="7.08108">
        <ele>361.59</ele>
        <time>2021-10-25T12:06:39Z</time>
      </trkpt>
      <trkpt lat="47.8395" lon="7.08098">
        <ele>361.11</ele>
        <time>2021-10-25T12:06:40Z</time>
      </trkpt>
      <trkpt lat="47.83954" lon="7.08077">
        <ele>359.67</ele>
        <time>2021-10-25T12:06:42Z</time>
      </trkpt>
      <trkpt lat="47.83958" lon="7.08056">
        <ele>359.19</ele>
        <time>2021-10-25T12:06:44Z</time>
      </trkpt>
      <trkpt lat="47.83961" lon="7.08047">
        <ele>359.19</ele>
        <time>2021-10-25T12:06:45Z</time>
      </trkpt>
      <trkpt lat="47.83964" lon="7.08038">
        <ele>358.71</ele>
        <time>2021-10-25T12:06:46Z</time>
      </trkpt>
      <trkpt lat="47.83968" lon="7.0803">
        <ele>358.71</ele>
        <time>2021-10-25T12:06:47Z</time>
      </trkpt>
      <trkpt lat="47.83973" lon="7.08024">
        <ele>358.23</ele>
        <time>2021-10-25T12:06:48Z</time>
      </trkpt>
      <trkpt lat="47.83978" lon="7.0802">
        <ele>358.23</ele>
        <time>2021-10-25T12:06:49Z</time>
      </trkpt>
      <trkpt lat="47.83984" lon="7.08017">
        <ele>358.23</ele>
        <time>2021-10-25T12:06:50Z</time>
      </trkpt>
      <trkpt lat="47.84036" lon="7.07991">
        <ele>359.19</ele>
        <time>2021-10-25T12:07:00Z</time>
      </trkpt>
      <trkpt lat="47.84041" lon="7.07986">
        <ele>359.19</ele>
        <time>2021-10-25T12:07:01Z</time>
      </trkpt>
      <trkpt lat="47.84046" lon="7.0798">
        <ele>359.19</ele>
        <time>2021-10-25T12:07:02Z</time>
      </trkpt>
      <trkpt lat="47.84049" lon="7.07974">
        <ele>359.19</ele>
        <time>2021-10-25T12:07:03Z</time>
      </trkpt>
      <trkpt lat="47.84053" lon="7.07968">
        <ele>359.19</ele>
        <time>2021-10-25T12:07:04Z</time>
      </trkpt>
      <trkpt lat="47.84096" lon="7.07885">
        <ele>359.67</ele>
        <time>2021-10-25T12:07:18Z</time>
      </trkpt>
      <trkpt lat="47.84131" lon="7.07796">
        <ele>360.63</ele>
        <time>2021-10-25T12:07:32Z</time>
      </trkpt>
      <trkpt lat="47.8416" lon="7.07753">
        <ele>362.55</ele>
        <time>2021-10-25T12:07:44Z</time>
      </trkpt>
      <trkpt lat="47.84201" lon="7.07729">
        <ele>364.48</ele>
        <time>2021-10-25T12:07:57Z</time>
      </trkpt>
      <trkpt lat="47.84242" lon="7.07691">
        <ele>366.88</ele>
        <time>2021-10-25T12:08:10Z</time>
      </trkpt>
      <trkpt lat="47.8427" lon="7.07615">
        <ele>367.84</ele>
        <time>2021-10-25T12:08:25Z</time>
      </trkpt>
      <trkpt lat="47.84299" lon="7.07522">
        <ele>368.32</ele>
        <time>2021-10-25T12:08:40Z</time>
      </trkpt>
      <trkpt lat="47.84309" lon="7.07457">
        <ele>367.84</ele>
        <time>2021-10-25T12:08:51Z</time>
      </trkpt>
      <trkpt lat="47.84309" lon="7.0745">
        <ele>367.36</ele>
        <time>2021-10-25T12:08:52Z</time>
      </trkpt>
      <trkpt lat="47.8431" lon="7.07443">
        <ele>367.36</ele>
        <time>2021-10-25T12:08:53Z</time>
      </trkpt>
      <trkpt lat="47.84312" lon="7.07435">
        <ele>367.36</ele>
        <time>2021-10-25T12:08:54Z</time>
      </trkpt>
      <trkpt lat="47.84314" lon="7.07428">
        <ele>367.36</ele>
        <time>2021-10-25T12:08:55Z</time>
      </trkpt>
      <trkpt lat="47.84316" lon="7.07421">
        <ele>367.36</ele>
        <time>2021-10-25T12:08:56Z</time>
      </trkpt>
      <trkpt lat="47.84329" lon="7.07368">
        <ele>366.4</ele>
        <time>2021-10-25T12:09:04Z</time>
      </trkpt>
      <trkpt lat="47.8433" lon="7.07362">
        <ele>366.4</ele>
        <time>2021-10-25T12:09:05Z</time>
      </trkpt>
      <trkpt lat="47.84331" lon="7.07357">
        <ele>365.92</ele>
        <time>2021-10-25T12:09:06Z</time>
      </trkpt>
      <trkpt lat="47.84332" lon="7.07352">
        <ele>365.92</ele>
        <time>2021-10-25T12:09:07Z</time>
      </trkpt>
      <trkpt lat="47.84333" lon="7.07347">
        <ele>365.44</ele>
        <time>2021-10-25T12:09:08Z</time>
      </trkpt>
      <trkpt lat="47.84335" lon="7.07343">
        <ele>365.44</ele>
        <time>2021-10-25T12:09:09Z</time>
      </trkpt>
      <trkpt lat="47.84338" lon="7.07337">
        <ele>365.44</ele>
        <time>2021-10-25T12:09:11Z</time>
      </trkpt>
      <trkpt lat="47.8434" lon="7.07336">
        <ele>364.96</ele>
        <time>2021-10-25T12:09:12Z</time>
      </trkpt>
      <trkpt lat="47.84343" lon="7.07336">
        <ele>364.96</ele>
        <time>2021-10-25T12:09:13Z</time>
      </trkpt>
      <trkpt lat="47.84351" lon="7.07339">
        <ele>364.96</ele>
        <time>2021-10-25T12:09:15Z</time>
      </trkpt>
      <trkpt lat="47.84355" lon="7.07342">
        <ele>364.96</ele>
        <time>2021-10-25T12:09:16Z</time>
      </trkpt>
      <trkpt lat="47.8441" lon="7.07368">
        <ele>366.4</ele>
        <time>2021-10-25T12:09:29Z</time>
      </trkpt>
      <trkpt lat="47.84439" lon="7.07369">
        <ele>367.36</ele>
        <time>2021-10-25T12:09:39Z</time>
      </trkpt>
      <trkpt lat="47.84443" lon="7.07368">
        <ele>367.36</ele>
        <time>2021-10-25T12:09:41Z</time>
      </trkpt>
      <trkpt lat="47.84444" lon="7.07367">
        <ele>367.36</ele>
        <time>2021-10-25T12:09:42Z</time>
      </trkpt>
      <trkpt lat="47.84446" lon="7.07365">
        <ele>367.84</ele>
        <time>2021-10-25T12:09:54Z</time>
      </trkpt>
      <trkpt lat="47.84446" lon="7.07365">
        <ele>367.84</ele>
        <time>2021-10-25T12:10:18Z</time>
      </trkpt>
      <trkpt lat="47.84447" lon="7.07365">
        <ele>368.32</ele>
        <time>2021-10-25T12:10:49Z</time>
      </trkpt>
      <trkpt lat="47.84447" lon="7.07365">
        <ele>368.32</ele>
        <time>2021-10-25T12:11:18Z</time>
      </trkpt>
      <trkpt lat="47.84451" lon="7.07363">
        <ele>368.32</ele>
        <time>2021-10-25T12:11:30Z</time>
      </trkpt>
      <trkpt lat="47.84453" lon="7.07363">
        <ele>367.84</ele>
        <time>2021-10-25T12:11:31Z</time>
      </trkpt>
      <trkpt lat="47.84455" lon="7.07363">
        <ele>368.8</ele>
        <time>2021-10-25T12:11:32Z</time>
      </trkpt>
      <trkpt lat="47.84457" lon="7.07364">
        <ele>368.8</ele>
        <time>2021-10-25T12:11:33Z</time>
      </trkpt>
      <trkpt lat="47.8446" lon="7.07365">
        <ele>368.8</ele>
        <time>2021-10-25T12:11:34Z</time>
      </trkpt>
      <trkpt lat="47.84504" lon="7.07385">
        <ele>370.24</ele>
        <time>2021-10-25T12:11:46Z</time>
      </trkpt>
      <trkpt lat="47.8457" lon="7.07416">
        <ele>372.17</ele>
        <time>2021-10-25T12:12:02Z</time>
      </trkpt>
      <trkpt lat="47.84612" lon="7.07441">
        <ele>375.05</ele>
        <time>2021-10-25T12:12:14Z</time>
      </trkpt>
      <trkpt lat="47.84645" lon="7.07485">
        <ele>375.05</ele>
        <time>2021-10-25T12:12:25Z</time>
      </trkpt>
      <trkpt lat="47.84685" lon="7.07537">
        <ele>376.97</ele>
        <time>2021-10-25T12:12:38Z</time>
      </trkpt>
      <trkpt lat="47.84705" lon="7.07605">
        <ele>378.42</ele>
        <time>2021-10-25T12:12:51Z</time>
      </trkpt>
      <trkpt lat="47.8473" lon="7.07661">
        <ele>380.34</ele>
        <time>2021-10-25T12:13:04Z</time>
      </trkpt>
      <trkpt lat="47.84759" lon="7.07703">
        <ele>383.7</ele>
        <time>2021-10-25T12:13:16Z</time>
      </trkpt>
      <trkpt lat="47.84792" lon="7.0777">
        <ele>386.11</ele>
        <time>2021-10-25T12:13:31Z</time>
      </trkpt>
      <trkpt lat="47.84801" lon="7.07783">
        <ele>386.59</ele>
        <time>2021-10-25T12:13:34Z</time>
      </trkpt>
      <trkpt lat="47.84807" lon="7.07791">
        <ele>386.59</ele>
        <time>2021-10-25T12:13:36Z</time>
      </trkpt>
      <trkpt lat="47.8481" lon="7.07793">
        <ele>386.59</ele>
        <time>2021-10-25T12:13:37Z</time>
      </trkpt>
      <trkpt lat="47.8486" lon="7.07843">
        <ele>388.03</ele>
        <time>2021-10-25T12:13:52Z</time>
      </trkpt>
      <trkpt lat="47.84898" lon="7.07888">
        <ele>389.47</ele>
        <time>2021-10-25T12:14:06Z</time>
      </trkpt>
      <trkpt lat="47.84939" lon="7.07905">
        <ele>389.95</ele>
        <time>2021-10-25T12:14:18Z</time>
      </trkpt>
      <trkpt lat="47.84985" lon="7.07927">
        <ele>391.39</ele>
        <time>2021-10-25T12:14:31Z</time>
      </trkpt>
      <trkpt lat="47.85021" lon="7.07977">
        <ele>393.8</ele>
        <time>2021-10-25T12:14:45Z</time>
      </trkpt>
      <trkpt lat="47.85057" lon="7.08022">
        <ele>396.68</ele>
        <time>2021-10-25T12:14:59Z</time>
      </trkpt>
      <trkpt lat="47.85095" lon="7.08034">
        <ele>397.64</ele>
        <time>2021-10-25T12:15:11Z</time>
      </trkpt>
      <trkpt lat="47.85107" lon="7.0803">
        <ele>397.64</ele>
        <time>2021-10-25T12:15:14Z</time>
      </trkpt>
      <trkpt lat="47.8514" lon="7.08003">
        <ele>396.68</ele>
        <time>2021-10-25T12:15:21Z</time>
      </trkpt>
      <trkpt lat="47.85144" lon="7.07997">
        <ele>396.2</ele>
        <time>2021-10-25T12:15:22Z</time>
      </trkpt>
      <trkpt lat="47.85179" lon="7.07959">
        <ele>396.2</ele>
        <time>2021-10-25T12:15:32Z</time>
      </trkpt>
      <trkpt lat="47.85207" lon="7.07949">
        <ele>397.16</ele>
        <time>2021-10-25T12:15:40Z</time>
      </trkpt>
      <trkpt lat="47.85243" lon="7.07959">
        <ele>398.6</ele>
        <time>2021-10-25T12:15:51Z</time>
      </trkpt>
      <trkpt lat="47.85288" lon="7.07972">
        <ele>400.05</ele>
        <time>2021-10-25T12:16:04Z</time>
      </trkpt>
      <trkpt lat="47.85341" lon="7.07985">
        <ele>401.97</ele>
        <time>2021-10-25T12:16:18Z</time>
      </trkpt>
      <trkpt lat="47.85396" lon="7.07993">
        <ele>404.37</ele>
        <time>2021-10-25T12:16:34Z</time>
      </trkpt>
      <trkpt lat="47.85446" lon="7.07998">
        <ele>406.77</ele>
        <time>2021-10-25T12:16:48Z</time>
      </trkpt>
      <trkpt lat="47.85494" lon="7.08002">
        <ele>409.66</ele>
        <time>2021-10-25T12:17:01Z</time>
      </trkpt>
      <trkpt lat="47.8555" lon="7.08009">
        <ele>412.06</ele>
        <time>2021-10-25T12:17:16Z</time>
      </trkpt>
      <trkpt lat="47.85584" lon="7.08011">
        <ele>413.5</ele>
        <time>2021-10-25T12:17:25Z</time>
      </trkpt>
      <trkpt lat="47.85588" lon="7.08011">
        <ele>413.98</ele>
        <time>2021-10-25T12:17:26Z</time>
      </trkpt>
      <trkpt lat="47.85641" lon="7.08016">
        <ele>415.91</ele>
        <time>2021-10-25T12:17:40Z</time>
      </trkpt>
      <trkpt lat="47.8568" lon="7.0802">
        <ele>417.83</ele>
        <time>2021-10-25T12:17:50Z</time>
      </trkpt>
      <trkpt lat="47.85749" lon="7.08025">
        <ele>420.71</ele>
        <time>2021-10-25T12:18:08Z</time>
      </trkpt>
      <trkpt lat="47.85803" lon="7.08025">
        <ele>423.12</ele>
        <time>2021-10-25T12:18:22Z</time>
      </trkpt>
      <trkpt lat="47.85807" lon="7.08025">
        <ele>423.6</ele>
        <time>2021-10-25T12:18:23Z</time>
      </trkpt>
      <trkpt lat="47.85811" lon="7.08025">
        <ele>423.6</ele>
        <time>2021-10-25T12:18:24Z</time>
      </trkpt>
      <trkpt lat="47.85855" lon="7.08023">
        <ele>426.48</ele>
        <time>2021-10-25T12:18:37Z</time>
      </trkpt>
      <trkpt lat="47.85889" lon="7.08">
        <ele>428.89</ele>
        <time>2021-10-25T12:18:50Z</time>
      </trkpt>
      <trkpt lat="47.85896" lon="7.07997">
        <ele>429.85</ele>
        <time>2021-10-25T12:18:54Z</time>
      </trkpt>
      <trkpt lat="47.85898" lon="7.07996">
        <ele>430.33</ele>
        <time>2021-10-25T12:18:55Z</time>
      </trkpt>
      <trkpt lat="47.85899" lon="7.07995">
        <ele>430.33</ele>
        <time>2021-10-25T12:18:56Z</time>
      </trkpt>
      <trkpt lat="47.85901" lon="7.07993">
        <ele>430.81</ele>
        <time>2021-10-25T12:18:57Z</time>
      </trkpt>
      <trkpt lat="47.85903" lon="7.07991">
        <ele>430.81</ele>
        <time>2021-10-25T12:18:58Z</time>
      </trkpt>
      <trkpt lat="47.85905" lon="7.0799">
        <ele>430.81</ele>
        <time>2021-10-25T12:18:59Z</time>
      </trkpt>
      <trkpt lat="47.85907" lon="7.0799">
        <ele>430.81</ele>
        <time>2021-10-25T12:19:00Z</time>
      </trkpt>
      <trkpt lat="47.85934" lon="7.07971">
        <ele>432.73</ele>
        <time>2021-10-25T12:19:10Z</time>
      </trkpt>
      <trkpt lat="47.85979" lon="7.07938">
        <ele>434.65</ele>
        <time>2021-10-25T12:19:23Z</time>
      </trkpt>
      <trkpt lat="47.86015" lon="7.07919">
        <ele>436.1</ele>
        <time>2021-10-25T12:19:36Z</time>
      </trkpt>
      <trkpt lat="47.86049" lon="7.07905">
        <ele>438.02</ele>
        <time>2021-10-25T12:19:48Z</time>
      </trkpt>
      <trkpt lat="47.8608" lon="7.07883">
        <ele>438.98</ele>
        <time>2021-10-25T12:19:58Z</time>
      </trkpt>
      <trkpt lat="47.86121" lon="7.0787">
        <ele>441.38</ele>
        <time>2021-10-25T12:20:12Z</time>
      </trkpt>
      <trkpt lat="47.86156" lon="7.07866">
        <ele>443.79</ele>
        <time>2021-10-25T12:20:24Z</time>
      </trkpt>
      <trkpt lat="47.86192" lon="7.07863">
        <ele>445.71</ele>
        <time>2021-10-25T12:20:35Z</time>
      </trkpt>
      <trkpt lat="47.86229" lon="7.07873">
        <ele>448.59</ele>
        <time>2021-10-25T12:20:49Z</time>
      </trkpt>
      <trkpt lat="47.86241" lon="7.07877">
        <ele>450.03</ele>
        <time>2021-10-25T12:20:56Z</time>
      </trkpt>
      <trkpt lat="47.86243" lon="7.07879">
        <ele>450.52</ele>
        <time>2021-10-25T12:20:57Z</time>
      </trkpt>
      <trkpt lat="47.86247" lon="7.07883">
        <ele>450.52</ele>
        <time>2021-10-25T12:20:59Z</time>
      </trkpt>
      <trkpt lat="47.86295" lon="7.079">
        <ele>453.88</ele>
        <time>2021-10-25T12:21:11Z</time>
      </trkpt>
      <trkpt lat="47.8632" lon="7.0791">
        <ele>455.8</ele>
        <time>2021-10-25T12:21:22Z</time>
      </trkpt>
      <trkpt lat="47.8635" lon="7.07924">
        <ele>457.72</ele>
        <time>2021-10-25T12:21:32Z</time>
      </trkpt>
      <trkpt lat="47.86379" lon="7.07941">
        <ele>460.61</ele>
        <time>2021-10-25T12:21:43Z</time>
      </trkpt>
      <trkpt lat="47.86386" lon="7.07956">
        <ele>463.01</ele>
        <time>2021-10-25T12:21:55Z</time>
      </trkpt>
      <trkpt lat="47.86389" lon="7.07957">
        <ele>463.01</ele>
        <time>2021-10-25T12:21:56Z</time>
      </trkpt>
      <trkpt lat="47.8639" lon="7.07958">
        <ele>463.49</ele>
        <time>2021-10-25T12:21:57Z</time>
      </trkpt>
      <trkpt lat="47.86426" lon="7.07974">
        <ele>466.38</ele>
        <time>2021-10-25T12:22:11Z</time>
      </trkpt>
      <trkpt lat="47.86497" lon="7.07969">
        <ele>468.78</ele>
        <time>2021-10-25T12:22:23Z</time>
      </trkpt>
      <trkpt lat="47.86538" lon="7.07964">
        <ele>470.22</ele>
        <time>2021-10-25T12:22:34Z</time>
      </trkpt>
      <trkpt lat="47.86573" lon="7.07957">
        <ele>472.14</ele>
        <time>2021-10-25T12:22:45Z</time>
      </trkpt>
      <trkpt lat="47.86598" lon="7.07949">
        <ele>473.59</ele>
        <time>2021-10-25T12:22:53Z</time>
      </trkpt>
      <trkpt lat="47.86624" lon="7.07939">
        <ele>475.51</ele>
        <time>2021-10-25T12:23:02Z</time>
      </trkpt>
      <trkpt lat="47.86651" lon="7.07932">
        <ele>478.87</ele>
        <time>2021-10-25T12:23:12Z</time>
      </trkpt>
      <trkpt lat="47.86691" lon="7.07906">
        <ele>480.8</ele>
        <time>2021-10-25T12:23:23Z</time>
      </trkpt>
      <trkpt lat="47.86712" lon="7.07887">
        <ele>482.24</ele>
        <time>2021-10-25T12:23:29Z</time>
      </trkpt>
      <trkpt lat="47.86748" lon="7.07864">
        <ele>484.64</ele>
        <time>2021-10-25T12:23:39Z</time>
      </trkpt>
      <trkpt lat="47.86781" lon="7.07884">
        <ele>486.08</ele>
        <time>2021-10-25T12:23:49Z</time>
      </trkpt>
      <trkpt lat="47.86804" lon="7.07887">
        <ele>486.56</ele>
        <time>2021-10-25T12:23:55Z</time>
      </trkpt>
      <trkpt lat="47.86814" lon="7.07885">
        <ele>487.05</ele>
        <time>2021-10-25T12:23:58Z</time>
      </trkpt>
      <trkpt lat="47.8685" lon="7.07883">
        <ele>487.53</ele>
        <time>2021-10-25T12:24:08Z</time>
      </trkpt>
      <trkpt lat="47.86889" lon="7.07883">
        <ele>489.45</ele>
        <time>2021-10-25T12:24:20Z</time>
      </trkpt>
      <trkpt lat="47.86916" lon="7.0788">
        <ele>490.89</ele>
        <time>2021-10-25T12:24:29Z</time>
      </trkpt>
      <trkpt lat="47.86929" lon="7.07944">
        <ele>493.29</ele>
        <time>2021-10-25T12:24:39Z</time>
      </trkpt>
      <trkpt lat="47.86962" lon="7.07941">
        <ele>496.18</ele>
        <time>2021-10-25T12:24:52Z</time>
      </trkpt>
      <trkpt lat="47.86987" lon="7.07924">
        <ele>498.58</ele>
        <time>2021-10-25T12:25:01Z</time>
      </trkpt>
      <trkpt lat="47.87018" lon="7.07902">
        <ele>500.98</ele>
        <time>2021-10-25T12:25:12Z</time>
      </trkpt>
      <trkpt lat="47.87045" lon="7.07908">
        <ele>503.87</ele>
        <time>2021-10-25T12:25:23Z</time>
      </trkpt>
      <trkpt lat="47.87074" lon="7.0791">
        <ele>507.23</ele>
        <time>2021-10-25T12:25:35Z</time>
      </trkpt>
      <trkpt lat="47.87106" lon="7.0791">
        <ele>508.67</ele>
        <time>2021-10-25T12:25:45Z</time>
      </trkpt>
      <trkpt lat="47.87137" lon="7.07913">
        <ele>510.6</ele>
        <time>2021-10-25T12:25:55Z</time>
      </trkpt>
      <trkpt lat="47.87174" lon="7.07921">
        <ele>512.52</ele>
        <time>2021-10-25T12:26:07Z</time>
      </trkpt>
      <trkpt lat="47.87218" lon="7.07934">
        <ele>516.37</ele>
        <time>2021-10-25T12:26:20Z</time>
      </trkpt>
      <trkpt lat="47.87249" lon="7.07956">
        <ele>516.37</ele>
        <time>2021-10-25T12:26:32Z</time>
      </trkpt>
      <trkpt lat="47.87278" lon="7.0798">
        <ele>518.29</ele>
        <time>2021-10-25T12:26:43Z</time>
      </trkpt>
      <trkpt lat="47.87299" lon="7.08">
        <ele>519.73</ele>
        <time>2021-10-25T12:26:52Z</time>
      </trkpt>
      <trkpt lat="47.8732" lon="7.08029">
        <ele>521.65</ele>
        <time>2021-10-25T12:27:02Z</time>
      </trkpt>
      <trkpt lat="47.87339" lon="7.08048">
        <ele>523.58</ele>
        <time>2021-10-25T12:27:11Z</time>
      </trkpt>
      <trkpt lat="47.87359" lon="7.08058">
        <ele>525.02</ele>
        <time>2021-10-25T12:27:21Z</time>
      </trkpt>
      <trkpt lat="47.87362" lon="7.0806">
        <ele>525.5</ele>
        <time>2021-10-25T12:27:23Z</time>
      </trkpt>
      <trkpt lat="47.87364" lon="7.08061">
        <ele>525.5</ele>
        <time>2021-10-25T12:27:24Z</time>
      </trkpt>
      <trkpt lat="47.87396" lon="7.08071">
        <ele>528.86</ele>
        <time>2021-10-25T12:27:35Z</time>
      </trkpt>
      <trkpt lat="47.87429" lon="7.08078">
        <ele>530.3</ele>
        <time>2021-10-25T12:27:44Z</time>
      </trkpt>
      <trkpt lat="47.87462" lon="7.08069">
        <ele>532.23</ele>
        <time>2021-10-25T12:27:53Z</time>
      </trkpt>
      <trkpt lat="47.87499" lon="7.08042">
        <ele>535.11</ele>
        <time>2021-10-25T12:28:06Z</time>
      </trkpt>
      <trkpt lat="47.87524" lon="7.0802">
        <ele>537.51</ele>
        <time>2021-10-25T12:28:17Z</time>
      </trkpt>
      <trkpt lat="47.87533" lon="7.08011">
        <ele>539.44</ele>
        <time>2021-10-25T12:28:22Z</time>
      </trkpt>
      <trkpt lat="47.87554" lon="7.07987">
        <ele>541.84</ele>
        <time>2021-10-25T12:28:33Z</time>
      </trkpt>
      <trkpt lat="47.87568" lon="7.07974">
        <ele>543.76</ele>
        <time>2021-10-25T12:28:39Z</time>
      </trkpt>
      <trkpt lat="47.87571" lon="7.0797">
        <ele>543.76</ele>
        <time>2021-10-25T12:28:41Z</time>
      </trkpt>
      <trkpt lat="47.87573" lon="7.07968">
        <ele>544.24</ele>
        <time>2021-10-25T12:28:42Z</time>
      </trkpt>
      <trkpt lat="47.87595" lon="7.07949">
        <ele>547.61</ele>
        <time>2021-10-25T12:28:52Z</time>
      </trkpt>
      <trkpt lat="47.87626" lon="7.07932">
        <ele>550.49</ele>
        <time>2021-10-25T12:29:04Z</time>
      </trkpt>
      <trkpt lat="47.87644" lon="7.07927">
        <ele>552.9</ele>
        <time>2021-10-25T12:29:11Z</time>
      </trkpt>
      <trkpt lat="47.87646" lon="7.07925">
        <ele>552.9</ele>
        <time>2021-10-25T12:29:12Z</time>
      </trkpt>
      <trkpt lat="47.87649" lon="7.07923">
        <ele>553.38</ele>
        <time>2021-10-25T12:29:13Z</time>
      </trkpt>
      <trkpt lat="47.87651" lon="7.07922">
        <ele>553.38</ele>
        <time>2021-10-25T12:29:14Z</time>
      </trkpt>
      <trkpt lat="47.87653" lon="7.07922">
        <ele>553.86</ele>
        <time>2021-10-25T12:29:15Z</time>
      </trkpt>
      <trkpt lat="47.87654" lon="7.07922">
        <ele>554.34</ele>
        <time>2021-10-25T12:29:16Z</time>
      </trkpt>
      <trkpt lat="47.87682" lon="7.07908">
        <ele>557.22</ele>
        <time>2021-10-25T12:29:28Z</time>
      </trkpt>
      <trkpt lat="47.87718" lon="7.07905">
        <ele>560.11</ele>
        <time>2021-10-25T12:29:41Z</time>
      </trkpt>
      <trkpt lat="47.87751" lon="7.07904">
        <ele>562.03</ele>
        <time>2021-10-25T12:29:53Z</time>
      </trkpt>
      <trkpt lat="47.87761" lon="7.07908">
        <ele>562.99</ele>
        <time>2021-10-25T12:29:57Z</time>
      </trkpt>
      <trkpt lat="47.87763" lon="7.07908">
        <ele>563.47</ele>
        <time>2021-10-25T12:29:58Z</time>
      </trkpt>
      <trkpt lat="47.8778" lon="7.07917">
        <ele>565.39</ele>
        <time>2021-10-25T12:30:07Z</time>
      </trkpt>
      <trkpt lat="47.87791" lon="7.07925">
        <ele>565.87</ele>
        <time>2021-10-25T12:30:11Z</time>
      </trkpt>
      <trkpt lat="47.87794" lon="7.07928">
        <ele>565.87</ele>
        <time>2021-10-25T12:30:12Z</time>
      </trkpt>
      <trkpt lat="47.878" lon="7.07933">
        <ele>566.35</ele>
        <time>2021-10-25T12:30:14Z</time>
      </trkpt>
      <trkpt lat="47.87803" lon="7.07936">
        <ele>566.83</ele>
        <time>2021-10-25T12:30:15Z</time>
      </trkpt>
      <trkpt lat="47.87805" lon="7.07938">
        <ele>566.83</ele>
        <time>2021-10-25T12:30:16Z</time>
      </trkpt>
      <trkpt lat="47.87808" lon="7.0794">
        <ele>566.83</ele>
        <time>2021-10-25T12:30:17Z</time>
      </trkpt>
      <trkpt lat="47.8781" lon="7.07943">
        <ele>567.32</ele>
        <time>2021-10-25T12:30:18Z</time>
      </trkpt>
      <trkpt lat="47.87838" lon="7.0797">
        <ele>570.2</ele>
        <time>2021-10-25T12:30:30Z</time>
      </trkpt>
      <trkpt lat="47.87847" lon="7.07979">
        <ele>571.16</ele>
        <time>2021-10-25T12:30:34Z</time>
      </trkpt>
      <trkpt lat="47.8785" lon="7.07982">
        <ele>571.64</ele>
        <time>2021-10-25T12:30:35Z</time>
      </trkpt>
      <trkpt lat="47.87852" lon="7.07985">
        <ele>572.12</ele>
        <time>2021-10-25T12:30:36Z</time>
      </trkpt>
      <trkpt lat="47.87854" lon="7.07988">
        <ele>572.12</ele>
        <time>2021-10-25T12:30:37Z</time>
      </trkpt>
      <trkpt lat="47.87856" lon="7.07992">
        <ele>572.6</ele>
        <time>2021-10-25T12:30:38Z</time>
      </trkpt>
      <trkpt lat="47.87857" lon="7.07995">
        <ele>572.6</ele>
        <time>2021-10-25T12:30:39Z</time>
      </trkpt>
      <trkpt lat="47.87861" lon="7.08001">
        <ele>573.08</ele>
        <time>2021-10-25T12:30:41Z</time>
      </trkpt>
      <trkpt lat="47.87863" lon="7.08003">
        <ele>573.56</ele>
        <time>2021-10-25T12:30:42Z</time>
      </trkpt>
      <trkpt lat="47.87889" lon="7.08038">
        <ele>575.97</ele>
        <time>2021-10-25T12:30:53Z</time>
      </trkpt>
      <trkpt lat="47.87892" lon="7.08041">
        <ele>575.97</ele>
        <time>2021-10-25T12:30:54Z</time>
      </trkpt>
      <trkpt lat="47.87899" lon="7.08054">
        <ele>576.45</ele>
        <time>2021-10-25T12:30:58Z</time>
      </trkpt>
      <trkpt lat="47.87917" lon="7.08067">
        <ele>578.37</ele>
        <time>2021-10-25T12:31:07Z</time>
      </trkpt>
      <trkpt lat="47.8794" lon="7.0809">
        <ele>581.73</ele>
        <time>2021-10-25T12:31:17Z</time>
      </trkpt>
      <trkpt lat="47.87967" lon="7.08121">
        <ele>584.14</ele>
        <time>2021-10-25T12:31:27Z</time>
      </trkpt>
      <trkpt lat="47.8799" lon="7.0815">
        <ele>586.54</ele>
        <time>2021-10-25T12:31:38Z</time>
      </trkpt>
      <trkpt lat="47.88014" lon="7.08192">
        <ele>589.43</ele>
        <time>2021-10-25T12:31:50Z</time>
      </trkpt>
      <trkpt lat="47.88016" lon="7.08194">
        <ele>589.91</ele>
        <time>2021-10-25T12:31:51Z</time>
      </trkpt>
      <trkpt lat="47.88018" lon="7.082">
        <ele>590.87</ele>
        <time>2021-10-25T12:31:54Z</time>
      </trkpt>
      <trkpt lat="47.88019" lon="7.08203">
        <ele>590.87</ele>
        <time>2021-10-25T12:31:55Z</time>
      </trkpt>
      <trkpt lat="47.88019" lon="7.08208">
        <ele>591.35</ele>
        <time>2021-10-25T12:31:56Z</time>
      </trkpt>
      <trkpt lat="47.88019" lon="7.08212">
        <ele>591.83</ele>
        <time>2021-10-25T12:31:57Z</time>
      </trkpt>
      <trkpt lat="47.8802" lon="7.08215">
        <ele>591.83</ele>
        <time>2021-10-25T12:31:58Z</time>
      </trkpt>
      <trkpt lat="47.88021" lon="7.08219">
        <ele>592.31</ele>
        <time>2021-10-25T12:31:59Z</time>
      </trkpt>
      <trkpt lat="47.88022" lon="7.08223">
        <ele>592.79</ele>
        <time>2021-10-25T12:32:00Z</time>
      </trkpt>
      <trkpt lat="47.88023" lon="7.08231">
        <ele>592.79</ele>
        <time>2021-10-25T12:32:02Z</time>
      </trkpt>
      <trkpt lat="47.88025" lon="7.08235">
        <ele>593.27</ele>
        <time>2021-10-25T12:32:03Z</time>
      </trkpt>
      <trkpt lat="47.88026" lon="7.08238">
        <ele>593.75</ele>
        <time>2021-10-25T12:32:04Z</time>
      </trkpt>
      <trkpt lat="47.88027" lon="7.08242">
        <ele>593.75</ele>
        <time>2021-10-25T12:32:05Z</time>
      </trkpt>
      <trkpt lat="47.88029" lon="7.08244">
        <ele>594.23</ele>
        <time>2021-10-25T12:32:06Z</time>
      </trkpt>
      <trkpt lat="47.8803" lon="7.08247">
        <ele>594.71</ele>
        <time>2021-10-25T12:32:07Z</time>
      </trkpt>
      <trkpt lat="47.88031" lon="7.0825">
        <ele>594.71</ele>
        <time>2021-10-25T12:32:08Z</time>
      </trkpt>
      <trkpt lat="47.88054" lon="7.08255">
        <ele>598.08</ele>
        <time>2021-10-25T12:32:20Z</time>
      </trkpt>
      <trkpt lat="47.8806" lon="7.08256">
        <ele>600.96</ele>
        <time>2021-10-25T12:32:23Z</time>
      </trkpt>
      <trkpt lat="47.88077" lon="7.08238">
        <ele>601.92</ele>
        <time>2021-10-25T12:32:33Z</time>
      </trkpt>
      <trkpt lat="47.88096" lon="7.08225">
        <ele>604.81</ele>
        <time>2021-10-25T12:32:44Z</time>
      </trkpt>
      <trkpt lat="47.88098" lon="7.08224">
        <ele>605.29</ele>
        <time>2021-10-25T12:32:45Z</time>
      </trkpt>
      <trkpt lat="47.88099" lon="7.08223">
        <ele>605.29</ele>
        <time>2021-10-25T12:32:46Z</time>
      </trkpt>
      <trkpt lat="47.88101" lon="7.08222">
        <ele>605.77</ele>
        <time>2021-10-25T12:32:47Z</time>
      </trkpt>
      <trkpt lat="47.88102" lon="7.08221">
        <ele>606.25</ele>
        <time>2021-10-25T12:32:48Z</time>
      </trkpt>
      <trkpt lat="47.88104" lon="7.0822">
        <ele>606.25</ele>
        <time>2021-10-25T12:32:49Z</time>
      </trkpt>
      <trkpt lat="47.88105" lon="7.08219">
        <ele>606.73</ele>
        <time>2021-10-25T12:32:50Z</time>
      </trkpt>
      <trkpt lat="47.88106" lon="7.08218">
        <ele>606.73</ele>
        <time>2021-10-25T12:32:51Z</time>
      </trkpt>
      <trkpt lat="47.88108" lon="7.08217">
        <ele>606.73</ele>
        <time>2021-10-25T12:32:52Z</time>
      </trkpt>
      <trkpt lat="47.88109" lon="7.08216">
        <ele>607.21</ele>
        <time>2021-10-25T12:32:53Z</time>
      </trkpt>
      <trkpt lat="47.88111" lon="7.08215">
        <ele>607.69</ele>
        <time>2021-10-25T12:32:54Z</time>
      </trkpt>
      <trkpt lat="47.88112" lon="7.08213">
        <ele>607.69</ele>
        <time>2021-10-25T12:32:55Z</time>
      </trkpt>
      <trkpt lat="47.88114" lon="7.08211">
        <ele>608.17</ele>
        <time>2021-10-25T12:32:56Z</time>
      </trkpt>
      <trkpt lat="47.88116" lon="7.0821">
        <ele>608.65</ele>
        <time>2021-10-25T12:32:57Z</time>
      </trkpt>
      <trkpt lat="47.88124" lon="7.08206">
        <ele>610.09</ele>
        <time>2021-10-25T12:33:03Z</time>
      </trkpt>
      <trkpt lat="47.88126" lon="7.08205">
        <ele>610.57</ele>
        <time>2021-10-25T12:33:04Z</time>
      </trkpt>
      <trkpt lat="47.88129" lon="7.08203">
        <ele>610.57</ele>
        <time>2021-10-25T12:33:05Z</time>
      </trkpt>
      <trkpt lat="47.88131" lon="7.082">
        <ele>611.06</ele>
        <time>2021-10-25T12:33:06Z</time>
      </trkpt>
      <trkpt lat="47.88133" lon="7.08198">
        <ele>611.54</ele>
        <time>2021-10-25T12:33:07Z</time>
      </trkpt>
      <trkpt lat="47.88135" lon="7.08196">
        <ele>611.54</ele>
        <time>2021-10-25T12:33:08Z</time>
      </trkpt>
      <trkpt lat="47.88137" lon="7.08195">
        <ele>612.02</ele>
        <time>2021-10-25T12:33:09Z</time>
      </trkpt>
      <trkpt lat="47.88138" lon="7.08194">
        <ele>612.5</ele>
        <time>2021-10-25T12:33:10Z</time>
      </trkpt>
      <trkpt lat="47.88139" lon="7.08192">
        <ele>612.98</ele>
        <time>2021-10-25T12:33:11Z</time>
      </trkpt>
      <trkpt lat="47.88144" lon="7.08187">
        <ele>613.46</ele>
        <time>2021-10-25T12:33:14Z</time>
      </trkpt>
      <trkpt lat="47.88144" lon="7.08185">
        <ele>613.94</ele>
        <time>2021-10-25T12:33:15Z</time>
      </trkpt>
      <trkpt lat="47.88144" lon="7.08183">
        <ele>613.94</ele>
        <time>2021-10-25T12:33:16Z</time>
      </trkpt>
      <trkpt lat="47.88145" lon="7.08181">
        <ele>614.9</ele>
        <time>2021-10-25T12:33:18Z</time>
      </trkpt>
      <trkpt lat="47.88146" lon="7.0818">
        <ele>614.9</ele>
        <time>2021-10-25T12:33:19Z</time>
      </trkpt>
      <trkpt lat="47.88148" lon="7.0818">
        <ele>615.38</ele>
        <time>2021-10-25T12:33:20Z</time>
      </trkpt>
      <trkpt lat="47.88175" lon="7.08156">
        <ele>617.78</ele>
        <time>2021-10-25T12:33:32Z</time>
      </trkpt>
      <trkpt lat="47.88195" lon="7.08139">
        <ele>621.15</ele>
        <time>2021-10-25T12:33:44Z</time>
      </trkpt>
      <trkpt lat="47.88197" lon="7.08138">
        <ele>621.15</ele>
        <time>2021-10-25T12:33:45Z</time>
      </trkpt>
      <trkpt lat="47.88198" lon="7.08137">
        <ele>621.63</ele>
        <time>2021-10-25T12:33:46Z</time>
      </trkpt>
      <trkpt lat="47.882" lon="7.08136">
        <ele>621.63</ele>
        <time>2021-10-25T12:33:47Z</time>
      </trkpt>
      <trkpt lat="47.88202" lon="7.08135">
        <ele>622.11</ele>
        <time>2021-10-25T12:33:48Z</time>
      </trkpt>
      <trkpt lat="47.88203" lon="7.08133">
        <ele>622.11</ele>
        <time>2021-10-25T12:33:49Z</time>
      </trkpt>
      <trkpt lat="47.88205" lon="7.08131">
        <ele>622.59</ele>
        <time>2021-10-25T12:33:50Z</time>
      </trkpt>
      <trkpt lat="47.88225" lon="7.08106">
        <ele>625.47</ele>
        <time>2021-10-25T12:34:01Z</time>
      </trkpt>
      <trkpt lat="47.88235" lon="7.08091">
        <ele>627.88</ele>
        <time>2021-10-25T12:34:11Z</time>
      </trkpt>
      <trkpt lat="47.88236" lon="7.08089">
        <ele>628.36</ele>
        <time>2021-10-25T12:34:12Z</time>
      </trkpt>
      <trkpt lat="47.88237" lon="7.08086">
        <ele>628.36</ele>
        <time>2021-10-25T12:34:13Z</time>
      </trkpt>
      <trkpt lat="47.88238" lon="7.08083">
        <ele>628.84</ele>
        <time>2021-10-25T12:34:14Z</time>
      </trkpt>
      <trkpt lat="47.88239" lon="7.08081">
        <ele>628.84</ele>
        <time>2021-10-25T12:34:15Z</time>
      </trkpt>
      <trkpt lat="47.88241" lon="7.08078">
        <ele>628.84</ele>
        <time>2021-10-25T12:34:16Z</time>
      </trkpt>
      <trkpt lat="47.88242" lon="7.08076">
        <ele>629.32</ele>
        <time>2021-10-25T12:34:17Z</time>
      </trkpt>
      <trkpt lat="47.88243" lon="7.08073">
        <ele>629.8</ele>
        <time>2021-10-25T12:34:18Z</time>
      </trkpt>
      <trkpt lat="47.88244" lon="7.0807">
        <ele>629.8</ele>
        <time>2021-10-25T12:34:19Z</time>
      </trkpt>
      <trkpt lat="47.88245" lon="7.08067">
        <ele>629.8</ele>
        <time>2021-10-25T12:34:20Z</time>
      </trkpt>
      <trkpt lat="47.88246" lon="7.08065">
        <ele>630.28</ele>
        <time>2021-10-25T12:34:21Z</time>
      </trkpt>
      <trkpt lat="47.88247" lon="7.08062">
        <ele>630.28</ele>
        <time>2021-10-25T12:34:22Z</time>
      </trkpt>
      <trkpt lat="47.88249" lon="7.08059">
        <ele>630.28</ele>
        <time>2021-10-25T12:34:23Z</time>
      </trkpt>
      <trkpt lat="47.88249" lon="7.08058">
        <ele>632.68</ele>
        <time>2021-10-25T12:34:24Z</time>
      </trkpt>
      <trkpt lat="47.88253" lon="7.08048">
        <ele>631.72</ele>
        <time>2021-10-25T12:34:28Z</time>
      </trkpt>
      <trkpt lat="47.88258" lon="7.08037">
        <ele>634.13</ele>
        <time>2021-10-25T12:34:36Z</time>
      </trkpt>
      <trkpt lat="47.88259" lon="7.08034">
        <ele>634.13</ele>
        <time>2021-10-25T12:34:37Z</time>
      </trkpt>
      <trkpt lat="47.8827" lon="7.08021">
        <ele>636.05</ele>
        <time>2021-10-25T12:34:50Z</time>
      </trkpt>
      <trkpt lat="47.88272" lon="7.08014">
        <ele>635.57</ele>
        <time>2021-10-25T12:35:15Z</time>
      </trkpt>
      <trkpt lat="47.88274" lon="7.08015">
        <ele>635.57</ele>
        <time>2021-10-25T12:35:21Z</time>
      </trkpt>
      <trkpt lat="47.88276" lon="7.0802">
        <ele>635.57</ele>
        <time>2021-10-25T12:35:25Z</time>
      </trkpt>
      <trkpt lat="47.88279" lon="7.08028">
        <ele>635.57</ele>
        <time>2021-10-25T12:35:29Z</time>
      </trkpt>
      <trkpt lat="47.88269" lon="7.08053">
        <ele>637.01</ele>
        <time>2021-10-25T12:35:37Z</time>
      </trkpt>
      <trkpt lat="47.88264" lon="7.08078">
        <ele>637.49</ele>
        <time>2021-10-25T12:35:44Z</time>
      </trkpt>
      <trkpt lat="47.88257" lon="7.08102">
        <ele>638.45</ele>
        <time>2021-10-25T12:35:51Z</time>
      </trkpt>
      <trkpt lat="47.88257" lon="7.0811">
        <ele>638.93</ele>
        <time>2021-10-25T12:35:54Z</time>
      </trkpt>
      <trkpt lat="47.88248" lon="7.08154">
        <ele>639.41</ele>
        <time>2021-10-25T12:36:04Z</time>
      </trkpt>
      <trkpt lat="47.88231" lon="7.08185">
        <ele>641.34</ele>
        <time>2021-10-25T12:36:13Z</time>
      </trkpt>
      <trkpt lat="47.88213" lon="7.08216">
        <ele>642.78</ele>
        <time>2021-10-25T12:36:24Z</time>
      </trkpt>
      <trkpt lat="47.88191" lon="7.08247">
        <ele>646.14</ele>
        <time>2021-10-25T12:36:36Z</time>
      </trkpt>
      <trkpt lat="47.88171" lon="7.08284">
        <ele>648.07</ele>
        <time>2021-10-25T12:36:45Z</time>
      </trkpt>
      <trkpt lat="47.88153" lon="7.08318">
        <ele>649.99</ele>
        <time>2021-10-25T12:36:54Z</time>
      </trkpt>
      <trkpt lat="47.88141" lon="7.0835">
        <ele>652.39</ele>
        <time>2021-10-25T12:37:05Z</time>
      </trkpt>
      <trkpt lat="47.88139" lon="7.08357">
        <ele>652.87</ele>
        <time>2021-10-25T12:37:07Z</time>
      </trkpt>
      <trkpt lat="47.88131" lon="7.08381">
        <ele>655.28</ele>
        <time>2021-10-25T12:37:18Z</time>
      </trkpt>
      <trkpt lat="47.8813" lon="7.08387">
        <ele>655.76</ele>
        <time>2021-10-25T12:37:21Z</time>
      </trkpt>
      <trkpt lat="47.88129" lon="7.08398">
        <ele>656.72</ele>
        <time>2021-10-25T12:37:25Z</time>
      </trkpt>
      <trkpt lat="47.88128" lon="7.08412">
        <ele>657.2</ele>
        <time>2021-10-25T12:37:29Z</time>
      </trkpt>
      <trkpt lat="47.88124" lon="7.08455">
        <ele>660.56</ele>
        <time>2021-10-25T12:37:40Z</time>
      </trkpt>
      <trkpt lat="47.88123" lon="7.08486">
        <ele>663.45</ele>
        <time>2021-10-25T12:37:49Z</time>
      </trkpt>
      <trkpt lat="47.88118" lon="7.08553">
        <ele>666.81</ele>
        <time>2021-10-25T12:38:02Z</time>
      </trkpt>
      <trkpt lat="47.88118" lon="7.08558">
        <ele>666.81</ele>
        <time>2021-10-25T12:38:03Z</time>
      </trkpt>
      <trkpt lat="47.88125" lon="7.0861">
        <ele>668.73</ele>
        <time>2021-10-25T12:38:14Z</time>
      </trkpt>
      <trkpt lat="47.88151" lon="7.08627">
        <ele>670.18</ele>
        <time>2021-10-25T12:38:24Z</time>
      </trkpt>
      <trkpt lat="47.88176" lon="7.08653">
        <ele>670.18</ele>
        <time>2021-10-25T12:38:33Z</time>
      </trkpt>
      <trkpt lat="47.88179" lon="7.08688">
        <ele>671.14</ele>
        <time>2021-10-25T12:38:40Z</time>
      </trkpt>
      <trkpt lat="47.8818" lon="7.08705">
        <ele>671.14</ele>
        <time>2021-10-25T12:38:43Z</time>
      </trkpt>
      <trkpt lat="47.88184" lon="7.08727">
        <ele>672.1</ele>
        <time>2021-10-25T12:38:48Z</time>
      </trkpt>
      <trkpt lat="47.88182" lon="7.08777">
        <ele>674.98</ele>
        <time>2021-10-25T12:39:00Z</time>
      </trkpt>
      <trkpt lat="47.88166" lon="7.08811">
        <ele>676.91</ele>
        <time>2021-10-25T12:39:05Z</time>
      </trkpt>
      <trkpt lat="47.88145" lon="7.08856">
        <ele>680.75</ele>
        <time>2021-10-25T12:39:15Z</time>
      </trkpt>
      <trkpt lat="47.88142" lon="7.08905">
        <ele>682.67</ele>
        <time>2021-10-25T12:39:26Z</time>
      </trkpt>
      <trkpt lat="47.88137" lon="7.08963">
        <ele>683.63</ele>
        <time>2021-10-25T12:39:35Z</time>
      </trkpt>
      <trkpt lat="47.8813" lon="7.09037">
        <ele>685.56</ele>
        <time>2021-10-25T12:39:49Z</time>
      </trkpt>
      <trkpt lat="47.88135" lon="7.09084">
        <ele>687.48</ele>
        <time>2021-10-25T12:40:00Z</time>
      </trkpt>
      <trkpt lat="47.88136" lon="7.09109">
        <ele>688.44</ele>
        <time>2021-10-25T12:40:05Z</time>
      </trkpt>
      <trkpt lat="47.88136" lon="7.09125">
        <ele>688.44</ele>
        <time>2021-10-25T12:40:09Z</time>
      </trkpt>
      <trkpt lat="47.88134" lon="7.09183">
        <ele>688.92</ele>
        <time>2021-10-25T12:40:21Z</time>
      </trkpt>
      <trkpt lat="47.8816" lon="7.0924">
        <ele>688.92</ele>
        <time>2021-10-25T12:40:32Z</time>
      </trkpt>
      <trkpt lat="47.88167" lon="7.09263">
        <ele>689.4</ele>
        <time>2021-10-25T12:40:36Z</time>
      </trkpt>
      <trkpt lat="47.88185" lon="7.09312">
        <ele>692.29</ele>
        <time>2021-10-25T12:40:47Z</time>
      </trkpt>
      <trkpt lat="47.88184" lon="7.09334">
        <ele>693.73</ele>
        <time>2021-10-25T12:40:53Z</time>
      </trkpt>
      <trkpt lat="47.88192" lon="7.09341">
        <ele>694.21</ele>
        <time>2021-10-25T12:40:59Z</time>
      </trkpt>
      <trkpt lat="47.88198" lon="7.09343">
        <ele>694.69</ele>
        <time>2021-10-25T12:41:04Z</time>
      </trkpt>
      <trkpt lat="47.88194" lon="7.09339">
        <ele>694.69</ele>
        <time>2021-10-25T12:41:09Z</time>
      </trkpt>
      <trkpt lat="47.88183" lon="7.09347">
        <ele>695.17</ele>
        <time>2021-10-25T12:41:14Z</time>
      </trkpt>
      <trkpt lat="47.88172" lon="7.09373">
        <ele>696.61</ele>
        <time>2021-10-25T12:41:26Z</time>
      </trkpt>
      <trkpt lat="47.88172" lon="7.09373">
        <ele>697.09</ele>
        <time>2021-10-25T12:41:41Z</time>
      </trkpt>
      <trkpt lat="47.88172" lon="7.09372">
        <ele>697.09</ele>
        <time>2021-10-25T12:42:04Z</time>
      </trkpt>
      <trkpt lat="47.88172" lon="7.09372">
        <ele>697.57</ele>
        <time>2021-10-25T12:42:34Z</time>
      </trkpt>
      <trkpt lat="47.88173" lon="7.09371">
        <ele>697.57</ele>
        <time>2021-10-25T12:42:57Z</time>
      </trkpt>
      <trkpt lat="47.88173" lon="7.0937">
        <ele>698.05</ele>
        <time>2021-10-25T12:43:20Z</time>
      </trkpt>
      <trkpt lat="47.88173" lon="7.09372">
        <ele>698.53</ele>
        <time>2021-10-25T12:43:55Z</time>
      </trkpt>
      <trkpt lat="47.88174" lon="7.09372">
        <ele>698.53</ele>
        <time>2021-10-25T12:44:24Z</time>
      </trkpt>
      <trkpt lat="47.88174" lon="7.09371">
        <ele>699.02</ele>
        <time>2021-10-25T12:44:47Z</time>
      </trkpt>
      <trkpt lat="47.88174" lon="7.09371">
        <ele>699.02</ele>
        <time>2021-10-25T12:45:12Z</time>
      </trkpt>
      <trkpt lat="47.88173" lon="7.09372">
        <ele>699.5</ele>
        <time>2021-10-25T12:45:33Z</time>
      </trkpt>
      <trkpt lat="47.88173" lon="7.09372">
        <ele>699.5</ele>
        <time>2021-10-25T12:45:45Z</time>
      </trkpt>
      <trkpt lat="47.88181" lon="7.09351">
        <ele>698.53</ele>
        <time>2021-10-25T12:45:52Z</time>
      </trkpt>
      <trkpt lat="47.88185" lon="7.09347">
        <ele>698.05</ele>
        <time>2021-10-25T12:45:53Z</time>
      </trkpt>
      <trkpt lat="47.8819" lon="7.09345">
        <ele>697.57</ele>
        <time>2021-10-25T12:45:54Z</time>
      </trkpt>
      <trkpt lat="47.88195" lon="7.09344">
        <ele>697.57</ele>
        <time>2021-10-25T12:45:55Z</time>
      </trkpt>
      <trkpt lat="47.88199" lon="7.09345">
        <ele>697.57</ele>
        <time>2021-10-25T12:45:56Z</time>
      </trkpt>
      <trkpt lat="47.88217" lon="7.09329">
        <ele>700.94</ele>
        <time>2021-10-25T12:46:05Z</time>
      </trkpt>
      <trkpt lat="47.88221" lon="7.09315">
        <ele>701.9</ele>
        <time>2021-10-25T12:46:09Z</time>
      </trkpt>
      <trkpt lat="47.8822" lon="7.09313">
        <ele>701.9</ele>
        <time>2021-10-25T12:46:10Z</time>
      </trkpt>
      <trkpt lat="47.8822" lon="7.09311">
        <ele>702.38</ele>
        <time>2021-10-25T12:46:11Z</time>
      </trkpt>
      <trkpt lat="47.88199" lon="7.09284">
        <ele>705.26</ele>
        <time>2021-10-25T12:46:21Z</time>
      </trkpt>
      <trkpt lat="47.88198" lon="7.09281">
        <ele>705.26</ele>
        <time>2021-10-25T12:46:22Z</time>
      </trkpt>
      <trkpt lat="47.8818" lon="7.09257">
        <ele>708.63</ele>
        <time>2021-10-25T12:46:30Z</time>
      </trkpt>
      <trkpt lat="47.8817" lon="7.092">
        <ele>709.59</ele>
        <time>2021-10-25T12:46:42Z</time>
      </trkpt>
      <trkpt lat="47.88172" lon="7.09172">
        <ele>710.07</ele>
        <time>2021-10-25T12:46:48Z</time>
      </trkpt>
      <trkpt lat="47.88178" lon="7.09118">
        <ele>712.47</ele>
        <time>2021-10-25T12:46:59Z</time>
      </trkpt>
      <trkpt lat="47.88186" lon="7.09057">
        <ele>713.92</ele>
        <time>2021-10-25T12:47:12Z</time>
      </trkpt>
      <trkpt lat="47.88194" lon="7.08996">
        <ele>716.32</ele>
        <time>2021-10-25T12:47:25Z</time>
      </trkpt>
      <trkpt lat="47.88207" lon="7.08959">
        <ele>718.24</ele>
        <time>2021-10-25T12:47:37Z</time>
      </trkpt>
      <trkpt lat="47.88209" lon="7.08958">
        <ele>718.72</ele>
        <time>2021-10-25T12:47:38Z</time>
      </trkpt>
      <trkpt lat="47.88211" lon="7.08956">
        <ele>718.72</ele>
        <time>2021-10-25T12:47:39Z</time>
      </trkpt>
      <trkpt lat="47.88213" lon="7.08955">
        <ele>718.72</ele>
        <time>2021-10-25T12:47:40Z</time>
      </trkpt>
      <trkpt lat="47.88216" lon="7.08954">
        <ele>718.72</ele>
        <time>2021-10-25T12:47:41Z</time>
      </trkpt>
      <trkpt lat="47.88218" lon="7.08953">
        <ele>718.72</ele>
        <time>2021-10-25T12:47:42Z</time>
      </trkpt>
      <trkpt lat="47.8822" lon="7.08951">
        <ele>719.2</ele>
        <time>2021-10-25T12:47:43Z</time>
      </trkpt>
      <trkpt lat="47.88228" lon="7.08948">
        <ele>719.68</ele>
        <time>2021-10-25T12:47:46Z</time>
      </trkpt>
      <trkpt lat="47.88231" lon="7.08948">
        <ele>719.68</ele>
        <time>2021-10-25T12:47:47Z</time>
      </trkpt>
      <trkpt lat="47.88261" lon="7.08935">
        <ele>722.09</ele>
        <time>2021-10-25T12:47:59Z</time>
      </trkpt>
      <trkpt lat="47.88267" lon="7.08925">
        <ele>722.57</ele>
        <time>2021-10-25T12:48:03Z</time>
      </trkpt>
      <trkpt lat="47.88266" lon="7.08914">
        <ele>723.05</ele>
        <time>2021-10-25T12:48:07Z</time>
      </trkpt>
      <trkpt lat="47.88256" lon="7.08877">
        <ele>724.97</ele>
        <time>2021-10-25T12:48:18Z</time>
      </trkpt>
      <trkpt lat="47.88251" lon="7.08834">
        <ele>726.41</ele>
        <time>2021-10-25T12:48:28Z</time>
      </trkpt>
      <trkpt lat="47.88252" lon="7.08822">
        <ele>728.34</ele>
        <time>2021-10-25T12:48:31Z</time>
      </trkpt>
      <trkpt lat="47.88253" lon="7.08805">
        <ele>728.34</ele>
        <time>2021-10-25T12:48:36Z</time>
      </trkpt>
      <trkpt lat="47.88255" lon="7.08756">
        <ele>731.22</ele>
        <time>2021-10-25T12:48:50Z</time>
      </trkpt>
      <trkpt lat="47.88256" lon="7.08744">
        <ele>732.66</ele>
        <time>2021-10-25T12:48:54Z</time>
      </trkpt>
      <trkpt lat="47.88253" lon="7.08734">
        <ele>733.62</ele>
        <time>2021-10-25T12:48:58Z</time>
      </trkpt>
      <trkpt lat="47.88257" lon="7.08696">
        <ele>736.99</ele>
        <time>2021-10-25T12:49:10Z</time>
      </trkpt>
      <trkpt lat="47.88253" lon="7.0867">
        <ele>739.87</ele>
        <time>2021-10-25T12:49:18Z</time>
      </trkpt>
      <trkpt lat="47.88245" lon="7.08629">
        <ele>742.28</ele>
        <time>2021-10-25T12:49:28Z</time>
      </trkpt>
      <trkpt lat="47.88244" lon="7.08576">
        <ele>744.2</ele>
        <time>2021-10-25T12:49:39Z</time>
      </trkpt>
      <trkpt lat="47.88248" lon="7.0856">
        <ele>745.16</ele>
        <time>2021-10-25T12:49:43Z</time>
      </trkpt>
      <trkpt lat="47.88251" lon="7.08546">
        <ele>746.12</ele>
        <time>2021-10-25T12:49:45Z</time>
      </trkpt>
      <trkpt lat="47.88256" lon="7.08493">
        <ele>748.52</ele>
        <time>2021-10-25T12:49:56Z</time>
      </trkpt>
      <trkpt lat="47.88274" lon="7.08447">
        <ele>750.93</ele>
        <time>2021-10-25T12:50:07Z</time>
      </trkpt>
      <trkpt lat="47.88289" lon="7.08421">
        <ele>752.85</ele>
        <time>2021-10-25T12:50:15Z</time>
      </trkpt>
      <trkpt lat="47.88319" lon="7.08396">
        <ele>755.73</ele>
        <time>2021-10-25T12:50:28Z</time>
      </trkpt>
      <trkpt lat="47.88347" lon="7.08385">
        <ele>757.66</ele>
        <time>2021-10-25T12:50:38Z</time>
      </trkpt>
      <trkpt lat="47.8839" lon="7.08351">
        <ele>760.06</ele>
        <time>2021-10-25T12:50:52Z</time>
      </trkpt>
      <trkpt lat="47.88415" lon="7.08331">
        <ele>761.98</ele>
        <time>2021-10-25T12:51:02Z</time>
      </trkpt>
      <trkpt lat="47.88448" lon="7.08307">
        <ele>762.94</ele>
        <time>2021-10-25T12:51:12Z</time>
      </trkpt>
      <trkpt lat="47.8848" lon="7.08284">
        <ele>766.31</ele>
        <time>2021-10-25T12:51:24Z</time>
      </trkpt>
      <trkpt lat="47.88485" lon="7.08281">
        <ele>766.79</ele>
        <time>2021-10-25T12:51:26Z</time>
      </trkpt>
      <trkpt lat="47.8852" lon="7.08274">
        <ele>769.19</ele>
        <time>2021-10-25T12:51:39Z</time>
      </trkpt>
      <trkpt lat="47.88546" lon="7.08278">
        <ele>771.11</ele>
        <time>2021-10-25T12:51:48Z</time>
      </trkpt>
      <trkpt lat="47.88576" lon="7.08284">
        <ele>773.04</ele>
        <time>2021-10-25T12:51:59Z</time>
      </trkpt>
      <trkpt lat="47.88595" lon="7.08289">
        <ele>774.48</ele>
        <time>2021-10-25T12:52:05Z</time>
      </trkpt>
      <trkpt lat="47.88623" lon="7.08293">
        <ele>775.92</ele>
        <time>2021-10-25T12:52:16Z</time>
      </trkpt>
      <trkpt lat="47.88654" lon="7.08295">
        <ele>778.32</ele>
        <time>2021-10-25T12:52:28Z</time>
      </trkpt>
      <trkpt lat="47.88686" lon="7.08296">
        <ele>780.73</ele>
        <time>2021-10-25T12:52:40Z</time>
      </trkpt>
      <trkpt lat="47.88716" lon="7.08301">
        <ele>783.13</ele>
        <time>2021-10-25T12:52:52Z</time>
      </trkpt>
      <trkpt lat="47.88741" lon="7.08297">
        <ele>786.02</ele>
        <time>2021-10-25T12:53:03Z</time>
      </trkpt>
      <trkpt lat="47.88762" lon="7.08297">
        <ele>788.42</ele>
        <time>2021-10-25T12:53:12Z</time>
      </trkpt>
      <trkpt lat="47.88795" lon="7.0829">
        <ele>790.82</ele>
        <time>2021-10-25T12:53:23Z</time>
      </trkpt>
      <trkpt lat="47.88826" lon="7.08281">
        <ele>792.74</ele>
        <time>2021-10-25T12:53:34Z</time>
      </trkpt>
      <trkpt lat="47.88857" lon="7.08274">
        <ele>795.15</ele>
        <time>2021-10-25T12:53:45Z</time>
      </trkpt>
      <trkpt lat="47.88885" lon="7.08269">
        <ele>797.55</ele>
        <time>2021-10-25T12:53:55Z</time>
      </trkpt>
      <trkpt lat="47.88901" lon="7.08268">
        <ele>798.99</ele>
        <time>2021-10-25T12:54:01Z</time>
      </trkpt>
      <trkpt lat="47.88903" lon="7.08268">
        <ele>799.47</ele>
        <time>2021-10-25T12:54:02Z</time>
      </trkpt>
      <trkpt lat="47.88937" lon="7.08274">
        <ele>801.4</ele>
        <time>2021-10-25T12:54:14Z</time>
      </trkpt>
      <trkpt lat="47.88958" lon="7.08284">
        <ele>803.32</ele>
        <time>2021-10-25T12:54:22Z</time>
      </trkpt>
      <trkpt lat="47.88984" lon="7.08299">
        <ele>804.76</ele>
        <time>2021-10-25T12:54:32Z</time>
      </trkpt>
      <trkpt lat="47.8901" lon="7.08314">
        <ele>807.16</ele>
        <time>2021-10-25T12:54:41Z</time>
      </trkpt>
      <trkpt lat="47.89033" lon="7.0833">
        <ele>808.61</ele>
        <time>2021-10-25T12:54:51Z</time>
      </trkpt>
      <trkpt lat="47.89066" lon="7.08346">
        <ele>811.49</ele>
        <time>2021-10-25T12:55:03Z</time>
      </trkpt>
      <trkpt lat="47.89075" lon="7.08349">
        <ele>812.93</ele>
        <time>2021-10-25T12:55:06Z</time>
      </trkpt>
      <trkpt lat="47.89103" lon="7.08362">
        <ele>814.37</ele>
        <time>2021-10-25T12:55:17Z</time>
      </trkpt>
      <trkpt lat="47.89135" lon="7.0838">
        <ele>817.26</ele>
        <time>2021-10-25T12:55:29Z</time>
      </trkpt>
      <trkpt lat="47.89154" lon="7.08388">
        <ele>819.18</ele>
        <time>2021-10-25T12:55:37Z</time>
      </trkpt>
      <trkpt lat="47.89157" lon="7.08389">
        <ele>819.18</ele>
        <time>2021-10-25T12:55:38Z</time>
      </trkpt>
      <trkpt lat="47.89172" lon="7.08395">
        <ele>821.1</ele>
        <time>2021-10-25T12:55:44Z</time>
      </trkpt>
      <trkpt lat="47.89203" lon="7.08402">
        <ele>824.47</ele>
        <time>2021-10-25T12:55:55Z</time>
      </trkpt>
      <trkpt lat="47.89229" lon="7.08412">
        <ele>827.83</ele>
        <time>2021-10-25T12:56:06Z</time>
      </trkpt>
      <trkpt lat="47.89247" lon="7.08415">
        <ele>828.31</ele>
        <time>2021-10-25T12:56:15Z</time>
      </trkpt>
      <trkpt lat="47.89268" lon="7.08415">
        <ele>827.35</ele>
        <time>2021-10-25T12:56:27Z</time>
      </trkpt>
      <trkpt lat="47.8927" lon="7.08415">
        <ele>827.35</ele>
        <time>2021-10-25T12:56:55Z</time>
      </trkpt>
      <trkpt lat="47.89273" lon="7.08417">
        <ele>827.35</ele>
        <time>2021-10-25T12:57:26Z</time>
      </trkpt>
      <trkpt lat="47.89272" lon="7.08417">
        <ele>827.35</ele>
        <time>2021-10-25T12:57:51Z</time>
      </trkpt>
      <trkpt lat="47.89273" lon="7.08417">
        <ele>827.35</ele>
        <time>2021-10-25T12:58:20Z</time>
      </trkpt>
      <trkpt lat="47.89274" lon="7.08419">
        <ele>827.35</ele>
        <time>2021-10-25T12:58:46Z</time>
      </trkpt>
      <trkpt lat="47.89274" lon="7.08422">
        <ele>827.83</ele>
        <time>2021-10-25T12:59:14Z</time>
      </trkpt>
      <trkpt lat="47.89277" lon="7.08419">
        <ele>828.31</ele>
        <time>2021-10-25T12:59:40Z</time>
      </trkpt>
      <trkpt lat="47.89278" lon="7.08417">
        <ele>828.31</ele>
        <time>2021-10-25T13:00:09Z</time>
      </trkpt>
      <trkpt lat="47.89277" lon="7.08415">
        <ele>830.24</ele>
        <time>2021-10-25T13:00:37Z</time>
      </trkpt>
      <trkpt lat="47.89276" lon="7.08412">
        <ele>828.79</ele>
        <time>2021-10-25T13:01:06Z</time>
      </trkpt>
      <trkpt lat="47.89277" lon="7.0841">
        <ele>829.27</ele>
        <time>2021-10-25T13:01:30Z</time>
      </trkpt>
      <trkpt lat="47.89291" lon="7.08405">
        <ele>827.83</ele>
        <time>2021-10-25T13:01:41Z</time>
      </trkpt>
      <trkpt lat="47.89326" lon="7.08385">
        <ele>824.47</ele>
        <time>2021-10-25T13:01:52Z</time>
      </trkpt>
      <trkpt lat="47.89343" lon="7.08371">
        <ele>823.99</ele>
        <time>2021-10-25T13:01:57Z</time>
      </trkpt>
      <trkpt lat="47.89344" lon="7.08368">
        <ele>823.99</ele>
        <time>2021-10-25T13:01:58Z</time>
      </trkpt>
      <trkpt lat="47.89344" lon="7.08364">
        <ele>823.99</ele>
        <time>2021-10-25T13:01:59Z</time>
      </trkpt>
      <trkpt lat="47.89343" lon="7.08359">
        <ele>823.99</ele>
        <time>2021-10-25T13:02:00Z</time>
      </trkpt>
      <trkpt lat="47.89342" lon="7.08356">
        <ele>823.99</ele>
        <time>2021-10-25T13:02:01Z</time>
      </trkpt>
      <trkpt lat="47.89341" lon="7.08355">
        <ele>823.99</ele>
        <time>2021-10-25T13:02:02Z</time>
      </trkpt>
      <trkpt lat="47.89335" lon="7.08342">
        <ele>825.91</ele>
        <time>2021-10-25T13:02:10Z</time>
      </trkpt>
      <trkpt lat="47.89334" lon="7.08339">
        <ele>825.91</ele>
        <time>2021-10-25T13:02:11Z</time>
      </trkpt>
      <trkpt lat="47.89333" lon="7.08336">
        <ele>825.91</ele>
        <time>2021-10-25T13:02:12Z</time>
      </trkpt>
      <trkpt lat="47.89312" lon="7.08309">
        <ele>827.35</ele>
        <time>2021-10-25T13:02:24Z</time>
      </trkpt>
      <trkpt lat="47.8929" lon="7.08273">
        <ele>828.31</ele>
        <time>2021-10-25T13:02:36Z</time>
      </trkpt>
      <trkpt lat="47.89279" lon="7.08254">
        <ele>829.27</ele>
        <time>2021-10-25T13:02:41Z</time>
      </trkpt>
      <trkpt lat="47.89276" lon="7.08252">
        <ele>829.27</ele>
        <time>2021-10-25T13:02:42Z</time>
      </trkpt>
      <trkpt lat="47.89274" lon="7.08249">
        <ele>829.27</ele>
        <time>2021-10-25T13:02:43Z</time>
      </trkpt>
      <trkpt lat="47.89257" lon="7.08226">
        <ele>831.2</ele>
        <time>2021-10-25T13:02:53Z</time>
      </trkpt>
      <trkpt lat="47.89252" lon="7.0822">
        <ele>831.68</ele>
        <time>2021-10-25T13:02:55Z</time>
      </trkpt>
      <trkpt lat="47.89248" lon="7.0821">
        <ele>832.16</ele>
        <time>2021-10-25T13:02:58Z</time>
      </trkpt>
      <trkpt lat="47.89233" lon="7.08181">
        <ele>832.64</ele>
        <time>2021-10-25T13:03:05Z</time>
      </trkpt>
      <trkpt lat="47.89232" lon="7.08176">
        <ele>833.12</ele>
        <time>2021-10-25T13:03:06Z</time>
      </trkpt>
      <trkpt lat="47.89231" lon="7.08171">
        <ele>833.12</ele>
        <time>2021-10-25T13:03:07Z</time>
      </trkpt>
      <trkpt lat="47.89223" lon="7.08128">
        <ele>834.56</ele>
        <time>2021-10-25T13:03:17Z</time>
      </trkpt>
      <trkpt lat="47.8922" lon="7.08122">
        <ele>835.04</ele>
        <time>2021-10-25T13:03:19Z</time>
      </trkpt>
      <trkpt lat="47.89219" lon="7.0812">
        <ele>835.04</ele>
        <time>2021-10-25T13:03:20Z</time>
      </trkpt>
      <trkpt lat="47.89215" lon="7.08116">
        <ele>835.04</ele>
        <time>2021-10-25T13:03:23Z</time>
      </trkpt>
      <trkpt lat="47.89212" lon="7.08114">
        <ele>835.04</ele>
        <time>2021-10-25T13:03:37Z</time>
      </trkpt>
      <trkpt lat="47.89211" lon="7.08115">
        <ele>835.52</ele>
        <time>2021-10-25T13:04:02Z</time>
      </trkpt>
      <trkpt lat="47.8921" lon="7.08115">
        <ele>836</ele>
        <time>2021-10-25T13:04:35Z</time>
      </trkpt>
      <trkpt lat="47.89205" lon="7.08117">
        <ele>836.48</ele>
        <time>2021-10-25T13:05:05Z</time>
      </trkpt>
      <trkpt lat="47.89204" lon="7.08116">
        <ele>836.48</ele>
        <time>2021-10-25T13:05:36Z</time>
      </trkpt>
      <trkpt lat="47.89206" lon="7.08116">
        <ele>836.96</ele>
        <time>2021-10-25T13:06:03Z</time>
      </trkpt>
      <trkpt lat="47.89211" lon="7.08114">
        <ele>837.45</ele>
        <time>2021-10-25T13:06:07Z</time>
      </trkpt>
      <trkpt lat="47.89221" lon="7.08111">
        <ele>838.41</ele>
        <time>2021-10-25T13:06:19Z</time>
      </trkpt>
      <trkpt lat="47.89227" lon="7.08109">
        <ele>839.37</ele>
        <time>2021-10-25T13:06:48Z</time>
      </trkpt>
      <trkpt lat="47.89229" lon="7.0811">
        <ele>839.85</ele>
        <time>2021-10-25T13:06:50Z</time>
      </trkpt>
      <trkpt lat="47.89238" lon="7.08125">
        <ele>842.73</ele>
        <time>2021-10-25T13:07:01Z</time>
      </trkpt>
      <trkpt lat="47.89246" lon="7.08153">
        <ele>845.62</ele>
        <time>2021-10-25T13:07:12Z</time>
      </trkpt>
      <trkpt lat="47.89261" lon="7.08174">
        <ele>848.98</ele>
        <time>2021-10-25T13:07:23Z</time>
      </trkpt>
      <trkpt lat="47.89277" lon="7.08185">
        <ele>850.9</ele>
        <time>2021-10-25T13:07:33Z</time>
      </trkpt>
      <trkpt lat="47.8929" lon="7.08193">
        <ele>852.83</ele>
        <time>2021-10-25T13:07:42Z</time>
      </trkpt>
      <trkpt lat="47.89307" lon="7.08205">
        <ele>855.71</ele>
        <time>2021-10-25T13:07:54Z</time>
      </trkpt>
      <trkpt lat="47.89313" lon="7.0821">
        <ele>856.67</ele>
        <time>2021-10-25T13:07:58Z</time>
      </trkpt>
      <trkpt lat="47.89325" lon="7.08217">
        <ele>858.11</ele>
        <time>2021-10-25T13:08:04Z</time>
      </trkpt>
      <trkpt lat="47.89345" lon="7.08231">
        <ele>861.48</ele>
        <time>2021-10-25T13:08:17Z</time>
      </trkpt>
      <trkpt lat="47.89368" lon="7.08249">
        <ele>864.36</ele>
        <time>2021-10-25T13:08:30Z</time>
      </trkpt>
      <trkpt lat="47.89384" lon="7.08258">
        <ele>868.69</ele>
        <time>2021-10-25T13:08:40Z</time>
      </trkpt>
      <trkpt lat="47.89404" lon="7.08272">
        <ele>869.65</ele>
        <time>2021-10-25T13:08:51Z</time>
      </trkpt>
      <trkpt lat="47.8941" lon="7.08275">
        <ele>871.09</ele>
        <time>2021-10-25T13:08:54Z</time>
      </trkpt>
      <trkpt lat="47.89412" lon="7.08275">
        <ele>871.09</ele>
        <time>2021-10-25T13:08:55Z</time>
      </trkpt>
      <trkpt lat="47.89416" lon="7.08277">
        <ele>871.57</ele>
        <time>2021-10-25T13:08:58Z</time>
      </trkpt>
      <trkpt lat="47.89437" lon="7.08296">
        <ele>874.46</ele>
        <time>2021-10-25T13:09:11Z</time>
      </trkpt>
      <trkpt lat="47.89456" lon="7.08305">
        <ele>877.34</ele>
        <time>2021-10-25T13:09:22Z</time>
      </trkpt>
      <trkpt lat="47.89461" lon="7.08305">
        <ele>878.3</ele>
        <time>2021-10-25T13:09:25Z</time>
      </trkpt>
      <trkpt lat="47.89482" lon="7.08302">
        <ele>880.71</ele>
        <time>2021-10-25T13:09:35Z</time>
      </trkpt>
      <trkpt lat="47.8949" lon="7.08304">
        <ele>881.67</ele>
        <time>2021-10-25T13:09:39Z</time>
      </trkpt>
      <trkpt lat="47.89496" lon="7.08315">
        <ele>883.11</ele>
        <time>2021-10-25T13:09:45Z</time>
      </trkpt>
      <trkpt lat="47.895" lon="7.08324">
        <ele>884.07</ele>
        <time>2021-10-25T13:09:48Z</time>
      </trkpt>
      <trkpt lat="47.895" lon="7.08327">
        <ele>884.07</ele>
        <time>2021-10-25T13:09:49Z</time>
      </trkpt>
      <trkpt lat="47.89514" lon="7.08358">
        <ele>886.95</ele>
        <time>2021-10-25T13:10:02Z</time>
      </trkpt>
      <trkpt lat="47.89531" lon="7.08378">
        <ele>889.36</ele>
        <time>2021-10-25T13:10:14Z</time>
      </trkpt>
      <trkpt lat="47.89548" lon="7.08396">
        <ele>892.24</ele>
        <time>2021-10-25T13:10:25Z</time>
      </trkpt>
      <trkpt lat="47.89549" lon="7.08398">
        <ele>892.24</ele>
        <time>2021-10-25T13:10:26Z</time>
      </trkpt>
      <trkpt lat="47.89552" lon="7.08404">
        <ele>893.2</ele>
        <time>2021-10-25T13:10:28Z</time>
      </trkpt>
      <trkpt lat="47.89554" lon="7.08406">
        <ele>893.2</ele>
        <time>2021-10-25T13:10:29Z</time>
      </trkpt>
      <trkpt lat="47.89556" lon="7.08408">
        <ele>893.68</ele>
        <time>2021-10-25T13:10:30Z</time>
      </trkpt>
      <trkpt lat="47.89572" lon="7.08429">
        <ele>897.53</ele>
        <time>2021-10-25T13:10:41Z</time>
      </trkpt>
      <trkpt lat="47.89573" lon="7.08431">
        <ele>896.57</ele>
        <time>2021-10-25T13:10:42Z</time>
      </trkpt>
      <trkpt lat="47.89588" lon="7.08458">
        <ele>899.93</ele>
        <time>2021-10-25T13:10:55Z</time>
      </trkpt>
      <trkpt lat="47.89593" lon="7.08468">
        <ele>900.89</ele>
        <time>2021-10-25T13:11:05Z</time>
      </trkpt>
      <trkpt lat="47.89594" lon="7.08469">
        <ele>900.89</ele>
        <time>2021-10-25T13:11:20Z</time>
      </trkpt>
      <trkpt lat="47.89594" lon="7.08468">
        <ele>900.89</ele>
        <time>2021-10-25T13:11:44Z</time>
      </trkpt>
      <trkpt lat="47.89591" lon="7.08472">
        <ele>901.37</ele>
        <time>2021-10-25T13:12:01Z</time>
      </trkpt>
      <trkpt lat="47.89594" lon="7.08471">
        <ele>901.37</ele>
        <time>2021-10-25T13:12:34Z</time>
      </trkpt>
      <trkpt lat="47.89594" lon="7.08468">
        <ele>901.37</ele>
        <time>2021-10-25T13:12:58Z</time>
      </trkpt>
      <trkpt lat="47.89595" lon="7.08465">
        <ele>901.85</ele>
        <time>2021-10-25T13:13:30Z</time>
      </trkpt>
      <trkpt lat="47.89595" lon="7.08464">
        <ele>902.33</ele>
        <time>2021-10-25T13:14:08Z</time>
      </trkpt>
      <trkpt lat="47.89595" lon="7.08465">
        <ele>902.82</ele>
        <time>2021-10-25T13:14:44Z</time>
      </trkpt>
      <trkpt lat="47.89595" lon="7.08467">
        <ele>902.82</ele>
        <time>2021-10-25T13:15:11Z</time>
      </trkpt>
      <trkpt lat="47.89593" lon="7.08471">
        <ele>902.82</ele>
        <time>2021-10-25T13:15:34Z</time>
      </trkpt>
      <trkpt lat="47.89593" lon="7.08474">
        <ele>903.3</ele>
        <time>2021-10-25T13:15:46Z</time>
      </trkpt>
      <trkpt lat="47.89594" lon="7.08476">
        <ele>903.78</ele>
        <time>2021-10-25T13:15:47Z</time>
      </trkpt>
      <trkpt lat="47.89603" lon="7.0849">
        <ele>905.7</ele>
        <time>2021-10-25T13:15:54Z</time>
      </trkpt>
      <trkpt lat="47.89605" lon="7.08491">
        <ele>905.7</ele>
        <time>2021-10-25T13:15:55Z</time>
      </trkpt>
      <trkpt lat="47.89609" lon="7.08498">
        <ele>907.14</ele>
        <time>2021-10-25T13:15:59Z</time>
      </trkpt>
      <trkpt lat="47.89616" lon="7.08523">
        <ele>909.54</ele>
        <time>2021-10-25T13:16:10Z</time>
      </trkpt>
      <trkpt lat="47.89624" lon="7.08541">
        <ele>911.47</ele>
        <time>2021-10-25T13:16:19Z</time>
      </trkpt>
      <trkpt lat="47.89625" lon="7.08544">
        <ele>911.95</ele>
        <time>2021-10-25T13:16:20Z</time>
      </trkpt>
      <trkpt lat="47.89627" lon="7.08545">
        <ele>911.95</ele>
        <time>2021-10-25T13:16:21Z</time>
      </trkpt>
      <trkpt lat="47.89633" lon="7.0856">
        <ele>914.35</ele>
        <time>2021-10-25T13:16:29Z</time>
      </trkpt>
      <trkpt lat="47.89636" lon="7.08569">
        <ele>914.83</ele>
        <time>2021-10-25T13:16:33Z</time>
      </trkpt>
      <trkpt lat="47.89636" lon="7.08572">
        <ele>915.31</ele>
        <time>2021-10-25T13:16:34Z</time>
      </trkpt>
      <trkpt lat="47.89646" lon="7.08589">
        <ele>918.2</ele>
        <time>2021-10-25T13:16:43Z</time>
      </trkpt>
      <trkpt lat="47.89646" lon="7.08591">
        <ele>918.2</ele>
        <time>2021-10-25T13:16:44Z</time>
      </trkpt>
      <trkpt lat="47.89659" lon="7.08614">
        <ele>919.64</ele>
        <time>2021-10-25T13:16:57Z</time>
      </trkpt>
      <trkpt lat="47.89664" lon="7.08633">
        <ele>921.56</ele>
        <time>2021-10-25T13:17:05Z</time>
      </trkpt>
      <trkpt lat="47.8967" lon="7.08655">
        <ele>924.93</ele>
        <time>2021-10-25T13:17:16Z</time>
      </trkpt>
      <trkpt lat="47.89688" lon="7.08686">
        <ele>927.81</ele>
        <time>2021-10-25T13:17:29Z</time>
      </trkpt>
      <trkpt lat="47.8969" lon="7.08695">
        <ele>928.29</ele>
        <time>2021-10-25T13:17:32Z</time>
      </trkpt>
      <trkpt lat="47.89691" lon="7.08697">
        <ele>928.29</ele>
        <time>2021-10-25T13:17:33Z</time>
      </trkpt>
      <trkpt lat="47.89692" lon="7.08705">
        <ele>928.77</ele>
        <time>2021-10-25T13:17:45Z</time>
      </trkpt>
      <trkpt lat="47.89692" lon="7.08708">
        <ele>929.25</ele>
        <time>2021-10-25T13:17:46Z</time>
      </trkpt>
      <trkpt lat="47.89708" lon="7.08731">
        <ele>932.14</ele>
        <time>2021-10-25T13:17:52Z</time>
      </trkpt>
      <trkpt lat="47.8971" lon="7.08737">
        <ele>932.62</ele>
        <time>2021-10-25T13:17:53Z</time>
      </trkpt>
      <trkpt lat="47.89712" lon="7.08747">
        <ele>933.58</ele>
        <time>2021-10-25T13:17:55Z</time>
      </trkpt>
      <trkpt lat="47.89709" lon="7.08753">
        <ele>934.06</ele>
        <time>2021-10-25T13:17:56Z</time>
      </trkpt>
      <trkpt lat="47.89706" lon="7.08759">
        <ele>934.54</ele>
        <time>2021-10-25T13:17:57Z</time>
      </trkpt>
      <trkpt lat="47.89702" lon="7.08763">
        <ele>934.54</ele>
        <time>2021-10-25T13:17:58Z</time>
      </trkpt>
      <trkpt lat="47.89699" lon="7.08767">
        <ele>935.02</ele>
        <time>2021-10-25T13:17:59Z</time>
      </trkpt>
      <trkpt lat="47.89694" lon="7.0877">
        <ele>935.5</ele>
        <time>2021-10-25T13:18:00Z</time>
      </trkpt>
      <trkpt lat="47.8969" lon="7.08772">
        <ele>936.46</ele>
        <time>2021-10-25T13:18:01Z</time>
      </trkpt>
      <trkpt lat="47.89687" lon="7.08773">
        <ele>936.94</ele>
        <time>2021-10-25T13:18:02Z</time>
      </trkpt>
      <trkpt lat="47.89684" lon="7.08774">
        <ele>937.9</ele>
        <time>2021-10-25T13:18:03Z</time>
      </trkpt>
      <trkpt lat="47.89681" lon="7.08775">
        <ele>938.38</ele>
        <time>2021-10-25T13:18:04Z</time>
      </trkpt>
      <trkpt lat="47.89656" lon="7.08779">
        <ele>941.27</ele>
        <time>2021-10-25T13:18:16Z</time>
      </trkpt>
      <trkpt lat="47.89633" lon="7.08787">
        <ele>944.63</ele>
        <time>2021-10-25T13:18:28Z</time>
      </trkpt>
      <trkpt lat="47.89609" lon="7.08794">
        <ele>947.52</ele>
        <time>2021-10-25T13:18:41Z</time>
      </trkpt>
      <trkpt lat="47.896" lon="7.08796">
        <ele>948.96</ele>
        <time>2021-10-25T13:18:46Z</time>
      </trkpt>
      <trkpt lat="47.89573" lon="7.088">
        <ele>952.32</ele>
        <time>2021-10-25T13:19:00Z</time>
      </trkpt>
      <trkpt lat="47.8955" lon="7.08802">
        <ele>955.69</ele>
        <time>2021-10-25T13:19:12Z</time>
      </trkpt>
      <trkpt lat="47.89531" lon="7.08805">
        <ele>958.09</ele>
        <time>2021-10-25T13:19:23Z</time>
      </trkpt>
      <trkpt lat="47.89507" lon="7.08812">
        <ele>960.98</ele>
        <time>2021-10-25T13:19:36Z</time>
      </trkpt>
      <trkpt lat="47.89487" lon="7.08817">
        <ele>964.34</ele>
        <time>2021-10-25T13:19:48Z</time>
      </trkpt>
      <trkpt lat="47.89462" lon="7.08821">
        <ele>967.22</ele>
        <time>2021-10-25T13:20:01Z</time>
      </trkpt>
      <trkpt lat="47.89446" lon="7.08828">
        <ele>970.11</ele>
        <time>2021-10-25T13:20:11Z</time>
      </trkpt>
      <trkpt lat="47.89426" lon="7.08839">
        <ele>972.99</ele>
        <time>2021-10-25T13:20:22Z</time>
      </trkpt>
      <trkpt lat="47.89408" lon="7.08849">
        <ele>975.88</ele>
        <time>2021-10-25T13:20:34Z</time>
      </trkpt>
      <trkpt lat="47.89383" lon="7.08859">
        <ele>980.68</ele>
        <time>2021-10-25T13:20:46Z</time>
      </trkpt>
      <trkpt lat="47.89382" lon="7.08859">
        <ele>979.72</ele>
        <time>2021-10-25T13:20:47Z</time>
      </trkpt>
      <trkpt lat="47.89361" lon="7.08866">
        <ele>982.6</ele>
        <time>2021-10-25T13:20:58Z</time>
      </trkpt>
      <trkpt lat="47.89343" lon="7.08872">
        <ele>985.49</ele>
        <time>2021-10-25T13:21:09Z</time>
      </trkpt>
      <trkpt lat="47.89322" lon="7.08877">
        <ele>988.37</ele>
        <time>2021-10-25T13:21:21Z</time>
      </trkpt>
      <trkpt lat="47.89306" lon="7.08882">
        <ele>991.26</ele>
        <time>2021-10-25T13:21:32Z</time>
      </trkpt>
      <trkpt lat="47.89286" lon="7.08883">
        <ele>994.62</ele>
        <time>2021-10-25T13:21:42Z</time>
      </trkpt>
      <trkpt lat="47.89282" lon="7.08882">
        <ele>995.1</ele>
        <time>2021-10-25T13:21:44Z</time>
      </trkpt>
      <trkpt lat="47.8928" lon="7.08882">
        <ele>995.1</ele>
        <time>2021-10-25T13:21:45Z</time>
      </trkpt>
      <trkpt lat="47.8926" lon="7.08884">
        <ele>997.99</ele>
        <time>2021-10-25T13:21:56Z</time>
      </trkpt>
      <trkpt lat="47.89239" lon="7.08881">
        <ele>1000.87</ele>
        <time>2021-10-25T13:22:07Z</time>
      </trkpt>
      <trkpt lat="47.89232" lon="7.08879">
        <ele>1001.83</ele>
        <time>2021-10-25T13:22:11Z</time>
      </trkpt>
      <trkpt lat="47.8923" lon="7.08878">
        <ele>1001.83</ele>
        <time>2021-10-25T13:22:12Z</time>
      </trkpt>
      <trkpt lat="47.89229" lon="7.08878">
        <ele>1002.31</ele>
        <time>2021-10-25T13:22:13Z</time>
      </trkpt>
      <trkpt lat="47.89228" lon="7.08878">
        <ele>1002.31</ele>
        <time>2021-10-25T13:22:14Z</time>
      </trkpt>
      <trkpt lat="47.89226" lon="7.08878">
        <ele>1002.79</ele>
        <time>2021-10-25T13:22:15Z</time>
      </trkpt>
      <trkpt lat="47.89224" lon="7.08877">
        <ele>1002.79</ele>
        <time>2021-10-25T13:22:16Z</time>
      </trkpt>
      <trkpt lat="47.89223" lon="7.08876">
        <ele>1003.27</ele>
        <time>2021-10-25T13:22:17Z</time>
      </trkpt>
      <trkpt lat="47.89221" lon="7.08874">
        <ele>1003.27</ele>
        <time>2021-10-25T13:22:18Z</time>
      </trkpt>
      <trkpt lat="47.89219" lon="7.08873">
        <ele>1003.75</ele>
        <time>2021-10-25T13:22:19Z</time>
      </trkpt>
      <trkpt lat="47.89217" lon="7.08872">
        <ele>1004.23</ele>
        <time>2021-10-25T13:22:20Z</time>
      </trkpt>
      <trkpt lat="47.89215" lon="7.08871">
        <ele>1004.23</ele>
        <time>2021-10-25T13:22:21Z</time>
      </trkpt>
      <trkpt lat="47.89214" lon="7.08871">
        <ele>1004.72</ele>
        <time>2021-10-25T13:22:22Z</time>
      </trkpt>
      <trkpt lat="47.89212" lon="7.0887">
        <ele>1004.72</ele>
        <time>2021-10-25T13:22:23Z</time>
      </trkpt>
      <trkpt lat="47.8921" lon="7.08869">
        <ele>1005.2</ele>
        <time>2021-10-25T13:22:24Z</time>
      </trkpt>
      <trkpt lat="47.89209" lon="7.08868">
        <ele>1005.2</ele>
        <time>2021-10-25T13:22:25Z</time>
      </trkpt>
      <trkpt lat="47.89207" lon="7.08867">
        <ele>1005.68</ele>
        <time>2021-10-25T13:22:26Z</time>
      </trkpt>
      <trkpt lat="47.89205" lon="7.08867">
        <ele>1005.68</ele>
        <time>2021-10-25T13:22:27Z</time>
      </trkpt>
      <trkpt lat="47.89203" lon="7.08866">
        <ele>1006.16</ele>
        <time>2021-10-25T13:22:28Z</time>
      </trkpt>
      <trkpt lat="47.89201" lon="7.08865">
        <ele>1006.16</ele>
        <time>2021-10-25T13:22:29Z</time>
      </trkpt>
      <trkpt lat="47.89186" lon="7.08856">
        <ele>1008.56</ele>
        <time>2021-10-25T13:22:38Z</time>
      </trkpt>
      <trkpt lat="47.89184" lon="7.08856">
        <ele>1009.04</ele>
        <time>2021-10-25T13:22:39Z</time>
      </trkpt>
      <trkpt lat="47.89183" lon="7.08856">
        <ele>1009.04</ele>
        <time>2021-10-25T13:22:40Z</time>
      </trkpt>
      <trkpt lat="47.89174" lon="7.08851">
        <ele>1011.93</ele>
        <time>2021-10-25T13:22:47Z</time>
      </trkpt>
      <trkpt lat="47.89172" lon="7.0885">
        <ele>1010.96</ele>
        <time>2021-10-25T13:22:48Z</time>
      </trkpt>
      <trkpt lat="47.89171" lon="7.08849">
        <ele>1010.96</ele>
        <time>2021-10-25T13:22:49Z</time>
      </trkpt>
      <trkpt lat="47.89149" lon="7.08833">
        <ele>1014.33</ele>
        <time>2021-10-25T13:23:01Z</time>
      </trkpt>
      <trkpt lat="47.89126" lon="7.08824">
        <ele>1017.69</ele>
        <time>2021-10-25T13:23:14Z</time>
      </trkpt>
      <trkpt lat="47.89125" lon="7.08825">
        <ele>1017.69</ele>
        <time>2021-10-25T13:23:15Z</time>
      </trkpt>
      <trkpt lat="47.89124" lon="7.08827">
        <ele>1017.69</ele>
        <time>2021-10-25T13:23:16Z</time>
      </trkpt>
      <trkpt lat="47.89123" lon="7.08829">
        <ele>1018.17</ele>
        <time>2021-10-25T13:23:17Z</time>
      </trkpt>
      <trkpt lat="47.89122" lon="7.08831">
        <ele>1018.65</ele>
        <time>2021-10-25T13:23:18Z</time>
      </trkpt>
      <trkpt lat="47.89121" lon="7.08834">
        <ele>1019.13</ele>
        <time>2021-10-25T13:23:19Z</time>
      </trkpt>
      <trkpt lat="47.89121" lon="7.08836">
        <ele>1019.13</ele>
        <time>2021-10-25T13:23:20Z</time>
      </trkpt>
      <trkpt lat="47.89121" lon="7.08839">
        <ele>1019.62</ele>
        <time>2021-10-25T13:23:21Z</time>
      </trkpt>
      <trkpt lat="47.89121" lon="7.08841">
        <ele>1020.1</ele>
        <time>2021-10-25T13:23:22Z</time>
      </trkpt>
      <trkpt lat="47.89122" lon="7.08842">
        <ele>1020.1</ele>
        <time>2021-10-25T13:23:23Z</time>
      </trkpt>
      <trkpt lat="47.89122" lon="7.08842">
        <ele>1020.58</ele>
        <time>2021-10-25T13:23:24Z</time>
      </trkpt>
      <trkpt lat="47.89124" lon="7.08843">
        <ele>1021.06</ele>
        <time>2021-10-25T13:23:25Z</time>
      </trkpt>
      <trkpt lat="47.89125" lon="7.08844">
        <ele>1021.06</ele>
        <time>2021-10-25T13:23:26Z</time>
      </trkpt>
      <trkpt lat="47.89126" lon="7.08845">
        <ele>1021.54</ele>
        <time>2021-10-25T13:23:27Z</time>
      </trkpt>
      <trkpt lat="47.89141" lon="7.08862">
        <ele>1024.9</ele>
        <time>2021-10-25T13:23:39Z</time>
      </trkpt>
      <trkpt lat="47.89144" lon="7.08868">
        <ele>1025.38</ele>
        <time>2021-10-25T13:23:42Z</time>
      </trkpt>
      <trkpt lat="47.89145" lon="7.0887">
        <ele>1025.86</ele>
        <time>2021-10-25T13:23:43Z</time>
      </trkpt>
      <trkpt lat="47.89146" lon="7.08872">
        <ele>1026.34</ele>
        <time>2021-10-25T13:23:44Z</time>
      </trkpt>
      <trkpt lat="47.89146" lon="7.08875">
        <ele>1026.34</ele>
        <time>2021-10-25T13:23:45Z</time>
      </trkpt>
      <trkpt lat="47.89147" lon="7.08877">
        <ele>1026.83</ele>
        <time>2021-10-25T13:23:46Z</time>
      </trkpt>
      <trkpt lat="47.89152" lon="7.0889">
        <ele>1028.27</ele>
        <time>2021-10-25T13:23:52Z</time>
      </trkpt>
      <trkpt lat="47.89153" lon="7.08892">
        <ele>1028.75</ele>
        <time>2021-10-25T13:23:53Z</time>
      </trkpt>
      <trkpt lat="47.89154" lon="7.08895">
        <ele>1028.75</ele>
        <time>2021-10-25T13:23:54Z</time>
      </trkpt>
      <trkpt lat="47.89157" lon="7.089">
        <ele>1029.23</ele>
        <time>2021-10-25T13:23:56Z</time>
      </trkpt>
      <trkpt lat="47.89158" lon="7.08902">
        <ele>1029.71</ele>
        <time>2021-10-25T13:23:57Z</time>
      </trkpt>
      <trkpt lat="47.8916" lon="7.08904">
        <ele>1030.19</ele>
        <time>2021-10-25T13:23:58Z</time>
      </trkpt>
      <trkpt lat="47.89161" lon="7.08906">
        <ele>1030.19</ele>
        <time>2021-10-25T13:23:59Z</time>
      </trkpt>
      <trkpt lat="47.89162" lon="7.08908">
        <ele>1030.19</ele>
        <time>2021-10-25T13:24:00Z</time>
      </trkpt>
      <trkpt lat="47.89163" lon="7.08911">
        <ele>1030.67</ele>
        <time>2021-10-25T13:24:01Z</time>
      </trkpt>
      <trkpt lat="47.89165" lon="7.08913">
        <ele>1031.15</ele>
        <time>2021-10-25T13:24:02Z</time>
      </trkpt>
      <trkpt lat="47.89172" lon="7.08931">
        <ele>1033.55</ele>
        <time>2021-10-25T13:24:10Z</time>
      </trkpt>
      <trkpt lat="47.89176" lon="7.08938">
        <ele>1034.52</ele>
        <time>2021-10-25T13:24:14Z</time>
      </trkpt>
      <trkpt lat="47.89178" lon="7.08941">
        <ele>1035</ele>
        <time>2021-10-25T13:24:15Z</time>
      </trkpt>
      <trkpt lat="47.8918" lon="7.08943">
        <ele>1035</ele>
        <time>2021-10-25T13:24:16Z</time>
      </trkpt>
      <trkpt lat="47.89183" lon="7.08949">
        <ele>1035.96</ele>
        <time>2021-10-25T13:24:19Z</time>
      </trkpt>
      <trkpt lat="47.89185" lon="7.08951">
        <ele>1036.44</ele>
        <time>2021-10-25T13:24:20Z</time>
      </trkpt>
      <trkpt lat="47.89186" lon="7.08953">
        <ele>1036.44</ele>
        <time>2021-10-25T13:24:21Z</time>
      </trkpt>
      <trkpt lat="47.89187" lon="7.08955">
        <ele>1036.92</ele>
        <time>2021-10-25T13:24:22Z</time>
      </trkpt>
      <trkpt lat="47.89188" lon="7.08957">
        <ele>1036.92</ele>
        <time>2021-10-25T13:24:23Z</time>
      </trkpt>
      <trkpt lat="47.89189" lon="7.0896">
        <ele>1036.92</ele>
        <time>2021-10-25T13:24:24Z</time>
      </trkpt>
      <trkpt lat="47.89192" lon="7.08969">
        <ele>1038.36</ele>
        <time>2021-10-25T13:24:29Z</time>
      </trkpt>
      <trkpt lat="47.89196" lon="7.08977">
        <ele>1039.8</ele>
        <time>2021-10-25T13:24:33Z</time>
      </trkpt>
      <trkpt lat="47.89208" lon="7.09001">
        <ele>1042.69</ele>
        <time>2021-10-25T13:24:44Z</time>
      </trkpt>
      <trkpt lat="47.89211" lon="7.09012">
        <ele>1044.13</ele>
        <time>2021-10-25T13:24:49Z</time>
      </trkpt>
      <trkpt lat="47.89214" lon="7.09025">
        <ele>1044.61</ele>
        <time>2021-10-25T13:24:54Z</time>
      </trkpt>
      <trkpt lat="47.89216" lon="7.09033">
        <ele>1046.05</ele>
        <time>2021-10-25T13:24:58Z</time>
      </trkpt>
      <trkpt lat="47.89217" lon="7.09036">
        <ele>1046.53</ele>
        <time>2021-10-25T13:24:59Z</time>
      </trkpt>
      <trkpt lat="47.89218" lon="7.09039">
        <ele>1046.53</ele>
        <time>2021-10-25T13:25:00Z</time>
      </trkpt>
      <trkpt lat="47.89219" lon="7.09042">
        <ele>1046.53</ele>
        <time>2021-10-25T13:25:01Z</time>
      </trkpt>
      <trkpt lat="47.89219" lon="7.09045">
        <ele>1047.01</ele>
        <time>2021-10-25T13:25:02Z</time>
      </trkpt>
      <trkpt lat="47.89219" lon="7.09048">
        <ele>1047.01</ele>
        <time>2021-10-25T13:25:03Z</time>
      </trkpt>
      <trkpt lat="47.89224" lon="7.09072">
        <ele>1049.42</ele>
        <time>2021-10-25T13:25:13Z</time>
      </trkpt>
      <trkpt lat="47.89225" lon="7.09074">
        <ele>1049.42</ele>
        <time>2021-10-25T13:25:14Z</time>
      </trkpt>
      <trkpt lat="47.89226" lon="7.09076">
        <ele>1049.9</ele>
        <time>2021-10-25T13:25:15Z</time>
      </trkpt>
      <trkpt lat="47.89228" lon="7.09078">
        <ele>1049.9</ele>
        <time>2021-10-25T13:25:16Z</time>
      </trkpt>
      <trkpt lat="47.89245" lon="7.09092">
        <ele>1052.78</ele>
        <time>2021-10-25T13:25:28Z</time>
      </trkpt>
      <trkpt lat="47.89251" lon="7.09097">
        <ele>1053.26</ele>
        <time>2021-10-25T13:25:42Z</time>
      </trkpt>
      <trkpt lat="47.89252" lon="7.09098">
        <ele>1053.74</ele>
        <time>2021-10-25T13:26:11Z</time>
      </trkpt>
      <trkpt lat="47.89252" lon="7.09098">
        <ele>1053.74</ele>
        <time>2021-10-25T13:26:34Z</time>
      </trkpt>
      <trkpt lat="47.89252" lon="7.09098">
        <ele>1054.22</ele>
        <time>2021-10-25T13:26:59Z</time>
      </trkpt>
      <trkpt lat="47.89253" lon="7.09097">
        <ele>1054.22</ele>
        <time>2021-10-25T13:27:26Z</time>
      </trkpt>
      <trkpt lat="47.89253" lon="7.09095">
        <ele>1054.22</ele>
        <time>2021-10-25T13:27:48Z</time>
      </trkpt>
      <trkpt lat="47.89251" lon="7.09101">
        <ele>1054.22</ele>
        <time>2021-10-25T13:28:17Z</time>
      </trkpt>
      <trkpt lat="47.89251" lon="7.09099">
        <ele>1054.22</ele>
        <time>2021-10-25T13:28:26Z</time>
      </trkpt>
      <trkpt lat="47.8925" lon="7.09099">
        <ele>1054.22</ele>
        <time>2021-10-25T13:28:27Z</time>
      </trkpt>
      <trkpt lat="47.89248" lon="7.09101">
        <ele>1054.22</ele>
        <time>2021-10-25T13:28:28Z</time>
      </trkpt>
      <trkpt lat="47.89248" lon="7.09103">
        <ele>1054.22</ele>
        <time>2021-10-25T13:28:29Z</time>
      </trkpt>
      <trkpt lat="47.89248" lon="7.09104">
        <ele>1053.74</ele>
        <time>2021-10-25T13:28:30Z</time>
      </trkpt>
      <trkpt lat="47.89252" lon="7.09105">
        <ele>1054.7</ele>
        <time>2021-10-25T13:28:36Z</time>
      </trkpt>
      <trkpt lat="47.89257" lon="7.09114">
        <ele>1056.15</ele>
        <time>2021-10-25T13:28:44Z</time>
      </trkpt>
      <trkpt lat="47.89258" lon="7.09116">
        <ele>1056.63</ele>
        <time>2021-10-25T13:28:46Z</time>
      </trkpt>
      <trkpt lat="47.89264" lon="7.09127">
        <ele>1059.03</ele>
        <time>2021-10-25T13:28:57Z</time>
      </trkpt>
      <trkpt lat="47.89271" lon="7.09136">
        <ele>1060.95</ele>
        <time>2021-10-25T13:29:08Z</time>
      </trkpt>
      <trkpt lat="47.89283" lon="7.09159">
        <ele>1062.87</ele>
        <time>2021-10-25T13:29:20Z</time>
      </trkpt>
      <trkpt lat="47.8929" lon="7.09168">
        <ele>1064.8</ele>
        <time>2021-10-25T13:29:28Z</time>
      </trkpt>
      <trkpt lat="47.89296" lon="7.09177">
        <ele>1065.76</ele>
        <time>2021-10-25T13:29:33Z</time>
      </trkpt>
      <trkpt lat="47.89299" lon="7.09183">
        <ele>1066.24</ele>
        <time>2021-10-25T13:29:36Z</time>
      </trkpt>
      <trkpt lat="47.893" lon="7.09186">
        <ele>1066.72</ele>
        <time>2021-10-25T13:29:37Z</time>
      </trkpt>
      <trkpt lat="47.893" lon="7.09188">
        <ele>1066.72</ele>
        <time>2021-10-25T13:29:38Z</time>
      </trkpt>
      <trkpt lat="47.89301" lon="7.09191">
        <ele>1067.2</ele>
        <time>2021-10-25T13:29:39Z</time>
      </trkpt>
      <trkpt lat="47.89302" lon="7.09193">
        <ele>1067.2</ele>
        <time>2021-10-25T13:29:40Z</time>
      </trkpt>
      <trkpt lat="47.89303" lon="7.09195">
        <ele>1067.68</ele>
        <time>2021-10-25T13:29:41Z</time>
      </trkpt>
      <trkpt lat="47.89304" lon="7.09198">
        <ele>1067.68</ele>
        <time>2021-10-25T13:29:42Z</time>
      </trkpt>
      <trkpt lat="47.89305" lon="7.092">
        <ele>1068.16</ele>
        <time>2021-10-25T13:29:43Z</time>
      </trkpt>
      <trkpt lat="47.89313" lon="7.0922">
        <ele>1071.05</ele>
        <time>2021-10-25T13:29:56Z</time>
      </trkpt>
      <trkpt lat="47.89314" lon="7.09223">
        <ele>1071.05</ele>
        <time>2021-10-25T13:29:57Z</time>
      </trkpt>
      <trkpt lat="47.89315" lon="7.09226">
        <ele>1071.05</ele>
        <time>2021-10-25T13:29:58Z</time>
      </trkpt>
      <trkpt lat="47.89316" lon="7.09228">
        <ele>1071.53</ele>
        <time>2021-10-25T13:29:59Z</time>
      </trkpt>
      <trkpt lat="47.89317" lon="7.09231">
        <ele>1071.53</ele>
        <time>2021-10-25T13:30:00Z</time>
      </trkpt>
      <trkpt lat="47.89317" lon="7.09234">
        <ele>1072.01</ele>
        <time>2021-10-25T13:30:01Z</time>
      </trkpt>
      <trkpt lat="47.89321" lon="7.09249">
        <ele>1073.45</ele>
        <time>2021-10-25T13:30:08Z</time>
      </trkpt>
      <trkpt lat="47.89322" lon="7.09251">
        <ele>1073.45</ele>
        <time>2021-10-25T13:30:09Z</time>
      </trkpt>
      <trkpt lat="47.89322" lon="7.09254">
        <ele>1073.93</ele>
        <time>2021-10-25T13:30:10Z</time>
      </trkpt>
      <trkpt lat="47.89329" lon="7.09276">
        <ele>1075.85</ele>
        <time>2021-10-25T13:30:21Z</time>
      </trkpt>
      <trkpt lat="47.89331" lon="7.09289">
        <ele>1077.29</ele>
        <time>2021-10-25T13:30:32Z</time>
      </trkpt>
      <trkpt lat="47.89327" lon="7.09294">
        <ele>1077.29</ele>
        <time>2021-10-25T13:30:59Z</time>
      </trkpt>
      <trkpt lat="47.89327" lon="7.09296">
        <ele>1077.78</ele>
        <time>2021-10-25T13:31:23Z</time>
      </trkpt>
      <trkpt lat="47.89329" lon="7.09297">
        <ele>1078.26</ele>
        <time>2021-10-25T13:31:41Z</time>
      </trkpt>
      <trkpt lat="47.8933" lon="7.09299">
        <ele>1078.26</ele>
        <time>2021-10-25T13:31:42Z</time>
      </trkpt>
      <trkpt lat="47.89331" lon="7.09301">
        <ele>1078.74</ele>
        <time>2021-10-25T13:31:43Z</time>
      </trkpt>
      <trkpt lat="47.89332" lon="7.09303">
        <ele>1078.74</ele>
        <time>2021-10-25T13:31:44Z</time>
      </trkpt>
      <trkpt lat="47.89334" lon="7.09309">
        <ele>1079.7</ele>
        <time>2021-10-25T13:31:48Z</time>
      </trkpt>
      <trkpt lat="47.89336" lon="7.09311">
        <ele>1080.18</ele>
        <time>2021-10-25T13:31:50Z</time>
      </trkpt>
      <trkpt lat="47.89337" lon="7.09313">
        <ele>1080.66</ele>
        <time>2021-10-25T13:31:51Z</time>
      </trkpt>
      <trkpt lat="47.89338" lon="7.09315">
        <ele>1081.14</ele>
        <time>2021-10-25T13:31:52Z</time>
      </trkpt>
      <trkpt lat="47.8934" lon="7.09317">
        <ele>1081.14</ele>
        <time>2021-10-25T13:31:53Z</time>
      </trkpt>
      <trkpt lat="47.89342" lon="7.09318">
        <ele>1081.62</ele>
        <time>2021-10-25T13:31:54Z</time>
      </trkpt>
      <trkpt lat="47.89358" lon="7.09346">
        <ele>1084.5</ele>
        <time>2021-10-25T13:32:07Z</time>
      </trkpt>
      <trkpt lat="47.89375" lon="7.09373">
        <ele>1087.39</ele>
        <time>2021-10-25T13:32:19Z</time>
      </trkpt>
      <trkpt lat="47.89378" lon="7.09376">
        <ele>1088.35</ele>
        <time>2021-10-25T13:32:21Z</time>
      </trkpt>
      <trkpt lat="47.89386" lon="7.09387">
        <ele>1089.79</ele>
        <time>2021-10-25T13:32:27Z</time>
      </trkpt>
      <trkpt lat="47.89387" lon="7.09388">
        <ele>1089.79</ele>
        <time>2021-10-25T13:32:28Z</time>
      </trkpt>
      <trkpt lat="47.89408" lon="7.09409">
        <ele>1093.16</ele>
        <time>2021-10-25T13:32:41Z</time>
      </trkpt>
      <trkpt lat="47.89422" lon="7.09422">
        <ele>1097.96</ele>
        <time>2021-10-25T13:32:52Z</time>
      </trkpt>
      <trkpt lat="47.89423" lon="7.09423">
        <ele>1097</ele>
        <time>2021-10-25T13:32:53Z</time>
      </trkpt>
      <trkpt lat="47.89433" lon="7.09433">
        <ele>1099.89</ele>
        <time>2021-10-25T13:33:03Z</time>
      </trkpt>
      <trkpt lat="47.8944" lon="7.0944">
        <ele>1101.81</ele>
        <time>2021-10-25T13:33:09Z</time>
      </trkpt>
      <trkpt lat="47.89441" lon="7.09442">
        <ele>1101.81</ele>
        <time>2021-10-25T13:33:10Z</time>
      </trkpt>
      <trkpt lat="47.89442" lon="7.09444">
        <ele>1101.81</ele>
        <time>2021-10-25T13:33:11Z</time>
      </trkpt>
      <trkpt lat="47.89443" lon="7.09446">
        <ele>1102.29</ele>
        <time>2021-10-25T13:33:12Z</time>
      </trkpt>
      <trkpt lat="47.89444" lon="7.09448">
        <ele>1102.77</ele>
        <time>2021-10-25T13:33:13Z</time>
      </trkpt>
      <trkpt lat="47.89446" lon="7.09449">
        <ele>1102.77</ele>
        <time>2021-10-25T13:33:14Z</time>
      </trkpt>
      <trkpt lat="47.89449" lon="7.09455">
        <ele>1104.21</ele>
        <time>2021-10-25T13:33:17Z</time>
      </trkpt>
      <trkpt lat="47.89451" lon="7.09457">
        <ele>1104.21</ele>
        <time>2021-10-25T13:33:18Z</time>
      </trkpt>
      <trkpt lat="47.89452" lon="7.09459">
        <ele>1104.69</ele>
        <time>2021-10-25T13:33:19Z</time>
      </trkpt>
      <trkpt lat="47.89466" lon="7.09474">
        <ele>1106.13</ele>
        <time>2021-10-25T13:33:28Z</time>
      </trkpt>
      <trkpt lat="47.89469" lon="7.09475">
        <ele>1106.61</ele>
        <time>2021-10-25T13:33:29Z</time>
      </trkpt>
      <trkpt lat="47.8947" lon="7.09476">
        <ele>1106.61</ele>
        <time>2021-10-25T13:33:30Z</time>
      </trkpt>
      <trkpt lat="47.89472" lon="7.09477">
        <ele>1106.61</ele>
        <time>2021-10-25T13:33:31Z</time>
      </trkpt>
      <trkpt lat="47.89473" lon="7.09479">
        <ele>1107.1</ele>
        <time>2021-10-25T13:33:32Z</time>
      </trkpt>
      <trkpt lat="47.89475" lon="7.09481">
        <ele>1107.1</ele>
        <time>2021-10-25T13:33:33Z</time>
      </trkpt>
      <trkpt lat="47.89476" lon="7.09482">
        <ele>1107.58</ele>
        <time>2021-10-25T13:33:34Z</time>
      </trkpt>
      <trkpt lat="47.89491" lon="7.09502">
        <ele>1109.98</ele>
        <time>2021-10-25T13:33:46Z</time>
      </trkpt>
      <trkpt lat="47.89493" lon="7.09505">
        <ele>1110.46</ele>
        <time>2021-10-25T13:33:48Z</time>
      </trkpt>
      <trkpt lat="47.89494" lon="7.09506">
        <ele>1110.94</ele>
        <time>2021-10-25T13:33:49Z</time>
      </trkpt>
      <trkpt lat="47.89503" lon="7.0952">
        <ele>1112.86</ele>
        <time>2021-10-25T13:33:57Z</time>
      </trkpt>
      <trkpt lat="47.89504" lon="7.09522">
        <ele>1112.86</ele>
        <time>2021-10-25T13:33:58Z</time>
      </trkpt>
      <trkpt lat="47.89505" lon="7.09524">
        <ele>1113.34</ele>
        <time>2021-10-25T13:33:59Z</time>
      </trkpt>
      <trkpt lat="47.89506" lon="7.09526">
        <ele>1113.34</ele>
        <time>2021-10-25T13:34:00Z</time>
      </trkpt>
      <trkpt lat="47.89506" lon="7.09528">
        <ele>1113.82</ele>
        <time>2021-10-25T13:34:01Z</time>
      </trkpt>
      <trkpt lat="47.89507" lon="7.0953">
        <ele>1114.31</ele>
        <time>2021-10-25T13:34:02Z</time>
      </trkpt>
      <trkpt lat="47.89508" lon="7.09533">
        <ele>1114.31</ele>
        <time>2021-10-25T13:34:03Z</time>
      </trkpt>
      <trkpt lat="47.89509" lon="7.09538">
        <ele>1115.27</ele>
        <time>2021-10-25T13:34:05Z</time>
      </trkpt>
      <trkpt lat="47.8951" lon="7.0954">
        <ele>1115.27</ele>
        <time>2021-10-25T13:34:06Z</time>
      </trkpt>
      <trkpt lat="47.8951" lon="7.09543">
        <ele>1115.75</ele>
        <time>2021-10-25T13:34:07Z</time>
      </trkpt>
      <trkpt lat="47.89511" lon="7.09546">
        <ele>1115.75</ele>
        <time>2021-10-25T13:34:08Z</time>
      </trkpt>
      <trkpt lat="47.89511" lon="7.09549">
        <ele>1116.23</ele>
        <time>2021-10-25T13:34:09Z</time>
      </trkpt>
      <trkpt lat="47.89512" lon="7.09552">
        <ele>1116.23</ele>
        <time>2021-10-25T13:34:10Z</time>
      </trkpt>
      <trkpt lat="47.89513" lon="7.09557">
        <ele>1116.23</ele>
        <time>2021-10-25T13:34:11Z</time>
      </trkpt>
      <trkpt lat="47.89514" lon="7.09561">
        <ele>1116.71</ele>
        <time>2021-10-25T13:34:12Z</time>
      </trkpt>
      <trkpt lat="47.89515" lon="7.09566">
        <ele>1117.19</ele>
        <time>2021-10-25T13:34:13Z</time>
      </trkpt>
      <trkpt lat="47.89516" lon="7.09571">
        <ele>1117.19</ele>
        <time>2021-10-25T13:34:14Z</time>
      </trkpt>
      <trkpt lat="47.89517" lon="7.09576">
        <ele>1117.19</ele>
        <time>2021-10-25T13:34:15Z</time>
      </trkpt>
      <trkpt lat="47.89516" lon="7.09591">
        <ele>1117.67</ele>
        <time>2021-10-25T13:34:19Z</time>
      </trkpt>
      <trkpt lat="47.89506" lon="7.09627">
        <ele>1119.59</ele>
        <time>2021-10-25T13:34:30Z</time>
      </trkpt>
      <trkpt lat="47.89503" lon="7.09661">
        <ele>1121.03</ele>
        <time>2021-10-25T13:34:40Z</time>
      </trkpt>
      <trkpt lat="47.89503" lon="7.09672">
        <ele>1122</ele>
        <time>2021-10-25T13:34:43Z</time>
      </trkpt>
      <trkpt lat="47.89504" lon="7.09674">
        <ele>1122</ele>
        <time>2021-10-25T13:34:44Z</time>
      </trkpt>
      <trkpt lat="47.89505" lon="7.09676">
        <ele>1122</ele>
        <time>2021-10-25T13:34:45Z</time>
      </trkpt>
      <trkpt lat="47.89506" lon="7.09677">
        <ele>1122.48</ele>
        <time>2021-10-25T13:34:46Z</time>
      </trkpt>
      <trkpt lat="47.89507" lon="7.09676">
        <ele>1122.48</ele>
        <time>2021-10-25T13:34:47Z</time>
      </trkpt>
      <trkpt lat="47.89507" lon="7.09674">
        <ele>1123.44</ele>
        <time>2021-10-25T13:34:50Z</time>
      </trkpt>
      <trkpt lat="47.89507" lon="7.09672">
        <ele>1123.44</ele>
        <time>2021-10-25T13:34:51Z</time>
      </trkpt>
      <trkpt lat="47.89507" lon="7.09671">
        <ele>1123.44</ele>
        <time>2021-10-25T13:34:52Z</time>
      </trkpt>
      <trkpt lat="47.89507" lon="7.09666">
        <ele>1124.88</ele>
        <time>2021-10-25T13:34:57Z</time>
      </trkpt>
      <trkpt lat="47.89509" lon="7.09664">
        <ele>1125.36</ele>
        <time>2021-10-25T13:34:58Z</time>
      </trkpt>
      <trkpt lat="47.8951" lon="7.09661">
        <ele>1125.36</ele>
        <time>2021-10-25T13:34:59Z</time>
      </trkpt>
      <trkpt lat="47.89512" lon="7.09655">
        <ele>1125.84</ele>
        <time>2021-10-25T13:35:01Z</time>
      </trkpt>
      <trkpt lat="47.89514" lon="7.09654">
        <ele>1126.32</ele>
        <time>2021-10-25T13:35:02Z</time>
      </trkpt>
      <trkpt lat="47.89515" lon="7.09651">
        <ele>1126.32</ele>
        <time>2021-10-25T13:35:03Z</time>
      </trkpt>
      <trkpt lat="47.89516" lon="7.09649">
        <ele>1126.8</ele>
        <time>2021-10-25T13:35:04Z</time>
      </trkpt>
      <trkpt lat="47.89517" lon="7.09647">
        <ele>1126.8</ele>
        <time>2021-10-25T13:35:05Z</time>
      </trkpt>
      <trkpt lat="47.89518" lon="7.09644">
        <ele>1127.28</ele>
        <time>2021-10-25T13:35:06Z</time>
      </trkpt>
      <trkpt lat="47.89527" lon="7.09616">
        <ele>1129.21</ele>
        <time>2021-10-25T13:35:18Z</time>
      </trkpt>
      <trkpt lat="47.89531" lon="7.09605">
        <ele>1131.13</ele>
        <time>2021-10-25T13:35:25Z</time>
      </trkpt>
      <trkpt lat="47.89532" lon="7.09603">
        <ele>1131.13</ele>
        <time>2021-10-25T13:35:26Z</time>
      </trkpt>
      <trkpt lat="47.89533" lon="7.09601">
        <ele>1131.61</ele>
        <time>2021-10-25T13:35:27Z</time>
      </trkpt>
      <trkpt lat="47.89534" lon="7.09599">
        <ele>1131.61</ele>
        <time>2021-10-25T13:35:28Z</time>
      </trkpt>
      <trkpt lat="47.89535" lon="7.09596">
        <ele>1131.61</ele>
        <time>2021-10-25T13:35:29Z</time>
      </trkpt>
      <trkpt lat="47.89536" lon="7.09594">
        <ele>1132.09</ele>
        <time>2021-10-25T13:35:30Z</time>
      </trkpt>
      <trkpt lat="47.89544" lon="7.09579">
        <ele>1133.53</ele>
        <time>2021-10-25T13:35:38Z</time>
      </trkpt>
      <trkpt lat="47.89545" lon="7.09576">
        <ele>1134.01</ele>
        <time>2021-10-25T13:35:39Z</time>
      </trkpt>
      <trkpt lat="47.89545" lon="7.09574">
        <ele>1134.01</ele>
        <time>2021-10-25T13:35:40Z</time>
      </trkpt>
      <trkpt lat="47.89545" lon="7.09572">
        <ele>1134.49</ele>
        <time>2021-10-25T13:35:41Z</time>
      </trkpt>
      <trkpt lat="47.89545" lon="7.09569">
        <ele>1134.49</ele>
        <time>2021-10-25T13:35:42Z</time>
      </trkpt>
      <trkpt lat="47.89545" lon="7.09567">
        <ele>1134.97</ele>
        <time>2021-10-25T13:35:43Z</time>
      </trkpt>
      <trkpt lat="47.89544" lon="7.09545">
        <ele>1136.9</ele>
        <time>2021-10-25T13:35:54Z</time>
      </trkpt>
      <trkpt lat="47.89548" lon="7.09517">
        <ele>1139.3</ele>
        <time>2021-10-25T13:36:04Z</time>
      </trkpt>
      <trkpt lat="47.89548" lon="7.09514">
        <ele>1139.3</ele>
        <time>2021-10-25T13:36:05Z</time>
      </trkpt>
      <trkpt lat="47.89549" lon="7.09503">
        <ele>1140.26</ele>
        <time>2021-10-25T13:36:09Z</time>
      </trkpt>
      <trkpt lat="47.89549" lon="7.09501">
        <ele>1140.74</ele>
        <time>2021-10-25T13:36:10Z</time>
      </trkpt>
      <trkpt lat="47.89549" lon="7.09498">
        <ele>1141.22</ele>
        <time>2021-10-25T13:36:11Z</time>
      </trkpt>
      <trkpt lat="47.89549" lon="7.09494">
        <ele>1141.22</ele>
        <time>2021-10-25T13:36:12Z</time>
      </trkpt>
      <trkpt lat="47.8955" lon="7.09491">
        <ele>1141.22</ele>
        <time>2021-10-25T13:36:13Z</time>
      </trkpt>
      <trkpt lat="47.8955" lon="7.09485">
        <ele>1141.7</ele>
        <time>2021-10-25T13:36:15Z</time>
      </trkpt>
      <trkpt lat="47.8955" lon="7.09481">
        <ele>1141.7</ele>
        <time>2021-10-25T13:36:16Z</time>
      </trkpt>
      <trkpt lat="47.89549" lon="7.09474">
        <ele>1142.18</ele>
        <time>2021-10-25T13:36:19Z</time>
      </trkpt>
      <trkpt lat="47.89548" lon="7.09469">
        <ele>1142.66</ele>
        <time>2021-10-25T13:36:21Z</time>
      </trkpt>
      <trkpt lat="47.89549" lon="7.09455">
        <ele>1143.63</ele>
        <time>2021-10-25T13:36:27Z</time>
      </trkpt>
      <trkpt lat="47.8955" lon="7.09452">
        <ele>1144.11</ele>
        <time>2021-10-25T13:36:28Z</time>
      </trkpt>
      <trkpt lat="47.8955" lon="7.09448">
        <ele>1144.11</ele>
        <time>2021-10-25T13:36:29Z</time>
      </trkpt>
      <trkpt lat="47.8955" lon="7.09445">
        <ele>1144.59</ele>
        <time>2021-10-25T13:36:30Z</time>
      </trkpt>
      <trkpt lat="47.8955" lon="7.09442">
        <ele>1144.59</ele>
        <time>2021-10-25T13:36:31Z</time>
      </trkpt>
      <trkpt lat="47.8955" lon="7.09439">
        <ele>1144.59</ele>
        <time>2021-10-25T13:36:32Z</time>
      </trkpt>
      <trkpt lat="47.8955" lon="7.09436">
        <ele>1145.07</ele>
        <time>2021-10-25T13:36:33Z</time>
      </trkpt>
      <trkpt lat="47.89551" lon="7.09434">
        <ele>1145.07</ele>
        <time>2021-10-25T13:36:34Z</time>
      </trkpt>
      <trkpt lat="47.89551" lon="7.09431">
        <ele>1145.55</ele>
        <time>2021-10-25T13:36:35Z</time>
      </trkpt>
      <trkpt lat="47.89551" lon="7.09429">
        <ele>1146.03</ele>
        <time>2021-10-25T13:36:36Z</time>
      </trkpt>
      <trkpt lat="47.8955" lon="7.0942">
        <ele>1146.51</ele>
        <time>2021-10-25T13:36:39Z</time>
      </trkpt>
      <trkpt lat="47.8955" lon="7.09414">
        <ele>1147.47</ele>
        <time>2021-10-25T13:36:41Z</time>
      </trkpt>
      <trkpt lat="47.8955" lon="7.09412">
        <ele>1147.47</ele>
        <time>2021-10-25T13:36:42Z</time>
      </trkpt>
      <trkpt lat="47.8955" lon="7.09409">
        <ele>1147.95</ele>
        <time>2021-10-25T13:36:43Z</time>
      </trkpt>
      <trkpt lat="47.8955" lon="7.09407">
        <ele>1147.95</ele>
        <time>2021-10-25T13:36:44Z</time>
      </trkpt>
      <trkpt lat="47.89551" lon="7.09405">
        <ele>1148.43</ele>
        <time>2021-10-25T13:36:45Z</time>
      </trkpt>
      <trkpt lat="47.89552" lon="7.09403">
        <ele>1148.43</ele>
        <time>2021-10-25T13:36:46Z</time>
      </trkpt>
      <trkpt lat="47.89554" lon="7.09399">
        <ele>1148.91</ele>
        <time>2021-10-25T13:36:48Z</time>
      </trkpt>
      <trkpt lat="47.89555" lon="7.09397">
        <ele>1149.39</ele>
        <time>2021-10-25T13:36:49Z</time>
      </trkpt>
      <trkpt lat="47.89556" lon="7.09389">
        <ele>1149.87</ele>
        <time>2021-10-25T13:36:52Z</time>
      </trkpt>
      <trkpt lat="47.89578" lon="7.09377">
        <ele>1152.28</ele>
        <time>2021-10-25T13:37:04Z</time>
      </trkpt>
      <trkpt lat="47.89603" lon="7.09377">
        <ele>1154.2</ele>
        <time>2021-10-25T13:37:16Z</time>
      </trkpt>
      <trkpt lat="47.89635" lon="7.09371">
        <ele>1156.6</ele>
        <time>2021-10-25T13:37:30Z</time>
      </trkpt>
      <trkpt lat="47.89661" lon="7.09365">
        <ele>1158.53</ele>
        <time>2021-10-25T13:37:43Z</time>
      </trkpt>
      <trkpt lat="47.89677" lon="7.09363">
        <ele>1161.41</ele>
        <time>2021-10-25T13:37:52Z</time>
      </trkpt>
      <trkpt lat="47.89679" lon="7.09363">
        <ele>1162.85</ele>
        <time>2021-10-25T13:37:54Z</time>
      </trkpt>
      <trkpt lat="47.89692" lon="7.09364">
        <ele>1166.22</ele>
        <time>2021-10-25T13:38:04Z</time>
      </trkpt>
      <trkpt lat="47.8971" lon="7.09367">
        <ele>1169.1</ele>
        <time>2021-10-25T13:38:15Z</time>
      </trkpt>
      <trkpt lat="47.89726" lon="7.09366">
        <ele>1172.47</ele>
        <time>2021-10-25T13:38:26Z</time>
      </trkpt>
      <trkpt lat="47.89739" lon="7.09369">
        <ele>1174.39</ele>
        <time>2021-10-25T13:38:36Z</time>
      </trkpt>
      <trkpt lat="47.89759" lon="7.09368">
        <ele>1176.31</ele>
        <time>2021-10-25T13:38:49Z</time>
      </trkpt>
      <trkpt lat="47.89761" lon="7.09367">
        <ele>1176.79</ele>
        <time>2021-10-25T13:38:50Z</time>
      </trkpt>
      <trkpt lat="47.89773" lon="7.09363">
        <ele>1177.75</ele>
        <time>2021-10-25T13:38:57Z</time>
      </trkpt>
      <trkpt lat="47.89781" lon="7.09362">
        <ele>1178.23</ele>
        <time>2021-10-25T13:39:01Z</time>
      </trkpt>
      <trkpt lat="47.89795" lon="7.09358">
        <ele>1179.19</ele>
        <time>2021-10-25T13:39:10Z</time>
      </trkpt>
      <trkpt lat="47.8982" lon="7.09348">
        <ele>1181.6</ele>
        <time>2021-10-25T13:39:23Z</time>
      </trkpt>
      <trkpt lat="47.89841" lon="7.09341">
        <ele>1183.04</ele>
        <time>2021-10-25T13:39:34Z</time>
      </trkpt>
      <trkpt lat="47.89842" lon="7.09341">
        <ele>1183.52</ele>
        <time>2021-10-25T13:39:35Z</time>
      </trkpt>
      <trkpt lat="47.89861" lon="7.09338">
        <ele>1185.92</ele>
        <time>2021-10-25T13:39:47Z</time>
      </trkpt>
      <trkpt lat="47.89874" lon="7.09336">
        <ele>1187.85</ele>
        <time>2021-10-25T13:39:55Z</time>
      </trkpt>
      <trkpt lat="47.89895" lon="7.09336">
        <ele>1191.21</ele>
        <time>2021-10-25T13:40:09Z</time>
      </trkpt>
      <trkpt lat="47.89899" lon="7.09336">
        <ele>1192.65</ele>
        <time>2021-10-25T13:40:12Z</time>
      </trkpt>
      <trkpt lat="47.89916" lon="7.0933">
        <ele>1196.02</ele>
        <time>2021-10-25T13:40:22Z</time>
      </trkpt>
      <trkpt lat="47.89928" lon="7.09329">
        <ele>1199.38</ele>
        <time>2021-10-25T13:40:29Z</time>
      </trkpt>
      <trkpt lat="47.89945" lon="7.0933">
        <ele>1201.79</ele>
        <time>2021-10-25T13:40:37Z</time>
      </trkpt>
      <trkpt lat="47.89955" lon="7.09327">
        <ele>1202.27</ele>
        <time>2021-10-25T13:40:42Z</time>
      </trkpt>
      <trkpt lat="47.89965" lon="7.09328">
        <ele>1202.75</ele>
        <time>2021-10-25T13:40:47Z</time>
      </trkpt>
      <trkpt lat="47.8998" lon="7.09325">
        <ele>1202.27</ele>
        <time>2021-10-25T13:40:55Z</time>
      </trkpt>
      <trkpt lat="47.90003" lon="7.0933">
        <ele>1200.34</ele>
        <time>2021-10-25T13:41:03Z</time>
      </trkpt>
      <trkpt lat="47.9001" lon="7.0933">
        <ele>1200.34</ele>
        <time>2021-10-25T13:41:07Z</time>
      </trkpt>
      <trkpt lat="47.90022" lon="7.09329">
        <ele>1199.86</ele>
        <time>2021-10-25T13:41:21Z</time>
      </trkpt>
      <trkpt lat="47.90027" lon="7.09329">
        <ele>1199.38</ele>
        <time>2021-10-25T13:41:33Z</time>
      </trkpt>
      <trkpt lat="47.9003" lon="7.09329">
        <ele>1199.38</ele>
        <time>2021-10-25T13:41:42Z</time>
      </trkpt>
      <trkpt lat="47.90044" lon="7.09334">
        <ele>1200.82</ele>
        <time>2021-10-25T13:41:50Z</time>
      </trkpt>
      <trkpt lat="47.90051" lon="7.09338">
        <ele>1201.79</ele>
        <time>2021-10-25T13:41:54Z</time>
      </trkpt>
      <trkpt lat="47.90057" lon="7.09339">
        <ele>1203.23</ele>
        <time>2021-10-25T13:42:00Z</time>
      </trkpt>
      <trkpt lat="47.90069" lon="7.09322">
        <ele>1206.11</ele>
        <time>2021-10-25T13:42:11Z</time>
      </trkpt>
      <trkpt lat="47.90068" lon="7.0932">
        <ele>1206.59</ele>
        <time>2021-10-25T13:42:12Z</time>
      </trkpt>
      <trkpt lat="47.90065" lon="7.09313">
        <ele>1207.07</ele>
        <time>2021-10-25T13:42:16Z</time>
      </trkpt>
      <trkpt lat="47.90067" lon="7.09305">
        <ele>1208.03</ele>
        <time>2021-10-25T13:42:19Z</time>
      </trkpt>
      <trkpt lat="47.90075" lon="7.09267">
        <ele>1210.44</ele>
        <time>2021-10-25T13:42:33Z</time>
      </trkpt>
      <trkpt lat="47.9008" lon="7.09254">
        <ele>1211.88</ele>
        <time>2021-10-25T13:42:43Z</time>
      </trkpt>
      <trkpt lat="47.90081" lon="7.09248">
        <ele>1212.36</ele>
        <time>2021-10-25T13:42:45Z</time>
      </trkpt>
      <trkpt lat="47.90096" lon="7.09218">
        <ele>1213.8</ele>
        <time>2021-10-25T13:42:57Z</time>
      </trkpt>
      <trkpt lat="47.901" lon="7.09208">
        <ele>1214.76</ele>
        <time>2021-10-25T13:43:01Z</time>
      </trkpt>
      <trkpt lat="47.90108" lon="7.09198">
        <ele>1215.72</ele>
        <time>2021-10-25T13:43:06Z</time>
      </trkpt>
      <trkpt lat="47.90127" lon="7.09186">
        <ele>1219.09</ele>
        <time>2021-10-25T13:43:17Z</time>
      </trkpt>
      <trkpt lat="47.9015" lon="7.09176">
        <ele>1220.53</ele>
        <time>2021-10-25T13:43:28Z</time>
      </trkpt>
      <trkpt lat="47.90161" lon="7.09168">
        <ele>1221.49</ele>
        <time>2021-10-25T13:43:34Z</time>
      </trkpt>
      <trkpt lat="47.90183" lon="7.09149">
        <ele>1222.45</ele>
        <time>2021-10-25T13:43:46Z</time>
      </trkpt>
      <trkpt lat="47.90215" lon="7.09128">
        <ele>1222.45</ele>
        <time>2021-10-25T13:43:57Z</time>
      </trkpt>
      <trkpt lat="47.90231" lon="7.09118">
        <ele>1222.93</ele>
        <time>2021-10-25T13:44:04Z</time>
      </trkpt>
      <trkpt lat="47.90243" lon="7.09114">
        <ele>1223.42</ele>
        <time>2021-10-25T13:44:10Z</time>
      </trkpt>
      <trkpt lat="47.90262" lon="7.09104">
        <ele>1225.34</ele>
        <time>2021-10-25T13:44:23Z</time>
      </trkpt>
      <trkpt lat="47.90278" lon="7.09098">
        <ele>1226.78</ele>
        <time>2021-10-25T13:44:35Z</time>
      </trkpt>
      <trkpt lat="47.90279" lon="7.09097">
        <ele>1226.78</ele>
        <time>2021-10-25T13:44:58Z</time>
      </trkpt>
      <trkpt lat="47.90282" lon="7.09097">
        <ele>1226.78</ele>
        <time>2021-10-25T13:45:15Z</time>
      </trkpt>
      <trkpt lat="47.90283" lon="7.09095">
        <ele>1226.78</ele>
        <time>2021-10-25T13:45:32Z</time>
      </trkpt>
      <trkpt lat="47.90284" lon="7.09094">
        <ele>1227.26</ele>
        <time>2021-10-25T13:45:43Z</time>
      </trkpt>
      <trkpt lat="47.90291" lon="7.0909">
        <ele>1227.74</ele>
        <time>2021-10-25T13:45:53Z</time>
      </trkpt>
      <trkpt lat="47.90318" lon="7.09079">
        <ele>1229.18</ele>
        <time>2021-10-25T13:46:07Z</time>
      </trkpt>
      <trkpt lat="47.90334" lon="7.09075">
        <ele>1230.14</ele>
        <time>2021-10-25T13:46:19Z</time>
      </trkpt>
      <trkpt lat="47.90336" lon="7.09076">
        <ele>1230.62</ele>
        <time>2021-10-25T13:46:33Z</time>
      </trkpt>
      <trkpt lat="47.90338" lon="7.09076">
        <ele>1232.07</ele>
        <time>2021-10-25T13:47:01Z</time>
      </trkpt>
      <trkpt lat="47.90338" lon="7.09076">
        <ele>1230.14</ele>
        <time>2021-10-25T13:47:26Z</time>
      </trkpt>
      <trkpt lat="47.90338" lon="7.09076">
        <ele>1230.62</ele>
        <time>2021-10-25T13:47:46Z</time>
      </trkpt>
      <trkpt lat="47.90337" lon="7.09075">
        <ele>1230.62</ele>
        <time>2021-10-25T13:48:19Z</time>
      </trkpt>
      <trkpt lat="47.90337" lon="7.09075">
        <ele>1230.62</ele>
        <time>2021-10-25T13:48:45Z</time>
      </trkpt>
      <trkpt lat="47.90337" lon="7.09076">
        <ele>1230.62</ele>
        <time>2021-10-25T13:49:15Z</time>
      </trkpt>
      <trkpt lat="47.90337" lon="7.09076">
        <ele>1230.14</ele>
        <time>2021-10-25T13:49:44Z</time>
      </trkpt>
      <trkpt lat="47.90337" lon="7.09076">
        <ele>1230.14</ele>
        <time>2021-10-25T13:50:12Z</time>
      </trkpt>
      <trkpt lat="47.90338" lon="7.09076">
        <ele>1229.66</ele>
        <time>2021-10-25T13:50:44Z</time>
      </trkpt>
      <trkpt lat="47.90338" lon="7.09076">
        <ele>1229.66</ele>
        <time>2021-10-25T13:51:13Z</time>
      </trkpt>
      <trkpt lat="47.90338" lon="7.09075">
        <ele>1229.66</ele>
        <time>2021-10-25T13:51:41Z</time>
      </trkpt>
      <trkpt lat="47.90338" lon="7.09075">
        <ele>1229.66</ele>
        <time>2021-10-25T13:52:02Z</time>
      </trkpt>
      <trkpt lat="47.90341" lon="7.09074">
        <ele>1230.14</ele>
        <time>2021-10-25T13:52:20Z</time>
      </trkpt>
      <trkpt lat="47.90343" lon="7.09073">
        <ele>1230.14</ele>
        <time>2021-10-25T13:52:35Z</time>
      </trkpt>
      <trkpt lat="47.90344" lon="7.09073">
        <ele>1230.14</ele>
        <time>2021-10-25T13:52:47Z</time>
      </trkpt>
      <trkpt lat="47.90347" lon="7.09073">
        <ele>1229.66</ele>
        <time>2021-10-25T13:53:01Z</time>
      </trkpt>
      <trkpt lat="47.90346" lon="7.09073">
        <ele>1229.66</ele>
        <time>2021-10-25T13:53:31Z</time>
      </trkpt>
      <trkpt lat="47.90347" lon="7.09073">
        <ele>1229.66</ele>
        <time>2021-10-25T13:54:01Z</time>
      </trkpt>
      <trkpt lat="47.90347" lon="7.09072">
        <ele>1229.66</ele>
        <time>2021-10-25T13:54:26Z</time>
      </trkpt>
      <trkpt lat="47.90347" lon="7.09074">
        <ele>1230.14</ele>
        <time>2021-10-25T13:55:01Z</time>
      </trkpt>
      <trkpt lat="47.90347" lon="7.09073">
        <ele>1229.66</ele>
        <time>2021-10-25T13:55:35Z</time>
      </trkpt>
      <trkpt lat="47.90346" lon="7.09074">
        <ele>1229.66</ele>
        <time>2021-10-25T13:56:13Z</time>
      </trkpt>
      <trkpt lat="47.90347" lon="7.09074">
        <ele>1230.14</ele>
        <time>2021-10-25T13:56:54Z</time>
      </trkpt>
      <trkpt lat="47.90347" lon="7.09073">
        <ele>1230.14</ele>
        <time>2021-10-25T13:57:30Z</time>
      </trkpt>
      <trkpt lat="47.90347" lon="7.09073">
        <ele>1230.14</ele>
        <time>2021-10-25T13:58:05Z</time>
      </trkpt>
      <trkpt lat="47.90347" lon="7.09073">
        <ele>1230.62</ele>
        <time>2021-10-25T13:58:40Z</time>
      </trkpt>
      <trkpt lat="47.90347" lon="7.09074">
        <ele>1230.62</ele>
        <time>2021-10-25T13:59:22Z</time>
      </trkpt>
      <trkpt lat="47.90347" lon="7.09074">
        <ele>1230.14</ele>
        <time>2021-10-25T13:59:59Z</time>
      </trkpt>
      <trkpt lat="47.90346" lon="7.09074">
        <ele>1230.14</ele>
        <time>2021-10-25T14:00:34Z</time>
      </trkpt>
      <trkpt lat="47.90346" lon="7.09073">
        <ele>1230.14</ele>
        <time>2021-10-25T14:01:07Z</time>
      </trkpt>
      <trkpt lat="47.90346" lon="7.09074">
        <ele>1229.66</ele>
        <time>2021-10-25T14:01:45Z</time>
      </trkpt>
      <trkpt lat="47.90346" lon="7.09073">
        <ele>1230.14</ele>
        <time>2021-10-25T14:02:16Z</time>
      </trkpt>
      <trkpt lat="47.90346" lon="7.09074">
        <ele>1230.14</ele>
        <time>2021-10-25T14:02:52Z</time>
      </trkpt>
      <trkpt lat="47.90347" lon="7.09074">
        <ele>1229.66</ele>
        <time>2021-10-25T14:03:26Z</time>
      </trkpt>
      <trkpt lat="47.90347" lon="7.09074">
        <ele>1229.66</ele>
        <time>2021-10-25T14:04:04Z</time>
      </trkpt>
      <trkpt lat="47.90347" lon="7.09074">
        <ele>1229.66</ele>
        <time>2021-10-25T14:04:45Z</time>
      </trkpt>
      <trkpt lat="47.90347" lon="7.09073">
        <ele>1229.18</ele>
        <time>2021-10-25T14:05:24Z</time>
      </trkpt>
      <trkpt lat="47.90347" lon="7.09073">
        <ele>1230.14</ele>
        <time>2021-10-25T14:06:04Z</time>
      </trkpt>
      <trkpt lat="47.90347" lon="7.09074">
        <ele>1229.66</ele>
        <time>2021-10-25T14:06:39Z</time>
      </trkpt>
      <trkpt lat="47.90347" lon="7.09073">
        <ele>1230.14</ele>
        <time>2021-10-25T14:07:17Z</time>
      </trkpt>
      <trkpt lat="47.90347" lon="7.09074">
        <ele>1229.66</ele>
        <time>2021-10-25T14:07:54Z</time>
      </trkpt>
      <trkpt lat="47.90347" lon="7.09074">
        <ele>1229.18</ele>
        <time>2021-10-25T14:08:33Z</time>
      </trkpt>
      <trkpt lat="47.90346" lon="7.09074">
        <ele>1229.66</ele>
        <time>2021-10-25T14:09:09Z</time>
      </trkpt>
      <trkpt lat="47.90346" lon="7.09074">
        <ele>1229.66</ele>
        <time>2021-10-25T14:09:47Z</time>
      </trkpt>
      <trkpt lat="47.90346" lon="7.09073">
        <ele>1229.18</ele>
        <time>2021-10-25T14:10:29Z</time>
      </trkpt>
      <trkpt lat="47.90346" lon="7.09074">
        <ele>1229.66</ele>
        <time>2021-10-25T14:11:09Z</time>
      </trkpt>
      <trkpt lat="47.90347" lon="7.09073">
        <ele>1229.66</ele>
        <time>2021-10-25T14:11:36Z</time>
      </trkpt>
      <trkpt lat="47.90347" lon="7.09074">
        <ele>1229.66</ele>
        <time>2021-10-25T14:12:12Z</time>
      </trkpt>
      <trkpt lat="47.90348" lon="7.09074">
        <ele>1229.66</ele>
        <time>2021-10-25T14:12:45Z</time>
      </trkpt>
      <trkpt lat="47.90347" lon="7.09073">
        <ele>1230.62</ele>
        <time>2021-10-25T14:13:15Z</time>
      </trkpt>
      <trkpt lat="47.90353" lon="7.09073">
        <ele>1231.11</ele>
        <time>2021-10-25T14:13:28Z</time>
      </trkpt>
      <trkpt lat="47.90352" lon="7.09072">
        <ele>1231.11</ele>
        <time>2021-10-25T14:13:41Z</time>
      </trkpt>
      <trkpt lat="47.90351" lon="7.09074">
        <ele>1231.11</ele>
        <time>2021-10-25T14:14:11Z</time>
      </trkpt>
      <trkpt lat="47.90354" lon="7.09072">
        <ele>1231.11</ele>
        <time>2021-10-25T14:14:15Z</time>
      </trkpt>
      <trkpt lat="47.90363" lon="7.09069">
        <ele>1231.11</ele>
        <time>2021-10-25T14:14:21Z</time>
      </trkpt>
      <trkpt lat="47.90373" lon="7.09062">
        <ele>1231.11</ele>
        <time>2021-10-25T14:14:27Z</time>
      </trkpt>
      <trkpt lat="47.90408" lon="7.09042">
        <ele>1228.7</ele>
        <time>2021-10-25T14:14:42Z</time>
      </trkpt>
      <trkpt lat="47.90426" lon="7.09032">
        <ele>1228.22</ele>
        <time>2021-10-25T14:14:51Z</time>
      </trkpt>
      <trkpt lat="47.90449" lon="7.09019">
        <ele>1228.7</ele>
        <time>2021-10-25T14:15:06Z</time>
      </trkpt>
      <trkpt lat="47.90472" lon="7.09005">
        <ele>1229.66</ele>
        <time>2021-10-25T14:15:21Z</time>
      </trkpt>
      <trkpt lat="47.90478" lon="7.08996">
        <ele>1230.62</ele>
        <time>2021-10-25T14:15:27Z</time>
      </trkpt>
      <trkpt lat="47.90477" lon="7.08986">
        <ele>1229.66</ele>
        <time>2021-10-25T14:15:31Z</time>
      </trkpt>
      <trkpt lat="47.90471" lon="7.08976">
        <ele>1228.22</ele>
        <time>2021-10-25T14:15:38Z</time>
      </trkpt>
      <trkpt lat="47.90456" lon="7.08947">
        <ele>1225.34</ele>
        <time>2021-10-25T14:15:52Z</time>
      </trkpt>
      <trkpt lat="47.90445" lon="7.08922">
        <ele>1221.97</ele>
        <time>2021-10-25T14:16:01Z</time>
      </trkpt>
      <trkpt lat="47.90437" lon="7.08896">
        <ele>1219.09</ele>
        <time>2021-10-25T14:16:08Z</time>
      </trkpt>
      <trkpt lat="47.90428" lon="7.08865">
        <ele>1216.21</ele>
        <time>2021-10-25T14:16:17Z</time>
      </trkpt>
      <trkpt lat="47.90421" lon="7.08847">
        <ele>1214.28</ele>
        <time>2021-10-25T14:16:29Z</time>
      </trkpt>
      <trkpt lat="47.9042" lon="7.08843">
        <ele>1213.8</ele>
        <time>2021-10-25T14:16:42Z</time>
      </trkpt>
      <trkpt lat="47.90416" lon="7.08821">
        <ele>1212.36</ele>
        <time>2021-10-25T14:16:49Z</time>
      </trkpt>
      <trkpt lat="47.90407" lon="7.08789">
        <ele>1208.51</ele>
        <time>2021-10-25T14:16:56Z</time>
      </trkpt>
      <trkpt lat="47.90397" lon="7.08768">
        <ele>1205.15</ele>
        <time>2021-10-25T14:17:01Z</time>
      </trkpt>
      <trkpt lat="47.90386" lon="7.08755">
        <ele>1202.27</ele>
        <time>2021-10-25T14:17:05Z</time>
      </trkpt>
      <trkpt lat="47.90368" lon="7.08739">
        <ele>1198.42</ele>
        <time>2021-10-25T14:17:10Z</time>
      </trkpt>
      <trkpt lat="47.90365" lon="7.08736">
        <ele>1197.94</ele>
        <time>2021-10-25T14:17:11Z</time>
      </trkpt>
      <trkpt lat="47.90361" lon="7.08734">
        <ele>1197.46</ele>
        <time>2021-10-25T14:17:12Z</time>
      </trkpt>
      <trkpt lat="47.90358" lon="7.08731">
        <ele>1196.5</ele>
        <time>2021-10-25T14:17:13Z</time>
      </trkpt>
      <trkpt lat="47.90355" lon="7.08728">
        <ele>1196.02</ele>
        <time>2021-10-25T14:17:14Z</time>
      </trkpt>
      <trkpt lat="47.90351" lon="7.08725">
        <ele>1195.54</ele>
        <time>2021-10-25T14:17:15Z</time>
      </trkpt>
      <trkpt lat="47.90348" lon="7.08722">
        <ele>1195.06</ele>
        <time>2021-10-25T14:17:16Z</time>
      </trkpt>
      <trkpt lat="47.90344" lon="7.08719">
        <ele>1195.06</ele>
        <time>2021-10-25T14:17:17Z</time>
      </trkpt>
      <trkpt lat="47.90329" lon="7.08704">
        <ele>1191.69</ele>
        <time>2021-10-25T14:17:21Z</time>
      </trkpt>
      <trkpt lat="47.9032" lon="7.08694">
        <ele>1189.77</ele>
        <time>2021-10-25T14:17:25Z</time>
      </trkpt>
      <trkpt lat="47.90304" lon="7.08681">
        <ele>1186.4</ele>
        <time>2021-10-25T14:17:33Z</time>
      </trkpt>
      <trkpt lat="47.90285" lon="7.08668">
        <ele>1183.52</ele>
        <time>2021-10-25T14:17:41Z</time>
      </trkpt>
      <trkpt lat="47.9026" lon="7.08648">
        <ele>1180.16</ele>
        <time>2021-10-25T14:17:50Z</time>
      </trkpt>
      <trkpt lat="47.90234" lon="7.08632">
        <ele>1177.27</ele>
        <time>2021-10-25T14:17:58Z</time>
      </trkpt>
      <trkpt lat="47.90222" lon="7.0862">
        <ele>1175.83</ele>
        <time>2021-10-25T14:18:01Z</time>
      </trkpt>
      <trkpt lat="47.90217" lon="7.08615">
        <ele>1175.35</ele>
        <time>2021-10-25T14:18:02Z</time>
      </trkpt>
      <trkpt lat="47.90213" lon="7.0861">
        <ele>1174.39</ele>
        <time>2021-10-25T14:18:03Z</time>
      </trkpt>
      <trkpt lat="47.90208" lon="7.08604">
        <ele>1173.91</ele>
        <time>2021-10-25T14:18:04Z</time>
      </trkpt>
      <trkpt lat="47.90204" lon="7.08598">
        <ele>1173.91</ele>
        <time>2021-10-25T14:18:05Z</time>
      </trkpt>
      <trkpt lat="47.90183" lon="7.08572">
        <ele>1172.95</ele>
        <time>2021-10-25T14:18:10Z</time>
      </trkpt>
      <trkpt lat="47.90167" lon="7.08561">
        <ele>1171.5</ele>
        <time>2021-10-25T14:18:13Z</time>
      </trkpt>
      <trkpt lat="47.90141" lon="7.08545">
        <ele>1170.06</ele>
        <time>2021-10-25T14:18:17Z</time>
      </trkpt>
      <trkpt lat="47.90136" lon="7.0854">
        <ele>1169.58</ele>
        <time>2021-10-25T14:18:18Z</time>
      </trkpt>
      <trkpt lat="47.90132" lon="7.08536">
        <ele>1169.1</ele>
        <time>2021-10-25T14:18:19Z</time>
      </trkpt>
      <trkpt lat="47.90129" lon="7.08533">
        <ele>1169.1</ele>
        <time>2021-10-25T14:18:20Z</time>
      </trkpt>
      <trkpt lat="47.90125" lon="7.0853">
        <ele>1168.62</ele>
        <time>2021-10-25T14:18:21Z</time>
      </trkpt>
      <trkpt lat="47.90121" lon="7.08527">
        <ele>1168.62</ele>
        <time>2021-10-25T14:18:22Z</time>
      </trkpt>
      <trkpt lat="47.90098" lon="7.08513">
        <ele>1167.66</ele>
        <time>2021-10-25T14:18:29Z</time>
      </trkpt>
      <trkpt lat="47.90096" lon="7.08511">
        <ele>1167.66</ele>
        <time>2021-10-25T14:18:30Z</time>
      </trkpt>
      <trkpt lat="47.90068" lon="7.08478">
        <ele>1166.22</ele>
        <time>2021-10-25T14:18:44Z</time>
      </trkpt>
      <trkpt lat="47.90045" lon="7.08457">
        <ele>1163.81</ele>
        <time>2021-10-25T14:18:54Z</time>
      </trkpt>
      <trkpt lat="47.90037" lon="7.08448">
        <ele>1161.89</ele>
        <time>2021-10-25T14:18:57Z</time>
      </trkpt>
      <trkpt lat="47.90032" lon="7.08444">
        <ele>1161.41</ele>
        <time>2021-10-25T14:18:58Z</time>
      </trkpt>
      <trkpt lat="47.90027" lon="7.0844">
        <ele>1160.93</ele>
        <time>2021-10-25T14:18:59Z</time>
      </trkpt>
      <trkpt lat="47.90004" lon="7.08416">
        <ele>1157.56</ele>
        <time>2021-10-25T14:19:04Z</time>
      </trkpt>
      <trkpt lat="47.89986" lon="7.08397">
        <ele>1154.68</ele>
        <time>2021-10-25T14:19:08Z</time>
      </trkpt>
      <trkpt lat="47.89963" lon="7.08367">
        <ele>1151.32</ele>
        <time>2021-10-25T14:19:14Z</time>
      </trkpt>
      <trkpt lat="47.89956" lon="7.08357">
        <ele>1148.91</ele>
        <time>2021-10-25T14:19:16Z</time>
      </trkpt>
      <trkpt lat="47.89952" lon="7.08353">
        <ele>1148.43</ele>
        <time>2021-10-25T14:19:17Z</time>
      </trkpt>
      <trkpt lat="47.89948" lon="7.08349">
        <ele>1148.43</ele>
        <time>2021-10-25T14:19:18Z</time>
      </trkpt>
      <trkpt lat="47.89944" lon="7.08343">
        <ele>1148.43</ele>
        <time>2021-10-25T14:19:19Z</time>
      </trkpt>
      <trkpt lat="47.8994" lon="7.08337">
        <ele>1147.47</ele>
        <time>2021-10-25T14:19:20Z</time>
      </trkpt>
      <trkpt lat="47.89931" lon="7.08322">
        <ele>1144.11</ele>
        <time>2021-10-25T14:19:23Z</time>
      </trkpt>
      <trkpt lat="47.89927" lon="7.08318">
        <ele>1143.63</ele>
        <time>2021-10-25T14:19:24Z</time>
      </trkpt>
      <trkpt lat="47.89924" lon="7.08314">
        <ele>1142.66</ele>
        <time>2021-10-25T14:19:25Z</time>
      </trkpt>
      <trkpt lat="47.89922" lon="7.0831">
        <ele>1142.18</ele>
        <time>2021-10-25T14:19:26Z</time>
      </trkpt>
      <trkpt lat="47.89921" lon="7.08308">
        <ele>1141.7</ele>
        <time>2021-10-25T14:19:27Z</time>
      </trkpt>
      <trkpt lat="47.8992" lon="7.08302">
        <ele>1141.7</ele>
        <time>2021-10-25T14:19:42Z</time>
      </trkpt>
      <trkpt lat="47.89919" lon="7.08299">
        <ele>1141.22</ele>
        <time>2021-10-25T14:19:48Z</time>
      </trkpt>
      <trkpt lat="47.89918" lon="7.08295">
        <ele>1141.22</ele>
        <time>2021-10-25T14:19:49Z</time>
      </trkpt>
      <trkpt lat="47.89917" lon="7.0829">
        <ele>1140.74</ele>
        <time>2021-10-25T14:19:50Z</time>
      </trkpt>
      <trkpt lat="47.89915" lon="7.08285">
        <ele>1139.78</ele>
        <time>2021-10-25T14:19:51Z</time>
      </trkpt>
      <trkpt lat="47.89913" lon="7.08278">
        <ele>1139.3</ele>
        <time>2021-10-25T14:19:52Z</time>
      </trkpt>
      <trkpt lat="47.89909" lon="7.0827">
        <ele>1138.34</ele>
        <time>2021-10-25T14:19:53Z</time>
      </trkpt>
      <trkpt lat="47.89905" lon="7.08261">
        <ele>1137.38</ele>
        <time>2021-10-25T14:19:54Z</time>
      </trkpt>
      <trkpt lat="47.89887" lon="7.08224">
        <ele>1134.01</ele>
        <time>2021-10-25T14:19:58Z</time>
      </trkpt>
      <trkpt lat="47.89873" lon="7.08196">
        <ele>1130.65</ele>
        <time>2021-10-25T14:20:01Z</time>
      </trkpt>
      <trkpt lat="47.89852" lon="7.0816">
        <ele>1127.28</ele>
        <time>2021-10-25T14:20:05Z</time>
      </trkpt>
      <trkpt lat="47.89848" lon="7.08151">
        <ele>1126.32</ele>
        <time>2021-10-25T14:20:06Z</time>
      </trkpt>
      <trkpt lat="47.89832" lon="7.08105">
        <ele>1121.52</ele>
        <time>2021-10-25T14:20:10Z</time>
      </trkpt>
      <trkpt lat="47.89818" lon="7.08061">
        <ele>1118.63</ele>
        <time>2021-10-25T14:20:14Z</time>
      </trkpt>
      <trkpt lat="47.89808" lon="7.08032">
        <ele>1115.27</ele>
        <time>2021-10-25T14:20:18Z</time>
      </trkpt>
      <trkpt lat="47.89807" lon="7.08026">
        <ele>1114.31</ele>
        <time>2021-10-25T14:20:19Z</time>
      </trkpt>
      <trkpt lat="47.89806" lon="7.08021">
        <ele>1113.82</ele>
        <time>2021-10-25T14:20:20Z</time>
      </trkpt>
      <trkpt lat="47.89804" lon="7.08016">
        <ele>1113.34</ele>
        <time>2021-10-25T14:20:21Z</time>
      </trkpt>
      <trkpt lat="47.89802" lon="7.08011">
        <ele>1112.86</ele>
        <time>2021-10-25T14:20:22Z</time>
      </trkpt>
      <trkpt lat="47.898" lon="7.08006">
        <ele>1112.38</ele>
        <time>2021-10-25T14:20:23Z</time>
      </trkpt>
      <trkpt lat="47.89798" lon="7.08">
        <ele>1111.42</ele>
        <time>2021-10-25T14:20:24Z</time>
      </trkpt>
      <trkpt lat="47.89795" lon="7.07992">
        <ele>1110.94</ele>
        <time>2021-10-25T14:20:25Z</time>
      </trkpt>
      <trkpt lat="47.89784" lon="7.07969">
        <ele>1109.02</ele>
        <time>2021-10-25T14:20:28Z</time>
      </trkpt>
      <trkpt lat="47.8978" lon="7.07963">
        <ele>1108.06</ele>
        <time>2021-10-25T14:20:29Z</time>
      </trkpt>
      <trkpt lat="47.89776" lon="7.07958">
        <ele>1107.1</ele>
        <time>2021-10-25T14:20:30Z</time>
      </trkpt>
      <trkpt lat="47.89755" lon="7.07931">
        <ele>1101.33</ele>
        <time>2021-10-25T14:20:34Z</time>
      </trkpt>
      <trkpt lat="47.89749" lon="7.07926">
        <ele>1099.89</ele>
        <time>2021-10-25T14:20:35Z</time>
      </trkpt>
      <trkpt lat="47.89742" lon="7.07922">
        <ele>1098.92</ele>
        <time>2021-10-25T14:20:36Z</time>
      </trkpt>
      <trkpt lat="47.89734" lon="7.07919">
        <ele>1097.48</ele>
        <time>2021-10-25T14:20:37Z</time>
      </trkpt>
      <trkpt lat="47.89726" lon="7.07917">
        <ele>1096.52</ele>
        <time>2021-10-25T14:20:38Z</time>
      </trkpt>
      <trkpt lat="47.89716" lon="7.07916">
        <ele>1095.56</ele>
        <time>2021-10-25T14:20:39Z</time>
      </trkpt>
      <trkpt lat="47.89689" lon="7.07913">
        <ele>1091.71</ele>
        <time>2021-10-25T14:20:42Z</time>
      </trkpt>
      <trkpt lat="47.89672" lon="7.0791">
        <ele>1088.35</ele>
        <time>2021-10-25T14:20:44Z</time>
      </trkpt>
      <trkpt lat="47.89663" lon="7.07909">
        <ele>1086.91</ele>
        <time>2021-10-25T14:20:45Z</time>
      </trkpt>
      <trkpt lat="47.89655" lon="7.07906">
        <ele>1085.47</ele>
        <time>2021-10-25T14:20:46Z</time>
      </trkpt>
      <trkpt lat="47.89648" lon="7.07902">
        <ele>1084.5</ele>
        <time>2021-10-25T14:20:47Z</time>
      </trkpt>
      <trkpt lat="47.8964" lon="7.07896">
        <ele>1083.54</ele>
        <time>2021-10-25T14:20:48Z</time>
      </trkpt>
      <trkpt lat="47.89633" lon="7.07891">
        <ele>1082.1</ele>
        <time>2021-10-25T14:20:49Z</time>
      </trkpt>
      <trkpt lat="47.89626" lon="7.07885">
        <ele>1080.66</ele>
        <time>2021-10-25T14:20:50Z</time>
      </trkpt>
      <trkpt lat="47.89604" lon="7.07861">
        <ele>1076.81</ele>
        <time>2021-10-25T14:20:53Z</time>
      </trkpt>
      <trkpt lat="47.89579" lon="7.07835">
        <ele>1072.97</ele>
        <time>2021-10-25T14:20:56Z</time>
      </trkpt>
      <trkpt lat="47.89562" lon="7.07814">
        <ele>1068.16</ele>
        <time>2021-10-25T14:20:58Z</time>
      </trkpt>
      <trkpt lat="47.89556" lon="7.078">
        <ele>1066.72</ele>
        <time>2021-10-25T14:20:59Z</time>
      </trkpt>
      <trkpt lat="47.89533" lon="7.07766">
        <ele>1062.39</ele>
        <time>2021-10-25T14:21:02Z</time>
      </trkpt>
      <trkpt lat="47.89518" lon="7.07744">
        <ele>1059.51</ele>
        <time>2021-10-25T14:21:04Z</time>
      </trkpt>
      <trkpt lat="47.89504" lon="7.07723">
        <ele>1055.67</ele>
        <time>2021-10-25T14:21:06Z</time>
      </trkpt>
      <trkpt lat="47.89485" lon="7.07696">
        <ele>1051.82</ele>
        <time>2021-10-25T14:21:09Z</time>
      </trkpt>
      <trkpt lat="47.89467" lon="7.07671">
        <ele>1047.97</ele>
        <time>2021-10-25T14:21:12Z</time>
      </trkpt>
      <trkpt lat="47.89453" lon="7.07656">
        <ele>1045.09</ele>
        <time>2021-10-25T14:21:14Z</time>
      </trkpt>
      <trkpt lat="47.89432" lon="7.07638">
        <ele>1041.25</ele>
        <time>2021-10-25T14:21:17Z</time>
      </trkpt>
      <trkpt lat="47.89415" lon="7.0762">
        <ele>1038.84</ele>
        <time>2021-10-25T14:21:20Z</time>
      </trkpt>
      <trkpt lat="47.89403" lon="7.07601">
        <ele>1035</ele>
        <time>2021-10-25T14:21:23Z</time>
      </trkpt>
      <trkpt lat="47.89393" lon="7.07585">
        <ele>1032.59</ele>
        <time>2021-10-25T14:21:25Z</time>
      </trkpt>
      <trkpt lat="47.89389" lon="7.07576">
        <ele>1031.63</ele>
        <time>2021-10-25T14:21:26Z</time>
      </trkpt>
      <trkpt lat="47.89386" lon="7.07568">
        <ele>1030.19</ele>
        <time>2021-10-25T14:21:27Z</time>
      </trkpt>
      <trkpt lat="47.89383" lon="7.0756">
        <ele>1029.23</ele>
        <time>2021-10-25T14:21:28Z</time>
      </trkpt>
      <trkpt lat="47.89382" lon="7.07553">
        <ele>1028.75</ele>
        <time>2021-10-25T14:21:29Z</time>
      </trkpt>
      <trkpt lat="47.89383" lon="7.07548">
        <ele>1028.75</ele>
        <time>2021-10-25T14:21:30Z</time>
      </trkpt>
      <trkpt lat="47.89383" lon="7.07539">
        <ele>1028.27</ele>
        <time>2021-10-25T14:21:36Z</time>
      </trkpt>
      <trkpt lat="47.89371" lon="7.0754">
        <ele>1026.83</ele>
        <time>2021-10-25T14:21:41Z</time>
      </trkpt>
      <trkpt lat="47.89367" lon="7.07544">
        <ele>1025.38</ele>
        <time>2021-10-25T14:21:44Z</time>
      </trkpt>
      <trkpt lat="47.89368" lon="7.07549">
        <ele>1025.38</ele>
        <time>2021-10-25T14:21:47Z</time>
      </trkpt>
      <trkpt lat="47.8937" lon="7.07544">
        <ele>1025.86</ele>
        <time>2021-10-25T14:21:58Z</time>
      </trkpt>
      <trkpt lat="47.89369" lon="7.07543">
        <ele>1026.34</ele>
        <time>2021-10-25T14:22:24Z</time>
      </trkpt>
      <trkpt lat="47.89367" lon="7.07541">
        <ele>1025.86</ele>
        <time>2021-10-25T14:22:45Z</time>
      </trkpt>
      <trkpt lat="47.89367" lon="7.07541">
        <ele>1025.38</ele>
        <time>2021-10-25T14:22:49Z</time>
      </trkpt>
      <trkpt lat="47.89358" lon="7.07535">
        <ele>1021.06</ele>
        <time>2021-10-25T14:22:54Z</time>
      </trkpt>
      <trkpt lat="47.89353" lon="7.07529">
        <ele>1019.13</ele>
        <time>2021-10-25T14:22:56Z</time>
      </trkpt>
      <trkpt lat="47.89343" lon="7.07518">
        <ele>1017.21</ele>
        <time>2021-10-25T14:23:07Z</time>
      </trkpt>
      <trkpt lat="47.89339" lon="7.0752">
        <ele>1017.21</ele>
        <time>2021-10-25T14:23:37Z</time>
      </trkpt>
      <trkpt lat="47.89339" lon="7.07519">
        <ele>1017.21</ele>
        <time>2021-10-25T14:24:11Z</time>
      </trkpt>
      <trkpt lat="47.89338" lon="7.0752">
        <ele>1017.21</ele>
        <time>2021-10-25T14:24:41Z</time>
      </trkpt>
      <trkpt lat="47.89339" lon="7.07518">
        <ele>1017.21</ele>
        <time>2021-10-25T14:25:15Z</time>
      </trkpt>
      <trkpt lat="47.89336" lon="7.07515">
        <ele>1017.21</ele>
        <time>2021-10-25T14:25:52Z</time>
      </trkpt>
      <trkpt lat="47.89335" lon="7.07515">
        <ele>1016.73</ele>
        <time>2021-10-25T14:26:23Z</time>
      </trkpt>
      <trkpt lat="47.89336" lon="7.07516">
        <ele>1016.73</ele>
        <time>2021-10-25T14:26:55Z</time>
      </trkpt>
      <trkpt lat="47.89336" lon="7.07514">
        <ele>1016.73</ele>
        <time>2021-10-25T14:27:30Z</time>
      </trkpt>
      <trkpt lat="47.89335" lon="7.07515">
        <ele>1017.21</ele>
        <time>2021-10-25T14:28:06Z</time>
      </trkpt>
      <trkpt lat="47.89335" lon="7.07517">
        <ele>1017.21</ele>
        <time>2021-10-25T14:28:36Z</time>
      </trkpt>
      <trkpt lat="47.89337" lon="7.07518">
        <ele>1017.21</ele>
        <time>2021-10-25T14:28:46Z</time>
      </trkpt>
      <trkpt lat="47.89353" lon="7.07531">
        <ele>1021.06</ele>
        <time>2021-10-25T14:28:56Z</time>
      </trkpt>
      <trkpt lat="47.89361" lon="7.07536">
        <ele>1024.42</ele>
        <time>2021-10-25T14:29:01Z</time>
      </trkpt>
      <trkpt lat="47.89364" lon="7.07538">
        <ele>1025.86</ele>
        <time>2021-10-25T14:29:03Z</time>
      </trkpt>
      <trkpt lat="47.89376" lon="7.07544">
        <ele>1027.79</ele>
        <time>2021-10-25T14:29:09Z</time>
      </trkpt>
      <trkpt lat="47.89379" lon="7.07544">
        <ele>1029.23</ele>
        <time>2021-10-25T14:29:11Z</time>
      </trkpt>
      <trkpt lat="47.89377" lon="7.07535">
        <ele>1028.75</ele>
        <time>2021-10-25T14:29:15Z</time>
      </trkpt>
      <trkpt lat="47.8937" lon="7.0754">
        <ele>1026.34</ele>
        <time>2021-10-25T14:29:21Z</time>
      </trkpt>
      <trkpt lat="47.89367" lon="7.07547">
        <ele>1025.86</ele>
        <time>2021-10-25T14:29:33Z</time>
      </trkpt>
      <trkpt lat="47.89367" lon="7.07549">
        <ele>1025.38</ele>
        <time>2021-10-25T14:29:46Z</time>
      </trkpt>
      <trkpt lat="47.89369" lon="7.07551">
        <ele>1025.38</ele>
        <time>2021-10-25T14:29:49Z</time>
      </trkpt>
      <trkpt lat="47.89371" lon="7.07549">
        <ele>1026.34</ele>
        <time>2021-10-25T14:29:51Z</time>
      </trkpt>
      <trkpt lat="47.89374" lon="7.07539">
        <ele>1027.31</ele>
        <time>2021-10-25T14:29:57Z</time>
      </trkpt>
      <trkpt lat="47.89387" lon="7.07506">
        <ele>1026.83</ele>
        <time>2021-10-25T14:30:07Z</time>
      </trkpt>
      <trkpt lat="47.89395" lon="7.07469">
        <ele>1024.42</ele>
        <time>2021-10-25T14:30:13Z</time>
      </trkpt>
      <trkpt lat="47.89398" lon="7.07455">
        <ele>1022.98</ele>
        <time>2021-10-25T14:30:15Z</time>
      </trkpt>
      <trkpt lat="47.89399" lon="7.07448">
        <ele>1022.02</ele>
        <time>2021-10-25T14:30:16Z</time>
      </trkpt>
      <trkpt lat="47.89401" lon="7.07441">
        <ele>1021.54</ele>
        <time>2021-10-25T14:30:17Z</time>
      </trkpt>
      <trkpt lat="47.89407" lon="7.0742">
        <ele>1019.62</ele>
        <time>2021-10-25T14:30:20Z</time>
      </trkpt>
      <trkpt lat="47.89415" lon="7.07399">
        <ele>1017.21</ele>
        <time>2021-10-25T14:30:23Z</time>
      </trkpt>
      <trkpt lat="47.89425" lon="7.07367">
        <ele>1014.33</ele>
        <time>2021-10-25T14:30:27Z</time>
      </trkpt>
      <trkpt lat="47.89432" lon="7.07348">
        <ele>1011.93</ele>
        <time>2021-10-25T14:30:29Z</time>
      </trkpt>
      <trkpt lat="47.89435" lon="7.07336">
        <ele>1010.96</ele>
        <time>2021-10-25T14:30:30Z</time>
      </trkpt>
      <trkpt lat="47.89437" lon="7.07323">
        <ele>1010</ele>
        <time>2021-10-25T14:30:31Z</time>
      </trkpt>
      <trkpt lat="47.89445" lon="7.07281">
        <ele>1006.16</ele>
        <time>2021-10-25T14:30:34Z</time>
      </trkpt>
      <trkpt lat="47.89451" lon="7.07245">
        <ele>1003.27</ele>
        <time>2021-10-25T14:30:37Z</time>
      </trkpt>
      <trkpt lat="47.89454" lon="7.07225">
        <ele>1000.39</ele>
        <time>2021-10-25T14:30:39Z</time>
      </trkpt>
      <trkpt lat="47.89463" lon="7.07183">
        <ele>996.54</ele>
        <time>2021-10-25T14:30:43Z</time>
      </trkpt>
      <trkpt lat="47.89475" lon="7.07137">
        <ele>993.18</ele>
        <time>2021-10-25T14:30:47Z</time>
      </trkpt>
      <trkpt lat="47.89478" lon="7.07127">
        <ele>992.22</ele>
        <time>2021-10-25T14:30:48Z</time>
      </trkpt>
      <trkpt lat="47.89485" lon="7.07086">
        <ele>988.37</ele>
        <time>2021-10-25T14:30:52Z</time>
      </trkpt>
      <trkpt lat="47.8949" lon="7.07045">
        <ele>985.49</ele>
        <time>2021-10-25T14:30:56Z</time>
      </trkpt>
      <trkpt lat="47.89494" lon="7.07001">
        <ele>982.12</ele>
        <time>2021-10-25T14:31:00Z</time>
      </trkpt>
      <trkpt lat="47.89495" lon="7.06977">
        <ele>978.76</ele>
        <time>2021-10-25T14:31:02Z</time>
      </trkpt>
      <trkpt lat="47.89494" lon="7.06953">
        <ele>976.84</ele>
        <time>2021-10-25T14:31:04Z</time>
      </trkpt>
      <trkpt lat="47.89492" lon="7.06941">
        <ele>975.88</ele>
        <time>2021-10-25T14:31:05Z</time>
      </trkpt>
      <trkpt lat="47.89486" lon="7.06897">
        <ele>972.51</ele>
        <time>2021-10-25T14:31:09Z</time>
      </trkpt>
      <trkpt lat="47.89482" lon="7.06888">
        <ele>971.55</ele>
        <time>2021-10-25T14:31:10Z</time>
      </trkpt>
      <trkpt lat="47.89477" lon="7.06879">
        <ele>971.07</ele>
        <time>2021-10-25T14:31:11Z</time>
      </trkpt>
      <trkpt lat="47.89471" lon="7.06871">
        <ele>970.11</ele>
        <time>2021-10-25T14:31:12Z</time>
      </trkpt>
      <trkpt lat="47.89465" lon="7.06861">
        <ele>969.15</ele>
        <time>2021-10-25T14:31:13Z</time>
      </trkpt>
      <trkpt lat="47.89461" lon="7.06854">
        <ele>968.67</ele>
        <time>2021-10-25T14:31:14Z</time>
      </trkpt>
      <trkpt lat="47.89458" lon="7.06848">
        <ele>967.7</ele>
        <time>2021-10-25T14:31:15Z</time>
      </trkpt>
      <trkpt lat="47.8945" lon="7.06832">
        <ele>965.3</ele>
        <time>2021-10-25T14:31:18Z</time>
      </trkpt>
      <trkpt lat="47.89447" lon="7.06829">
        <ele>964.82</ele>
        <time>2021-10-25T14:31:19Z</time>
      </trkpt>
      <trkpt lat="47.89445" lon="7.06827">
        <ele>964.34</ele>
        <time>2021-10-25T14:31:20Z</time>
      </trkpt>
      <trkpt lat="47.89444" lon="7.06827">
        <ele>963.86</ele>
        <time>2021-10-25T14:31:21Z</time>
      </trkpt>
      <trkpt lat="47.89442" lon="7.06828">
        <ele>963.86</ele>
        <time>2021-10-25T14:31:22Z</time>
      </trkpt>
      <trkpt lat="47.89441" lon="7.06828">
        <ele>963.86</ele>
        <time>2021-10-25T14:31:23Z</time>
      </trkpt>
      <trkpt lat="47.8944" lon="7.06829">
        <ele>963.38</ele>
        <time>2021-10-25T14:31:24Z</time>
      </trkpt>
      <trkpt lat="47.89436" lon="7.06829">
        <ele>963.38</ele>
        <time>2021-10-25T14:31:36Z</time>
      </trkpt>
      <trkpt lat="47.89439" lon="7.06829">
        <ele>963.38</ele>
        <time>2021-10-25T14:31:56Z</time>
      </trkpt>
      <trkpt lat="47.8944" lon="7.06828">
        <ele>963.38</ele>
        <time>2021-10-25T14:32:00Z</time>
      </trkpt>
      <trkpt lat="47.89439" lon="7.06818">
        <ele>963.86</ele>
        <time>2021-10-25T14:32:06Z</time>
      </trkpt>
      <trkpt lat="47.89428" lon="7.068">
        <ele>965.3</ele>
        <time>2021-10-25T14:32:14Z</time>
      </trkpt>
      <trkpt lat="47.89422" lon="7.06795">
        <ele>965.78</ele>
        <time>2021-10-25T14:32:27Z</time>
      </trkpt>
      <trkpt lat="47.89423" lon="7.06795">
        <ele>965.78</ele>
        <time>2021-10-25T14:32:45Z</time>
      </trkpt>
      <trkpt lat="47.89422" lon="7.06794">
        <ele>965.78</ele>
        <time>2021-10-25T14:33:12Z</time>
      </trkpt>
      <trkpt lat="47.89422" lon="7.06795">
        <ele>965.78</ele>
        <time>2021-10-25T14:33:39Z</time>
      </trkpt>
      <trkpt lat="47.89423" lon="7.06797">
        <ele>965.3</ele>
        <time>2021-10-25T14:34:03Z</time>
      </trkpt>
      <trkpt lat="47.89423" lon="7.06796">
        <ele>965.3</ele>
        <time>2021-10-25T14:34:26Z</time>
      </trkpt>
      <trkpt lat="47.89423" lon="7.06798">
        <ele>965.3</ele>
        <time>2021-10-25T14:34:55Z</time>
      </trkpt>
      <trkpt lat="47.89422" lon="7.06798">
        <ele>965.3</ele>
        <time>2021-10-25T14:35:09Z</time>
      </trkpt>
      <trkpt lat="47.89422" lon="7.06801">
        <ele>965.3</ele>
        <time>2021-10-25T14:35:43Z</time>
      </trkpt>
      <trkpt lat="47.89422" lon="7.068">
        <ele>965.3</ele>
        <time>2021-10-25T14:36:12Z</time>
      </trkpt>
      <trkpt lat="47.89423" lon="7.06799">
        <ele>964.82</ele>
        <time>2021-10-25T14:36:41Z</time>
      </trkpt>
      <trkpt lat="47.89422" lon="7.06799">
        <ele>965.3</ele>
        <time>2021-10-25T14:37:07Z</time>
      </trkpt>
      <trkpt lat="47.89423" lon="7.06798">
        <ele>965.3</ele>
        <time>2021-10-25T14:37:29Z</time>
      </trkpt>
      <trkpt lat="47.89423" lon="7.06797">
        <ele>964.82</ele>
        <time>2021-10-25T14:37:45Z</time>
      </trkpt>
      <trkpt lat="47.89423" lon="7.06798">
        <ele>964.82</ele>
        <time>2021-10-25T14:37:54Z</time>
      </trkpt>
      <trkpt lat="47.8942" lon="7.06788">
        <ele>966.26</ele>
        <time>2021-10-25T14:38:01Z</time>
      </trkpt>
      <trkpt lat="47.89404" lon="7.06766">
        <ele>969.63</ele>
        <time>2021-10-25T14:38:13Z</time>
      </trkpt>
      <trkpt lat="47.89401" lon="7.06757">
        <ele>971.07</ele>
        <time>2021-10-25T14:38:16Z</time>
      </trkpt>
      <trkpt lat="47.89394" lon="7.06718">
        <ele>973.95</ele>
        <time>2021-10-25T14:38:27Z</time>
      </trkpt>
      <trkpt lat="47.89393" lon="7.06694">
        <ele>975.88</ele>
        <time>2021-10-25T14:38:34Z</time>
      </trkpt>
      <trkpt lat="47.89392" lon="7.06673">
        <ele>979.24</ele>
        <time>2021-10-25T14:38:42Z</time>
      </trkpt>
      <trkpt lat="47.89387" lon="7.06658">
        <ele>980.68</ele>
        <time>2021-10-25T14:38:48Z</time>
      </trkpt>
      <trkpt lat="47.89387" lon="7.06651">
        <ele>982.12</ele>
        <time>2021-10-25T14:38:51Z</time>
      </trkpt>
      <trkpt lat="47.8939" lon="7.0661">
        <ele>985.49</ele>
        <time>2021-10-25T14:39:02Z</time>
      </trkpt>
      <trkpt lat="47.8939" lon="7.06599">
        <ele>986.45</ele>
        <time>2021-10-25T14:39:05Z</time>
      </trkpt>
      <trkpt lat="47.8939" lon="7.06596">
        <ele>986.93</ele>
        <time>2021-10-25T14:39:06Z</time>
      </trkpt>
      <trkpt lat="47.89388" lon="7.06555">
        <ele>989.81</ele>
        <time>2021-10-25T14:39:16Z</time>
      </trkpt>
      <trkpt lat="47.89386" lon="7.06534">
        <ele>991.74</ele>
        <time>2021-10-25T14:39:22Z</time>
      </trkpt>
      <trkpt lat="47.89373" lon="7.06494">
        <ele>995.1</ele>
        <time>2021-10-25T14:39:33Z</time>
      </trkpt>
      <trkpt lat="47.89372" lon="7.06491">
        <ele>995.1</ele>
        <time>2021-10-25T14:39:34Z</time>
      </trkpt>
      <trkpt lat="47.8936" lon="7.06453">
        <ele>997.99</ele>
        <time>2021-10-25T14:39:47Z</time>
      </trkpt>
      <trkpt lat="47.89354" lon="7.06415">
        <ele>1001.35</ele>
        <time>2021-10-25T14:39:57Z</time>
      </trkpt>
      <trkpt lat="47.89352" lon="7.06384">
        <ele>1004.23</ele>
        <time>2021-10-25T14:40:06Z</time>
      </trkpt>
      <trkpt lat="47.89355" lon="7.06345">
        <ele>1007.12</ele>
        <time>2021-10-25T14:40:18Z</time>
      </trkpt>
      <trkpt lat="47.89359" lon="7.0633">
        <ele>1010</ele>
        <time>2021-10-25T14:40:27Z</time>
      </trkpt>
      <trkpt lat="47.89363" lon="7.06328">
        <ele>1010.48</ele>
        <time>2021-10-25T14:40:41Z</time>
      </trkpt>
      <trkpt lat="47.89365" lon="7.06328">
        <ele>1010.48</ele>
        <time>2021-10-25T14:41:09Z</time>
      </trkpt>
      <trkpt lat="47.89366" lon="7.06324">
        <ele>1010.48</ele>
        <time>2021-10-25T14:41:19Z</time>
      </trkpt>
      <trkpt lat="47.89364" lon="7.06299">
        <ele>1008.56</ele>
        <time>2021-10-25T14:41:27Z</time>
      </trkpt>
      <trkpt lat="47.8936" lon="7.06262">
        <ele>1005.2</ele>
        <time>2021-10-25T14:41:37Z</time>
      </trkpt>
      <trkpt lat="47.8936" lon="7.06259">
        <ele>1004.72</ele>
        <time>2021-10-25T14:41:38Z</time>
      </trkpt>
      <trkpt lat="47.89358" lon="7.06248">
        <ele>1003.27</ele>
        <time>2021-10-25T14:41:46Z</time>
      </trkpt>
      <trkpt lat="47.89351" lon="7.0625">
        <ele>1002.31</ele>
        <time>2021-10-25T14:41:54Z</time>
      </trkpt>
      <trkpt lat="47.89349" lon="7.06244">
        <ele>1001.35</ele>
        <time>2021-10-25T14:41:58Z</time>
      </trkpt>
      <trkpt lat="47.89349" lon="7.06241">
        <ele>1000.87</ele>
        <time>2021-10-25T14:42:00Z</time>
      </trkpt>
      <trkpt lat="47.89345" lon="7.06231">
        <ele>998.95</ele>
        <time>2021-10-25T14:42:11Z</time>
      </trkpt>
      <trkpt lat="47.89345" lon="7.0623">
        <ele>998.95</ele>
        <time>2021-10-25T14:42:21Z</time>
      </trkpt>
      <trkpt lat="47.89349" lon="7.06231">
        <ele>998.95</ele>
        <time>2021-10-25T14:42:23Z</time>
      </trkpt>
      <trkpt lat="47.89353" lon="7.06232">
        <ele>999.91</ele>
        <time>2021-10-25T14:42:25Z</time>
      </trkpt>
      <trkpt lat="47.89355" lon="7.06231">
        <ele>1000.39</ele>
        <time>2021-10-25T14:42:28Z</time>
      </trkpt>
      <trkpt lat="47.89357" lon="7.06223">
        <ele>999.43</ele>
        <time>2021-10-25T14:42:32Z</time>
      </trkpt>
      <trkpt lat="47.8936" lon="7.06199">
        <ele>995.58</ele>
        <time>2021-10-25T14:42:40Z</time>
      </trkpt>
      <trkpt lat="47.89361" lon="7.0619">
        <ele>994.14</ele>
        <time>2021-10-25T14:42:42Z</time>
      </trkpt>
      <trkpt lat="47.89369" lon="7.06159">
        <ele>989.81</ele>
        <time>2021-10-25T14:42:48Z</time>
      </trkpt>
      <trkpt lat="47.89371" lon="7.06153">
        <ele>989.33</ele>
        <time>2021-10-25T14:42:49Z</time>
      </trkpt>
      <trkpt lat="47.89376" lon="7.06138">
        <ele>987.41</ele>
        <time>2021-10-25T14:42:51Z</time>
      </trkpt>
      <trkpt lat="47.89378" lon="7.06129">
        <ele>985.97</ele>
        <time>2021-10-25T14:42:52Z</time>
      </trkpt>
      <trkpt lat="47.8938" lon="7.0612">
        <ele>984.05</ele>
        <time>2021-10-25T14:42:53Z</time>
      </trkpt>
      <trkpt lat="47.89381" lon="7.06111">
        <ele>982.6</ele>
        <time>2021-10-25T14:42:54Z</time>
      </trkpt>
      <trkpt lat="47.89382" lon="7.06103">
        <ele>982.12</ele>
        <time>2021-10-25T14:42:55Z</time>
      </trkpt>
      <trkpt lat="47.89381" lon="7.06095">
        <ele>981.16</ele>
        <time>2021-10-25T14:42:56Z</time>
      </trkpt>
      <trkpt lat="47.89382" lon="7.06078">
        <ele>979.72</ele>
        <time>2021-10-25T14:42:58Z</time>
      </trkpt>
      <trkpt lat="47.89382" lon="7.0607">
        <ele>979.24</ele>
        <time>2021-10-25T14:42:59Z</time>
      </trkpt>
      <trkpt lat="47.89384" lon="7.06063">
        <ele>978.28</ele>
        <time>2021-10-25T14:43:00Z</time>
      </trkpt>
      <trkpt lat="47.89385" lon="7.06057">
        <ele>977.8</ele>
        <time>2021-10-25T14:43:01Z</time>
      </trkpt>
      <trkpt lat="47.89386" lon="7.06051">
        <ele>977.32</ele>
        <time>2021-10-25T14:43:02Z</time>
      </trkpt>
      <trkpt lat="47.89391" lon="7.06033">
        <ele>974.43</ele>
        <time>2021-10-25T14:43:06Z</time>
      </trkpt>
      <trkpt lat="47.89391" lon="7.0603">
        <ele>973.47</ele>
        <time>2021-10-25T14:43:07Z</time>
      </trkpt>
      <trkpt lat="47.89392" lon="7.06025">
        <ele>972.51</ele>
        <time>2021-10-25T14:43:08Z</time>
      </trkpt>
      <trkpt lat="47.89392" lon="7.0602">
        <ele>971.55</ele>
        <time>2021-10-25T14:43:09Z</time>
      </trkpt>
      <trkpt lat="47.89393" lon="7.06015">
        <ele>970.59</ele>
        <time>2021-10-25T14:43:10Z</time>
      </trkpt>
      <trkpt lat="47.89395" lon="7.05989">
        <ele>966.26</ele>
        <time>2021-10-25T14:43:14Z</time>
      </trkpt>
      <trkpt lat="47.89395" lon="7.0598">
        <ele>965.78</ele>
        <time>2021-10-25T14:43:15Z</time>
      </trkpt>
      <trkpt lat="47.89393" lon="7.05953">
        <ele>961.94</ele>
        <time>2021-10-25T14:43:18Z</time>
      </trkpt>
      <trkpt lat="47.89391" lon="7.05945">
        <ele>960.98</ele>
        <time>2021-10-25T14:43:19Z</time>
      </trkpt>
      <trkpt lat="47.89384" lon="7.05914">
        <ele>958.09</ele>
        <time>2021-10-25T14:43:23Z</time>
      </trkpt>
      <trkpt lat="47.89377" lon="7.05881">
        <ele>954.73</ele>
        <time>2021-10-25T14:43:28Z</time>
      </trkpt>
      <trkpt lat="47.89371" lon="7.05864">
        <ele>952.8</ele>
        <time>2021-10-25T14:43:37Z</time>
      </trkpt>
      <trkpt lat="47.8937" lon="7.05863">
        <ele>952.32</ele>
        <time>2021-10-25T14:43:38Z</time>
      </trkpt>
      <trkpt lat="47.89367" lon="7.0586">
        <ele>952.32</ele>
        <time>2021-10-25T14:43:52Z</time>
      </trkpt>
      <trkpt lat="47.89366" lon="7.05859">
        <ele>952.32</ele>
        <time>2021-10-25T14:44:17Z</time>
      </trkpt>
      <trkpt lat="47.89365" lon="7.05859">
        <ele>952.32</ele>
        <time>2021-10-25T14:44:36Z</time>
      </trkpt>
      <trkpt lat="47.89366" lon="7.05859">
        <ele>952.8</ele>
        <time>2021-10-25T14:45:13Z</time>
      </trkpt>
      <trkpt lat="47.89366" lon="7.05857">
        <ele>951.84</ele>
        <time>2021-10-25T14:45:29Z</time>
      </trkpt>
      <trkpt lat="47.89366" lon="7.05853">
        <ele>951.36</ele>
        <time>2021-10-25T14:45:30Z</time>
      </trkpt>
      <trkpt lat="47.89366" lon="7.0585">
        <ele>950.4</ele>
        <time>2021-10-25T14:45:31Z</time>
      </trkpt>
      <trkpt lat="47.89364" lon="7.05846">
        <ele>949.44</ele>
        <time>2021-10-25T14:45:32Z</time>
      </trkpt>
      <trkpt lat="47.89363" lon="7.05842">
        <ele>948.48</ele>
        <time>2021-10-25T14:45:33Z</time>
      </trkpt>
      <trkpt lat="47.89362" lon="7.05839">
        <ele>948.48</ele>
        <time>2021-10-25T14:45:34Z</time>
      </trkpt>
      <trkpt lat="47.89358" lon="7.05821">
        <ele>944.63</ele>
        <time>2021-10-25T14:45:39Z</time>
      </trkpt>
      <trkpt lat="47.89357" lon="7.05819">
        <ele>944.15</ele>
        <time>2021-10-25T14:45:40Z</time>
      </trkpt>
      <trkpt lat="47.89352" lon="7.0581">
        <ele>941.75</ele>
        <time>2021-10-25T14:45:52Z</time>
      </trkpt>
      <trkpt lat="47.89352" lon="7.05807">
        <ele>941.75</ele>
        <time>2021-10-25T14:46:14Z</time>
      </trkpt>
      <trkpt lat="47.89353" lon="7.05807">
        <ele>941.75</ele>
        <time>2021-10-25T14:46:31Z</time>
      </trkpt>
      <trkpt lat="47.89353" lon="7.05807">
        <ele>941.75</ele>
        <time>2021-10-25T14:46:39Z</time>
      </trkpt>
      <trkpt lat="47.89352" lon="7.05805">
        <ele>941.75</ele>
        <time>2021-10-25T14:46:40Z</time>
      </trkpt>
      <trkpt lat="47.89352" lon="7.05803">
        <ele>941.27</ele>
        <time>2021-10-25T14:46:41Z</time>
      </trkpt>
      <trkpt lat="47.89351" lon="7.05799">
        <ele>940.79</ele>
        <time>2021-10-25T14:46:42Z</time>
      </trkpt>
      <trkpt lat="47.8935" lon="7.05796">
        <ele>940.31</ele>
        <time>2021-10-25T14:46:43Z</time>
      </trkpt>
      <trkpt lat="47.89349" lon="7.05792">
        <ele>939.35</ele>
        <time>2021-10-25T14:46:44Z</time>
      </trkpt>
      <trkpt lat="47.89347" lon="7.05786">
        <ele>938.38</ele>
        <time>2021-10-25T14:46:45Z</time>
      </trkpt>
      <trkpt lat="47.89342" lon="7.05767">
        <ele>935.5</ele>
        <time>2021-10-25T14:46:48Z</time>
      </trkpt>
      <trkpt lat="47.8934" lon="7.05762">
        <ele>934.54</ele>
        <time>2021-10-25T14:46:49Z</time>
      </trkpt>
      <trkpt lat="47.89339" lon="7.05758">
        <ele>933.58</ele>
        <time>2021-10-25T14:46:50Z</time>
      </trkpt>
      <trkpt lat="47.89337" lon="7.05753">
        <ele>932.14</ele>
        <time>2021-10-25T14:46:51Z</time>
      </trkpt>
      <trkpt lat="47.89334" lon="7.05747">
        <ele>931.65</ele>
        <time>2021-10-25T14:46:52Z</time>
      </trkpt>
      <trkpt lat="47.89323" lon="7.05726">
        <ele>927.33</ele>
        <time>2021-10-25T14:46:56Z</time>
      </trkpt>
      <trkpt lat="47.89316" lon="7.05702">
        <ele>924.45</ele>
        <time>2021-10-25T14:47:00Z</time>
      </trkpt>
      <trkpt lat="47.89307" lon="7.05685">
        <ele>920.6</ele>
        <time>2021-10-25T14:47:04Z</time>
      </trkpt>
      <trkpt lat="47.89302" lon="7.05672">
        <ele>917.24</ele>
        <time>2021-10-25T14:47:08Z</time>
      </trkpt>
      <trkpt lat="47.89297" lon="7.05658">
        <ele>913.39</ele>
        <time>2021-10-25T14:47:12Z</time>
      </trkpt>
      <trkpt lat="47.89289" lon="7.05645">
        <ele>910.51</ele>
        <time>2021-10-25T14:47:16Z</time>
      </trkpt>
      <trkpt lat="47.89281" lon="7.05635">
        <ele>907.14</ele>
        <time>2021-10-25T14:47:20Z</time>
      </trkpt>
      <trkpt lat="47.89269" lon="7.0562">
        <ele>903.3</ele>
        <time>2021-10-25T14:47:25Z</time>
      </trkpt>
      <trkpt lat="47.89266" lon="7.05615">
        <ele>901.85</ele>
        <time>2021-10-25T14:47:26Z</time>
      </trkpt>
      <trkpt lat="47.89261" lon="7.05602">
        <ele>899.45</ele>
        <time>2021-10-25T14:47:28Z</time>
      </trkpt>
      <trkpt lat="47.89258" lon="7.05594">
        <ele>898.49</ele>
        <time>2021-10-25T14:47:29Z</time>
      </trkpt>
      <trkpt lat="47.89256" lon="7.05587">
        <ele>895.61</ele>
        <time>2021-10-25T14:47:30Z</time>
      </trkpt>
      <trkpt lat="47.89252" lon="7.0558">
        <ele>894.16</ele>
        <time>2021-10-25T14:47:31Z</time>
      </trkpt>
      <trkpt lat="47.89248" lon="7.05572">
        <ele>892.72</ele>
        <time>2021-10-25T14:47:32Z</time>
      </trkpt>
      <trkpt lat="47.89239" lon="7.05555">
        <ele>889.36</ele>
        <time>2021-10-25T14:47:34Z</time>
      </trkpt>
      <trkpt lat="47.89235" lon="7.05548">
        <ele>889.36</ele>
        <time>2021-10-25T14:47:35Z</time>
      </trkpt>
      <trkpt lat="47.8923" lon="7.05538">
        <ele>885.99</ele>
        <time>2021-10-25T14:47:38Z</time>
      </trkpt>
      <trkpt lat="47.89229" lon="7.05535">
        <ele>885.51</ele>
        <time>2021-10-25T14:47:39Z</time>
      </trkpt>
      <trkpt lat="47.89228" lon="7.05531">
        <ele>885.03</ele>
        <time>2021-10-25T14:47:40Z</time>
      </trkpt>
      <trkpt lat="47.89225" lon="7.05526">
        <ele>884.55</ele>
        <time>2021-10-25T14:47:41Z</time>
      </trkpt>
      <trkpt lat="47.89223" lon="7.05521">
        <ele>884.07</ele>
        <time>2021-10-25T14:47:42Z</time>
      </trkpt>
      <trkpt lat="47.8922" lon="7.05515">
        <ele>883.59</ele>
        <time>2021-10-25T14:47:43Z</time>
      </trkpt>
      <trkpt lat="47.89189" lon="7.05461">
        <ele>882.15</ele>
        <time>2021-10-25T14:47:54Z</time>
      </trkpt>
      <trkpt lat="47.89187" lon="7.05456">
        <ele>881.67</ele>
        <time>2021-10-25T14:47:55Z</time>
      </trkpt>
      <trkpt lat="47.89177" lon="7.05429">
        <ele>877.82</ele>
        <time>2021-10-25T14:48:00Z</time>
      </trkpt>
      <trkpt lat="47.8917" lon="7.05407">
        <ele>874.94</ele>
        <time>2021-10-25T14:48:03Z</time>
      </trkpt>
      <trkpt lat="47.89163" lon="7.05391">
        <ele>873.01</ele>
        <time>2021-10-25T14:48:05Z</time>
      </trkpt>
      <trkpt lat="47.89149" lon="7.05359">
        <ele>871.09</ele>
        <time>2021-10-25T14:48:09Z</time>
      </trkpt>
      <trkpt lat="47.89138" lon="7.05337">
        <ele>871.09</ele>
        <time>2021-10-25T14:48:12Z</time>
      </trkpt>
      <trkpt lat="47.89135" lon="7.05332">
        <ele>871.09</ele>
        <time>2021-10-25T14:48:13Z</time>
      </trkpt>
      <trkpt lat="47.89125" lon="7.05316">
        <ele>870.61</ele>
        <time>2021-10-25T14:48:17Z</time>
      </trkpt>
      <trkpt lat="47.89124" lon="7.05314">
        <ele>871.09</ele>
        <time>2021-10-25T14:48:18Z</time>
      </trkpt>
      <trkpt lat="47.89122" lon="7.05311">
        <ele>871.09</ele>
        <time>2021-10-25T14:48:19Z</time>
      </trkpt>
      <trkpt lat="47.89105" lon="7.05287">
        <ele>871.09</ele>
        <time>2021-10-25T14:48:29Z</time>
      </trkpt>
      <trkpt lat="47.89075" lon="7.05258">
        <ele>869.17</ele>
        <time>2021-10-25T14:48:40Z</time>
      </trkpt>
      <trkpt lat="47.89063" lon="7.05247">
        <ele>867.73</ele>
        <time>2021-10-25T14:48:43Z</time>
      </trkpt>
      <trkpt lat="47.89057" lon="7.05245">
        <ele>866.77</ele>
        <time>2021-10-25T14:48:44Z</time>
      </trkpt>
      <trkpt lat="47.89044" lon="7.05242">
        <ele>865.32</ele>
        <time>2021-10-25T14:48:46Z</time>
      </trkpt>
      <trkpt lat="47.89038" lon="7.05239">
        <ele>863.88</ele>
        <time>2021-10-25T14:48:47Z</time>
      </trkpt>
      <trkpt lat="47.89032" lon="7.05236">
        <ele>862.92</ele>
        <time>2021-10-25T14:48:48Z</time>
      </trkpt>
      <trkpt lat="47.89027" lon="7.05233">
        <ele>862.92</ele>
        <time>2021-10-25T14:48:49Z</time>
      </trkpt>
      <trkpt lat="47.89021" lon="7.05232">
        <ele>862.44</ele>
        <time>2021-10-25T14:48:50Z</time>
      </trkpt>
      <trkpt lat="47.89014" lon="7.05233">
        <ele>861.96</ele>
        <time>2021-10-25T14:48:51Z</time>
      </trkpt>
      <trkpt lat="47.89" lon="7.05232">
        <ele>860.52</ele>
        <time>2021-10-25T14:48:53Z</time>
      </trkpt>
      <trkpt lat="47.88993" lon="7.05228">
        <ele>860.04</ele>
        <time>2021-10-25T14:48:54Z</time>
      </trkpt>
      <trkpt lat="47.88988" lon="7.05222">
        <ele>859.56</ele>
        <time>2021-10-25T14:48:55Z</time>
      </trkpt>
      <trkpt lat="47.88983" lon="7.05216">
        <ele>859.08</ele>
        <time>2021-10-25T14:48:56Z</time>
      </trkpt>
      <trkpt lat="47.88978" lon="7.05212">
        <ele>859.56</ele>
        <time>2021-10-25T14:48:57Z</time>
      </trkpt>
      <trkpt lat="47.88974" lon="7.05208">
        <ele>859.56</ele>
        <time>2021-10-25T14:48:58Z</time>
      </trkpt>
      <trkpt lat="47.8897" lon="7.05205">
        <ele>859.56</ele>
        <time>2021-10-25T14:48:59Z</time>
      </trkpt>
      <trkpt lat="47.8896" lon="7.052">
        <ele>860.52</ele>
        <time>2021-10-25T14:49:08Z</time>
      </trkpt>
      <trkpt lat="47.88958" lon="7.05198">
        <ele>860.52</ele>
        <time>2021-10-25T14:49:26Z</time>
      </trkpt>
      <trkpt lat="47.88956" lon="7.05197">
        <ele>860.04</ele>
        <time>2021-10-25T14:49:27Z</time>
      </trkpt>
      <trkpt lat="47.88954" lon="7.05197">
        <ele>860.04</ele>
        <time>2021-10-25T14:49:28Z</time>
      </trkpt>
      <trkpt lat="47.88923" lon="7.05187">
        <ele>859.56</ele>
        <time>2021-10-25T14:49:39Z</time>
      </trkpt>
      <trkpt lat="47.88904" lon="7.05179">
        <ele>856.67</ele>
        <time>2021-10-25T14:49:44Z</time>
      </trkpt>
      <trkpt lat="47.88882" lon="7.05171">
        <ele>854.75</ele>
        <time>2021-10-25T14:49:49Z</time>
      </trkpt>
      <trkpt lat="47.88875" lon="7.05168">
        <ele>854.27</ele>
        <time>2021-10-25T14:49:50Z</time>
      </trkpt>
      <trkpt lat="47.88859" lon="7.05162">
        <ele>853.79</ele>
        <time>2021-10-25T14:49:53Z</time>
      </trkpt>
      <trkpt lat="47.88827" lon="7.05152">
        <ele>849.46</ele>
        <time>2021-10-25T14:49:58Z</time>
      </trkpt>
      <trkpt lat="47.8881" lon="7.05147">
        <ele>846.58</ele>
        <time>2021-10-25T14:50:01Z</time>
      </trkpt>
      <trkpt lat="47.88794" lon="7.05142">
        <ele>842.73</ele>
        <time>2021-10-25T14:50:05Z</time>
      </trkpt>
      <trkpt lat="47.88786" lon="7.0514">
        <ele>839.37</ele>
        <time>2021-10-25T14:50:08Z</time>
      </trkpt>
      <trkpt lat="47.88767" lon="7.0514">
        <ele>835.52</ele>
        <time>2021-10-25T14:50:13Z</time>
      </trkpt>
      <trkpt lat="47.88747" lon="7.05139">
        <ele>832.16</ele>
        <time>2021-10-25T14:50:18Z</time>
      </trkpt>
      <trkpt lat="47.88727" lon="7.05135">
        <ele>828.79</ele>
        <time>2021-10-25T14:50:23Z</time>
      </trkpt>
      <trkpt lat="47.8871" lon="7.05129">
        <ele>825.43</ele>
        <time>2021-10-25T14:50:27Z</time>
      </trkpt>
      <trkpt lat="47.88706" lon="7.05127">
        <ele>824.47</ele>
        <time>2021-10-25T14:50:28Z</time>
      </trkpt>
      <trkpt lat="47.88702" lon="7.05124">
        <ele>823.51</ele>
        <time>2021-10-25T14:50:29Z</time>
      </trkpt>
      <trkpt lat="47.88699" lon="7.05121">
        <ele>822.06</ele>
        <time>2021-10-25T14:50:30Z</time>
      </trkpt>
      <trkpt lat="47.88695" lon="7.05118">
        <ele>820.62</ele>
        <time>2021-10-25T14:50:31Z</time>
      </trkpt>
      <trkpt lat="47.88691" lon="7.05114">
        <ele>819.66</ele>
        <time>2021-10-25T14:50:32Z</time>
      </trkpt>
      <trkpt lat="47.88687" lon="7.05111">
        <ele>818.22</ele>
        <time>2021-10-25T14:50:33Z</time>
      </trkpt>
      <trkpt lat="47.88682" lon="7.05108">
        <ele>817.26</ele>
        <time>2021-10-25T14:50:34Z</time>
      </trkpt>
      <trkpt lat="47.88667" lon="7.051">
        <ele>814.37</ele>
        <time>2021-10-25T14:50:38Z</time>
      </trkpt>
      <trkpt lat="47.88662" lon="7.051">
        <ele>813.41</ele>
        <time>2021-10-25T14:50:39Z</time>
      </trkpt>
      <trkpt lat="47.88644" lon="7.051">
        <ele>810.05</ele>
        <time>2021-10-25T14:50:43Z</time>
      </trkpt>
      <trkpt lat="47.88626" lon="7.05106">
        <ele>807.16</ele>
        <time>2021-10-25T14:50:47Z</time>
      </trkpt>
      <trkpt lat="47.88621" lon="7.05107">
        <ele>806.2</ele>
        <time>2021-10-25T14:50:48Z</time>
      </trkpt>
      <trkpt lat="47.88615" lon="7.05108">
        <ele>805.24</ele>
        <time>2021-10-25T14:50:49Z</time>
      </trkpt>
      <trkpt lat="47.88604" lon="7.05107">
        <ele>803.32</ele>
        <time>2021-10-25T14:50:51Z</time>
      </trkpt>
      <trkpt lat="47.88589" lon="7.05103">
        <ele>799.95</ele>
        <time>2021-10-25T14:50:54Z</time>
      </trkpt>
      <trkpt lat="47.88584" lon="7.05101">
        <ele>798.03</ele>
        <time>2021-10-25T14:50:55Z</time>
      </trkpt>
      <trkpt lat="47.8858" lon="7.05099">
        <ele>797.55</ele>
        <time>2021-10-25T14:50:56Z</time>
      </trkpt>
      <trkpt lat="47.88577" lon="7.05096">
        <ele>796.59</ele>
        <time>2021-10-25T14:50:57Z</time>
      </trkpt>
      <trkpt lat="47.88573" lon="7.05092">
        <ele>795.63</ele>
        <time>2021-10-25T14:50:58Z</time>
      </trkpt>
      <trkpt lat="47.88569" lon="7.05088">
        <ele>795.15</ele>
        <time>2021-10-25T14:50:59Z</time>
      </trkpt>
      <trkpt lat="47.88557" lon="7.05075">
        <ele>791.78</ele>
        <time>2021-10-25T14:51:03Z</time>
      </trkpt>
      <trkpt lat="47.88546" lon="7.05062">
        <ele>788.42</ele>
        <time>2021-10-25T14:51:07Z</time>
      </trkpt>
      <trkpt lat="47.88538" lon="7.05045">
        <ele>784.57</ele>
        <time>2021-10-25T14:51:11Z</time>
      </trkpt>
      <trkpt lat="47.88533" lon="7.05034">
        <ele>781.21</ele>
        <time>2021-10-25T14:51:14Z</time>
      </trkpt>
      <trkpt lat="47.88523" lon="7.05022">
        <ele>777.36</ele>
        <time>2021-10-25T14:51:18Z</time>
      </trkpt>
      <trkpt lat="47.88518" lon="7.0502">
        <ele>776.4</ele>
        <time>2021-10-25T14:51:19Z</time>
      </trkpt>
      <trkpt lat="47.88513" lon="7.05018">
        <ele>776.4</ele>
        <time>2021-10-25T14:51:20Z</time>
      </trkpt>
      <trkpt lat="47.88509" lon="7.05017">
        <ele>775.92</ele>
        <time>2021-10-25T14:51:21Z</time>
      </trkpt>
      <trkpt lat="47.88506" lon="7.05017">
        <ele>775.44</ele>
        <time>2021-10-25T14:51:22Z</time>
      </trkpt>
      <trkpt lat="47.88504" lon="7.05016">
        <ele>774.96</ele>
        <time>2021-10-25T14:51:23Z</time>
      </trkpt>
      <trkpt lat="47.88502" lon="7.05014">
        <ele>774.96</ele>
        <time>2021-10-25T14:51:24Z</time>
      </trkpt>
      <trkpt lat="47.88501" lon="7.05012">
        <ele>774.96</ele>
        <time>2021-10-25T14:51:25Z</time>
      </trkpt>
      <trkpt lat="47.88499" lon="7.05011">
        <ele>774.96</ele>
        <time>2021-10-25T14:51:35Z</time>
      </trkpt>
      <trkpt lat="47.88498" lon="7.05011">
        <ele>774.96</ele>
        <time>2021-10-25T14:51:55Z</time>
      </trkpt>
      <trkpt lat="47.88497" lon="7.0501">
        <ele>774.96</ele>
        <time>2021-10-25T14:52:26Z</time>
      </trkpt>
      <trkpt lat="47.88498" lon="7.0501">
        <ele>774.96</ele>
        <time>2021-10-25T14:52:38Z</time>
      </trkpt>
      <trkpt lat="47.88499" lon="7.05009">
        <ele>774.48</ele>
        <time>2021-10-25T14:52:39Z</time>
      </trkpt>
      <trkpt lat="47.885" lon="7.0501">
        <ele>774.48</ele>
        <time>2021-10-25T14:52:53Z</time>
      </trkpt>
      <trkpt lat="47.88499" lon="7.0501">
        <ele>774.48</ele>
        <time>2021-10-25T14:53:23Z</time>
      </trkpt>
      <trkpt lat="47.88499" lon="7.05009">
        <ele>774.48</ele>
        <time>2021-10-25T14:53:38Z</time>
      </trkpt>
      <trkpt lat="47.88499" lon="7.05009">
        <ele>774.48</ele>
        <time>2021-10-25T14:54:03Z</time>
      </trkpt>
      <trkpt lat="47.885" lon="7.05009">
        <ele>774.48</ele>
        <time>2021-10-25T14:54:35Z</time>
      </trkpt>
      <trkpt lat="47.88501" lon="7.05008">
        <ele>774</ele>
        <time>2021-10-25T14:54:52Z</time>
      </trkpt>
      <trkpt lat="47.88511" lon="7.05005">
        <ele>773.52</ele>
        <time>2021-10-25T14:54:58Z</time>
      </trkpt>
      <trkpt lat="47.8854" lon="7.04996">
        <ele>770.63</ele>
        <time>2021-10-25T14:55:07Z</time>
      </trkpt>
      <trkpt lat="47.8855" lon="7.04991">
        <ele>769.67</ele>
        <time>2021-10-25T14:55:09Z</time>
      </trkpt>
      <trkpt lat="47.88577" lon="7.04973">
        <ele>766.79</ele>
        <time>2021-10-25T14:55:14Z</time>
      </trkpt>
      <trkpt lat="47.88582" lon="7.04971">
        <ele>765.83</ele>
        <time>2021-10-25T14:55:15Z</time>
      </trkpt>
      <trkpt lat="47.88611" lon="7.04961">
        <ele>762.94</ele>
        <time>2021-10-25T14:55:19Z</time>
      </trkpt>
      <trkpt lat="47.88642" lon="7.04947">
        <ele>759.1</ele>
        <time>2021-10-25T14:55:23Z</time>
      </trkpt>
      <trkpt lat="47.88671" lon="7.04932">
        <ele>755.25</ele>
        <time>2021-10-25T14:55:27Z</time>
      </trkpt>
      <trkpt lat="47.88685" lon="7.04923">
        <ele>753.81</ele>
        <time>2021-10-25T14:55:29Z</time>
      </trkpt>
      <trkpt lat="47.88692" lon="7.0492">
        <ele>752.37</ele>
        <time>2021-10-25T14:55:30Z</time>
      </trkpt>
      <trkpt lat="47.887" lon="7.04918">
        <ele>750.45</ele>
        <time>2021-10-25T14:55:31Z</time>
      </trkpt>
      <trkpt lat="47.88708" lon="7.04913">
        <ele>749.49</ele>
        <time>2021-10-25T14:55:32Z</time>
      </trkpt>
      <trkpt lat="47.88716" lon="7.04909">
        <ele>748.04</ele>
        <time>2021-10-25T14:55:33Z</time>
      </trkpt>
      <trkpt lat="47.88724" lon="7.04903">
        <ele>747.56</ele>
        <time>2021-10-25T14:55:34Z</time>
      </trkpt>
      <trkpt lat="47.88746" lon="7.04886">
        <ele>744.2</ele>
        <time>2021-10-25T14:55:37Z</time>
      </trkpt>
      <trkpt lat="47.88765" lon="7.04869">
        <ele>741.79</ele>
        <time>2021-10-25T14:55:40Z</time>
      </trkpt>
      <trkpt lat="47.8877" lon="7.04863">
        <ele>740.83</ele>
        <time>2021-10-25T14:55:41Z</time>
      </trkpt>
      <trkpt lat="47.88776" lon="7.04859">
        <ele>740.83</ele>
        <time>2021-10-25T14:55:42Z</time>
      </trkpt>
      <trkpt lat="47.88783" lon="7.04856">
        <ele>738.43</ele>
        <time>2021-10-25T14:55:43Z</time>
      </trkpt>
      <trkpt lat="47.88808" lon="7.0485">
        <ele>735.07</ele>
        <time>2021-10-25T14:55:46Z</time>
      </trkpt>
      <trkpt lat="47.8884" lon="7.04841">
        <ele>731.22</ele>
        <time>2021-10-25T14:55:50Z</time>
      </trkpt>
      <trkpt lat="47.88869" lon="7.04835">
        <ele>727.86</ele>
        <time>2021-10-25T14:55:55Z</time>
      </trkpt>
      <trkpt lat="47.88876" lon="7.0483">
        <ele>726.89</ele>
        <time>2021-10-25T14:55:58Z</time>
      </trkpt>
      <trkpt lat="47.88877" lon="7.04827">
        <ele>726.89</ele>
        <time>2021-10-25T14:55:59Z</time>
      </trkpt>
      <trkpt lat="47.88876" lon="7.04825">
        <ele>726.41</ele>
        <time>2021-10-25T14:56:00Z</time>
      </trkpt>
      <trkpt lat="47.88874" lon="7.04823">
        <ele>726.41</ele>
        <time>2021-10-25T14:56:01Z</time>
      </trkpt>
      <trkpt lat="47.88872" lon="7.04821">
        <ele>725.93</ele>
        <time>2021-10-25T14:56:02Z</time>
      </trkpt>
      <trkpt lat="47.88868" lon="7.0482">
        <ele>725.45</ele>
        <time>2021-10-25T14:56:03Z</time>
      </trkpt>
      <trkpt lat="47.88864" lon="7.0482">
        <ele>724.97</ele>
        <time>2021-10-25T14:56:04Z</time>
      </trkpt>
      <trkpt lat="47.88859" lon="7.0482">
        <ele>724.49</ele>
        <time>2021-10-25T14:56:05Z</time>
      </trkpt>
      <trkpt lat="47.88848" lon="7.04819">
        <ele>723.05</ele>
        <time>2021-10-25T14:56:07Z</time>
      </trkpt>
      <trkpt lat="47.88837" lon="7.04817">
        <ele>722.09</ele>
        <time>2021-10-25T14:56:09Z</time>
      </trkpt>
      <trkpt lat="47.88831" lon="7.04816">
        <ele>721.61</ele>
        <time>2021-10-25T14:56:10Z</time>
      </trkpt>
      <trkpt lat="47.88826" lon="7.04815">
        <ele>721.13</ele>
        <time>2021-10-25T14:56:11Z</time>
      </trkpt>
      <trkpt lat="47.88821" lon="7.04814">
        <ele>720.65</ele>
        <time>2021-10-25T14:56:12Z</time>
      </trkpt>
      <trkpt lat="47.88817" lon="7.04812">
        <ele>719.68</ele>
        <time>2021-10-25T14:56:13Z</time>
      </trkpt>
      <trkpt lat="47.88812" lon="7.04809">
        <ele>719.2</ele>
        <time>2021-10-25T14:56:14Z</time>
      </trkpt>
      <trkpt lat="47.88807" lon="7.04805">
        <ele>718.24</ele>
        <time>2021-10-25T14:56:15Z</time>
      </trkpt>
      <trkpt lat="47.88802" lon="7.048">
        <ele>717.76</ele>
        <time>2021-10-25T14:56:16Z</time>
      </trkpt>
      <trkpt lat="47.88798" lon="7.04794">
        <ele>716.8</ele>
        <time>2021-10-25T14:56:17Z</time>
      </trkpt>
      <trkpt lat="47.88792" lon="7.04788">
        <ele>716.32</ele>
        <time>2021-10-25T14:56:18Z</time>
      </trkpt>
      <trkpt lat="47.88787" lon="7.04781">
        <ele>715.84</ele>
        <time>2021-10-25T14:56:19Z</time>
      </trkpt>
      <trkpt lat="47.88774" lon="7.04771">
        <ele>714.4</ele>
        <time>2021-10-25T14:56:21Z</time>
      </trkpt>
      <trkpt lat="47.88768" lon="7.04769">
        <ele>713.92</ele>
        <time>2021-10-25T14:56:22Z</time>
      </trkpt>
      <trkpt lat="47.88762" lon="7.04768">
        <ele>712.95</ele>
        <time>2021-10-25T14:56:23Z</time>
      </trkpt>
      <trkpt lat="47.8875" lon="7.04765">
        <ele>709.59</ele>
        <time>2021-10-25T14:56:25Z</time>
      </trkpt>
      <trkpt lat="47.88724" lon="7.04764">
        <ele>706.71</ele>
        <time>2021-10-25T14:56:28Z</time>
      </trkpt>
      <trkpt lat="47.88686" lon="7.04763">
        <ele>703.34</ele>
        <time>2021-10-25T14:56:31Z</time>
      </trkpt>
      <trkpt lat="47.88644" lon="7.04762">
        <ele>699.02</ele>
        <time>2021-10-25T14:56:34Z</time>
      </trkpt>
      <trkpt lat="47.88603" lon="7.04752">
        <ele>695.17</ele>
        <time>2021-10-25T14:56:37Z</time>
      </trkpt>
      <trkpt lat="47.8859" lon="7.04747">
        <ele>693.25</ele>
        <time>2021-10-25T14:56:38Z</time>
      </trkpt>
      <trkpt lat="47.88549" lon="7.04731">
        <ele>689.4</ele>
        <time>2021-10-25T14:56:41Z</time>
      </trkpt>
      <trkpt lat="47.88536" lon="7.04728">
        <ele>687.96</ele>
        <time>2021-10-25T14:56:42Z</time>
      </trkpt>
      <trkpt lat="47.88508" lon="7.04721">
        <ele>684.6</ele>
        <time>2021-10-25T14:56:44Z</time>
      </trkpt>
      <trkpt lat="47.8847" lon="7.04698">
        <ele>680.27</ele>
        <time>2021-10-25T14:56:47Z</time>
      </trkpt>
      <trkpt lat="47.88459" lon="7.04685">
        <ele>678.83</ele>
        <time>2021-10-25T14:56:48Z</time>
      </trkpt>
      <trkpt lat="47.88448" lon="7.04672">
        <ele>675.94</ele>
        <time>2021-10-25T14:56:49Z</time>
      </trkpt>
      <trkpt lat="47.88438" lon="7.04656">
        <ele>674.5</ele>
        <time>2021-10-25T14:56:50Z</time>
      </trkpt>
      <trkpt lat="47.8843" lon="7.04638">
        <ele>673.06</ele>
        <time>2021-10-25T14:56:51Z</time>
      </trkpt>
      <trkpt lat="47.88423" lon="7.04618">
        <ele>671.62</ele>
        <time>2021-10-25T14:56:52Z</time>
      </trkpt>
      <trkpt lat="47.88418" lon="7.04598">
        <ele>670.18</ele>
        <time>2021-10-25T14:56:53Z</time>
      </trkpt>
      <trkpt lat="47.88408" lon="7.04559">
        <ele>666.81</ele>
        <time>2021-10-25T14:56:55Z</time>
      </trkpt>
      <trkpt lat="47.88406" lon="7.04539">
        <ele>665.37</ele>
        <time>2021-10-25T14:56:56Z</time>
      </trkpt>
      <trkpt lat="47.88406" lon="7.04521">
        <ele>663.45</ele>
        <time>2021-10-25T14:56:57Z</time>
      </trkpt>
      <trkpt lat="47.88407" lon="7.04473">
        <ele>659.6</ele>
        <time>2021-10-25T14:57:00Z</time>
      </trkpt>
      <trkpt lat="47.88404" lon="7.04461">
        <ele>658.64</ele>
        <time>2021-10-25T14:57:01Z</time>
      </trkpt>
      <trkpt lat="47.88401" lon="7.04451">
        <ele>657.68</ele>
        <time>2021-10-25T14:57:02Z</time>
      </trkpt>
      <trkpt lat="47.88397" lon="7.04443">
        <ele>656.72</ele>
        <time>2021-10-25T14:57:03Z</time>
      </trkpt>
      <trkpt lat="47.88393" lon="7.04438">
        <ele>656.24</ele>
        <time>2021-10-25T14:57:04Z</time>
      </trkpt>
      <trkpt lat="47.8839" lon="7.04433">
        <ele>655.28</ele>
        <time>2021-10-25T14:57:05Z</time>
      </trkpt>
      <trkpt lat="47.88388" lon="7.04428">
        <ele>655.28</ele>
        <time>2021-10-25T14:57:06Z</time>
      </trkpt>
      <trkpt lat="47.88393" lon="7.0442">
        <ele>653.83</ele>
        <time>2021-10-25T14:57:09Z</time>
      </trkpt>
      <trkpt lat="47.88397" lon="7.04423">
        <ele>653.35</ele>
        <time>2021-10-25T14:57:10Z</time>
      </trkpt>
      <trkpt lat="47.88401" lon="7.04426">
        <ele>652.87</ele>
        <time>2021-10-25T14:57:11Z</time>
      </trkpt>
      <trkpt lat="47.88405" lon="7.04432">
        <ele>652.39</ele>
        <time>2021-10-25T14:57:12Z</time>
      </trkpt>
      <trkpt lat="47.88409" lon="7.04439">
        <ele>650.95</ele>
        <time>2021-10-25T14:57:13Z</time>
      </trkpt>
      <trkpt lat="47.88415" lon="7.04456">
        <ele>649.51</ele>
        <time>2021-10-25T14:57:15Z</time>
      </trkpt>
      <trkpt lat="47.88418" lon="7.04467">
        <ele>649.03</ele>
        <time>2021-10-25T14:57:16Z</time>
      </trkpt>
      <trkpt lat="47.88429" lon="7.04514">
        <ele>645.66</ele>
        <time>2021-10-25T14:57:20Z</time>
      </trkpt>
      <trkpt lat="47.88433" lon="7.04525">
        <ele>644.22</ele>
        <time>2021-10-25T14:57:21Z</time>
      </trkpt>
      <trkpt lat="47.88437" lon="7.04535">
        <ele>643.26</ele>
        <time>2021-10-25T14:57:22Z</time>
      </trkpt>
      <trkpt lat="47.88442" lon="7.04545">
        <ele>642.3</ele>
        <time>2021-10-25T14:57:23Z</time>
      </trkpt>
      <trkpt lat="47.88448" lon="7.04553">
        <ele>640.86</ele>
        <time>2021-10-25T14:57:24Z</time>
      </trkpt>
      <trkpt lat="47.88456" lon="7.04561">
        <ele>639.89</ele>
        <time>2021-10-25T14:57:25Z</time>
      </trkpt>
      <trkpt lat="47.88468" lon="7.04568">
        <ele>638.93</ele>
        <time>2021-10-25T14:57:26Z</time>
      </trkpt>
      <trkpt lat="47.88481" lon="7.04574">
        <ele>637.49</ele>
        <time>2021-10-25T14:57:27Z</time>
      </trkpt>
      <trkpt lat="47.88495" lon="7.04578">
        <ele>636.53</ele>
        <time>2021-10-25T14:57:28Z</time>
      </trkpt>
      <trkpt lat="47.88509" lon="7.0458">
        <ele>635.09</ele>
        <time>2021-10-25T14:57:29Z</time>
      </trkpt>
      <trkpt lat="47.88535" lon="7.04582">
        <ele>632.68</ele>
        <time>2021-10-25T14:57:31Z</time>
      </trkpt>
      <trkpt lat="47.88547" lon="7.04578">
        <ele>631.24</ele>
        <time>2021-10-25T14:57:32Z</time>
      </trkpt>
      <trkpt lat="47.88558" lon="7.04572">
        <ele>630.28</ele>
        <time>2021-10-25T14:57:33Z</time>
      </trkpt>
      <trkpt lat="47.8857" lon="7.04564">
        <ele>628.84</ele>
        <time>2021-10-25T14:57:34Z</time>
      </trkpt>
      <trkpt lat="47.88581" lon="7.04556">
        <ele>627.88</ele>
        <time>2021-10-25T14:57:35Z</time>
      </trkpt>
      <trkpt lat="47.88593" lon="7.04549">
        <ele>626.44</ele>
        <time>2021-10-25T14:57:36Z</time>
      </trkpt>
      <trkpt lat="47.88606" lon="7.04545">
        <ele>624.99</ele>
        <time>2021-10-25T14:57:37Z</time>
      </trkpt>
      <trkpt lat="47.88619" lon="7.04543">
        <ele>622.11</ele>
        <time>2021-10-25T14:57:38Z</time>
      </trkpt>
      <trkpt lat="47.8863" lon="7.04541">
        <ele>620.67</ele>
        <time>2021-10-25T14:57:39Z</time>
      </trkpt>
      <trkpt lat="47.88641" lon="7.0454">
        <ele>619.71</ele>
        <time>2021-10-25T14:57:40Z</time>
      </trkpt>
      <trkpt lat="47.88651" lon="7.04538">
        <ele>619.71</ele>
        <time>2021-10-25T14:57:41Z</time>
      </trkpt>
      <trkpt lat="47.88656" lon="7.04535">
        <ele>619.71</ele>
        <time>2021-10-25T14:57:42Z</time>
      </trkpt>
      <trkpt lat="47.88658" lon="7.04532">
        <ele>618.26</ele>
        <time>2021-10-25T14:57:43Z</time>
      </trkpt>
      <trkpt lat="47.88658" lon="7.0453">
        <ele>616.34</ele>
        <time>2021-10-25T14:57:44Z</time>
      </trkpt>
      <trkpt lat="47.88659" lon="7.04528">
        <ele>616.34</ele>
        <time>2021-10-25T14:57:45Z</time>
      </trkpt>
      <trkpt lat="47.88671" lon="7.045">
        <ele>613.46</ele>
        <time>2021-10-25T14:57:52Z</time>
      </trkpt>
      <trkpt lat="47.88672" lon="7.04494">
        <ele>612.98</ele>
        <time>2021-10-25T14:57:53Z</time>
      </trkpt>
      <trkpt lat="47.88673" lon="7.04487">
        <ele>612.98</ele>
        <time>2021-10-25T14:57:54Z</time>
      </trkpt>
      <trkpt lat="47.88676" lon="7.04481">
        <ele>612.5</ele>
        <time>2021-10-25T14:57:55Z</time>
      </trkpt>
      <trkpt lat="47.88678" lon="7.04474">
        <ele>612.02</ele>
        <time>2021-10-25T14:57:56Z</time>
      </trkpt>
      <trkpt lat="47.8868" lon="7.04467">
        <ele>612.02</ele>
        <time>2021-10-25T14:57:57Z</time>
      </trkpt>
      <trkpt lat="47.88682" lon="7.04458">
        <ele>611.06</ele>
        <time>2021-10-25T14:57:58Z</time>
      </trkpt>
      <trkpt lat="47.88685" lon="7.04449">
        <ele>610.57</ele>
        <time>2021-10-25T14:57:59Z</time>
      </trkpt>
      <trkpt lat="47.88688" lon="7.0444">
        <ele>610.09</ele>
        <time>2021-10-25T14:58:00Z</time>
      </trkpt>
      <trkpt lat="47.88693" lon="7.04432">
        <ele>609.61</ele>
        <time>2021-10-25T14:58:01Z</time>
      </trkpt>
      <trkpt lat="47.88698" lon="7.04424">
        <ele>609.13</ele>
        <time>2021-10-25T14:58:02Z</time>
      </trkpt>
      <trkpt lat="47.88705" lon="7.04419">
        <ele>608.17</ele>
        <time>2021-10-25T14:58:03Z</time>
      </trkpt>
      <trkpt lat="47.88712" lon="7.04415">
        <ele>607.21</ele>
        <time>2021-10-25T14:58:04Z</time>
      </trkpt>
      <trkpt lat="47.88721" lon="7.04413">
        <ele>606.73</ele>
        <time>2021-10-25T14:58:05Z</time>
      </trkpt>
      <trkpt lat="47.88731" lon="7.04413">
        <ele>605.77</ele>
        <time>2021-10-25T14:58:06Z</time>
      </trkpt>
      <trkpt lat="47.88742" lon="7.04413">
        <ele>603.85</ele>
        <time>2021-10-25T14:58:07Z</time>
      </trkpt>
      <trkpt lat="47.88761" lon="7.04415">
        <ele>602.4</ele>
        <time>2021-10-25T14:58:09Z</time>
      </trkpt>
      <trkpt lat="47.8877" lon="7.04417">
        <ele>602.4</ele>
        <time>2021-10-25T14:58:10Z</time>
      </trkpt>
      <trkpt lat="47.88778" lon="7.04421">
        <ele>601.92</ele>
        <time>2021-10-25T14:58:11Z</time>
      </trkpt>
      <trkpt lat="47.88811" lon="7.04437">
        <ele>600.48</ele>
        <time>2021-10-25T14:58:15Z</time>
      </trkpt>
      <trkpt lat="47.88818" lon="7.0444">
        <ele>600</ele>
        <time>2021-10-25T14:58:16Z</time>
      </trkpt>
      <trkpt lat="47.88826" lon="7.04444">
        <ele>599.52</ele>
        <time>2021-10-25T14:58:17Z</time>
      </trkpt>
      <trkpt lat="47.88847" lon="7.04458">
        <ele>598.08</ele>
        <time>2021-10-25T14:58:20Z</time>
      </trkpt>
      <trkpt lat="47.88875" lon="7.04482">
        <ele>596.64</ele>
        <time>2021-10-25T14:58:24Z</time>
      </trkpt>
      <trkpt lat="47.88884" lon="7.04485">
        <ele>596.15</ele>
        <time>2021-10-25T14:58:25Z</time>
      </trkpt>
      <trkpt lat="47.88893" lon="7.04486">
        <ele>595.19</ele>
        <time>2021-10-25T14:58:26Z</time>
      </trkpt>
      <trkpt lat="47.88901" lon="7.04482">
        <ele>594.71</ele>
        <time>2021-10-25T14:58:27Z</time>
      </trkpt>
      <trkpt lat="47.88907" lon="7.04474">
        <ele>594.23</ele>
        <time>2021-10-25T14:58:28Z</time>
      </trkpt>
      <trkpt lat="47.88911" lon="7.04463">
        <ele>593.27</ele>
        <time>2021-10-25T14:58:29Z</time>
      </trkpt>
      <trkpt lat="47.8891" lon="7.04454">
        <ele>592.79</ele>
        <time>2021-10-25T14:58:30Z</time>
      </trkpt>
      <trkpt lat="47.88905" lon="7.04446">
        <ele>592.31</ele>
        <time>2021-10-25T14:58:31Z</time>
      </trkpt>
      <trkpt lat="47.88897" lon="7.04445">
        <ele>591.35</ele>
        <time>2021-10-25T14:58:32Z</time>
      </trkpt>
      <trkpt lat="47.88889" lon="7.04445">
        <ele>590.39</ele>
        <time>2021-10-25T14:58:33Z</time>
      </trkpt>
      <trkpt lat="47.88881" lon="7.04445">
        <ele>589.91</ele>
        <time>2021-10-25T14:58:34Z</time>
      </trkpt>
      <trkpt lat="47.88873" lon="7.04443">
        <ele>588.95</ele>
        <time>2021-10-25T14:58:35Z</time>
      </trkpt>
      <trkpt lat="47.88865" lon="7.04438">
        <ele>588.95</ele>
        <time>2021-10-25T14:58:36Z</time>
      </trkpt>
      <trkpt lat="47.88858" lon="7.04432">
        <ele>588.46</ele>
        <time>2021-10-25T14:58:37Z</time>
      </trkpt>
      <trkpt lat="47.88852" lon="7.04425">
        <ele>587.98</ele>
        <time>2021-10-25T14:58:38Z</time>
      </trkpt>
      <trkpt lat="47.88845" lon="7.04418">
        <ele>587.02</ele>
        <time>2021-10-25T14:58:39Z</time>
      </trkpt>
      <trkpt lat="47.88807" lon="7.04378">
        <ele>583.66</ele>
        <time>2021-10-25T14:58:44Z</time>
      </trkpt>
      <trkpt lat="47.88765" lon="7.04349">
        <ele>580.29</ele>
        <time>2021-10-25T14:58:49Z</time>
      </trkpt>
      <trkpt lat="47.88746" lon="7.04338">
        <ele>578.85</ele>
        <time>2021-10-25T14:58:53Z</time>
      </trkpt>
      <trkpt lat="47.88742" lon="7.04337">
        <ele>578.85</ele>
        <time>2021-10-25T14:58:54Z</time>
      </trkpt>
      <trkpt lat="47.88732" lon="7.04336">
        <ele>578.37</ele>
        <time>2021-10-25T14:58:56Z</time>
      </trkpt>
      <trkpt lat="47.88722" lon="7.04336">
        <ele>578.37</ele>
        <time>2021-10-25T14:58:58Z</time>
      </trkpt>
      <trkpt lat="47.88718" lon="7.04335">
        <ele>577.89</ele>
        <time>2021-10-25T14:58:59Z</time>
      </trkpt>
      <trkpt lat="47.88683" lon="7.04326">
        <ele>577.89</ele>
        <time>2021-10-25T14:59:08Z</time>
      </trkpt>
      <trkpt lat="47.88647" lon="7.04336">
        <ele>577.41</ele>
        <time>2021-10-25T14:59:19Z</time>
      </trkpt>
      <trkpt lat="47.88638" lon="7.04347">
        <ele>576.45</ele>
        <time>2021-10-25T14:59:22Z</time>
      </trkpt>
      <trkpt lat="47.8863" lon="7.04355">
        <ele>576.45</ele>
        <time>2021-10-25T14:59:24Z</time>
      </trkpt>
      <trkpt lat="47.88617" lon="7.04367">
        <ele>575.97</ele>
        <time>2021-10-25T14:59:27Z</time>
      </trkpt>
      <trkpt lat="47.88612" lon="7.04369">
        <ele>575.97</ele>
        <time>2021-10-25T14:59:28Z</time>
      </trkpt>
      <trkpt lat="47.88608" lon="7.04371">
        <ele>575.49</ele>
        <time>2021-10-25T14:59:29Z</time>
      </trkpt>
      <trkpt lat="47.88599" lon="7.04374">
        <ele>575.01</ele>
        <time>2021-10-25T14:59:31Z</time>
      </trkpt>
      <trkpt lat="47.88593" lon="7.04375">
        <ele>575.01</ele>
        <time>2021-10-25T14:59:32Z</time>
      </trkpt>
      <trkpt lat="47.88588" lon="7.04374">
        <ele>574.53</ele>
        <time>2021-10-25T14:59:33Z</time>
      </trkpt>
      <trkpt lat="47.88582" lon="7.04372">
        <ele>574.04</ele>
        <time>2021-10-25T14:59:34Z</time>
      </trkpt>
      <trkpt lat="47.88576" lon="7.04368">
        <ele>573.56</ele>
        <time>2021-10-25T14:59:35Z</time>
      </trkpt>
      <trkpt lat="47.88571" lon="7.04362">
        <ele>573.08</ele>
        <time>2021-10-25T14:59:36Z</time>
      </trkpt>
      <trkpt lat="47.88567" lon="7.04355">
        <ele>573.08</ele>
        <time>2021-10-25T14:59:37Z</time>
      </trkpt>
      <trkpt lat="47.88564" lon="7.04347">
        <ele>573.08</ele>
        <time>2021-10-25T14:59:38Z</time>
      </trkpt>
      <trkpt lat="47.88562" lon="7.04338">
        <ele>572.6</ele>
        <time>2021-10-25T14:59:39Z</time>
      </trkpt>
      <trkpt lat="47.88562" lon="7.04329">
        <ele>572.6</ele>
        <time>2021-10-25T14:59:40Z</time>
      </trkpt>
      <trkpt lat="47.8856" lon="7.04319">
        <ele>572.12</ele>
        <time>2021-10-25T14:59:41Z</time>
      </trkpt>
      <trkpt lat="47.88559" lon="7.04309">
        <ele>571.64</ele>
        <time>2021-10-25T14:59:42Z</time>
      </trkpt>
      <trkpt lat="47.88555" lon="7.04299">
        <ele>571.64</ele>
        <time>2021-10-25T14:59:43Z</time>
      </trkpt>
      <trkpt lat="47.88533" lon="7.0425">
        <ele>568.28</ele>
        <time>2021-10-25T14:59:48Z</time>
      </trkpt>
      <trkpt lat="47.88512" lon="7.04211">
        <ele>564.91</ele>
        <time>2021-10-25T14:59:52Z</time>
      </trkpt>
      <trkpt lat="47.88489" lon="7.04169">
        <ele>562.03</ele>
        <time>2021-10-25T14:59:57Z</time>
      </trkpt>
      <trkpt lat="47.8846" lon="7.04127">
        <ele>558.18</ele>
        <time>2021-10-25T15:00:02Z</time>
      </trkpt>
      <trkpt lat="47.88444" lon="7.04112">
        <ele>556.74</ele>
        <time>2021-10-25T15:00:04Z</time>
      </trkpt>
      <trkpt lat="47.88436" lon="7.04107">
        <ele>556.26</ele>
        <time>2021-10-25T15:00:05Z</time>
      </trkpt>
      <trkpt lat="47.88407" lon="7.04091">
        <ele>554.34</ele>
        <time>2021-10-25T15:00:09Z</time>
      </trkpt>
      <trkpt lat="47.88401" lon="7.04084">
        <ele>553.86</ele>
        <time>2021-10-25T15:00:10Z</time>
      </trkpt>
      <trkpt lat="47.88374" lon="7.0404">
        <ele>550.49</ele>
        <time>2021-10-25T15:00:15Z</time>
      </trkpt>
      <trkpt lat="47.88352" lon="7.04013">
        <ele>546.65</ele>
        <time>2021-10-25T15:00:18Z</time>
      </trkpt>
      <trkpt lat="47.88327" lon="7.03986">
        <ele>543.28</ele>
        <time>2021-10-25T15:00:21Z</time>
      </trkpt>
      <trkpt lat="47.8832" lon="7.03976">
        <ele>542.32</ele>
        <time>2021-10-25T15:00:22Z</time>
      </trkpt>
      <trkpt lat="47.88296" lon="7.03941">
        <ele>538.48</ele>
        <time>2021-10-25T15:00:26Z</time>
      </trkpt>
      <trkpt lat="47.88266" lon="7.03906">
        <ele>535.11</ele>
        <time>2021-10-25T15:00:31Z</time>
      </trkpt>
      <trkpt lat="47.88251" lon="7.03894">
        <ele>533.19</ele>
        <time>2021-10-25T15:00:33Z</time>
      </trkpt>
      <trkpt lat="47.88227" lon="7.03877">
        <ele>529.82</ele>
        <time>2021-10-25T15:00:36Z</time>
      </trkpt>
      <trkpt lat="47.8821" lon="7.03865">
        <ele>525.02</ele>
        <time>2021-10-25T15:00:38Z</time>
      </trkpt>
      <trkpt lat="47.88193" lon="7.03848">
        <ele>522.13</ele>
        <time>2021-10-25T15:00:40Z</time>
      </trkpt>
      <trkpt lat="47.88166" lon="7.03819">
        <ele>518.29</ele>
        <time>2021-10-25T15:00:43Z</time>
      </trkpt>
      <trkpt lat="47.88143" lon="7.03796">
        <ele>514.44</ele>
        <time>2021-10-25T15:00:46Z</time>
      </trkpt>
      <trkpt lat="47.88136" lon="7.03791">
        <ele>513.96</ele>
        <time>2021-10-25T15:00:47Z</time>
      </trkpt>
      <trkpt lat="47.8811" lon="7.03776">
        <ele>510.6</ele>
        <time>2021-10-25T15:00:51Z</time>
      </trkpt>
      <trkpt lat="47.88066" lon="7.03758">
        <ele>506.75</ele>
        <time>2021-10-25T15:00:57Z</time>
      </trkpt>
      <trkpt lat="47.8804" lon="7.0375">
        <ele>503.87</ele>
        <time>2021-10-25T15:01:00Z</time>
      </trkpt>
      <trkpt lat="47.88007" lon="7.03738">
        <ele>500.02</ele>
        <time>2021-10-25T15:01:04Z</time>
      </trkpt>
      <trkpt lat="47.87988" lon="7.03725">
        <ele>497.14</ele>
        <time>2021-10-25T15:01:07Z</time>
      </trkpt>
      <trkpt lat="47.87983" lon="7.03718">
        <ele>496.18</ele>
        <time>2021-10-25T15:01:08Z</time>
      </trkpt>
      <trkpt lat="47.87974" lon="7.03701">
        <ele>494.26</ele>
        <time>2021-10-25T15:01:10Z</time>
      </trkpt>
      <trkpt lat="47.87967" lon="7.03694">
        <ele>493.29</ele>
        <time>2021-10-25T15:01:11Z</time>
      </trkpt>
      <trkpt lat="47.87959" lon="7.03687">
        <ele>491.85</ele>
        <time>2021-10-25T15:01:12Z</time>
      </trkpt>
      <trkpt lat="47.87931" lon="7.03667">
        <ele>488.49</ele>
        <time>2021-10-25T15:01:15Z</time>
      </trkpt>
      <trkpt lat="47.87906" lon="7.03645">
        <ele>485.6</ele>
        <time>2021-10-25T15:01:18Z</time>
      </trkpt>
      <trkpt lat="47.8788" lon="7.03625">
        <ele>481.28</ele>
        <time>2021-10-25T15:01:21Z</time>
      </trkpt>
      <trkpt lat="47.87855" lon="7.03607">
        <ele>476.95</ele>
        <time>2021-10-25T15:01:24Z</time>
      </trkpt>
      <trkpt lat="47.8783" lon="7.03591">
        <ele>473.11</ele>
        <time>2021-10-25T15:01:27Z</time>
      </trkpt>
      <trkpt lat="47.87803" lon="7.03566">
        <ele>470.22</ele>
        <time>2021-10-25T15:01:31Z</time>
      </trkpt>
      <trkpt lat="47.87777" lon="7.03545">
        <ele>466.38</ele>
        <time>2021-10-25T15:01:35Z</time>
      </trkpt>
      <trkpt lat="47.87756" lon="7.03528">
        <ele>462.53</ele>
        <time>2021-10-25T15:01:38Z</time>
      </trkpt>
      <trkpt lat="47.87735" lon="7.03511">
        <ele>459.17</ele>
        <time>2021-10-25T15:01:41Z</time>
      </trkpt>
      <trkpt lat="47.8773" lon="7.03505">
        <ele>457.72</ele>
        <time>2021-10-25T15:01:42Z</time>
      </trkpt>
      <trkpt lat="47.87725" lon="7.03498">
        <ele>456.28</ele>
        <time>2021-10-25T15:01:43Z</time>
      </trkpt>
      <trkpt lat="47.87722" lon="7.03491">
        <ele>456.28</ele>
        <time>2021-10-25T15:01:44Z</time>
      </trkpt>
      <trkpt lat="47.87719" lon="7.03482">
        <ele>455.32</ele>
        <time>2021-10-25T15:01:45Z</time>
      </trkpt>
      <trkpt lat="47.87717" lon="7.03473">
        <ele>455.32</ele>
        <time>2021-10-25T15:01:46Z</time>
      </trkpt>
      <trkpt lat="47.87717" lon="7.03463">
        <ele>453.4</ele>
        <time>2021-10-25T15:01:47Z</time>
      </trkpt>
      <trkpt lat="47.87716" lon="7.03454">
        <ele>452.44</ele>
        <time>2021-10-25T15:01:48Z</time>
      </trkpt>
      <trkpt lat="47.87717" lon="7.03445">
        <ele>451.96</ele>
        <time>2021-10-25T15:01:49Z</time>
      </trkpt>
      <trkpt lat="47.87718" lon="7.03435">
        <ele>451</ele>
        <time>2021-10-25T15:01:50Z</time>
      </trkpt>
      <trkpt lat="47.8772" lon="7.03425">
        <ele>450.52</ele>
        <time>2021-10-25T15:01:51Z</time>
      </trkpt>
      <trkpt lat="47.87723" lon="7.03414">
        <ele>450.03</ele>
        <time>2021-10-25T15:01:52Z</time>
      </trkpt>
      <trkpt lat="47.87731" lon="7.03375">
        <ele>446.67</ele>
        <time>2021-10-25T15:01:56Z</time>
      </trkpt>
      <trkpt lat="47.87731" lon="7.03366">
        <ele>445.71</ele>
        <time>2021-10-25T15:01:57Z</time>
      </trkpt>
      <trkpt lat="47.87731" lon="7.03357">
        <ele>445.23</ele>
        <time>2021-10-25T15:01:58Z</time>
      </trkpt>
      <trkpt lat="47.87731" lon="7.03348">
        <ele>444.75</ele>
        <time>2021-10-25T15:01:59Z</time>
      </trkpt>
      <trkpt lat="47.87729" lon="7.03339">
        <ele>444.27</ele>
        <time>2021-10-25T15:02:00Z</time>
      </trkpt>
      <trkpt lat="47.87728" lon="7.03331">
        <ele>443.79</ele>
        <time>2021-10-25T15:02:01Z</time>
      </trkpt>
      <trkpt lat="47.87724" lon="7.03316">
        <ele>442.82</ele>
        <time>2021-10-25T15:02:03Z</time>
      </trkpt>
      <trkpt lat="47.87722" lon="7.03309">
        <ele>442.82</ele>
        <time>2021-10-25T15:02:04Z</time>
      </trkpt>
      <trkpt lat="47.87718" lon="7.03302">
        <ele>442.34</ele>
        <time>2021-10-25T15:02:05Z</time>
      </trkpt>
      <trkpt lat="47.87705" lon="7.03283">
        <ele>440.9</ele>
        <time>2021-10-25T15:02:08Z</time>
      </trkpt>
      <trkpt lat="47.87699" lon="7.03279">
        <ele>440.42</ele>
        <time>2021-10-25T15:02:09Z</time>
      </trkpt>
      <trkpt lat="47.87693" lon="7.03275">
        <ele>439.94</ele>
        <time>2021-10-25T15:02:10Z</time>
      </trkpt>
      <trkpt lat="47.87663" lon="7.03252">
        <ele>438.5</ele>
        <time>2021-10-25T15:02:15Z</time>
      </trkpt>
      <trkpt lat="47.87657" lon="7.03245">
        <ele>438.02</ele>
        <time>2021-10-25T15:02:16Z</time>
      </trkpt>
      <trkpt lat="47.87652" lon="7.03238">
        <ele>438.02</ele>
        <time>2021-10-25T15:02:17Z</time>
      </trkpt>
      <trkpt lat="47.87648" lon="7.03229">
        <ele>437.54</ele>
        <time>2021-10-25T15:02:18Z</time>
      </trkpt>
      <trkpt lat="47.87645" lon="7.0322">
        <ele>437.06</ele>
        <time>2021-10-25T15:02:19Z</time>
      </trkpt>
      <trkpt lat="47.87643" lon="7.03212">
        <ele>437.06</ele>
        <time>2021-10-25T15:02:20Z</time>
      </trkpt>
      <trkpt lat="47.87639" lon="7.03181">
        <ele>436.1</ele>
        <time>2021-10-25T15:02:28Z</time>
      </trkpt>
      <trkpt lat="47.87644" lon="7.03165">
        <ele>436.58</ele>
        <time>2021-10-25T15:02:32Z</time>
      </trkpt>
      <trkpt lat="47.87644" lon="7.0316">
        <ele>436.58</ele>
        <time>2021-10-25T15:02:33Z</time>
      </trkpt>
      <trkpt lat="47.87641" lon="7.03146">
        <ele>436.1</ele>
        <time>2021-10-25T15:02:36Z</time>
      </trkpt>
      <trkpt lat="47.87639" lon="7.03114">
        <ele>434.17</ele>
        <time>2021-10-25T15:02:43Z</time>
      </trkpt>
      <trkpt lat="47.8764" lon="7.03113">
        <ele>433.69</ele>
        <time>2021-10-25T15:02:44Z</time>
      </trkpt>
      <trkpt lat="47.87641" lon="7.03111">
        <ele>434.17</ele>
        <time>2021-10-25T15:02:45Z</time>
      </trkpt>
      <trkpt lat="47.87642" lon="7.03109">
        <ele>433.69</ele>
        <time>2021-10-25T15:02:46Z</time>
      </trkpt>
      <trkpt lat="47.87641" lon="7.03108">
        <ele>434.17</ele>
        <time>2021-10-25T15:02:47Z</time>
      </trkpt>
      <trkpt lat="47.87639" lon="7.03107">
        <ele>433.69</ele>
        <time>2021-10-25T15:02:48Z</time>
      </trkpt>
      <trkpt lat="47.87638" lon="7.03108">
        <ele>433.69</ele>
        <time>2021-10-25T15:02:49Z</time>
      </trkpt>
      <trkpt lat="47.87638" lon="7.0311">
        <ele>433.69</ele>
        <time>2021-10-25T15:02:50Z</time>
      </trkpt>
      <trkpt lat="47.8764" lon="7.03109">
        <ele>433.69</ele>
        <time>2021-10-25T15:03:01Z</time>
      </trkpt>
      <trkpt lat="47.8764" lon="7.03107">
        <ele>433.69</ele>
        <time>2021-10-25T15:03:03Z</time>
      </trkpt>
      <trkpt lat="47.87639" lon="7.03105">
        <ele>433.69</ele>
        <time>2021-10-25T15:03:04Z</time>
      </trkpt>
      <trkpt lat="47.87638" lon="7.03102">
        <ele>433.21</ele>
        <time>2021-10-25T15:03:05Z</time>
      </trkpt>
      <trkpt lat="47.87637" lon="7.031">
        <ele>433.21</ele>
        <time>2021-10-25T15:03:06Z</time>
      </trkpt>
      <trkpt lat="47.87637" lon="7.03097">
        <ele>433.21</ele>
        <time>2021-10-25T15:03:07Z</time>
      </trkpt>
      <trkpt lat="47.87612" lon="7.03051">
        <ele>431.77</ele>
        <time>2021-10-25T15:03:19Z</time>
      </trkpt>
      <trkpt lat="47.87608" lon="7.03047">
        <ele>431.29</ele>
        <time>2021-10-25T15:03:20Z</time>
      </trkpt>
      <trkpt lat="47.87605" lon="7.03043">
        <ele>431.29</ele>
        <time>2021-10-25T15:03:21Z</time>
      </trkpt>
      <trkpt lat="47.87583" lon="7.0303">
        <ele>429.85</ele>
        <time>2021-10-25T15:03:31Z</time>
      </trkpt>
      <trkpt lat="47.87582" lon="7.03029">
        <ele>429.85</ele>
        <time>2021-10-25T15:03:33Z</time>
      </trkpt>
      <trkpt lat="47.8758" lon="7.03027">
        <ele>429.85</ele>
        <time>2021-10-25T15:03:34Z</time>
      </trkpt>
      <trkpt lat="47.87579" lon="7.03023">
        <ele>429.85</ele>
        <time>2021-10-25T15:03:35Z</time>
      </trkpt>
      <trkpt lat="47.87577" lon="7.03019">
        <ele>429.85</ele>
        <time>2021-10-25T15:03:36Z</time>
      </trkpt>
      <trkpt lat="47.87575" lon="7.03016">
        <ele>429.85</ele>
        <time>2021-10-25T15:03:37Z</time>
      </trkpt>
      <trkpt lat="47.87572" lon="7.03012">
        <ele>429.37</ele>
        <time>2021-10-25T15:03:38Z</time>
      </trkpt>
      <trkpt lat="47.87569" lon="7.03009">
        <ele>429.85</ele>
        <time>2021-10-25T15:03:39Z</time>
      </trkpt>
      <trkpt lat="47.87543" lon="7.0298">
        <ele>428.4</ele>
        <time>2021-10-25T15:03:50Z</time>
      </trkpt>
      <trkpt lat="47.87541" lon="7.0298">
        <ele>428.4</ele>
        <time>2021-10-25T15:03:51Z</time>
      </trkpt>
      <trkpt lat="47.8754" lon="7.02983">
        <ele>428.4</ele>
        <time>2021-10-25T15:04:00Z</time>
      </trkpt>
      <trkpt lat="47.87535" lon="7.02984">
        <ele>427.92</ele>
        <time>2021-10-25T15:04:14Z</time>
      </trkpt>
      <trkpt lat="47.87534" lon="7.02983">
        <ele>427.92</ele>
        <time>2021-10-25T15:04:15Z</time>
      </trkpt>
      <trkpt lat="47.87533" lon="7.02982">
        <ele>427.92</ele>
        <time>2021-10-25T15:04:16Z</time>
      </trkpt>
      <trkpt lat="47.87532" lon="7.0298">
        <ele>427.92</ele>
        <time>2021-10-25T15:04:17Z</time>
      </trkpt>
      <trkpt lat="47.87533" lon="7.02978">
        <ele>427.92</ele>
        <time>2021-10-25T15:04:18Z</time>
      </trkpt>
      <trkpt lat="47.87536" lon="7.02974">
        <ele>427.92</ele>
        <time>2021-10-25T15:04:26Z</time>
      </trkpt>
      <trkpt lat="47.87537" lon="7.02975">
        <ele>427.44</ele>
        <time>2021-10-25T15:04:27Z</time>
      </trkpt>
      <trkpt lat="47.87538" lon="7.02977">
        <ele>427.92</ele>
        <time>2021-10-25T15:04:28Z</time>
      </trkpt>
      <trkpt lat="47.87539" lon="7.02979">
        <ele>427.92</ele>
        <time>2021-10-25T15:04:29Z</time>
      </trkpt>
      <trkpt lat="47.8754" lon="7.02981">
        <ele>427.92</ele>
        <time>2021-10-25T15:04:30Z</time>
      </trkpt>
      <trkpt lat="47.87566" lon="7.03011">
        <ele>428.89</ele>
        <time>2021-10-25T15:04:44Z</time>
      </trkpt>
      <trkpt lat="47.87582" lon="7.03063">
        <ele>430.33</ele>
        <time>2021-10-25T15:04:56Z</time>
      </trkpt>
      <trkpt lat="47.87589" lon="7.0312">
        <ele>431.29</ele>
        <time>2021-10-25T15:05:08Z</time>
      </trkpt>
      <trkpt lat="47.87608" lon="7.03158">
        <ele>433.21</ele>
        <time>2021-10-25T15:05:21Z</time>
      </trkpt>
      <trkpt lat="47.87632" lon="7.03194">
        <ele>434.17</ele>
        <time>2021-10-25T15:05:35Z</time>
      </trkpt>
      <trkpt lat="47.87651" lon="7.03234">
        <ele>437.54</ele>
        <time>2021-10-25T15:05:48Z</time>
      </trkpt>
      <trkpt lat="47.87685" lon="7.03273">
        <ele>437.54</ele>
        <time>2021-10-25T15:06:02Z</time>
      </trkpt>
      <trkpt lat="47.8772" lon="7.03309">
        <ele>440.42</ele>
        <time>2021-10-25T15:06:17Z</time>
      </trkpt>
      <trkpt lat="47.87731" lon="7.03356">
        <ele>442.82</ele>
        <time>2021-10-25T15:06:29Z</time>
      </trkpt>
      <trkpt lat="47.87725" lon="7.03403">
        <ele>445.71</ele>
        <time>2021-10-25T15:06:41Z</time>
      </trkpt>
      <trkpt lat="47.87704" lon="7.03437">
        <ele>448.59</ele>
        <time>2021-10-25T15:06:54Z</time>
      </trkpt>
      <trkpt lat="47.87661" lon="7.03424">
        <ele>451</ele>
        <time>2021-10-25T15:07:09Z</time>
      </trkpt>
      <trkpt lat="47.87624" lon="7.03396">
        <ele>453.4</ele>
        <time>2021-10-25T15:07:22Z</time>
      </trkpt>
      <trkpt lat="47.87591" lon="7.03358">
        <ele>453.88</ele>
        <time>2021-10-25T15:07:34Z</time>
      </trkpt>
      <trkpt lat="47.87575" lon="7.03361">
        <ele>453.88</ele>
        <time>2021-10-25T15:07:38Z</time>
      </trkpt>
      <trkpt lat="47.87563" lon="7.03368">
        <ele>454.36</ele>
        <time>2021-10-25T15:07:41Z</time>
      </trkpt>
      <trkpt lat="47.87555" lon="7.03375">
        <ele>454.36</ele>
        <time>2021-10-25T15:07:43Z</time>
      </trkpt>
      <trkpt lat="47.87501" lon="7.03433">
        <ele>454.84</ele>
        <time>2021-10-25T15:07:57Z</time>
      </trkpt>
      <trkpt lat="47.8745" lon="7.03496">
        <ele>455.8</ele>
        <time>2021-10-25T15:08:13Z</time>
      </trkpt>
      <trkpt lat="47.8742" lon="7.03522">
        <ele>456.28</ele>
        <time>2021-10-25T15:08:22Z</time>
      </trkpt>
      <trkpt lat="47.87378" lon="7.03537">
        <ele>454.36</ele>
        <time>2021-10-25T15:08:30Z</time>
      </trkpt>
      <trkpt lat="47.87372" lon="7.03539">
        <ele>454.36</ele>
        <time>2021-10-25T15:08:31Z</time>
      </trkpt>
      <trkpt lat="47.87356" lon="7.03543">
        <ele>454.36</ele>
        <time>2021-10-25T15:08:34Z</time>
      </trkpt>
      <trkpt lat="47.87345" lon="7.03546">
        <ele>453.88</ele>
        <time>2021-10-25T15:08:36Z</time>
      </trkpt>
      <trkpt lat="47.8734" lon="7.03548">
        <ele>453.88</ele>
        <time>2021-10-25T15:08:37Z</time>
      </trkpt>
      <trkpt lat="47.87335" lon="7.03551">
        <ele>453.88</ele>
        <time>2021-10-25T15:08:38Z</time>
      </trkpt>
      <trkpt lat="47.8733" lon="7.03555">
        <ele>453.4</ele>
        <time>2021-10-25T15:08:39Z</time>
      </trkpt>
      <trkpt lat="47.87325" lon="7.03559">
        <ele>453.88</ele>
        <time>2021-10-25T15:08:40Z</time>
      </trkpt>
      <trkpt lat="47.8732" lon="7.03562">
        <ele>453.4</ele>
        <time>2021-10-25T15:08:41Z</time>
      </trkpt>
      <trkpt lat="47.87314" lon="7.03564">
        <ele>453.4</ele>
        <time>2021-10-25T15:08:42Z</time>
      </trkpt>
      <trkpt lat="47.87308" lon="7.03566">
        <ele>452.92</ele>
        <time>2021-10-25T15:08:43Z</time>
      </trkpt>
      <trkpt lat="47.87302" lon="7.03567">
        <ele>452.44</ele>
        <time>2021-10-25T15:08:44Z</time>
      </trkpt>
      <trkpt lat="47.87296" lon="7.03567">
        <ele>452.44</ele>
        <time>2021-10-25T15:08:45Z</time>
      </trkpt>
      <trkpt lat="47.87289" lon="7.03565">
        <ele>452.44</ele>
        <time>2021-10-25T15:08:46Z</time>
      </trkpt>
      <trkpt lat="47.87276" lon="7.03562">
        <ele>451.48</ele>
        <time>2021-10-25T15:08:48Z</time>
      </trkpt>
      <trkpt lat="47.87269" lon="7.03563">
        <ele>451</ele>
        <time>2021-10-25T15:08:49Z</time>
      </trkpt>
      <trkpt lat="47.87263" lon="7.03567">
        <ele>451</ele>
        <time>2021-10-25T15:08:50Z</time>
      </trkpt>
      <trkpt lat="47.87257" lon="7.03573">
        <ele>450.52</ele>
        <time>2021-10-25T15:08:51Z</time>
      </trkpt>
      <trkpt lat="47.87251" lon="7.03579">
        <ele>450.03</ele>
        <time>2021-10-25T15:08:52Z</time>
      </trkpt>
      <trkpt lat="47.87247" lon="7.03585">
        <ele>450.03</ele>
        <time>2021-10-25T15:08:53Z</time>
      </trkpt>
      <trkpt lat="47.8718" lon="7.03657">
        <ele>447.15</ele>
        <time>2021-10-25T15:09:07Z</time>
      </trkpt>
      <trkpt lat="47.87133" lon="7.03716">
        <ele>446.19</ele>
        <time>2021-10-25T15:09:20Z</time>
      </trkpt>
      <trkpt lat="47.8713" lon="7.03721">
        <ele>445.71</ele>
        <time>2021-10-25T15:09:21Z</time>
      </trkpt>
      <trkpt lat="47.87121" lon="7.03735">
        <ele>445.23</ele>
        <time>2021-10-25T15:09:24Z</time>
      </trkpt>
      <trkpt lat="47.87117" lon="7.03741">
        <ele>445.23</ele>
        <time>2021-10-25T15:09:25Z</time>
      </trkpt>
      <trkpt lat="47.87063" lon="7.03803">
        <ele>443.79</ele>
        <time>2021-10-25T15:09:37Z</time>
      </trkpt>
      <trkpt lat="47.87057" lon="7.03807">
        <ele>443.79</ele>
        <time>2021-10-25T15:09:38Z</time>
      </trkpt>
      <trkpt lat="47.87046" lon="7.03816">
        <ele>443.31</ele>
        <time>2021-10-25T15:09:40Z</time>
      </trkpt>
      <trkpt lat="47.87041" lon="7.03821">
        <ele>442.82</ele>
        <time>2021-10-25T15:09:41Z</time>
      </trkpt>
      <trkpt lat="47.87035" lon="7.03825">
        <ele>442.82</ele>
        <time>2021-10-25T15:09:42Z</time>
      </trkpt>
      <trkpt lat="47.87024" lon="7.03832">
        <ele>442.82</ele>
        <time>2021-10-25T15:09:44Z</time>
      </trkpt>
      <trkpt lat="47.87018" lon="7.03836">
        <ele>442.82</ele>
        <time>2021-10-25T15:09:45Z</time>
      </trkpt>
      <trkpt lat="47.8696" lon="7.03876">
        <ele>440.9</ele>
        <time>2021-10-25T15:09:55Z</time>
      </trkpt>
      <trkpt lat="47.86947" lon="7.03886">
        <ele>440.42</ele>
        <time>2021-10-25T15:09:57Z</time>
      </trkpt>
      <trkpt lat="47.86878" lon="7.03918">
        <ele>438.5</ele>
        <time>2021-10-25T15:10:08Z</time>
      </trkpt>
      <trkpt lat="47.86864" lon="7.03925">
        <ele>438.02</ele>
        <time>2021-10-25T15:10:10Z</time>
      </trkpt>
      <trkpt lat="47.86845" lon="7.03931">
        <ele>438.02</ele>
        <time>2021-10-25T15:10:13Z</time>
      </trkpt>
      <trkpt lat="47.8683" lon="7.03935">
        <ele>437.54</ele>
        <time>2021-10-25T15:10:15Z</time>
      </trkpt>
      <trkpt lat="47.86823" lon="7.03938">
        <ele>437.54</ele>
        <time>2021-10-25T15:10:16Z</time>
      </trkpt>
      <trkpt lat="47.86752" lon="7.03953">
        <ele>435.61</ele>
        <time>2021-10-25T15:10:27Z</time>
      </trkpt>
      <trkpt lat="47.86734" lon="7.03954">
        <ele>435.13</ele>
        <time>2021-10-25T15:10:30Z</time>
      </trkpt>
      <trkpt lat="47.86714" lon="7.03953">
        <ele>433.69</ele>
        <time>2021-10-25T15:10:34Z</time>
      </trkpt>
      <trkpt lat="47.86704" lon="7.03956">
        <ele>433.21</ele>
        <time>2021-10-25T15:10:36Z</time>
      </trkpt>
      <trkpt lat="47.867" lon="7.03959">
        <ele>432.73</ele>
        <time>2021-10-25T15:10:37Z</time>
      </trkpt>
      <trkpt lat="47.86696" lon="7.03964">
        <ele>432.73</ele>
        <time>2021-10-25T15:10:38Z</time>
      </trkpt>
      <trkpt lat="47.86679" lon="7.03994">
        <ele>430.81</ele>
        <time>2021-10-25T15:10:42Z</time>
      </trkpt>
      <trkpt lat="47.86668" lon="7.04011">
        <ele>429.37</ele>
        <time>2021-10-25T15:10:44Z</time>
      </trkpt>
      <trkpt lat="47.86663" lon="7.04021">
        <ele>428.89</ele>
        <time>2021-10-25T15:10:45Z</time>
      </trkpt>
      <trkpt lat="47.86658" lon="7.0403">
        <ele>428.89</ele>
        <time>2021-10-25T15:10:46Z</time>
      </trkpt>
      <trkpt lat="47.86619" lon="7.041">
        <ele>425.52</ele>
        <time>2021-10-25T15:10:54Z</time>
      </trkpt>
      <trkpt lat="47.86605" lon="7.04127">
        <ele>424.08</ele>
        <time>2021-10-25T15:10:57Z</time>
      </trkpt>
      <trkpt lat="47.86596" lon="7.04146">
        <ele>423.12</ele>
        <time>2021-10-25T15:10:59Z</time>
      </trkpt>
      <trkpt lat="47.86593" lon="7.04155">
        <ele>422.64</ele>
        <time>2021-10-25T15:11:00Z</time>
      </trkpt>
      <trkpt lat="47.86585" lon="7.04177">
        <ele>421.68</ele>
        <time>2021-10-25T15:11:02Z</time>
      </trkpt>
      <trkpt lat="47.86563" lon="7.0423">
        <ele>418.31</ele>
        <time>2021-10-25T15:11:07Z</time>
      </trkpt>
      <trkpt lat="47.86561" lon="7.0424">
        <ele>418.31</ele>
        <time>2021-10-25T15:11:08Z</time>
      </trkpt>
      <trkpt lat="47.8656" lon="7.0425">
        <ele>417.83</ele>
        <time>2021-10-25T15:11:09Z</time>
      </trkpt>
      <trkpt lat="47.86558" lon="7.0428">
        <ele>416.87</ele>
        <time>2021-10-25T15:11:12Z</time>
      </trkpt>
      <trkpt lat="47.86555" lon="7.0429">
        <ele>416.39</ele>
        <time>2021-10-25T15:11:13Z</time>
      </trkpt>
      <trkpt lat="47.86553" lon="7.04299">
        <ele>416.39</ele>
        <time>2021-10-25T15:11:14Z</time>
      </trkpt>
      <trkpt lat="47.86538" lon="7.04367">
        <ele>414.95</ele>
        <time>2021-10-25T15:11:24Z</time>
      </trkpt>
      <trkpt lat="47.86527" lon="7.04417">
        <ele>416.39</ele>
        <time>2021-10-25T15:11:32Z</time>
      </trkpt>
      <trkpt lat="47.86522" lon="7.04444">
        <ele>416.87</ele>
        <time>2021-10-25T15:11:36Z</time>
      </trkpt>
      <trkpt lat="47.86519" lon="7.0445">
        <ele>417.35</ele>
        <time>2021-10-25T15:11:37Z</time>
      </trkpt>
      <trkpt lat="47.86517" lon="7.04456">
        <ele>417.35</ele>
        <time>2021-10-25T15:11:38Z</time>
      </trkpt>
      <trkpt lat="47.86514" lon="7.0446">
        <ele>417.35</ele>
        <time>2021-10-25T15:11:39Z</time>
      </trkpt>
      <trkpt lat="47.86512" lon="7.04464">
        <ele>417.83</ele>
        <time>2021-10-25T15:11:40Z</time>
      </trkpt>
      <trkpt lat="47.86509" lon="7.04468">
        <ele>417.83</ele>
        <time>2021-10-25T15:11:41Z</time>
      </trkpt>
      <trkpt lat="47.86494" lon="7.04481">
        <ele>416.39</ele>
        <time>2021-10-25T15:11:45Z</time>
      </trkpt>
      <trkpt lat="47.86481" lon="7.04493">
        <ele>415.91</ele>
        <time>2021-10-25T15:11:48Z</time>
      </trkpt>
      <trkpt lat="47.86476" lon="7.04496">
        <ele>415.91</ele>
        <time>2021-10-25T15:11:49Z</time>
      </trkpt>
      <trkpt lat="47.86467" lon="7.04502">
        <ele>416.39</ele>
        <time>2021-10-25T15:11:51Z</time>
      </trkpt>
      <trkpt lat="47.86446" lon="7.04517">
        <ele>414.47</ele>
        <time>2021-10-25T15:11:55Z</time>
      </trkpt>
      <trkpt lat="47.86442" lon="7.04522">
        <ele>414.47</ele>
        <time>2021-10-25T15:11:56Z</time>
      </trkpt>
      <trkpt lat="47.86397" lon="7.04583">
        <ele>411.1</ele>
        <time>2021-10-25T15:12:06Z</time>
      </trkpt>
      <trkpt lat="47.86382" lon="7.04614">
        <ele>407.74</ele>
        <time>2021-10-25T15:12:11Z</time>
      </trkpt>
      <trkpt lat="47.86376" lon="7.0463">
        <ele>407.74</ele>
        <time>2021-10-25T15:12:13Z</time>
      </trkpt>
      <trkpt lat="47.86367" lon="7.04649">
        <ele>407.74</ele>
        <time>2021-10-25T15:12:16Z</time>
      </trkpt>
      <trkpt lat="47.86363" lon="7.04655">
        <ele>407.74</ele>
        <time>2021-10-25T15:12:17Z</time>
      </trkpt>
      <trkpt lat="47.8634" lon="7.04702">
        <ele>406.77</ele>
        <time>2021-10-25T15:12:24Z</time>
      </trkpt>
      <trkpt lat="47.86293" lon="7.04808">
        <ele>406.29</ele>
        <time>2021-10-25T15:12:39Z</time>
      </trkpt>
      <trkpt lat="47.86265" lon="7.04863">
        <ele>405.81</ele>
        <time>2021-10-25T15:12:48Z</time>
      </trkpt>
      <trkpt lat="47.86262" lon="7.04869">
        <ele>405.81</ele>
        <time>2021-10-25T15:12:49Z</time>
      </trkpt>
      <trkpt lat="47.86216" lon="7.04962">
        <ele>405.81</ele>
        <time>2021-10-25T15:13:04Z</time>
      </trkpt>
      <trkpt lat="47.86214" lon="7.0497">
        <ele>405.81</ele>
        <time>2021-10-25T15:13:05Z</time>
      </trkpt>
      <trkpt lat="47.86212" lon="7.04986">
        <ele>406.29</ele>
        <time>2021-10-25T15:13:07Z</time>
      </trkpt>
      <trkpt lat="47.86211" lon="7.05034">
        <ele>406.29</ele>
        <time>2021-10-25T15:13:14Z</time>
      </trkpt>
      <trkpt lat="47.86211" lon="7.0504">
        <ele>406.77</ele>
        <time>2021-10-25T15:13:15Z</time>
      </trkpt>
      <trkpt lat="47.86213" lon="7.05051">
        <ele>406.77</ele>
        <time>2021-10-25T15:13:17Z</time>
      </trkpt>
      <trkpt lat="47.86216" lon="7.05069">
        <ele>407.26</ele>
        <time>2021-10-25T15:13:20Z</time>
      </trkpt>
      <trkpt lat="47.86215" lon="7.05127">
        <ele>408.22</ele>
        <time>2021-10-25T15:13:31Z</time>
      </trkpt>
      <trkpt lat="47.86197" lon="7.05172">
        <ele>409.66</ele>
        <time>2021-10-25T15:13:44Z</time>
      </trkpt>
      <trkpt lat="47.86185" lon="7.05196">
        <ele>411.1</ele>
        <time>2021-10-25T15:13:52Z</time>
      </trkpt>
      <trkpt lat="47.86183" lon="7.05258">
        <ele>411.58</ele>
        <time>2021-10-25T15:14:06Z</time>
      </trkpt>
      <trkpt lat="47.862" lon="7.05323">
        <ele>413.98</ele>
        <time>2021-10-25T15:14:19Z</time>
      </trkpt>
      <trkpt lat="47.86203" lon="7.05384">
        <ele>415.91</ele>
        <time>2021-10-25T15:14:31Z</time>
      </trkpt>
      <trkpt lat="47.86203" lon="7.05435">
        <ele>415.91</ele>
        <time>2021-10-25T15:14:41Z</time>
      </trkpt>
      <trkpt lat="47.86201" lon="7.0544">
        <ele>415.91</ele>
        <time>2021-10-25T15:14:42Z</time>
      </trkpt>
      <trkpt lat="47.86198" lon="7.05445">
        <ele>415.91</ele>
        <time>2021-10-25T15:14:43Z</time>
      </trkpt>
      <trkpt lat="47.86195" lon="7.0545">
        <ele>415.91</ele>
        <time>2021-10-25T15:14:44Z</time>
      </trkpt>
      <trkpt lat="47.86192" lon="7.05455">
        <ele>415.43</ele>
        <time>2021-10-25T15:14:45Z</time>
      </trkpt>
      <trkpt lat="47.86189" lon="7.05458">
        <ele>415.43</ele>
        <time>2021-10-25T15:14:46Z</time>
      </trkpt>
      <trkpt lat="47.86184" lon="7.05461">
        <ele>415.43</ele>
        <time>2021-10-25T15:14:47Z</time>
      </trkpt>
      <trkpt lat="47.8618" lon="7.05462">
        <ele>415.43</ele>
        <time>2021-10-25T15:14:48Z</time>
      </trkpt>
      <trkpt lat="47.86175" lon="7.05461">
        <ele>415.43</ele>
        <time>2021-10-25T15:14:49Z</time>
      </trkpt>
      <trkpt lat="47.86171" lon="7.05458">
        <ele>414.95</ele>
        <time>2021-10-25T15:14:50Z</time>
      </trkpt>
      <trkpt lat="47.86167" lon="7.05455">
        <ele>414.95</ele>
        <time>2021-10-25T15:14:51Z</time>
      </trkpt>
      <trkpt lat="47.86099" lon="7.05383">
        <ele>411.58</ele>
        <time>2021-10-25T15:15:07Z</time>
      </trkpt>
      <trkpt lat="47.86093" lon="7.0538">
        <ele>411.58</ele>
        <time>2021-10-25T15:15:08Z</time>
      </trkpt>
      <trkpt lat="47.86087" lon="7.05379">
        <ele>411.1</ele>
        <time>2021-10-25T15:15:09Z</time>
      </trkpt>
      <trkpt lat="47.86005" lon="7.05385">
        <ele>408.22</ele>
        <time>2021-10-25T15:15:22Z</time>
      </trkpt>
      <trkpt lat="47.85999" lon="7.05389">
        <ele>407.74</ele>
        <time>2021-10-25T15:15:23Z</time>
      </trkpt>
      <trkpt lat="47.85992" lon="7.05393">
        <ele>407.26</ele>
        <time>2021-10-25T15:15:24Z</time>
      </trkpt>
      <trkpt lat="47.85986" lon="7.05398">
        <ele>406.77</ele>
        <time>2021-10-25T15:15:25Z</time>
      </trkpt>
      <trkpt lat="47.85979" lon="7.05403">
        <ele>406.77</ele>
        <time>2021-10-25T15:15:26Z</time>
      </trkpt>
      <trkpt lat="47.85894" lon="7.05471">
        <ele>403.89</ele>
        <time>2021-10-25T15:15:40Z</time>
      </trkpt>
      <trkpt lat="47.85821" lon="7.05534">
        <ele>402.93</ele>
        <time>2021-10-25T15:15:53Z</time>
      </trkpt>
      <trkpt lat="47.85774" lon="7.05573">
        <ele>400.05</ele>
        <time>2021-10-25T15:16:01Z</time>
      </trkpt>
      <trkpt lat="47.85749" lon="7.05599">
        <ele>399.57</ele>
        <time>2021-10-25T15:16:06Z</time>
      </trkpt>
      <trkpt lat="47.85744" lon="7.05604">
        <ele>399.57</ele>
        <time>2021-10-25T15:16:07Z</time>
      </trkpt>
      <trkpt lat="47.8574" lon="7.0561">
        <ele>399.57</ele>
        <time>2021-10-25T15:16:08Z</time>
      </trkpt>
      <trkpt lat="47.85736" lon="7.05616">
        <ele>399.57</ele>
        <time>2021-10-25T15:16:09Z</time>
      </trkpt>
      <trkpt lat="47.85732" lon="7.05621">
        <ele>399.57</ele>
        <time>2021-10-25T15:16:10Z</time>
      </trkpt>
      <trkpt lat="47.85728" lon="7.05625">
        <ele>399.57</ele>
        <time>2021-10-25T15:16:11Z</time>
      </trkpt>
      <trkpt lat="47.85723" lon="7.05629">
        <ele>399.57</ele>
        <time>2021-10-25T15:16:12Z</time>
      </trkpt>
      <trkpt lat="47.85718" lon="7.05633">
        <ele>399.57</ele>
        <time>2021-10-25T15:16:13Z</time>
      </trkpt>
      <trkpt lat="47.85633" lon="7.05702">
        <ele>400.05</ele>
        <time>2021-10-25T15:16:31Z</time>
      </trkpt>
      <trkpt lat="47.85595" lon="7.05738">
        <ele>400.05</ele>
        <time>2021-10-25T15:16:39Z</time>
      </trkpt>
      <trkpt lat="47.85575" lon="7.05772">
        <ele>399.57</ele>
        <time>2021-10-25T15:16:44Z</time>
      </trkpt>
      <trkpt lat="47.85571" lon="7.0578">
        <ele>399.57</ele>
        <time>2021-10-25T15:16:45Z</time>
      </trkpt>
      <trkpt lat="47.85564" lon="7.05805">
        <ele>399.57</ele>
        <time>2021-10-25T15:16:48Z</time>
      </trkpt>
      <trkpt lat="47.85563" lon="7.05814">
        <ele>399.08</ele>
        <time>2021-10-25T15:16:49Z</time>
      </trkpt>
      <trkpt lat="47.85554" lon="7.05859">
        <ele>399.08</ele>
        <time>2021-10-25T15:16:54Z</time>
      </trkpt>
      <trkpt lat="47.85551" lon="7.05867">
        <ele>399.08</ele>
        <time>2021-10-25T15:16:55Z</time>
      </trkpt>
      <trkpt lat="47.85547" lon="7.05875">
        <ele>398.6</ele>
        <time>2021-10-25T15:16:56Z</time>
      </trkpt>
      <trkpt lat="47.85496" lon="7.06">
        <ele>397.64</ele>
        <time>2021-10-25T15:17:10Z</time>
      </trkpt>
      <trkpt lat="47.85482" lon="7.06056">
        <ele>398.6</ele>
        <time>2021-10-25T15:17:17Z</time>
      </trkpt>
      <trkpt lat="47.8548" lon="7.06062">
        <ele>399.08</ele>
        <time>2021-10-25T15:17:18Z</time>
      </trkpt>
      <trkpt lat="47.85479" lon="7.06068">
        <ele>399.08</ele>
        <time>2021-10-25T15:17:19Z</time>
      </trkpt>
      <trkpt lat="47.85477" lon="7.06073">
        <ele>399.57</ele>
        <time>2021-10-25T15:17:20Z</time>
      </trkpt>
      <trkpt lat="47.85477" lon="7.06078">
        <ele>399.57</ele>
        <time>2021-10-25T15:17:21Z</time>
      </trkpt>
      <trkpt lat="47.85467" lon="7.06133">
        <ele>402.45</ele>
        <time>2021-10-25T15:17:33Z</time>
      </trkpt>
      <trkpt lat="47.85458" lon="7.06183">
        <ele>405.81</ele>
        <time>2021-10-25T15:17:46Z</time>
      </trkpt>
      <trkpt lat="47.85452" lon="7.06215">
        <ele>408.7</ele>
        <time>2021-10-25T15:17:54Z</time>
      </trkpt>
      <trkpt lat="47.85449" lon="7.06284">
        <ele>409.18</ele>
        <time>2021-10-25T15:18:08Z</time>
      </trkpt>
      <trkpt lat="47.85444" lon="7.06364">
        <ele>412.06</ele>
        <time>2021-10-25T15:18:23Z</time>
      </trkpt>
      <trkpt lat="47.85447" lon="7.06402">
        <ele>413.02</ele>
        <time>2021-10-25T15:18:30Z</time>
      </trkpt>
      <trkpt lat="47.85446" lon="7.06409">
        <ele>413.5</ele>
        <time>2021-10-25T15:18:31Z</time>
      </trkpt>
      <trkpt lat="47.85428" lon="7.06429">
        <ele>413.02</ele>
        <time>2021-10-25T15:18:37Z</time>
      </trkpt>
      <trkpt lat="47.85424" lon="7.06432">
        <ele>412.54</ele>
        <time>2021-10-25T15:18:38Z</time>
      </trkpt>
      <trkpt lat="47.8542" lon="7.06434">
        <ele>412.54</ele>
        <time>2021-10-25T15:18:39Z</time>
      </trkpt>
      <trkpt lat="47.85416" lon="7.06436">
        <ele>412.06</ele>
        <time>2021-10-25T15:18:40Z</time>
      </trkpt>
      <trkpt lat="47.85412" lon="7.06439">
        <ele>412.06</ele>
        <time>2021-10-25T15:18:41Z</time>
      </trkpt>
      <trkpt lat="47.85384" lon="7.06458">
        <ele>410.62</ele>
        <time>2021-10-25T15:18:47Z</time>
      </trkpt>
      <trkpt lat="47.85379" lon="7.06462">
        <ele>410.62</ele>
        <time>2021-10-25T15:18:48Z</time>
      </trkpt>
      <trkpt lat="47.85312" lon="7.06502">
        <ele>408.7</ele>
        <time>2021-10-25T15:19:00Z</time>
      </trkpt>
      <trkpt lat="47.85254" lon="7.06568">
        <ele>406.29</ele>
        <time>2021-10-25T15:19:12Z</time>
      </trkpt>
      <trkpt lat="47.85227" lon="7.06603">
        <ele>405.81</ele>
        <time>2021-10-25T15:19:18Z</time>
      </trkpt>
      <trkpt lat="47.85185" lon="7.06649">
        <ele>406.29</ele>
        <time>2021-10-25T15:19:28Z</time>
      </trkpt>
      <trkpt lat="47.85135" lon="7.06705">
        <ele>406.29</ele>
        <time>2021-10-25T15:19:37Z</time>
      </trkpt>
      <trkpt lat="47.85126" lon="7.06722">
        <ele>406.77</ele>
        <time>2021-10-25T15:19:39Z</time>
      </trkpt>
      <trkpt lat="47.85122" lon="7.06731">
        <ele>406.77</ele>
        <time>2021-10-25T15:19:40Z</time>
      </trkpt>
      <trkpt lat="47.85117" lon="7.06749">
        <ele>406.29</ele>
        <time>2021-10-25T15:19:42Z</time>
      </trkpt>
      <trkpt lat="47.85116" lon="7.06757">
        <ele>406.29</ele>
        <time>2021-10-25T15:19:43Z</time>
      </trkpt>
      <trkpt lat="47.85103" lon="7.0682">
        <ele>406.29</ele>
        <time>2021-10-25T15:19:50Z</time>
      </trkpt>
      <trkpt lat="47.85099" lon="7.06829">
        <ele>406.29</ele>
        <time>2021-10-25T15:19:51Z</time>
      </trkpt>
      <trkpt lat="47.85094" lon="7.06836">
        <ele>406.29</ele>
        <time>2021-10-25T15:19:52Z</time>
      </trkpt>
      <trkpt lat="47.85089" lon="7.06841">
        <ele>406.29</ele>
        <time>2021-10-25T15:19:53Z</time>
      </trkpt>
      <trkpt lat="47.85083" lon="7.06844">
        <ele>405.81</ele>
        <time>2021-10-25T15:19:54Z</time>
      </trkpt>
      <trkpt lat="47.85077" lon="7.06847">
        <ele>406.77</ele>
        <time>2021-10-25T15:19:55Z</time>
      </trkpt>
      <trkpt lat="47.8507" lon="7.06848">
        <ele>404.85</ele>
        <time>2021-10-25T15:19:56Z</time>
      </trkpt>
      <trkpt lat="47.85064" lon="7.0685">
        <ele>404.37</ele>
        <time>2021-10-25T15:19:57Z</time>
      </trkpt>
      <trkpt lat="47.85058" lon="7.06851">
        <ele>403.89</ele>
        <time>2021-10-25T15:19:58Z</time>
      </trkpt>
      <trkpt lat="47.85052" lon="7.06854">
        <ele>403.41</ele>
        <time>2021-10-25T15:19:59Z</time>
      </trkpt>
      <trkpt lat="47.85046" lon="7.06858">
        <ele>403.41</ele>
        <time>2021-10-25T15:20:00Z</time>
      </trkpt>
      <trkpt lat="47.85042" lon="7.06862">
        <ele>403.41</ele>
        <time>2021-10-25T15:20:01Z</time>
      </trkpt>
      <trkpt lat="47.85038" lon="7.06867">
        <ele>403.41</ele>
        <time>2021-10-25T15:20:02Z</time>
      </trkpt>
      <trkpt lat="47.85004" lon="7.06909">
        <ele>400.53</ele>
        <time>2021-10-25T15:20:11Z</time>
      </trkpt>
      <trkpt lat="47.85" lon="7.06913">
        <ele>400.53</ele>
        <time>2021-10-25T15:20:12Z</time>
      </trkpt>
      <trkpt lat="47.84969" lon="7.06937">
        <ele>399.57</ele>
        <time>2021-10-25T15:20:19Z</time>
      </trkpt>
      <trkpt lat="47.84914" lon="7.06975">
        <ele>398.12</ele>
        <time>2021-10-25T15:20:29Z</time>
      </trkpt>
      <trkpt lat="47.84887" lon="7.06982">
        <ele>396.2</ele>
        <time>2021-10-25T15:20:34Z</time>
      </trkpt>
      <trkpt lat="47.84882" lon="7.06983">
        <ele>395.72</ele>
        <time>2021-10-25T15:20:35Z</time>
      </trkpt>
      <trkpt lat="47.84849" lon="7.06997">
        <ele>392.84</ele>
        <time>2021-10-25T15:20:42Z</time>
      </trkpt>
      <trkpt lat="47.84832" lon="7.07012">
        <ele>390.91</ele>
        <time>2021-10-25T15:20:46Z</time>
      </trkpt>
      <trkpt lat="47.8482" lon="7.07025">
        <ele>389.95</ele>
        <time>2021-10-25T15:20:49Z</time>
      </trkpt>
      <trkpt lat="47.84815" lon="7.07027">
        <ele>389.47</ele>
        <time>2021-10-25T15:20:50Z</time>
      </trkpt>
      <trkpt lat="47.8481" lon="7.07029">
        <ele>389.47</ele>
        <time>2021-10-25T15:20:51Z</time>
      </trkpt>
      <trkpt lat="47.84805" lon="7.07029">
        <ele>388.99</ele>
        <time>2021-10-25T15:20:52Z</time>
      </trkpt>
      <trkpt lat="47.84799" lon="7.0703">
        <ele>388.51</ele>
        <time>2021-10-25T15:20:53Z</time>
      </trkpt>
      <trkpt lat="47.84777" lon="7.07033">
        <ele>386.11</ele>
        <time>2021-10-25T15:20:58Z</time>
      </trkpt>
      <trkpt lat="47.84767" lon="7.07043">
        <ele>386.11</ele>
        <time>2021-10-25T15:21:01Z</time>
      </trkpt>
      <trkpt lat="47.84764" lon="7.07047">
        <ele>386.11</ele>
        <time>2021-10-25T15:21:02Z</time>
      </trkpt>
      <trkpt lat="47.84761" lon="7.07051">
        <ele>386.59</ele>
        <time>2021-10-25T15:21:03Z</time>
      </trkpt>
      <trkpt lat="47.84721" lon="7.07103">
        <ele>386.59</ele>
        <time>2021-10-25T15:21:15Z</time>
      </trkpt>
      <trkpt lat="47.84694" lon="7.0714">
        <ele>386.59</ele>
        <time>2021-10-25T15:21:23Z</time>
      </trkpt>
      <trkpt lat="47.8467" lon="7.07174">
        <ele>387.07</ele>
        <time>2021-10-25T15:21:31Z</time>
      </trkpt>
      <trkpt lat="47.84667" lon="7.07178">
        <ele>387.07</ele>
        <time>2021-10-25T15:21:32Z</time>
      </trkpt>
      <trkpt lat="47.84624" lon="7.07263">
        <ele>387.55</ele>
        <time>2021-10-25T15:21:48Z</time>
      </trkpt>
      <trkpt lat="47.84612" lon="7.07279">
        <ele>387.55</ele>
        <time>2021-10-25T15:21:52Z</time>
      </trkpt>
      <trkpt lat="47.84608" lon="7.07278">
        <ele>387.55</ele>
        <time>2021-10-25T15:21:53Z</time>
      </trkpt>
      <trkpt lat="47.84604" lon="7.07275">
        <ele>387.55</ele>
        <time>2021-10-25T15:21:54Z</time>
      </trkpt>
      <trkpt lat="47.846" lon="7.07271">
        <ele>387.55</ele>
        <time>2021-10-25T15:21:55Z</time>
      </trkpt>
      <trkpt lat="47.84596" lon="7.07266">
        <ele>388.99</ele>
        <time>2021-10-25T15:21:56Z</time>
      </trkpt>
      <trkpt lat="47.84593" lon="7.07261">
        <ele>387.55</ele>
        <time>2021-10-25T15:21:57Z</time>
      </trkpt>
      <trkpt lat="47.84539" lon="7.07196">
        <ele>384.66</ele>
        <time>2021-10-25T15:22:10Z</time>
      </trkpt>
      <trkpt lat="47.84534" lon="7.07193">
        <ele>384.66</ele>
        <time>2021-10-25T15:22:11Z</time>
      </trkpt>
      <trkpt lat="47.84486" lon="7.07162">
        <ele>383.22</ele>
        <time>2021-10-25T15:22:20Z</time>
      </trkpt>
      <trkpt lat="47.84483" lon="7.07159">
        <ele>382.74</ele>
        <time>2021-10-25T15:22:21Z</time>
      </trkpt>
      <trkpt lat="47.8448" lon="7.07157">
        <ele>382.74</ele>
        <time>2021-10-25T15:22:22Z</time>
      </trkpt>
      <trkpt lat="47.84477" lon="7.07156">
        <ele>382.74</ele>
        <time>2021-10-25T15:22:23Z</time>
      </trkpt>
      <trkpt lat="47.84474" lon="7.07158">
        <ele>382.74</ele>
        <time>2021-10-25T15:22:24Z</time>
      </trkpt>
      <trkpt lat="47.84471" lon="7.07161">
        <ele>382.74</ele>
        <time>2021-10-25T15:22:25Z</time>
      </trkpt>
      <trkpt lat="47.84469" lon="7.07165">
        <ele>382.26</ele>
        <time>2021-10-25T15:22:26Z</time>
      </trkpt>
      <trkpt lat="47.84467" lon="7.0717">
        <ele>382.26</ele>
        <time>2021-10-25T15:22:27Z</time>
      </trkpt>
      <trkpt lat="47.84465" lon="7.07176">
        <ele>382.26</ele>
        <time>2021-10-25T15:22:28Z</time>
      </trkpt>
      <trkpt lat="47.84457" lon="7.07207">
        <ele>382.74</ele>
        <time>2021-10-25T15:22:33Z</time>
      </trkpt>
      <trkpt lat="47.8444" lon="7.07307">
        <ele>381.78</ele>
        <time>2021-10-25T15:22:48Z</time>
      </trkpt>
      <trkpt lat="47.84439" lon="7.07314">
        <ele>381.78</ele>
        <time>2021-10-25T15:22:49Z</time>
      </trkpt>
      <trkpt lat="47.84438" lon="7.07321">
        <ele>381.78</ele>
        <time>2021-10-25T15:22:50Z</time>
      </trkpt>
      <trkpt lat="47.84432" lon="7.07344">
        <ele>381.3</ele>
        <time>2021-10-25T15:22:56Z</time>
      </trkpt>
      <trkpt lat="47.84429" lon="7.07345">
        <ele>381.3</ele>
        <time>2021-10-25T15:22:57Z</time>
      </trkpt>
      <trkpt lat="47.84407" lon="7.07341">
        <ele>380.82</ele>
        <time>2021-10-25T15:23:02Z</time>
      </trkpt>
      <trkpt lat="47.84396" lon="7.07337">
        <ele>380.34</ele>
        <time>2021-10-25T15:23:04Z</time>
      </trkpt>
      <trkpt lat="47.8434" lon="7.07304">
        <ele>378.9</ele>
        <time>2021-10-25T15:23:17Z</time>
      </trkpt>
      <trkpt lat="47.84338" lon="7.07308">
        <ele>378.9</ele>
        <time>2021-10-25T15:23:18Z</time>
      </trkpt>
      <trkpt lat="47.84337" lon="7.07313">
        <ele>379.38</ele>
        <time>2021-10-25T15:23:19Z</time>
      </trkpt>
      <trkpt lat="47.84333" lon="7.07355">
        <ele>379.38</ele>
        <time>2021-10-25T15:23:26Z</time>
      </trkpt>
      <trkpt lat="47.84331" lon="7.0736">
        <ele>379.86</ele>
        <time>2021-10-25T15:23:27Z</time>
      </trkpt>
      <trkpt lat="47.84309" lon="7.07447">
        <ele>381.3</ele>
        <time>2021-10-25T15:23:42Z</time>
      </trkpt>
      <trkpt lat="47.84303" lon="7.075">
        <ele>382.26</ele>
        <time>2021-10-25T15:23:52Z</time>
      </trkpt>
      <trkpt lat="47.84295" lon="7.07542">
        <ele>382.26</ele>
        <time>2021-10-25T15:23:59Z</time>
      </trkpt>
      <trkpt lat="47.8428" lon="7.0759">
        <ele>382.26</ele>
        <time>2021-10-25T15:24:07Z</time>
      </trkpt>
      <trkpt lat="47.84256" lon="7.07654">
        <ele>382.74</ele>
        <time>2021-10-25T15:24:18Z</time>
      </trkpt>
      <trkpt lat="47.84254" lon="7.07661">
        <ele>382.74</ele>
        <time>2021-10-25T15:24:19Z</time>
      </trkpt>
      <trkpt lat="47.84247" lon="7.07679">
        <ele>382.26</ele>
        <time>2021-10-25T15:24:22Z</time>
      </trkpt>
      <trkpt lat="47.84244" lon="7.07684">
        <ele>382.26</ele>
        <time>2021-10-25T15:24:23Z</time>
      </trkpt>
      <trkpt lat="47.84241" lon="7.07689">
        <ele>382.26</ele>
        <time>2021-10-25T15:24:24Z</time>
      </trkpt>
      <trkpt lat="47.84229" lon="7.07705">
        <ele>381.3</ele>
        <time>2021-10-25T15:24:27Z</time>
      </trkpt>
      <trkpt lat="47.84219" lon="7.07714">
        <ele>380.82</ele>
        <time>2021-10-25T15:24:29Z</time>
      </trkpt>
      <trkpt lat="47.84214" lon="7.07718">
        <ele>380.34</ele>
        <time>2021-10-25T15:24:30Z</time>
      </trkpt>
      <trkpt lat="47.84192" lon="7.07734">
        <ele>379.38</ele>
        <time>2021-10-25T15:24:38Z</time>
      </trkpt>
      <trkpt lat="47.84154" lon="7.07753">
        <ele>377.45</ele>
        <time>2021-10-25T15:24:47Z</time>
      </trkpt>
      <trkpt lat="47.8415" lon="7.07756">
        <ele>377.45</ele>
        <time>2021-10-25T15:24:48Z</time>
      </trkpt>
      <trkpt lat="47.84146" lon="7.07761">
        <ele>377.45</ele>
        <time>2021-10-25T15:24:49Z</time>
      </trkpt>
      <trkpt lat="47.84143" lon="7.07768">
        <ele>376.97</ele>
        <time>2021-10-25T15:24:50Z</time>
      </trkpt>
      <trkpt lat="47.84139" lon="7.07775">
        <ele>376.97</ele>
        <time>2021-10-25T15:24:51Z</time>
      </trkpt>
      <trkpt lat="47.84136" lon="7.07783">
        <ele>376.49</ele>
        <time>2021-10-25T15:24:52Z</time>
      </trkpt>
      <trkpt lat="47.84108" lon="7.07862">
        <ele>375.53</ele>
        <time>2021-10-25T15:25:02Z</time>
      </trkpt>
      <trkpt lat="47.84105" lon="7.07869">
        <ele>375.53</ele>
        <time>2021-10-25T15:25:03Z</time>
      </trkpt>
      <trkpt lat="47.84043" lon="7.07981">
        <ele>374.57</ele>
        <time>2021-10-25T15:25:21Z</time>
      </trkpt>
      <trkpt lat="47.84039" lon="7.07985">
        <ele>374.57</ele>
        <time>2021-10-25T15:25:22Z</time>
      </trkpt>
      <trkpt lat="47.84034" lon="7.07989">
        <ele>374.57</ele>
        <time>2021-10-25T15:25:23Z</time>
      </trkpt>
      <trkpt lat="47.83969" lon="7.08026">
        <ele>374.09</ele>
        <time>2021-10-25T15:25:36Z</time>
      </trkpt>
      <trkpt lat="47.83965" lon="7.08029">
        <ele>374.09</ele>
        <time>2021-10-25T15:25:37Z</time>
      </trkpt>
      <trkpt lat="47.83963" lon="7.08034">
        <ele>374.09</ele>
        <time>2021-10-25T15:25:38Z</time>
      </trkpt>
      <trkpt lat="47.83961" lon="7.08039">
        <ele>374.09</ele>
        <time>2021-10-25T15:25:39Z</time>
      </trkpt>
      <trkpt lat="47.8396" lon="7.08043">
        <ele>374.09</ele>
        <time>2021-10-25T15:25:40Z</time>
      </trkpt>
      <trkpt lat="47.83947" lon="7.08111">
        <ele>376.01</ele>
        <time>2021-10-25T15:25:54Z</time>
      </trkpt>
      <trkpt lat="47.8394" lon="7.08132">
        <ele>379.38</ele>
        <time>2021-10-25T15:25:59Z</time>
      </trkpt>
      <trkpt lat="47.83938" lon="7.08137">
        <ele>378.9</ele>
        <time>2021-10-25T15:26:00Z</time>
      </trkpt>
      <trkpt lat="47.8393" lon="7.08157">
        <ele>379.86</ele>
        <time>2021-10-25T15:26:04Z</time>
      </trkpt>
      <trkpt lat="47.83918" lon="7.08222">
        <ele>382.26</ele>
        <time>2021-10-25T15:26:15Z</time>
      </trkpt>
      <trkpt lat="47.83915" lon="7.08246">
        <ele>382.26</ele>
        <time>2021-10-25T15:26:19Z</time>
      </trkpt>
      <trkpt lat="47.83912" lon="7.08251">
        <ele>382.74</ele>
        <time>2021-10-25T15:26:20Z</time>
      </trkpt>
      <trkpt lat="47.83909" lon="7.08254">
        <ele>382.74</ele>
        <time>2021-10-25T15:26:21Z</time>
      </trkpt>
      <trkpt lat="47.83905" lon="7.08255">
        <ele>382.74</ele>
        <time>2021-10-25T15:26:22Z</time>
      </trkpt>
      <trkpt lat="47.83901" lon="7.08253">
        <ele>382.74</ele>
        <time>2021-10-25T15:26:23Z</time>
      </trkpt>
      <trkpt lat="47.83897" lon="7.0825">
        <ele>382.74</ele>
        <time>2021-10-25T15:26:24Z</time>
      </trkpt>
      <trkpt lat="47.83894" lon="7.08246">
        <ele>382.74</ele>
        <time>2021-10-25T15:26:25Z</time>
      </trkpt>
      <trkpt lat="47.83882" lon="7.08232">
        <ele>381.78</ele>
        <time>2021-10-25T15:26:28Z</time>
      </trkpt>
      <trkpt lat="47.8386" lon="7.08215">
        <ele>379.86</ele>
        <time>2021-10-25T15:26:32Z</time>
      </trkpt>
      <trkpt lat="47.83854" lon="7.08213">
        <ele>379.86</ele>
        <time>2021-10-25T15:26:33Z</time>
      </trkpt>
      <trkpt lat="47.83777" lon="7.08205">
        <ele>378.42</ele>
        <time>2021-10-25T15:26:47Z</time>
      </trkpt>
      <trkpt lat="47.83728" lon="7.08201">
        <ele>375.53</ele>
        <time>2021-10-25T15:26:54Z</time>
      </trkpt>
      <trkpt lat="47.83715" lon="7.08196">
        <ele>375.05</ele>
        <time>2021-10-25T15:26:56Z</time>
      </trkpt>
      <trkpt lat="47.83692" lon="7.08181">
        <ele>374.57</ele>
        <time>2021-10-25T15:27:00Z</time>
      </trkpt>
      <trkpt lat="47.83686" lon="7.08179">
        <ele>374.57</ele>
        <time>2021-10-25T15:27:01Z</time>
      </trkpt>
      <trkpt lat="47.83681" lon="7.08178">
        <ele>374.57</ele>
        <time>2021-10-25T15:27:02Z</time>
      </trkpt>
      <trkpt lat="47.83675" lon="7.08177">
        <ele>374.57</ele>
        <time>2021-10-25T15:27:03Z</time>
      </trkpt>
      <trkpt lat="47.83669" lon="7.08178">
        <ele>374.57</ele>
        <time>2021-10-25T15:27:04Z</time>
      </trkpt>
      <trkpt lat="47.83663" lon="7.08179">
        <ele>374.09</ele>
        <time>2021-10-25T15:27:05Z</time>
      </trkpt>
      <trkpt lat="47.83657" lon="7.0818">
        <ele>374.09</ele>
        <time>2021-10-25T15:27:06Z</time>
      </trkpt>
      <trkpt lat="47.8365" lon="7.08181">
        <ele>373.61</ele>
        <time>2021-10-25T15:27:07Z</time>
      </trkpt>
      <trkpt lat="47.83617" lon="7.08182">
        <ele>372.65</ele>
        <time>2021-10-25T15:27:12Z</time>
      </trkpt>
      <trkpt lat="47.83611" lon="7.0818">
        <ele>372.65</ele>
        <time>2021-10-25T15:27:13Z</time>
      </trkpt>
      <trkpt lat="47.83591" lon="7.08171">
        <ele>372.17</ele>
        <time>2021-10-25T15:27:16Z</time>
      </trkpt>
      <trkpt lat="47.83516" lon="7.08154">
        <ele>371.21</ele>
        <time>2021-10-25T15:27:27Z</time>
      </trkpt>
      <trkpt lat="47.83426" lon="7.08116">
        <ele>369.76</ele>
        <time>2021-10-25T15:27:42Z</time>
      </trkpt>
      <trkpt lat="47.83359" lon="7.08092">
        <ele>367.84</ele>
        <time>2021-10-25T15:27:53Z</time>
      </trkpt>
      <trkpt lat="47.83298" lon="7.0809">
        <ele>366.88</ele>
        <time>2021-10-25T15:28:03Z</time>
      </trkpt>
      <trkpt lat="47.83292" lon="7.08093">
        <ele>366.88</ele>
        <time>2021-10-25T15:28:04Z</time>
      </trkpt>
      <trkpt lat="47.83286" lon="7.08096">
        <ele>366.88</ele>
        <time>2021-10-25T15:28:05Z</time>
      </trkpt>
      <trkpt lat="47.8328" lon="7.08099">
        <ele>366.4</ele>
        <time>2021-10-25T15:28:06Z</time>
      </trkpt>
      <trkpt lat="47.83275" lon="7.08104">
        <ele>366.4</ele>
        <time>2021-10-25T15:28:07Z</time>
      </trkpt>
      <trkpt lat="47.8327" lon="7.08109">
        <ele>366.4</ele>
        <time>2021-10-25T15:28:08Z</time>
      </trkpt>
      <trkpt lat="47.83209" lon="7.08189">
        <ele>365.92</ele>
        <time>2021-10-25T15:28:22Z</time>
      </trkpt>
      <trkpt lat="47.83142" lon="7.08247">
        <ele>365.44</ele>
        <time>2021-10-25T15:28:35Z</time>
      </trkpt>
      <trkpt lat="47.83065" lon="7.08258">
        <ele>365.44</ele>
        <time>2021-10-25T15:28:50Z</time>
      </trkpt>
      <trkpt lat="47.83047" lon="7.08263">
        <ele>365.44</ele>
        <time>2021-10-25T15:29:00Z</time>
      </trkpt>
      <trkpt lat="47.83046" lon="7.08264">
        <ele>365.44</ele>
        <time>2021-10-25T15:29:34Z</time>
      </trkpt>
      <trkpt lat="47.83047" lon="7.08263">
        <ele>365.44</ele>
        <time>2021-10-25T15:30:04Z</time>
      </trkpt>
      <trkpt lat="47.83047" lon="7.08263">
        <ele>365.44</ele>
        <time>2021-10-25T15:30:36Z</time>
      </trkpt>
      <trkpt lat="47.83048" lon="7.08262">
        <ele>365.44</ele>
        <time>2021-10-25T15:31:13Z</time>
      </trkpt>
      <trkpt lat="47.83046" lon="7.08262">
        <ele>364.96</ele>
        <time>2021-10-25T15:31:15Z</time>
      </trkpt>
      <trkpt lat="47.83044" lon="7.08261">
        <ele>365.44</ele>
        <time>2021-10-25T15:31:16Z</time>
      </trkpt>
      <trkpt lat="47.83043" lon="7.08259">
        <ele>365.44</ele>
        <time>2021-10-25T15:31:17Z</time>
      </trkpt>
      <trkpt lat="47.83042" lon="7.08255">
        <ele>365.44</ele>
        <time>2021-10-25T15:31:18Z</time>
      </trkpt>
      <trkpt lat="47.83042" lon="7.08251">
        <ele>364.96</ele>
        <time>2021-10-25T15:31:19Z</time>
      </trkpt>
      <trkpt lat="47.83034" lon="7.08187">
        <ele>364.48</ele>
        <time>2021-10-25T15:31:35Z</time>
      </trkpt>
      <trkpt lat="47.83024" lon="7.08153">
        <ele>364</ele>
        <time>2021-10-25T15:31:44Z</time>
      </trkpt>
      <trkpt lat="47.83021" lon="7.08149">
        <ele>364</ele>
        <time>2021-10-25T15:31:45Z</time>
      </trkpt>
      <trkpt lat="47.83018" lon="7.08147">
        <ele>363.52</ele>
        <time>2021-10-25T15:31:46Z</time>
      </trkpt>
      <trkpt lat="47.83015" lon="7.08146">
        <ele>364</ele>
        <time>2021-10-25T15:31:47Z</time>
      </trkpt>
      <trkpt lat="47.83011" lon="7.08146">
        <ele>364</ele>
        <time>2021-10-25T15:31:48Z</time>
      </trkpt>
      <trkpt lat="47.83007" lon="7.08147">
        <ele>363.52</ele>
        <time>2021-10-25T15:31:49Z</time>
      </trkpt>
      <trkpt lat="47.83004" lon="7.08148">
        <ele>363.52</ele>
        <time>2021-10-25T15:31:50Z</time>
      </trkpt>
      <trkpt lat="47.82963" lon="7.08147">
        <ele>364.96</ele>
        <time>2021-10-25T15:32:02Z</time>
      </trkpt>
      <trkpt lat="47.82923" lon="7.08087">
        <ele>364.48</ele>
        <time>2021-10-25T15:32:17Z</time>
      </trkpt>
      <trkpt lat="47.82895" lon="7.0802">
        <ele>364.96</ele>
        <time>2021-10-25T15:32:33Z</time>
      </trkpt>
      <trkpt lat="47.82895" lon="7.07991">
        <ele>364.96</ele>
        <time>2021-10-25T15:32:43Z</time>
      </trkpt>
      <trkpt lat="47.82895" lon="7.07988">
        <ele>364.96</ele>
        <time>2021-10-25T15:32:54Z</time>
      </trkpt>
      <trkpt lat="47.82895" lon="7.07986">
        <ele>364.96</ele>
        <time>2021-10-25T15:32:55Z</time>
      </trkpt>
      <trkpt lat="47.82895" lon="7.07983">
        <ele>364.96</ele>
        <time>2021-10-25T15:32:56Z</time>
      </trkpt>
      <trkpt lat="47.82901" lon="7.07969">
        <ele>365.44</ele>
        <time>2021-10-25T15:33:00Z</time>
      </trkpt>
      <trkpt lat="47.82901" lon="7.07963">
        <ele>364.96</ele>
        <time>2021-10-25T15:33:01Z</time>
      </trkpt>
      <trkpt lat="47.82899" lon="7.07957">
        <ele>364.96</ele>
        <time>2021-10-25T15:33:02Z</time>
      </trkpt>
      <trkpt lat="47.82869" lon="7.07872">
        <ele>365.44</ele>
        <time>2021-10-25T15:33:14Z</time>
      </trkpt>
      <trkpt lat="47.8285" lon="7.07805">
        <ele>365.92</ele>
        <time>2021-10-25T15:33:23Z</time>
      </trkpt>
      <trkpt lat="47.82831" lon="7.07729">
        <ele>365.92</ele>
        <time>2021-10-25T15:33:34Z</time>
      </trkpt>
      <trkpt lat="47.82828" lon="7.07722">
        <ele>365.92</ele>
        <time>2021-10-25T15:33:35Z</time>
      </trkpt>
      <trkpt lat="47.82824" lon="7.07717">
        <ele>365.92</ele>
        <time>2021-10-25T15:33:36Z</time>
      </trkpt>
      <trkpt lat="47.82821" lon="7.07712">
        <ele>365.92</ele>
        <time>2021-10-25T15:33:37Z</time>
      </trkpt>
      <trkpt lat="47.82817" lon="7.07707">
        <ele>365.92</ele>
        <time>2021-10-25T15:33:38Z</time>
      </trkpt>
      <trkpt lat="47.82813" lon="7.07703">
        <ele>365.92</ele>
        <time>2021-10-25T15:33:39Z</time>
      </trkpt>
      <trkpt lat="47.82808" lon="7.077">
        <ele>366.4</ele>
        <time>2021-10-25T15:33:40Z</time>
      </trkpt>
      <trkpt lat="47.82804" lon="7.07697">
        <ele>366.4</ele>
        <time>2021-10-25T15:33:41Z</time>
      </trkpt>
      <trkpt lat="47.82799" lon="7.07695">
        <ele>366.4</ele>
        <time>2021-10-25T15:33:42Z</time>
      </trkpt>
      <trkpt lat="47.82795" lon="7.07693">
        <ele>366.4</ele>
        <time>2021-10-25T15:33:43Z</time>
      </trkpt>
      <trkpt lat="47.82728" lon="7.07652">
        <ele>367.36</ele>
        <time>2021-10-25T15:33:58Z</time>
      </trkpt>
      <trkpt lat="47.82666" lon="7.07586">
        <ele>370.24</ele>
        <time>2021-10-25T15:34:14Z</time>
      </trkpt>
      <trkpt lat="47.82642" lon="7.07545">
        <ele>373.61</ele>
        <time>2021-10-25T15:34:23Z</time>
      </trkpt>
      <trkpt lat="47.82622" lon="7.07485">
        <ele>376.01</ele>
        <time>2021-10-25T15:34:34Z</time>
      </trkpt>
      <trkpt lat="47.82616" lon="7.07397">
        <ele>378.9</ele>
        <time>2021-10-25T15:34:48Z</time>
      </trkpt>
      <trkpt lat="47.82612" lon="7.07318">
        <ele>378.9</ele>
        <time>2021-10-25T15:35:00Z</time>
      </trkpt>
      <trkpt lat="47.82602" lon="7.07209">
        <ele>378.42</ele>
        <time>2021-10-25T15:35:15Z</time>
      </trkpt>
      <trkpt lat="47.826" lon="7.07203">
        <ele>378.42</ele>
        <time>2021-10-25T15:35:16Z</time>
      </trkpt>
      <trkpt lat="47.82597" lon="7.07197">
        <ele>378.9</ele>
        <time>2021-10-25T15:35:17Z</time>
      </trkpt>
      <trkpt lat="47.82587" lon="7.07173">
        <ele>378.9</ele>
        <time>2021-10-25T15:35:21Z</time>
      </trkpt>
      <trkpt lat="47.8258" lon="7.07136">
        <ele>379.38</ele>
        <time>2021-10-25T15:35:28Z</time>
      </trkpt>
      <trkpt lat="47.82578" lon="7.07091">
        <ele>380.34</ele>
        <time>2021-10-25T15:35:35Z</time>
      </trkpt>
      <trkpt lat="47.8256" lon="7.06987">
        <ele>382.26</ele>
        <time>2021-10-25T15:35:51Z</time>
      </trkpt>
      <trkpt lat="47.82548" lon="7.06904">
        <ele>385.63</ele>
        <time>2021-10-25T15:36:05Z</time>
      </trkpt>
      <trkpt lat="47.82548" lon="7.06898">
        <ele>384.66</ele>
        <time>2021-10-25T15:36:06Z</time>
      </trkpt>
      <trkpt lat="47.82547" lon="7.06891">
        <ele>385.15</ele>
        <time>2021-10-25T15:36:07Z</time>
      </trkpt>
      <trkpt lat="47.82547" lon="7.06885">
        <ele>385.15</ele>
        <time>2021-10-25T15:36:08Z</time>
      </trkpt>
      <trkpt lat="47.82548" lon="7.06878">
        <ele>385.15</ele>
        <time>2021-10-25T15:36:09Z</time>
      </trkpt>
      <trkpt lat="47.82549" lon="7.06872">
        <ele>385.63</ele>
        <time>2021-10-25T15:36:10Z</time>
      </trkpt>
      <trkpt lat="47.82549" lon="7.06865">
        <ele>386.11</ele>
        <time>2021-10-25T15:36:11Z</time>
      </trkpt>
      <trkpt lat="47.82558" lon="7.06783">
        <ele>388.99</ele>
        <time>2021-10-25T15:36:24Z</time>
      </trkpt>
      <trkpt lat="47.82559" lon="7.06771">
        <ele>389.47</ele>
        <time>2021-10-25T15:36:26Z</time>
      </trkpt>
      <trkpt lat="47.82559" lon="7.06765">
        <ele>389.47</ele>
        <time>2021-10-25T15:36:27Z</time>
      </trkpt>
      <trkpt lat="47.82561" lon="7.06667">
        <ele>391.39</ele>
        <time>2021-10-25T15:36:41Z</time>
      </trkpt>
      <trkpt lat="47.82552" lon="7.06576">
        <ele>393.32</ele>
        <time>2021-10-25T15:36:54Z</time>
      </trkpt>
      <trkpt lat="47.82542" lon="7.0653">
        <ele>395.72</ele>
        <time>2021-10-25T15:37:01Z</time>
      </trkpt>
      <trkpt lat="47.82522" lon="7.06417">
        <ele>398.6</ele>
        <time>2021-10-25T15:37:18Z</time>
      </trkpt>
      <trkpt lat="47.82517" lon="7.06298">
        <ele>401.97</ele>
        <time>2021-10-25T15:37:35Z</time>
      </trkpt>
      <trkpt lat="47.82497" lon="7.06192">
        <ele>404.37</ele>
        <time>2021-10-25T15:37:51Z</time>
      </trkpt>
      <trkpt lat="47.82491" lon="7.06181">
        <ele>404.85</ele>
        <time>2021-10-25T15:37:53Z</time>
      </trkpt>
      <trkpt lat="47.82487" lon="7.06177">
        <ele>404.85</ele>
        <time>2021-10-25T15:37:54Z</time>
      </trkpt>
      <trkpt lat="47.82448" lon="7.06119">
        <ele>409.18</ele>
        <time>2021-10-25T15:38:06Z</time>
      </trkpt>
      <trkpt lat="47.82444" lon="7.06114">
        <ele>408.22</ele>
        <time>2021-10-25T15:38:07Z</time>
      </trkpt>
      <trkpt lat="47.82403" lon="7.06042">
        <ele>411.1</ele>
        <time>2021-10-25T15:38:21Z</time>
      </trkpt>
      <trkpt lat="47.8236" lon="7.05998">
        <ele>413.98</ele>
        <time>2021-10-25T15:38:33Z</time>
      </trkpt>
      <trkpt lat="47.82352" lon="7.0599">
        <ele>413.98</ele>
        <time>2021-10-25T15:38:35Z</time>
      </trkpt>
      <trkpt lat="47.82301" lon="7.05948">
        <ele>417.35</ele>
        <time>2021-10-25T15:38:47Z</time>
      </trkpt>
      <trkpt lat="47.82247" lon="7.05898">
        <ele>420.23</ele>
        <time>2021-10-25T15:39:01Z</time>
      </trkpt>
      <trkpt lat="47.82212" lon="7.05852">
        <ele>423.6</ele>
        <time>2021-10-25T15:39:12Z</time>
      </trkpt>
      <trkpt lat="47.82191" lon="7.05796">
        <ele>426.48</ele>
        <time>2021-10-25T15:39:24Z</time>
      </trkpt>
      <trkpt lat="47.82203" lon="7.05769">
        <ele>429.37</ele>
        <time>2021-10-25T15:39:31Z</time>
      </trkpt>
      <trkpt lat="47.82229" lon="7.05764">
        <ele>432.73</ele>
        <time>2021-10-25T15:39:40Z</time>
      </trkpt>
      <trkpt lat="47.82258" lon="7.05754">
        <ele>436.1</ele>
        <time>2021-10-25T15:39:49Z</time>
      </trkpt>
      <trkpt lat="47.82271" lon="7.05728">
        <ele>438.98</ele>
        <time>2021-10-25T15:39:57Z</time>
      </trkpt>
      <trkpt lat="47.8225" lon="7.05707">
        <ele>444.27</ele>
        <time>2021-10-25T15:40:07Z</time>
      </trkpt>
      <trkpt lat="47.82248" lon="7.05706">
        <ele>443.79</ele>
        <time>2021-10-25T15:40:08Z</time>
      </trkpt>
      <trkpt lat="47.82229" lon="7.05688">
        <ele>446.67</ele>
        <time>2021-10-25T15:40:17Z</time>
      </trkpt>
      <trkpt lat="47.8224" lon="7.05661">
        <ele>450.03</ele>
        <time>2021-10-25T15:40:26Z</time>
      </trkpt>
      <trkpt lat="47.82266" lon="7.0566">
        <ele>453.4</ele>
        <time>2021-10-25T15:40:35Z</time>
      </trkpt>
      <trkpt lat="47.8229" lon="7.05663">
        <ele>456.28</ele>
        <time>2021-10-25T15:40:44Z</time>
      </trkpt>
      <trkpt lat="47.82313" lon="7.05662">
        <ele>459.65</ele>
        <time>2021-10-25T15:40:52Z</time>
      </trkpt>
      <trkpt lat="47.8234" lon="7.05653">
        <ele>462.53</ele>
        <time>2021-10-25T15:41:03Z</time>
      </trkpt>
      <trkpt lat="47.8236" lon="7.05647">
        <ele>465.42</ele>
        <time>2021-10-25T15:41:11Z</time>
      </trkpt>
      <trkpt lat="47.82368" lon="7.05645">
        <ele>466.86</ele>
        <time>2021-10-25T15:41:14Z</time>
      </trkpt>
      <trkpt lat="47.8237" lon="7.05645">
        <ele>467.34</ele>
        <time>2021-10-25T15:41:15Z</time>
      </trkpt>
      <trkpt lat="47.82373" lon="7.05646">
        <ele>467.82</ele>
        <time>2021-10-25T15:41:16Z</time>
      </trkpt>
      <trkpt lat="47.82376" lon="7.05647">
        <ele>467.82</ele>
        <time>2021-10-25T15:41:17Z</time>
      </trkpt>
      <trkpt lat="47.8238" lon="7.05647">
        <ele>468.3</ele>
        <time>2021-10-25T15:41:18Z</time>
      </trkpt>
      <trkpt lat="47.82382" lon="7.05647">
        <ele>468.3</ele>
        <time>2021-10-25T15:41:19Z</time>
      </trkpt>
      <trkpt lat="47.82385" lon="7.05647">
        <ele>468.78</ele>
        <time>2021-10-25T15:41:20Z</time>
      </trkpt>
      <trkpt lat="47.82388" lon="7.05648">
        <ele>469.26</ele>
        <time>2021-10-25T15:41:21Z</time>
      </trkpt>
      <trkpt lat="47.82391" lon="7.05648">
        <ele>469.74</ele>
        <time>2021-10-25T15:41:22Z</time>
      </trkpt>
      <trkpt lat="47.82394" lon="7.05649">
        <ele>469.74</ele>
        <time>2021-10-25T15:41:23Z</time>
      </trkpt>
      <trkpt lat="47.82417" lon="7.05659">
        <ele>473.11</ele>
        <time>2021-10-25T15:41:33Z</time>
      </trkpt>
      <trkpt lat="47.82442" lon="7.05674">
        <ele>475.99</ele>
        <time>2021-10-25T15:41:44Z</time>
      </trkpt>
      <trkpt lat="47.82464" lon="7.05662">
        <ele>478.39</ele>
        <time>2021-10-25T15:41:53Z</time>
      </trkpt>
      <trkpt lat="47.82463" lon="7.05658">
        <ele>478.87</ele>
        <time>2021-10-25T15:41:54Z</time>
      </trkpt>
      <trkpt lat="47.82461" lon="7.05656">
        <ele>478.87</ele>
        <time>2021-10-25T15:41:55Z</time>
      </trkpt>
      <trkpt lat="47.82458" lon="7.05654">
        <ele>478.87</ele>
        <time>2021-10-25T15:41:56Z</time>
      </trkpt>
      <trkpt lat="47.82456" lon="7.05653">
        <ele>479.35</ele>
        <time>2021-10-25T15:41:57Z</time>
      </trkpt>
      <trkpt lat="47.82453" lon="7.05652">
        <ele>479.35</ele>
        <time>2021-10-25T15:41:58Z</time>
      </trkpt>
      <trkpt lat="47.82451" lon="7.05651">
        <ele>479.84</ele>
        <time>2021-10-25T15:41:59Z</time>
      </trkpt>
      <trkpt lat="47.82441" lon="7.05648">
        <ele>481.28</ele>
        <time>2021-10-25T15:42:03Z</time>
      </trkpt>
      <trkpt lat="47.82432" lon="7.05635">
        <ele>484.64</ele>
        <time>2021-10-25T15:42:08Z</time>
      </trkpt>
      <trkpt lat="47.82431" lon="7.05632">
        <ele>483.68</ele>
        <time>2021-10-25T15:42:09Z</time>
      </trkpt>
      <trkpt lat="47.82427" lon="7.05623">
        <ele>484.16</ele>
        <time>2021-10-25T15:42:12Z</time>
      </trkpt>
      <trkpt lat="47.82426" lon="7.05621">
        <ele>484.64</ele>
        <time>2021-10-25T15:42:13Z</time>
      </trkpt>
      <trkpt lat="47.82409" lon="7.05595">
        <ele>488.01</ele>
        <time>2021-10-25T15:42:23Z</time>
      </trkpt>
      <trkpt lat="47.82391" lon="7.05582">
        <ele>490.89</ele>
        <time>2021-10-25T15:42:30Z</time>
      </trkpt>
      <trkpt lat="47.82386" lon="7.05581">
        <ele>491.85</ele>
        <time>2021-10-25T15:42:32Z</time>
      </trkpt>
      <trkpt lat="47.82363" lon="7.05578">
        <ele>495.22</ele>
        <time>2021-10-25T15:42:40Z</time>
      </trkpt>
      <trkpt lat="47.82342" lon="7.05554">
        <ele>498.1</ele>
        <time>2021-10-25T15:42:50Z</time>
      </trkpt>
      <trkpt lat="47.82333" lon="7.05538">
        <ele>500.5</ele>
        <time>2021-10-25T15:42:55Z</time>
      </trkpt>
      <trkpt lat="47.82321" lon="7.05505">
        <ele>503.39</ele>
        <time>2021-10-25T15:43:05Z</time>
      </trkpt>
      <trkpt lat="47.82306" lon="7.05467">
        <ele>506.75</ele>
        <time>2021-10-25T15:43:15Z</time>
      </trkpt>
      <trkpt lat="47.823" lon="7.05451">
        <ele>508.67</ele>
        <time>2021-10-25T15:43:20Z</time>
      </trkpt>
      <trkpt lat="47.82288" lon="7.05419">
        <ele>512.04</ele>
        <time>2021-10-25T15:43:29Z</time>
      </trkpt>
      <trkpt lat="47.82276" lon="7.05389">
        <ele>514.92</ele>
        <time>2021-10-25T15:43:38Z</time>
      </trkpt>
      <trkpt lat="47.82262" lon="7.0536">
        <ele>518.29</ele>
        <time>2021-10-25T15:43:46Z</time>
      </trkpt>
      <trkpt lat="47.8225" lon="7.05325">
        <ele>521.65</ele>
        <time>2021-10-25T15:43:56Z</time>
      </trkpt>
      <trkpt lat="47.82234" lon="7.05297">
        <ele>524.54</ele>
        <time>2021-10-25T15:44:05Z</time>
      </trkpt>
      <trkpt lat="47.82222" lon="7.05289">
        <ele>527.9</ele>
        <time>2021-10-25T15:44:10Z</time>
      </trkpt>
      <trkpt lat="47.82219" lon="7.05288">
        <ele>526.94</ele>
        <time>2021-10-25T15:44:11Z</time>
      </trkpt>
      <trkpt lat="47.82195" lon="7.05285">
        <ele>530.3</ele>
        <time>2021-10-25T15:44:20Z</time>
      </trkpt>
      <trkpt lat="47.82167" lon="7.05296">
        <ele>533.67</ele>
        <time>2021-10-25T15:44:31Z</time>
      </trkpt>
      <trkpt lat="47.8215" lon="7.0531">
        <ele>537.03</ele>
        <time>2021-10-25T15:44:38Z</time>
      </trkpt>
      <trkpt lat="47.82147" lon="7.05311">
        <ele>537.03</ele>
        <time>2021-10-25T15:44:39Z</time>
      </trkpt>
      <trkpt lat="47.82123" lon="7.05315">
        <ele>540.4</ele>
        <time>2021-10-25T15:44:48Z</time>
      </trkpt>
      <trkpt lat="47.82117" lon="7.0531">
        <ele>540.88</ele>
        <time>2021-10-25T15:44:51Z</time>
      </trkpt>
      <trkpt lat="47.82115" lon="7.05308">
        <ele>541.36</ele>
        <time>2021-10-25T15:44:52Z</time>
      </trkpt>
      <trkpt lat="47.82108" lon="7.05299">
        <ele>542.8</ele>
        <time>2021-10-25T15:45:02Z</time>
      </trkpt>
      <trkpt lat="47.82105" lon="7.05296">
        <ele>542.8</ele>
        <time>2021-10-25T15:45:18Z</time>
      </trkpt>
      <trkpt lat="47.82101" lon="7.05291">
        <ele>543.28</ele>
        <time>2021-10-25T15:45:32Z</time>
      </trkpt>
      <trkpt lat="47.82102" lon="7.05287">
        <ele>543.28</ele>
        <time>2021-10-25T15:46:10Z</time>
      </trkpt>
      <trkpt lat="47.82103" lon="7.05289">
        <ele>543.28</ele>
        <time>2021-10-25T15:46:47Z</time>
      </trkpt>
      <trkpt lat="47.82103" lon="7.0529">
        <ele>543.28</ele>
        <time>2021-10-25T15:47:22Z</time>
      </trkpt>
      <trkpt lat="47.82103" lon="7.05291">
        <ele>543.76</ele>
        <time>2021-10-25T15:48:00Z</time>
      </trkpt>
      <trkpt lat="47.82103" lon="7.05291">
        <ele>544.24</ele>
        <time>2021-10-25T15:48:34Z</time>
      </trkpt>
      <trkpt lat="47.82102" lon="7.05292">
        <ele>543.76</ele>
        <time>2021-10-25T15:49:12Z</time>
      </trkpt>
      <trkpt lat="47.82103" lon="7.05294">
        <ele>544.24</ele>
        <time>2021-10-25T15:49:45Z</time>
      </trkpt>
      <trkpt lat="47.82103" lon="7.05294">
        <ele>544.24</ele>
        <time>2021-10-25T15:50:22Z</time>
      </trkpt>
      <trkpt lat="47.82104" lon="7.05293">
        <ele>544.24</ele>
        <time>2021-10-25T15:50:58Z</time>
      </trkpt>
      <trkpt lat="47.82103" lon="7.05293">
        <ele>544.72</ele>
        <time>2021-10-25T15:51:21Z</time>
      </trkpt>
      <trkpt lat="47.82104" lon="7.05293">
        <ele>544.72</ele>
        <time>2021-10-25T15:51:55Z</time>
      </trkpt>
      <trkpt lat="47.82103" lon="7.05292">
        <ele>544.72</ele>
        <time>2021-10-25T15:52:10Z</time>
      </trkpt>
      <trkpt lat="47.82102" lon="7.0529">
        <ele>544.72</ele>
        <time>2021-10-25T15:52:12Z</time>
      </trkpt>
      <trkpt lat="47.82101" lon="7.05287">
        <ele>544.72</ele>
        <time>2021-10-25T15:52:13Z</time>
      </trkpt>
      <trkpt lat="47.82099" lon="7.05278">
        <ele>546.17</ele>
        <time>2021-10-25T15:52:16Z</time>
      </trkpt>
      <trkpt lat="47.82095" lon="7.05242">
        <ele>549.53</ele>
        <time>2021-10-25T15:52:27Z</time>
      </trkpt>
      <trkpt lat="47.82093" lon="7.05208">
        <ele>552.41</ele>
        <time>2021-10-25T15:52:37Z</time>
      </trkpt>
      <trkpt lat="47.82087" lon="7.05177">
        <ele>555.78</ele>
        <time>2021-10-25T15:52:46Z</time>
      </trkpt>
      <trkpt lat="47.82082" lon="7.05145">
        <ele>558.66</ele>
        <time>2021-10-25T15:52:55Z</time>
      </trkpt>
      <trkpt lat="47.82075" lon="7.051">
        <ele>562.03</ele>
        <time>2021-10-25T15:53:06Z</time>
      </trkpt>
      <trkpt lat="47.82071" lon="7.05058">
        <ele>565.39</ele>
        <time>2021-10-25T15:53:16Z</time>
      </trkpt>
      <trkpt lat="47.82062" lon="7.0502">
        <ele>568.28</ele>
        <time>2021-10-25T15:53:26Z</time>
      </trkpt>
      <trkpt lat="47.82058" lon="7.04979">
        <ele>571.64</ele>
        <time>2021-10-25T15:53:36Z</time>
      </trkpt>
      <trkpt lat="47.82054" lon="7.04939">
        <ele>575.01</ele>
        <time>2021-10-25T15:53:46Z</time>
      </trkpt>
      <trkpt lat="47.82049" lon="7.04903">
        <ele>577.89</ele>
        <time>2021-10-25T15:53:55Z</time>
      </trkpt>
      <trkpt lat="47.82043" lon="7.0489">
        <ele>579.81</ele>
        <time>2021-10-25T15:53:59Z</time>
      </trkpt>
      <trkpt lat="47.82036" lon="7.04875">
        <ele>582.7</ele>
        <time>2021-10-25T15:54:06Z</time>
      </trkpt>
      <trkpt lat="47.82024" lon="7.04844">
        <ele>587.5</ele>
        <time>2021-10-25T15:54:16Z</time>
      </trkpt>
      <trkpt lat="47.82023" lon="7.04841">
        <ele>586.54</ele>
        <time>2021-10-25T15:54:17Z</time>
      </trkpt>
      <trkpt lat="47.82009" lon="7.04808">
        <ele>589.91</ele>
        <time>2021-10-25T15:54:27Z</time>
      </trkpt>
      <trkpt lat="47.82" lon="7.04769">
        <ele>592.79</ele>
        <time>2021-10-25T15:54:37Z</time>
      </trkpt>
      <trkpt lat="47.81995" lon="7.04739">
        <ele>596.15</ele>
        <time>2021-10-25T15:54:46Z</time>
      </trkpt>
      <trkpt lat="47.81996" lon="7.04711">
        <ele>598.56</ele>
        <time>2021-10-25T15:54:53Z</time>
      </trkpt>
      <trkpt lat="47.81994" lon="7.04666">
        <ele>601.92</ele>
        <time>2021-10-25T15:55:03Z</time>
      </trkpt>
      <trkpt lat="47.81992" lon="7.04641">
        <ele>603.36</ele>
        <time>2021-10-25T15:55:09Z</time>
      </trkpt>
      <trkpt lat="47.81991" lon="7.04637">
        <ele>603.85</ele>
        <time>2021-10-25T15:55:10Z</time>
      </trkpt>
      <trkpt lat="47.81992" lon="7.04609">
        <ele>606.73</ele>
        <time>2021-10-25T15:55:17Z</time>
      </trkpt>
      <trkpt lat="47.82003" lon="7.04578">
        <ele>610.09</ele>
        <time>2021-10-25T15:55:25Z</time>
      </trkpt>
      <trkpt lat="47.82014" lon="7.04543">
        <ele>613.46</ele>
        <time>2021-10-25T15:55:34Z</time>
      </trkpt>
      <trkpt lat="47.82028" lon="7.04516">
        <ele>616.34</ele>
        <time>2021-10-25T15:55:42Z</time>
      </trkpt>
      <trkpt lat="47.82049" lon="7.04494">
        <ele>619.71</ele>
        <time>2021-10-25T15:55:51Z</time>
      </trkpt>
      <trkpt lat="47.82065" lon="7.0447">
        <ele>622.11</ele>
        <time>2021-10-25T15:56:00Z</time>
      </trkpt>
      <trkpt lat="47.82067" lon="7.04466">
        <ele>622.59</ele>
        <time>2021-10-25T15:56:01Z</time>
      </trkpt>
      <trkpt lat="47.82069" lon="7.04463">
        <ele>623.07</ele>
        <time>2021-10-25T15:56:02Z</time>
      </trkpt>
      <trkpt lat="47.8207" lon="7.0446">
        <ele>623.55</ele>
        <time>2021-10-25T15:56:03Z</time>
      </trkpt>
      <trkpt lat="47.82073" lon="7.04456">
        <ele>624.03</ele>
        <time>2021-10-25T15:56:04Z</time>
      </trkpt>
      <trkpt lat="47.82075" lon="7.04453">
        <ele>624.03</ele>
        <time>2021-10-25T15:56:05Z</time>
      </trkpt>
      <trkpt lat="47.82077" lon="7.0445">
        <ele>624.51</ele>
        <time>2021-10-25T15:56:06Z</time>
      </trkpt>
      <trkpt lat="47.82079" lon="7.04447">
        <ele>624.99</ele>
        <time>2021-10-25T15:56:07Z</time>
      </trkpt>
      <trkpt lat="47.82081" lon="7.04444">
        <ele>624.99</ele>
        <time>2021-10-25T15:56:08Z</time>
      </trkpt>
      <trkpt lat="47.82083" lon="7.04441">
        <ele>625.47</ele>
        <time>2021-10-25T15:56:09Z</time>
      </trkpt>
      <trkpt lat="47.82084" lon="7.04437">
        <ele>625.96</ele>
        <time>2021-10-25T15:56:10Z</time>
      </trkpt>
      <trkpt lat="47.82086" lon="7.04434">
        <ele>625.96</ele>
        <time>2021-10-25T15:56:11Z</time>
      </trkpt>
      <trkpt lat="47.82099" lon="7.04414">
        <ele>629.8</ele>
        <time>2021-10-25T15:56:17Z</time>
      </trkpt>
      <trkpt lat="47.82101" lon="7.04412">
        <ele>629.32</ele>
        <time>2021-10-25T15:56:18Z</time>
      </trkpt>
      <trkpt lat="47.82111" lon="7.04404">
        <ele>630.28</ele>
        <time>2021-10-25T15:56:24Z</time>
      </trkpt>
      <trkpt lat="47.82114" lon="7.04402">
        <ele>630.76</ele>
        <time>2021-10-25T15:56:25Z</time>
      </trkpt>
      <trkpt lat="47.82131" lon="7.04376">
        <ele>633.65</ele>
        <time>2021-10-25T15:56:33Z</time>
      </trkpt>
      <trkpt lat="47.8215" lon="7.04347">
        <ele>637.01</ele>
        <time>2021-10-25T15:56:42Z</time>
      </trkpt>
      <trkpt lat="47.82167" lon="7.04319">
        <ele>640.38</ele>
        <time>2021-10-25T15:56:51Z</time>
      </trkpt>
      <trkpt lat="47.82178" lon="7.04277">
        <ele>643.74</ele>
        <time>2021-10-25T15:57:02Z</time>
      </trkpt>
      <trkpt lat="47.82161" lon="7.04261">
        <ele>645.66</ele>
        <time>2021-10-25T15:57:11Z</time>
      </trkpt>
      <trkpt lat="47.82135" lon="7.04263">
        <ele>648.07</ele>
        <time>2021-10-25T15:57:21Z</time>
      </trkpt>
      <trkpt lat="47.82109" lon="7.04258">
        <ele>651.43</ele>
        <time>2021-10-25T15:57:31Z</time>
      </trkpt>
      <trkpt lat="47.8208" lon="7.04256">
        <ele>654.31</ele>
        <time>2021-10-25T15:57:40Z</time>
      </trkpt>
      <trkpt lat="47.82053" lon="7.04259">
        <ele>657.68</ele>
        <time>2021-10-25T15:57:49Z</time>
      </trkpt>
      <trkpt lat="47.82051" lon="7.0426">
        <ele>657.68</ele>
        <time>2021-10-25T15:57:50Z</time>
      </trkpt>
      <trkpt lat="47.8205" lon="7.04262">
        <ele>658.16</ele>
        <time>2021-10-25T15:57:51Z</time>
      </trkpt>
      <trkpt lat="47.82047" lon="7.04262">
        <ele>658.16</ele>
        <time>2021-10-25T15:57:52Z</time>
      </trkpt>
      <trkpt lat="47.82044" lon="7.04262">
        <ele>658.64</ele>
        <time>2021-10-25T15:57:53Z</time>
      </trkpt>
      <trkpt lat="47.82041" lon="7.04262">
        <ele>659.12</ele>
        <time>2021-10-25T15:57:54Z</time>
      </trkpt>
      <trkpt lat="47.82039" lon="7.04261">
        <ele>659.12</ele>
        <time>2021-10-25T15:57:55Z</time>
      </trkpt>
      <trkpt lat="47.82037" lon="7.04262">
        <ele>659.6</ele>
        <time>2021-10-25T15:57:56Z</time>
      </trkpt>
      <trkpt lat="47.82034" lon="7.04262">
        <ele>660.08</ele>
        <time>2021-10-25T15:57:57Z</time>
      </trkpt>
      <trkpt lat="47.82031" lon="7.04261">
        <ele>660.08</ele>
        <time>2021-10-25T15:57:58Z</time>
      </trkpt>
      <trkpt lat="47.81997" lon="7.04252">
        <ele>663.45</ele>
        <time>2021-10-25T15:58:08Z</time>
      </trkpt>
      <trkpt lat="47.81971" lon="7.04252">
        <ele>666.33</ele>
        <time>2021-10-25T15:58:17Z</time>
      </trkpt>
      <trkpt lat="47.81966" lon="7.04251">
        <ele>667.77</ele>
        <time>2021-10-25T15:58:19Z</time>
      </trkpt>
      <trkpt lat="47.81936" lon="7.04258">
        <ele>671.14</ele>
        <time>2021-10-25T15:58:30Z</time>
      </trkpt>
      <trkpt lat="47.81914" lon="7.04253">
        <ele>674.02</ele>
        <time>2021-10-25T15:58:38Z</time>
      </trkpt>
      <trkpt lat="47.8191" lon="7.04248">
        <ele>675.46</ele>
        <time>2021-10-25T15:58:42Z</time>
      </trkpt>
      <trkpt lat="47.81899" lon="7.04238">
        <ele>677.87</ele>
        <time>2021-10-25T15:58:50Z</time>
      </trkpt>
      <trkpt lat="47.81895" lon="7.04238">
        <ele>678.35</ele>
        <time>2021-10-25T15:58:51Z</time>
      </trkpt>
      <trkpt lat="47.81865" lon="7.04241">
        <ele>681.23</ele>
        <time>2021-10-25T15:59:00Z</time>
      </trkpt>
      <trkpt lat="47.81841" lon="7.04259">
        <ele>684.6</ele>
        <time>2021-10-25T15:59:10Z</time>
      </trkpt>
      <trkpt lat="47.81828" lon="7.04309">
        <ele>686.52</ele>
        <time>2021-10-25T15:59:22Z</time>
      </trkpt>
      <trkpt lat="47.81811" lon="7.04363">
        <ele>688.92</ele>
        <time>2021-10-25T15:59:34Z</time>
      </trkpt>
      <trkpt lat="47.81793" lon="7.04384">
        <ele>689.88</ele>
        <time>2021-10-25T15:59:44Z</time>
      </trkpt>
      <trkpt lat="47.81781" lon="7.04398">
        <ele>690.84</ele>
        <time>2021-10-25T15:59:51Z</time>
      </trkpt>
      <trkpt lat="47.81759" lon="7.04426">
        <ele>692.29</ele>
        <time>2021-10-25T16:00:03Z</time>
      </trkpt>
      <trkpt lat="47.81757" lon="7.04429">
        <ele>692.77</ele>
        <time>2021-10-25T16:00:04Z</time>
      </trkpt>
      <trkpt lat="47.81749" lon="7.04439">
        <ele>693.25</ele>
        <time>2021-10-25T16:00:16Z</time>
      </trkpt>
      <trkpt lat="47.8175" lon="7.04439">
        <ele>693.25</ele>
        <time>2021-10-25T16:00:33Z</time>
      </trkpt>
      <trkpt lat="47.81741" lon="7.04457">
        <ele>693.73</ele>
        <time>2021-10-25T16:00:38Z</time>
      </trkpt>
      <trkpt lat="47.81738" lon="7.04462">
        <ele>694.21</ele>
        <time>2021-10-25T16:00:39Z</time>
      </trkpt>
      <trkpt lat="47.81724" lon="7.04483">
        <ele>695.65</ele>
        <time>2021-10-25T16:00:46Z</time>
      </trkpt>
      <trkpt lat="47.81723" lon="7.04484">
        <ele>696.13</ele>
        <time>2021-10-25T16:00:47Z</time>
      </trkpt>
      <trkpt lat="47.81722" lon="7.04484">
        <ele>696.13</ele>
        <time>2021-10-25T16:00:48Z</time>
      </trkpt>
      <trkpt lat="47.81719" lon="7.04485">
        <ele>696.13</ele>
        <time>2021-10-25T16:00:50Z</time>
      </trkpt>
      <trkpt lat="47.81718" lon="7.04485">
        <ele>696.61</ele>
        <time>2021-10-25T16:00:51Z</time>
      </trkpt>
      <trkpt lat="47.81708" lon="7.04479">
        <ele>697.09</ele>
        <time>2021-10-25T16:00:58Z</time>
      </trkpt>
      <trkpt lat="47.81708" lon="7.04477">
        <ele>697.09</ele>
        <time>2021-10-25T16:00:59Z</time>
      </trkpt>
      <trkpt lat="47.81707" lon="7.04474">
        <ele>697.09</ele>
        <time>2021-10-25T16:01:00Z</time>
      </trkpt>
      <trkpt lat="47.81707" lon="7.04472">
        <ele>697.57</ele>
        <time>2021-10-25T16:01:01Z</time>
      </trkpt>
      <trkpt lat="47.81707" lon="7.04469">
        <ele>697.57</ele>
        <time>2021-10-25T16:01:02Z</time>
      </trkpt>
      <trkpt lat="47.81708" lon="7.04416">
        <ele>698.53</ele>
        <time>2021-10-25T16:01:14Z</time>
      </trkpt>
      <trkpt lat="47.81711" lon="7.04354">
        <ele>699.5</ele>
        <time>2021-10-25T16:01:25Z</time>
      </trkpt>
      <trkpt lat="47.81705" lon="7.04321">
        <ele>699.98</ele>
        <time>2021-10-25T16:01:31Z</time>
      </trkpt>
      <trkpt lat="47.81702" lon="7.04317">
        <ele>699.98</ele>
        <time>2021-10-25T16:01:32Z</time>
      </trkpt>
      <trkpt lat="47.81698" lon="7.04314">
        <ele>699.98</ele>
        <time>2021-10-25T16:01:33Z</time>
      </trkpt>
      <trkpt lat="47.81694" lon="7.04311">
        <ele>700.46</ele>
        <time>2021-10-25T16:01:34Z</time>
      </trkpt>
      <trkpt lat="47.8169" lon="7.04309">
        <ele>700.46</ele>
        <time>2021-10-25T16:01:35Z</time>
      </trkpt>
      <trkpt lat="47.81685" lon="7.04308">
        <ele>700.46</ele>
        <time>2021-10-25T16:01:36Z</time>
      </trkpt>
      <trkpt lat="47.81666" lon="7.04301">
        <ele>700.94</ele>
        <time>2021-10-25T16:01:40Z</time>
      </trkpt>
      <trkpt lat="47.81662" lon="7.04298">
        <ele>701.42</ele>
        <time>2021-10-25T16:01:41Z</time>
      </trkpt>
      <trkpt lat="47.81658" lon="7.04295">
        <ele>700.94</ele>
        <time>2021-10-25T16:01:42Z</time>
      </trkpt>
      <trkpt lat="47.81639" lon="7.04284">
        <ele>701.42</ele>
        <time>2021-10-25T16:01:46Z</time>
      </trkpt>
      <trkpt lat="47.81634" lon="7.04281">
        <ele>701.42</ele>
        <time>2021-10-25T16:01:47Z</time>
      </trkpt>
      <trkpt lat="47.8161" lon="7.04252">
        <ele>701.9</ele>
        <time>2021-10-25T16:01:54Z</time>
      </trkpt>
      <trkpt lat="47.81607" lon="7.04249">
        <ele>701.9</ele>
        <time>2021-10-25T16:01:55Z</time>
      </trkpt>
      <trkpt lat="47.81593" lon="7.0423">
        <ele>702.38</ele>
        <time>2021-10-25T16:01:59Z</time>
      </trkpt>
      <trkpt lat="47.81591" lon="7.04225">
        <ele>702.86</ele>
        <time>2021-10-25T16:02:00Z</time>
      </trkpt>
      <trkpt lat="47.81588" lon="7.04219">
        <ele>702.86</ele>
        <time>2021-10-25T16:02:01Z</time>
      </trkpt>
      <trkpt lat="47.81581" lon="7.04204">
        <ele>703.82</ele>
        <time>2021-10-25T16:02:04Z</time>
      </trkpt>
      <trkpt lat="47.81578" lon="7.04198">
        <ele>703.82</ele>
        <time>2021-10-25T16:02:05Z</time>
      </trkpt>
      <trkpt lat="47.81558" lon="7.04145">
        <ele>707.19</ele>
        <time>2021-10-25T16:02:15Z</time>
      </trkpt>
      <trkpt lat="47.81553" lon="7.04109">
        <ele>710.55</ele>
        <time>2021-10-25T16:02:21Z</time>
      </trkpt>
      <trkpt lat="47.81551" lon="7.04103">
        <ele>709.59</ele>
        <time>2021-10-25T16:02:22Z</time>
      </trkpt>
      <trkpt lat="47.81547" lon="7.04093">
        <ele>709.59</ele>
        <time>2021-10-25T16:02:24Z</time>
      </trkpt>
      <trkpt lat="47.81543" lon="7.0409">
        <ele>709.59</ele>
        <time>2021-10-25T16:02:25Z</time>
      </trkpt>
      <trkpt lat="47.81539" lon="7.04088">
        <ele>709.59</ele>
        <time>2021-10-25T16:02:26Z</time>
      </trkpt>
      <trkpt lat="47.81531" lon="7.04088">
        <ele>710.07</ele>
        <time>2021-10-25T16:02:28Z</time>
      </trkpt>
      <trkpt lat="47.81523" lon="7.04091">
        <ele>710.07</ele>
        <time>2021-10-25T16:02:30Z</time>
      </trkpt>
      <trkpt lat="47.81518" lon="7.04091">
        <ele>710.07</ele>
        <time>2021-10-25T16:02:31Z</time>
      </trkpt>
      <trkpt lat="47.81513" lon="7.04091">
        <ele>710.07</ele>
        <time>2021-10-25T16:02:32Z</time>
      </trkpt>
      <trkpt lat="47.81476" lon="7.04091">
        <ele>710.07</ele>
        <time>2021-10-25T16:02:40Z</time>
      </trkpt>
      <trkpt lat="47.81472" lon="7.0409">
        <ele>710.07</ele>
        <time>2021-10-25T16:02:41Z</time>
      </trkpt>
      <trkpt lat="47.81467" lon="7.04088">
        <ele>710.55</ele>
        <time>2021-10-25T16:02:42Z</time>
      </trkpt>
      <trkpt lat="47.81461" lon="7.04085">
        <ele>710.07</ele>
        <time>2021-10-25T16:02:43Z</time>
      </trkpt>
      <trkpt lat="47.81456" lon="7.04083">
        <ele>710.55</ele>
        <time>2021-10-25T16:02:44Z</time>
      </trkpt>
      <trkpt lat="47.81451" lon="7.0408">
        <ele>710.55</ele>
        <time>2021-10-25T16:02:45Z</time>
      </trkpt>
      <trkpt lat="47.81442" lon="7.04072">
        <ele>710.55</ele>
        <time>2021-10-25T16:02:47Z</time>
      </trkpt>
      <trkpt lat="47.81438" lon="7.04068">
        <ele>710.55</ele>
        <time>2021-10-25T16:02:48Z</time>
      </trkpt>
      <trkpt lat="47.8143" lon="7.04058">
        <ele>711.03</ele>
        <time>2021-10-25T16:02:50Z</time>
      </trkpt>
      <trkpt lat="47.81426" lon="7.04054">
        <ele>711.03</ele>
        <time>2021-10-25T16:02:51Z</time>
      </trkpt>
      <trkpt lat="47.81423" lon="7.04049">
        <ele>711.03</ele>
        <time>2021-10-25T16:02:52Z</time>
      </trkpt>
      <trkpt lat="47.8142" lon="7.04044">
        <ele>711.51</ele>
        <time>2021-10-25T16:02:53Z</time>
      </trkpt>
      <trkpt lat="47.81417" lon="7.04038">
        <ele>711.99</ele>
        <time>2021-10-25T16:02:54Z</time>
      </trkpt>
      <trkpt lat="47.81409" lon="7.04021">
        <ele>711.99</ele>
        <time>2021-10-25T16:02:57Z</time>
      </trkpt>
      <trkpt lat="47.81406" lon="7.04015">
        <ele>712.47</ele>
        <time>2021-10-25T16:02:58Z</time>
      </trkpt>
      <trkpt lat="47.81377" lon="7.03953">
        <ele>714.88</ele>
        <time>2021-10-25T16:03:10Z</time>
      </trkpt>
      <trkpt lat="47.81351" lon="7.0391">
        <ele>717.28</ele>
        <time>2021-10-25T16:03:18Z</time>
      </trkpt>
      <trkpt lat="47.81323" lon="7.03868">
        <ele>719.2</ele>
        <time>2021-10-25T16:03:26Z</time>
      </trkpt>
      <trkpt lat="47.8132" lon="7.03863">
        <ele>719.2</ele>
        <time>2021-10-25T16:03:27Z</time>
      </trkpt>
      <trkpt lat="47.81316" lon="7.03858">
        <ele>719.68</ele>
        <time>2021-10-25T16:03:28Z</time>
      </trkpt>
      <trkpt lat="47.8129" lon="7.03827">
        <ele>720.65</ele>
        <time>2021-10-25T16:03:35Z</time>
      </trkpt>
      <trkpt lat="47.81286" lon="7.03822">
        <ele>720.65</ele>
        <time>2021-10-25T16:03:36Z</time>
      </trkpt>
      <trkpt lat="47.81282" lon="7.03818">
        <ele>721.13</ele>
        <time>2021-10-25T16:03:37Z</time>
      </trkpt>
      <trkpt lat="47.81278" lon="7.03813">
        <ele>721.13</ele>
        <time>2021-10-25T16:03:38Z</time>
      </trkpt>
      <trkpt lat="47.81275" lon="7.03809">
        <ele>721.13</ele>
        <time>2021-10-25T16:03:39Z</time>
      </trkpt>
      <trkpt lat="47.81272" lon="7.03805">
        <ele>721.13</ele>
        <time>2021-10-25T16:03:40Z</time>
      </trkpt>
      <trkpt lat="47.81249" lon="7.0378">
        <ele>722.09</ele>
        <time>2021-10-25T16:03:46Z</time>
      </trkpt>
      <trkpt lat="47.81244" lon="7.03777">
        <ele>722.09</ele>
        <time>2021-10-25T16:03:47Z</time>
      </trkpt>
      <trkpt lat="47.8124" lon="7.03776">
        <ele>722.57</ele>
        <time>2021-10-25T16:03:48Z</time>
      </trkpt>
      <trkpt lat="47.81236" lon="7.03776">
        <ele>722.57</ele>
        <time>2021-10-25T16:03:49Z</time>
      </trkpt>
      <trkpt lat="47.81232" lon="7.03778">
        <ele>722.57</ele>
        <time>2021-10-25T16:03:50Z</time>
      </trkpt>
      <trkpt lat="47.81229" lon="7.03781">
        <ele>723.05</ele>
        <time>2021-10-25T16:03:51Z</time>
      </trkpt>
      <trkpt lat="47.81225" lon="7.03785">
        <ele>723.05</ele>
        <time>2021-10-25T16:03:52Z</time>
      </trkpt>
      <trkpt lat="47.81222" lon="7.03789">
        <ele>723.05</ele>
        <time>2021-10-25T16:03:53Z</time>
      </trkpt>
      <trkpt lat="47.81218" lon="7.03793">
        <ele>723.05</ele>
        <time>2021-10-25T16:03:54Z</time>
      </trkpt>
      <trkpt lat="47.81215" lon="7.03798">
        <ele>723.05</ele>
        <time>2021-10-25T16:03:55Z</time>
      </trkpt>
      <trkpt lat="47.81212" lon="7.03802">
        <ele>723.05</ele>
        <time>2021-10-25T16:03:56Z</time>
      </trkpt>
      <trkpt lat="47.81209" lon="7.03806">
        <ele>723.53</ele>
        <time>2021-10-25T16:03:57Z</time>
      </trkpt>
      <trkpt lat="47.81206" lon="7.03811">
        <ele>723.05</ele>
        <time>2021-10-25T16:03:58Z</time>
      </trkpt>
      <trkpt lat="47.81202" lon="7.03816">
        <ele>723.05</ele>
        <time>2021-10-25T16:03:59Z</time>
      </trkpt>
      <trkpt lat="47.81198" lon="7.03822">
        <ele>723.05</ele>
        <time>2021-10-25T16:04:00Z</time>
      </trkpt>
      <trkpt lat="47.81185" lon="7.03845">
        <ele>723.53</ele>
        <time>2021-10-25T16:04:04Z</time>
      </trkpt>
      <trkpt lat="47.81167" lon="7.03881">
        <ele>724.01</ele>
        <time>2021-10-25T16:04:10Z</time>
      </trkpt>
      <trkpt lat="47.81165" lon="7.03887">
        <ele>724.01</ele>
        <time>2021-10-25T16:04:11Z</time>
      </trkpt>
      <trkpt lat="47.81149" lon="7.03911">
        <ele>724.01</ele>
        <time>2021-10-25T16:04:20Z</time>
      </trkpt>
      <trkpt lat="47.81146" lon="7.03914">
        <ele>724.49</ele>
        <time>2021-10-25T16:04:39Z</time>
      </trkpt>
      <trkpt lat="47.81146" lon="7.03916">
        <ele>724.49</ele>
        <time>2021-10-25T16:04:48Z</time>
      </trkpt>
      <trkpt lat="47.81144" lon="7.03917">
        <ele>724.01</ele>
        <time>2021-10-25T16:04:49Z</time>
      </trkpt>
      <trkpt lat="47.81141" lon="7.03919">
        <ele>724.49</ele>
        <time>2021-10-25T16:04:50Z</time>
      </trkpt>
      <trkpt lat="47.81139" lon="7.03923">
        <ele>724.49</ele>
        <time>2021-10-25T16:04:51Z</time>
      </trkpt>
      <trkpt lat="47.81136" lon="7.03927">
        <ele>724.49</ele>
        <time>2021-10-25T16:04:52Z</time>
      </trkpt>
      <trkpt lat="47.81125" lon="7.03947">
        <ele>724.97</ele>
        <time>2021-10-25T16:05:02Z</time>
      </trkpt>
      <trkpt lat="47.81124" lon="7.03952">
        <ele>724.97</ele>
        <time>2021-10-25T16:05:30Z</time>
      </trkpt>
      <trkpt lat="47.81122" lon="7.03956">
        <ele>724.97</ele>
        <time>2021-10-25T16:05:54Z</time>
      </trkpt>
      <trkpt lat="47.81122" lon="7.03958">
        <ele>724.97</ele>
        <time>2021-10-25T16:05:55Z</time>
      </trkpt>
      <trkpt lat="47.8112" lon="7.03961">
        <ele>724.97</ele>
        <time>2021-10-25T16:05:56Z</time>
      </trkpt>
      <trkpt lat="47.81119" lon="7.03964">
        <ele>724.97</ele>
        <time>2021-10-25T16:05:57Z</time>
      </trkpt>
      <trkpt lat="47.81117" lon="7.03968">
        <ele>724.97</ele>
        <time>2021-10-25T16:05:58Z</time>
      </trkpt>
      <trkpt lat="47.81116" lon="7.03971">
        <ele>725.45</ele>
        <time>2021-10-25T16:05:59Z</time>
      </trkpt>
      <trkpt lat="47.81114" lon="7.03974">
        <ele>725.45</ele>
        <time>2021-10-25T16:06:00Z</time>
      </trkpt>
      <trkpt lat="47.81113" lon="7.03977">
        <ele>725.45</ele>
        <time>2021-10-25T16:06:01Z</time>
      </trkpt>
      <trkpt lat="47.81112" lon="7.0398">
        <ele>725.45</ele>
        <time>2021-10-25T16:06:02Z</time>
      </trkpt>
      <trkpt lat="47.81111" lon="7.03982">
        <ele>725.45</ele>
        <time>2021-10-25T16:06:03Z</time>
      </trkpt>
      <trkpt lat="47.8111" lon="7.03984">
        <ele>725.45</ele>
        <time>2021-10-25T16:06:04Z</time>
      </trkpt>
      <trkpt lat="47.81109" lon="7.03986">
        <ele>725.45</ele>
        <time>2021-10-25T16:06:05Z</time>
      </trkpt>
      <trkpt lat="47.81108" lon="7.03988">
        <ele>725.45</ele>
        <time>2021-10-25T16:06:06Z</time>
      </trkpt>
      <trkpt lat="47.81107" lon="7.03989">
        <ele>725.45</ele>
        <time>2021-10-25T16:06:07Z</time>
      </trkpt>
      <trkpt lat="47.81106" lon="7.0399">
        <ele>725.45</ele>
        <time>2021-10-25T16:06:08Z</time>
      </trkpt>
      <trkpt lat="47.81092" lon="7.04014">
        <ele>725.93</ele>
        <time>2021-10-25T16:06:20Z</time>
      </trkpt>
      <trkpt lat="47.8109" lon="7.04018">
        <ele>725.45</ele>
        <time>2021-10-25T16:06:36Z</time>
      </trkpt>
      <trkpt lat="47.81094" lon="7.0402">
        <ele>725.45</ele>
        <time>2021-10-25T16:07:06Z</time>
      </trkpt>
      <trkpt lat="47.81091" lon="7.04022">
        <ele>725.45</ele>
        <time>2021-10-25T16:07:33Z</time>
      </trkpt>
      <trkpt lat="47.81086" lon="7.04027">
        <ele>725.45</ele>
        <time>2021-10-25T16:07:37Z</time>
      </trkpt>
      <trkpt lat="47.81083" lon="7.04029">
        <ele>725.45</ele>
        <time>2021-10-25T16:07:38Z</time>
      </trkpt>
      <trkpt lat="47.8108" lon="7.04031">
        <ele>725.45</ele>
        <time>2021-10-25T16:07:39Z</time>
      </trkpt>
      <trkpt lat="47.81076" lon="7.04031">
        <ele>725.93</ele>
        <time>2021-10-25T16:07:40Z</time>
      </trkpt>
      <trkpt lat="47.81071" lon="7.04031">
        <ele>725.93</ele>
        <time>2021-10-25T16:07:41Z</time>
      </trkpt>
      <trkpt lat="47.81066" lon="7.04029">
        <ele>725.93</ele>
        <time>2021-10-25T16:07:42Z</time>
      </trkpt>
      <trkpt lat="47.8106" lon="7.04026">
        <ele>725.93</ele>
        <time>2021-10-25T16:07:43Z</time>
      </trkpt>
      <trkpt lat="47.81056" lon="7.04022">
        <ele>725.93</ele>
        <time>2021-10-25T16:07:44Z</time>
      </trkpt>
      <trkpt lat="47.81052" lon="7.0402">
        <ele>725.93</ele>
        <time>2021-10-25T16:07:45Z</time>
      </trkpt>
      <trkpt lat="47.81047" lon="7.04017">
        <ele>725.93</ele>
        <time>2021-10-25T16:07:46Z</time>
      </trkpt>
      <trkpt lat="47.81042" lon="7.04015">
        <ele>725.93</ele>
        <time>2021-10-25T16:07:47Z</time>
      </trkpt>
      <trkpt lat="47.81013" lon="7.04009">
        <ele>726.41</ele>
        <time>2021-10-25T16:07:52Z</time>
      </trkpt>
      <trkpt lat="47.81008" lon="7.04009">
        <ele>726.41</ele>
        <time>2021-10-25T16:07:53Z</time>
      </trkpt>
      <trkpt lat="47.81004" lon="7.0401">
        <ele>726.41</ele>
        <time>2021-10-25T16:07:54Z</time>
      </trkpt>
      <trkpt lat="47.80977" lon="7.04012">
        <ele>726.89</ele>
        <time>2021-10-25T16:07:59Z</time>
      </trkpt>
      <trkpt lat="47.80972" lon="7.04012">
        <ele>726.89</ele>
        <time>2021-10-25T16:08:00Z</time>
      </trkpt>
      <trkpt lat="47.80966" lon="7.04012">
        <ele>726.89</ele>
        <time>2021-10-25T16:08:01Z</time>
      </trkpt>
      <trkpt lat="47.80956" lon="7.04014">
        <ele>727.37</ele>
        <time>2021-10-25T16:08:03Z</time>
      </trkpt>
      <trkpt lat="47.80951" lon="7.04018">
        <ele>727.37</ele>
        <time>2021-10-25T16:08:04Z</time>
      </trkpt>
      <trkpt lat="47.80947" lon="7.04024">
        <ele>727.37</ele>
        <time>2021-10-25T16:08:05Z</time>
      </trkpt>
      <trkpt lat="47.80943" lon="7.0403">
        <ele>727.37</ele>
        <time>2021-10-25T16:08:06Z</time>
      </trkpt>
      <trkpt lat="47.80938" lon="7.04037">
        <ele>727.86</ele>
        <time>2021-10-25T16:08:07Z</time>
      </trkpt>
      <trkpt lat="47.80931" lon="7.04051">
        <ele>727.86</ele>
        <time>2021-10-25T16:08:09Z</time>
      </trkpt>
      <trkpt lat="47.80923" lon="7.04073">
        <ele>728.34</ele>
        <time>2021-10-25T16:08:12Z</time>
      </trkpt>
      <trkpt lat="47.8092" lon="7.0408">
        <ele>728.82</ele>
        <time>2021-10-25T16:08:13Z</time>
      </trkpt>
      <trkpt lat="47.80918" lon="7.04087">
        <ele>729.3</ele>
        <time>2021-10-25T16:08:14Z</time>
      </trkpt>
      <trkpt lat="47.80916" lon="7.04095">
        <ele>729.3</ele>
        <time>2021-10-25T16:08:15Z</time>
      </trkpt>
      <trkpt lat="47.80915" lon="7.04102">
        <ele>729.3</ele>
        <time>2021-10-25T16:08:16Z</time>
      </trkpt>
      <trkpt lat="47.80913" lon="7.0411">
        <ele>729.78</ele>
        <time>2021-10-25T16:08:17Z</time>
      </trkpt>
      <trkpt lat="47.80909" lon="7.04123">
        <ele>730.26</ele>
        <time>2021-10-25T16:08:19Z</time>
      </trkpt>
      <trkpt lat="47.80903" lon="7.04136">
        <ele>731.22</ele>
        <time>2021-10-25T16:08:27Z</time>
      </trkpt>
      <trkpt lat="47.80904" lon="7.04139">
        <ele>731.22</ele>
        <time>2021-10-25T16:08:56Z</time>
      </trkpt>
      <trkpt lat="47.80903" lon="7.04138">
        <ele>731.22</ele>
        <time>2021-10-25T16:09:30Z</time>
      </trkpt>
      <trkpt lat="47.809" lon="7.04139">
        <ele>731.22</ele>
        <time>2021-10-25T16:09:59Z</time>
      </trkpt>
      <trkpt lat="47.80878" lon="7.04149">
        <ele>732.66</ele>
        <time>2021-10-25T16:10:05Z</time>
      </trkpt>
      <trkpt lat="47.80874" lon="7.0415">
        <ele>733.14</ele>
        <time>2021-10-25T16:10:06Z</time>
      </trkpt>
      <trkpt lat="47.8087" lon="7.0415">
        <ele>733.14</ele>
        <time>2021-10-25T16:10:07Z</time>
      </trkpt>
      <trkpt lat="47.80829" lon="7.04152">
        <ele>736.03</ele>
        <time>2021-10-25T16:10:18Z</time>
      </trkpt>
      <trkpt lat="47.80806" lon="7.04167">
        <ele>740.35</ele>
        <time>2021-10-25T16:10:25Z</time>
      </trkpt>
      <trkpt lat="47.80803" lon="7.0417">
        <ele>739.39</ele>
        <time>2021-10-25T16:10:26Z</time>
      </trkpt>
      <trkpt lat="47.80774" lon="7.04201">
        <ele>742.28</ele>
        <time>2021-10-25T16:10:36Z</time>
      </trkpt>
      <trkpt lat="47.80747" lon="7.04222">
        <ele>745.64</ele>
        <time>2021-10-25T16:10:45Z</time>
      </trkpt>
      <trkpt lat="47.80711" lon="7.04246">
        <ele>748.52</ele>
        <time>2021-10-25T16:10:57Z</time>
      </trkpt>
      <trkpt lat="47.80653" lon="7.04258">
        <ele>751.41</ele>
        <time>2021-10-25T16:11:10Z</time>
      </trkpt>
      <trkpt lat="47.80628" lon="7.04238">
        <ele>751.41</ele>
        <time>2021-10-25T16:11:18Z</time>
      </trkpt>
      <trkpt lat="47.80617" lon="7.04224">
        <ele>750.45</ele>
        <time>2021-10-25T16:11:21Z</time>
      </trkpt>
      <trkpt lat="47.80586" lon="7.04166">
        <ele>747.08</ele>
        <time>2021-10-25T16:11:29Z</time>
      </trkpt>
      <trkpt lat="47.80561" lon="7.04106">
        <ele>743.72</ele>
        <time>2021-10-25T16:11:35Z</time>
      </trkpt>
      <trkpt lat="47.80543" lon="7.04059">
        <ele>740.35</ele>
        <time>2021-10-25T16:11:39Z</time>
      </trkpt>
      <trkpt lat="47.80522" lon="7.04011">
        <ele>737.47</ele>
        <time>2021-10-25T16:11:43Z</time>
      </trkpt>
      <trkpt lat="47.80488" lon="7.03957">
        <ele>734.1</ele>
        <time>2021-10-25T16:11:48Z</time>
      </trkpt>
      <trkpt lat="47.80459" lon="7.03912">
        <ele>731.22</ele>
        <time>2021-10-25T16:11:52Z</time>
      </trkpt>
      <trkpt lat="47.80434" lon="7.03859">
        <ele>727.86</ele>
        <time>2021-10-25T16:11:56Z</time>
      </trkpt>
      <trkpt lat="47.80421" lon="7.03815">
        <ele>725.45</ele>
        <time>2021-10-25T16:11:59Z</time>
      </trkpt>
      <trkpt lat="47.8042" lon="7.03799">
        <ele>724.49</ele>
        <time>2021-10-25T16:12:00Z</time>
      </trkpt>
      <trkpt lat="47.80419" lon="7.03782">
        <ele>723.53</ele>
        <time>2021-10-25T16:12:01Z</time>
      </trkpt>
      <trkpt lat="47.80421" lon="7.03735">
        <ele>720.65</ele>
        <time>2021-10-25T16:12:04Z</time>
      </trkpt>
      <trkpt lat="47.80423" lon="7.03719">
        <ele>719.68</ele>
        <time>2021-10-25T16:12:05Z</time>
      </trkpt>
      <trkpt lat="47.80426" lon="7.03705">
        <ele>719.2</ele>
        <time>2021-10-25T16:12:06Z</time>
      </trkpt>
      <trkpt lat="47.8043" lon="7.03692">
        <ele>718.24</ele>
        <time>2021-10-25T16:12:07Z</time>
      </trkpt>
      <trkpt lat="47.80435" lon="7.03681">
        <ele>717.76</ele>
        <time>2021-10-25T16:12:08Z</time>
      </trkpt>
      <trkpt lat="47.80442" lon="7.03673">
        <ele>717.28</ele>
        <time>2021-10-25T16:12:09Z</time>
      </trkpt>
      <trkpt lat="47.80451" lon="7.03669">
        <ele>716.8</ele>
        <time>2021-10-25T16:12:10Z</time>
      </trkpt>
      <trkpt lat="47.8046" lon="7.03667">
        <ele>716.8</ele>
        <time>2021-10-25T16:12:11Z</time>
      </trkpt>
      <trkpt lat="47.80467" lon="7.03664">
        <ele>716.32</ele>
        <time>2021-10-25T16:12:12Z</time>
      </trkpt>
      <trkpt lat="47.80473" lon="7.03657">
        <ele>716.32</ele>
        <time>2021-10-25T16:12:13Z</time>
      </trkpt>
      <trkpt lat="47.80478" lon="7.03648">
        <ele>715.84</ele>
        <time>2021-10-25T16:12:14Z</time>
      </trkpt>
      <trkpt lat="47.80483" lon="7.03638">
        <ele>715.36</ele>
        <time>2021-10-25T16:12:15Z</time>
      </trkpt>
      <trkpt lat="47.80488" lon="7.03628">
        <ele>714.88</ele>
        <time>2021-10-25T16:12:16Z</time>
      </trkpt>
      <trkpt lat="47.80492" lon="7.03617">
        <ele>714.4</ele>
        <time>2021-10-25T16:12:17Z</time>
      </trkpt>
      <trkpt lat="47.80495" lon="7.03606">
        <ele>713.44</ele>
        <time>2021-10-25T16:12:18Z</time>
      </trkpt>
      <trkpt lat="47.80497" lon="7.03593">
        <ele>712.95</ele>
        <time>2021-10-25T16:12:19Z</time>
      </trkpt>
      <trkpt lat="47.805" lon="7.03567">
        <ele>711.99</ele>
        <time>2021-10-25T16:12:21Z</time>
      </trkpt>
      <trkpt lat="47.80502" lon="7.03555">
        <ele>711.51</ele>
        <time>2021-10-25T16:12:22Z</time>
      </trkpt>
      <trkpt lat="47.80501" lon="7.03545">
        <ele>711.03</ele>
        <time>2021-10-25T16:12:23Z</time>
      </trkpt>
      <trkpt lat="47.80497" lon="7.03536">
        <ele>710.55</ele>
        <time>2021-10-25T16:12:24Z</time>
      </trkpt>
      <trkpt lat="47.80489" lon="7.03531">
        <ele>710.07</ele>
        <time>2021-10-25T16:12:26Z</time>
      </trkpt>
      <trkpt lat="47.80487" lon="7.03535">
        <ele>709.59</ele>
        <time>2021-10-25T16:12:27Z</time>
      </trkpt>
      <trkpt lat="47.80486" lon="7.03544">
        <ele>709.11</ele>
        <time>2021-10-25T16:12:28Z</time>
      </trkpt>
      <trkpt lat="47.80486" lon="7.03555">
        <ele>708.63</ele>
        <time>2021-10-25T16:12:29Z</time>
      </trkpt>
      <trkpt lat="47.80485" lon="7.03576">
        <ele>707.67</ele>
        <time>2021-10-25T16:12:31Z</time>
      </trkpt>
      <trkpt lat="47.80484" lon="7.03587">
        <ele>707.19</ele>
        <time>2021-10-25T16:12:32Z</time>
      </trkpt>
      <trkpt lat="47.80481" lon="7.03597">
        <ele>706.71</ele>
        <time>2021-10-25T16:12:33Z</time>
      </trkpt>
      <trkpt lat="47.80477" lon="7.03607">
        <ele>706.23</ele>
        <time>2021-10-25T16:12:34Z</time>
      </trkpt>
      <trkpt lat="47.80472" lon="7.03615">
        <ele>706.23</ele>
        <time>2021-10-25T16:12:35Z</time>
      </trkpt>
      <trkpt lat="47.80467" lon="7.03623">
        <ele>705.75</ele>
        <time>2021-10-25T16:12:36Z</time>
      </trkpt>
      <trkpt lat="47.80461" lon="7.0363">
        <ele>705.26</ele>
        <time>2021-10-25T16:12:37Z</time>
      </trkpt>
      <trkpt lat="47.80455" lon="7.03634">
        <ele>705.26</ele>
        <time>2021-10-25T16:12:38Z</time>
      </trkpt>
      <trkpt lat="47.80449" lon="7.03637">
        <ele>705.26</ele>
        <time>2021-10-25T16:12:39Z</time>
      </trkpt>
      <trkpt lat="47.80431" lon="7.03641">
        <ele>704.78</ele>
        <time>2021-10-25T16:12:42Z</time>
      </trkpt>
      <trkpt lat="47.80407" lon="7.03655">
        <ele>704.3</ele>
        <time>2021-10-25T16:12:46Z</time>
      </trkpt>
      <trkpt lat="47.80402" lon="7.03662">
        <ele>703.82</ele>
        <time>2021-10-25T16:12:47Z</time>
      </trkpt>
      <trkpt lat="47.80397" lon="7.0367">
        <ele>703.82</ele>
        <time>2021-10-25T16:12:48Z</time>
      </trkpt>
      <trkpt lat="47.80393" lon="7.03678">
        <ele>703.34</ele>
        <time>2021-10-25T16:12:49Z</time>
      </trkpt>
      <trkpt lat="47.8039" lon="7.03687">
        <ele>702.86</ele>
        <time>2021-10-25T16:12:50Z</time>
      </trkpt>
      <trkpt lat="47.80377" lon="7.0373">
        <ele>699.98</ele>
        <time>2021-10-25T16:12:54Z</time>
      </trkpt>
      <trkpt lat="47.80361" lon="7.03793">
        <ele>697.09</ele>
        <time>2021-10-25T16:12:59Z</time>
      </trkpt>
      <trkpt lat="47.80359" lon="7.03808">
        <ele>696.13</ele>
        <time>2021-10-25T16:13:00Z</time>
      </trkpt>
      <trkpt lat="47.8036" lon="7.03824">
        <ele>695.65</ele>
        <time>2021-10-25T16:13:01Z</time>
      </trkpt>
      <trkpt lat="47.80375" lon="7.03887">
        <ele>692.77</ele>
        <time>2021-10-25T16:13:05Z</time>
      </trkpt>
      <trkpt lat="47.80393" lon="7.03943">
        <ele>689.88</ele>
        <time>2021-10-25T16:13:09Z</time>
      </trkpt>
      <trkpt lat="47.80405" lon="7.04">
        <ele>688.44</ele>
        <time>2021-10-25T16:13:13Z</time>
      </trkpt>
      <trkpt lat="47.80411" lon="7.04027">
        <ele>687.48</ele>
        <time>2021-10-25T16:13:15Z</time>
      </trkpt>
      <trkpt lat="47.80415" lon="7.04038">
        <ele>687</ele>
        <time>2021-10-25T16:13:16Z</time>
      </trkpt>
      <trkpt lat="47.80419" lon="7.04048">
        <ele>686.52</ele>
        <time>2021-10-25T16:13:17Z</time>
      </trkpt>
      <trkpt lat="47.80421" lon="7.04058">
        <ele>686.52</ele>
        <time>2021-10-25T16:13:18Z</time>
      </trkpt>
      <trkpt lat="47.80421" lon="7.04067">
        <ele>686.04</ele>
        <time>2021-10-25T16:13:19Z</time>
      </trkpt>
      <trkpt lat="47.8042" lon="7.04073">
        <ele>685.56</ele>
        <time>2021-10-25T16:13:20Z</time>
      </trkpt>
      <trkpt lat="47.80418" lon="7.04074">
        <ele>685.08</ele>
        <time>2021-10-25T16:13:21Z</time>
      </trkpt>
      <trkpt lat="47.80415" lon="7.04069">
        <ele>685.08</ele>
        <time>2021-10-25T16:13:22Z</time>
      </trkpt>
      <trkpt lat="47.80411" lon="7.04061">
        <ele>685.08</ele>
        <time>2021-10-25T16:13:23Z</time>
      </trkpt>
      <trkpt lat="47.80408" lon="7.04051">
        <ele>684.6</ele>
        <time>2021-10-25T16:13:24Z</time>
      </trkpt>
      <trkpt lat="47.80384" lon="7.03983">
        <ele>680.75</ele>
        <time>2021-10-25T16:13:31Z</time>
      </trkpt>
      <trkpt lat="47.80358" lon="7.03917">
        <ele>677.39</ele>
        <time>2021-10-25T16:13:37Z</time>
      </trkpt>
      <trkpt lat="47.80342" lon="7.03869">
        <ele>674.5</ele>
        <time>2021-10-25T16:13:41Z</time>
      </trkpt>
      <trkpt lat="47.80326" lon="7.03832">
        <ele>672.1</ele>
        <time>2021-10-25T16:13:44Z</time>
      </trkpt>
      <trkpt lat="47.80319" lon="7.03821">
        <ele>671.14</ele>
        <time>2021-10-25T16:13:45Z</time>
      </trkpt>
      <trkpt lat="47.80311" lon="7.03811">
        <ele>670.18</ele>
        <time>2021-10-25T16:13:46Z</time>
      </trkpt>
      <trkpt lat="47.80304" lon="7.03802">
        <ele>669.7</ele>
        <time>2021-10-25T16:13:47Z</time>
      </trkpt>
      <trkpt lat="47.80295" lon="7.03795">
        <ele>668.73</ele>
        <time>2021-10-25T16:13:48Z</time>
      </trkpt>
      <trkpt lat="47.80285" lon="7.03792">
        <ele>667.77</ele>
        <time>2021-10-25T16:13:49Z</time>
      </trkpt>
      <trkpt lat="47.80275" lon="7.03791">
        <ele>666.81</ele>
        <time>2021-10-25T16:13:50Z</time>
      </trkpt>
      <trkpt lat="47.80264" lon="7.03793">
        <ele>665.85</ele>
        <time>2021-10-25T16:13:51Z</time>
      </trkpt>
      <trkpt lat="47.80253" lon="7.03797">
        <ele>664.89</ele>
        <time>2021-10-25T16:13:52Z</time>
      </trkpt>
      <trkpt lat="47.80242" lon="7.03797">
        <ele>664.41</ele>
        <time>2021-10-25T16:13:53Z</time>
      </trkpt>
      <trkpt lat="47.80232" lon="7.03793">
        <ele>663.45</ele>
        <time>2021-10-25T16:13:54Z</time>
      </trkpt>
      <trkpt lat="47.80222" lon="7.03787">
        <ele>662.49</ele>
        <time>2021-10-25T16:13:55Z</time>
      </trkpt>
      <trkpt lat="47.80212" lon="7.0378">
        <ele>661.52</ele>
        <time>2021-10-25T16:13:56Z</time>
      </trkpt>
      <trkpt lat="47.80203" lon="7.03772">
        <ele>661.04</ele>
        <time>2021-10-25T16:13:57Z</time>
      </trkpt>
      <trkpt lat="47.80195" lon="7.03762">
        <ele>660.08</ele>
        <time>2021-10-25T16:13:58Z</time>
      </trkpt>
      <trkpt lat="47.80187" lon="7.03751">
        <ele>659.12</ele>
        <time>2021-10-25T16:13:59Z</time>
      </trkpt>
      <trkpt lat="47.80179" lon="7.03739">
        <ele>658.16</ele>
        <time>2021-10-25T16:14:00Z</time>
      </trkpt>
      <trkpt lat="47.80156" lon="7.03703">
        <ele>655.28</ele>
        <time>2021-10-25T16:14:03Z</time>
      </trkpt>
      <trkpt lat="47.80125" lon="7.03657">
        <ele>651.91</ele>
        <time>2021-10-25T16:14:07Z</time>
      </trkpt>
      <trkpt lat="47.80113" lon="7.03639">
        <ele>650.47</ele>
        <time>2021-10-25T16:14:09Z</time>
      </trkpt>
      <trkpt lat="47.80111" lon="7.03629">
        <ele>649.51</ele>
        <time>2021-10-25T16:14:10Z</time>
      </trkpt>
      <trkpt lat="47.80111" lon="7.03619">
        <ele>649.03</ele>
        <time>2021-10-25T16:14:11Z</time>
      </trkpt>
      <trkpt lat="47.80114" lon="7.03605">
        <ele>648.07</ele>
        <time>2021-10-25T16:14:14Z</time>
      </trkpt>
      <trkpt lat="47.80115" lon="7.03604">
        <ele>647.59</ele>
        <time>2021-10-25T16:14:15Z</time>
      </trkpt>
      <trkpt lat="47.80149" lon="7.03595">
        <ele>643.74</ele>
        <time>2021-10-25T16:14:21Z</time>
      </trkpt>
      <trkpt lat="47.8016" lon="7.03592">
        <ele>642.78</ele>
        <time>2021-10-25T16:14:23Z</time>
      </trkpt>
      <trkpt lat="47.80169" lon="7.03589">
        <ele>642.3</ele>
        <time>2021-10-25T16:14:24Z</time>
      </trkpt>
      <trkpt lat="47.80203" lon="7.03581">
        <ele>641.34</ele>
        <time>2021-10-25T16:14:27Z</time>
      </trkpt>
      <trkpt lat="47.80214" lon="7.03585">
        <ele>640.86</ele>
        <time>2021-10-25T16:14:28Z</time>
      </trkpt>
      <trkpt lat="47.80225" lon="7.0359">
        <ele>640.38</ele>
        <time>2021-10-25T16:14:29Z</time>
      </trkpt>
      <trkpt lat="47.80232" lon="7.03594">
        <ele>639.89</ele>
        <time>2021-10-25T16:14:30Z</time>
      </trkpt>
      <trkpt lat="47.80244" lon="7.03599">
        <ele>639.41</ele>
        <time>2021-10-25T16:14:31Z</time>
      </trkpt>
      <trkpt lat="47.80252" lon="7.036">
        <ele>638.93</ele>
        <time>2021-10-25T16:14:32Z</time>
      </trkpt>
      <trkpt lat="47.80258" lon="7.03598">
        <ele>638.45</ele>
        <time>2021-10-25T16:14:33Z</time>
      </trkpt>
      <trkpt lat="47.8027" lon="7.03595">
        <ele>637.97</ele>
        <time>2021-10-25T16:14:34Z</time>
      </trkpt>
      <trkpt lat="47.80276" lon="7.03586">
        <ele>637.97</ele>
        <time>2021-10-25T16:14:35Z</time>
      </trkpt>
      <trkpt lat="47.8028" lon="7.03575">
        <ele>637.49</ele>
        <time>2021-10-25T16:14:36Z</time>
      </trkpt>
      <trkpt lat="47.80286" lon="7.03564">
        <ele>636.53</ele>
        <time>2021-10-25T16:14:37Z</time>
      </trkpt>
      <trkpt lat="47.80292" lon="7.03555">
        <ele>635.57</ele>
        <time>2021-10-25T16:14:38Z</time>
      </trkpt>
      <trkpt lat="47.80299" lon="7.03547">
        <ele>635.09</ele>
        <time>2021-10-25T16:14:39Z</time>
      </trkpt>
      <trkpt lat="47.80326" lon="7.03519">
        <ele>633.17</ele>
        <time>2021-10-25T16:14:43Z</time>
      </trkpt>
      <trkpt lat="47.80332" lon="7.03511">
        <ele>632.68</ele>
        <time>2021-10-25T16:14:44Z</time>
      </trkpt>
      <trkpt lat="47.8035" lon="7.03484">
        <ele>632.2</ele>
        <time>2021-10-25T16:14:47Z</time>
      </trkpt>
      <trkpt lat="47.80353" lon="7.0347">
        <ele>631.24</ele>
        <time>2021-10-25T16:14:50Z</time>
      </trkpt>
      <trkpt lat="47.80345" lon="7.03461">
        <ele>629.8</ele>
        <time>2021-10-25T16:14:52Z</time>
      </trkpt>
      <trkpt lat="47.80338" lon="7.03455">
        <ele>629.32</ele>
        <time>2021-10-25T16:14:53Z</time>
      </trkpt>
      <trkpt lat="47.80324" lon="7.03446">
        <ele>628.84</ele>
        <time>2021-10-25T16:14:54Z</time>
      </trkpt>
      <trkpt lat="47.80312" lon="7.03441">
        <ele>628.36</ele>
        <time>2021-10-25T16:14:55Z</time>
      </trkpt>
      <trkpt lat="47.80301" lon="7.03438">
        <ele>627.88</ele>
        <time>2021-10-25T16:14:56Z</time>
      </trkpt>
      <trkpt lat="47.80286" lon="7.03434">
        <ele>627.88</ele>
        <time>2021-10-25T16:14:57Z</time>
      </trkpt>
      <trkpt lat="47.80278" lon="7.03433">
        <ele>627.4</ele>
        <time>2021-10-25T16:14:58Z</time>
      </trkpt>
      <trkpt lat="47.80269" lon="7.0343">
        <ele>626.92</ele>
        <time>2021-10-25T16:14:59Z</time>
      </trkpt>
      <trkpt lat="47.80252" lon="7.03422">
        <ele>626.44</ele>
        <time>2021-10-25T16:15:01Z</time>
      </trkpt>
      <trkpt lat="47.80242" lon="7.03417">
        <ele>625.96</ele>
        <time>2021-10-25T16:15:02Z</time>
      </trkpt>
      <trkpt lat="47.80233" lon="7.0341">
        <ele>625.47</ele>
        <time>2021-10-25T16:15:03Z</time>
      </trkpt>
      <trkpt lat="47.80225" lon="7.03402">
        <ele>625.47</ele>
        <time>2021-10-25T16:15:04Z</time>
      </trkpt>
      <trkpt lat="47.80218" lon="7.03393">
        <ele>624.99</ele>
        <time>2021-10-25T16:15:05Z</time>
      </trkpt>
      <trkpt lat="47.80212" lon="7.03383">
        <ele>624.51</ele>
        <time>2021-10-25T16:15:06Z</time>
      </trkpt>
      <trkpt lat="47.80205" lon="7.03373">
        <ele>624.51</ele>
        <time>2021-10-25T16:15:07Z</time>
      </trkpt>
      <trkpt lat="47.80191" lon="7.03355">
        <ele>623.55</ele>
        <time>2021-10-25T16:15:09Z</time>
      </trkpt>
      <trkpt lat="47.80182" lon="7.03348">
        <ele>623.07</ele>
        <time>2021-10-25T16:15:10Z</time>
      </trkpt>
      <trkpt lat="47.80172" lon="7.03342">
        <ele>622.59</ele>
        <time>2021-10-25T16:15:11Z</time>
      </trkpt>
      <trkpt lat="47.80162" lon="7.03339">
        <ele>621.63</ele>
        <time>2021-10-25T16:15:12Z</time>
      </trkpt>
      <trkpt lat="47.80153" lon="7.03336">
        <ele>621.15</ele>
        <time>2021-10-25T16:15:13Z</time>
      </trkpt>
      <trkpt lat="47.80116" lon="7.03325">
        <ele>617.78</ele>
        <time>2021-10-25T16:15:17Z</time>
      </trkpt>
      <trkpt lat="47.80105" lon="7.03322">
        <ele>617.3</ele>
        <time>2021-10-25T16:15:18Z</time>
      </trkpt>
      <trkpt lat="47.80085" lon="7.03312">
        <ele>615.86</ele>
        <time>2021-10-25T16:15:20Z</time>
      </trkpt>
      <trkpt lat="47.80075" lon="7.03305">
        <ele>614.9</ele>
        <time>2021-10-25T16:15:21Z</time>
      </trkpt>
      <trkpt lat="47.80038" lon="7.0327">
        <ele>612.02</ele>
        <time>2021-10-25T16:15:25Z</time>
      </trkpt>
      <trkpt lat="47.80022" lon="7.03247">
        <ele>610.09</ele>
        <time>2021-10-25T16:15:27Z</time>
      </trkpt>
      <trkpt lat="47.79992" lon="7.03197">
        <ele>607.21</ele>
        <time>2021-10-25T16:15:31Z</time>
      </trkpt>
      <trkpt lat="47.79965" lon="7.03144">
        <ele>604.33</ele>
        <time>2021-10-25T16:15:35Z</time>
      </trkpt>
      <trkpt lat="47.79961" lon="7.03128">
        <ele>603.36</ele>
        <time>2021-10-25T16:15:36Z</time>
      </trkpt>
      <trkpt lat="47.79957" lon="7.03112">
        <ele>602.88</ele>
        <time>2021-10-25T16:15:37Z</time>
      </trkpt>
      <trkpt lat="47.79955" lon="7.03097">
        <ele>601.92</ele>
        <time>2021-10-25T16:15:38Z</time>
      </trkpt>
      <trkpt lat="47.79953" lon="7.03082">
        <ele>601.44</ele>
        <time>2021-10-25T16:15:39Z</time>
      </trkpt>
      <trkpt lat="47.79953" lon="7.03068">
        <ele>600.96</ele>
        <time>2021-10-25T16:15:40Z</time>
      </trkpt>
      <trkpt lat="47.79954" lon="7.03055">
        <ele>600</ele>
        <time>2021-10-25T16:15:41Z</time>
      </trkpt>
      <trkpt lat="47.79958" lon="7.03043">
        <ele>600</ele>
        <time>2021-10-25T16:15:42Z</time>
      </trkpt>
      <trkpt lat="47.79961" lon="7.03032">
        <ele>599.52</ele>
        <time>2021-10-25T16:15:43Z</time>
      </trkpt>
      <trkpt lat="47.7997" lon="7.03011">
        <ele>598.56</ele>
        <time>2021-10-25T16:15:45Z</time>
      </trkpt>
      <trkpt lat="47.79971" lon="7.02999">
        <ele>598.56</ele>
        <time>2021-10-25T16:15:46Z</time>
      </trkpt>
      <trkpt lat="47.7997" lon="7.02977">
        <ele>597.6</ele>
        <time>2021-10-25T16:15:48Z</time>
      </trkpt>
      <trkpt lat="47.79966" lon="7.02966">
        <ele>597.12</ele>
        <time>2021-10-25T16:15:49Z</time>
      </trkpt>
      <trkpt lat="47.79961" lon="7.02956">
        <ele>596.64</ele>
        <time>2021-10-25T16:15:50Z</time>
      </trkpt>
      <trkpt lat="47.79956" lon="7.02947">
        <ele>596.15</ele>
        <time>2021-10-25T16:15:51Z</time>
      </trkpt>
      <trkpt lat="47.79951" lon="7.02938">
        <ele>595.67</ele>
        <time>2021-10-25T16:15:52Z</time>
      </trkpt>
      <trkpt lat="47.79944" lon="7.0293">
        <ele>594.71</ele>
        <time>2021-10-25T16:15:53Z</time>
      </trkpt>
      <trkpt lat="47.79914" lon="7.02894">
        <ele>591.83</ele>
        <time>2021-10-25T16:15:58Z</time>
      </trkpt>
      <trkpt lat="47.79905" lon="7.0288">
        <ele>590.39</ele>
        <time>2021-10-25T16:16:00Z</time>
      </trkpt>
      <trkpt lat="47.79901" lon="7.02871">
        <ele>589.91</ele>
        <time>2021-10-25T16:16:01Z</time>
      </trkpt>
      <trkpt lat="47.79899" lon="7.02863">
        <ele>589.43</ele>
        <time>2021-10-25T16:16:02Z</time>
      </trkpt>
      <trkpt lat="47.79897" lon="7.02853">
        <ele>588.95</ele>
        <time>2021-10-25T16:16:03Z</time>
      </trkpt>
      <trkpt lat="47.79897" lon="7.02843">
        <ele>587.98</ele>
        <time>2021-10-25T16:16:04Z</time>
      </trkpt>
      <trkpt lat="47.79897" lon="7.02831">
        <ele>587.5</ele>
        <time>2021-10-25T16:16:05Z</time>
      </trkpt>
      <trkpt lat="47.79895" lon="7.02797">
        <ele>585.58</ele>
        <time>2021-10-25T16:16:08Z</time>
      </trkpt>
      <trkpt lat="47.79893" lon="7.02786">
        <ele>584.62</ele>
        <time>2021-10-25T16:16:09Z</time>
      </trkpt>
      <trkpt lat="47.79891" lon="7.02774">
        <ele>584.14</ele>
        <time>2021-10-25T16:16:10Z</time>
      </trkpt>
      <trkpt lat="47.79887" lon="7.02722">
        <ele>580.77</ele>
        <time>2021-10-25T16:16:14Z</time>
      </trkpt>
      <trkpt lat="47.79891" lon="7.02674">
        <ele>579.33</ele>
        <time>2021-10-25T16:16:17Z</time>
      </trkpt>
      <trkpt lat="47.79894" lon="7.0266">
        <ele>578.37</ele>
        <time>2021-10-25T16:16:18Z</time>
      </trkpt>
      <trkpt lat="47.79899" lon="7.02647">
        <ele>578.37</ele>
        <time>2021-10-25T16:16:19Z</time>
      </trkpt>
      <trkpt lat="47.7991" lon="7.02628">
        <ele>578.37</ele>
        <time>2021-10-25T16:16:21Z</time>
      </trkpt>
      <trkpt lat="47.79916" lon="7.02621">
        <ele>578.37</ele>
        <time>2021-10-25T16:16:22Z</time>
      </trkpt>
      <trkpt lat="47.7992" lon="7.02613">
        <ele>578.37</ele>
        <time>2021-10-25T16:16:23Z</time>
      </trkpt>
      <trkpt lat="47.79922" lon="7.02605">
        <ele>578.37</ele>
        <time>2021-10-25T16:16:24Z</time>
      </trkpt>
      <trkpt lat="47.79921" lon="7.02597">
        <ele>577.89</ele>
        <time>2021-10-25T16:16:25Z</time>
      </trkpt>
      <trkpt lat="47.79919" lon="7.0259">
        <ele>577.89</ele>
        <time>2021-10-25T16:16:26Z</time>
      </trkpt>
      <trkpt lat="47.79915" lon="7.02584">
        <ele>577.89</ele>
        <time>2021-10-25T16:16:27Z</time>
      </trkpt>
      <trkpt lat="47.79911" lon="7.02582">
        <ele>579.33</ele>
        <time>2021-10-25T16:16:28Z</time>
      </trkpt>
      <trkpt lat="47.79906" lon="7.02582">
        <ele>577.89</ele>
        <time>2021-10-25T16:16:29Z</time>
      </trkpt>
      <trkpt lat="47.79902" lon="7.02584">
        <ele>577.89</ele>
        <time>2021-10-25T16:16:30Z</time>
      </trkpt>
      <trkpt lat="47.79898" lon="7.02586">
        <ele>577.41</ele>
        <time>2021-10-25T16:16:31Z</time>
      </trkpt>
      <trkpt lat="47.79893" lon="7.02588">
        <ele>577.41</ele>
        <time>2021-10-25T16:16:32Z</time>
      </trkpt>
      <trkpt lat="47.7984" lon="7.02621">
        <ele>577.89</ele>
        <time>2021-10-25T16:16:42Z</time>
      </trkpt>
      <trkpt lat="47.79835" lon="7.02626">
        <ele>577.89</ele>
        <time>2021-10-25T16:16:43Z</time>
      </trkpt>
      <trkpt lat="47.79831" lon="7.02632">
        <ele>577.89</ele>
        <time>2021-10-25T16:16:44Z</time>
      </trkpt>
      <trkpt lat="47.79824" lon="7.02646">
        <ele>578.37</ele>
        <time>2021-10-25T16:16:46Z</time>
      </trkpt>
      <trkpt lat="47.79806" lon="7.02695">
        <ele>580.77</ele>
        <time>2021-10-25T16:16:53Z</time>
      </trkpt>
      <trkpt lat="47.79805" lon="7.02702">
        <ele>581.25</ele>
        <time>2021-10-25T16:16:54Z</time>
      </trkpt>
      <trkpt lat="47.79806" lon="7.02734">
        <ele>584.14</ele>
        <time>2021-10-25T16:17:00Z</time>
      </trkpt>
      <trkpt lat="47.79795" lon="7.02763">
        <ele>584.62</ele>
        <time>2021-10-25T16:17:08Z</time>
      </trkpt>
      <trkpt lat="47.7975" lon="7.02774">
        <ele>582.7</ele>
        <time>2021-10-25T16:17:21Z</time>
      </trkpt>
      <trkpt lat="47.79704" lon="7.02803">
        <ele>581.73</ele>
        <time>2021-10-25T16:17:36Z</time>
      </trkpt>
      <trkpt lat="47.79683" lon="7.02813">
        <ele>580.77</ele>
        <time>2021-10-25T16:17:42Z</time>
      </trkpt>
      <trkpt lat="47.79639" lon="7.02833">
        <ele>577.89</ele>
        <time>2021-10-25T16:17:51Z</time>
      </trkpt>
      <trkpt lat="47.79598" lon="7.02867">
        <ele>575.01</ele>
        <time>2021-10-25T16:17:58Z</time>
      </trkpt>
      <trkpt lat="47.79592" lon="7.02875">
        <ele>574.04</ele>
        <time>2021-10-25T16:17:59Z</time>
      </trkpt>
      <trkpt lat="47.79572" lon="7.02905">
        <ele>570.68</ele>
        <time>2021-10-25T16:18:02Z</time>
      </trkpt>
      <trkpt lat="47.79548" lon="7.02943">
        <ele>566.83</ele>
        <time>2021-10-25T16:18:06Z</time>
      </trkpt>
      <trkpt lat="47.79529" lon="7.02974">
        <ele>563.47</ele>
        <time>2021-10-25T16:18:11Z</time>
      </trkpt>
      <trkpt lat="47.79523" lon="7.02986">
        <ele>562.51</ele>
        <time>2021-10-25T16:18:13Z</time>
      </trkpt>
      <trkpt lat="47.79518" lon="7.0299">
        <ele>561.55</ele>
        <time>2021-10-25T16:18:14Z</time>
      </trkpt>
      <trkpt lat="47.79514" lon="7.02996">
        <ele>561.55</ele>
        <time>2021-10-25T16:18:15Z</time>
      </trkpt>
      <trkpt lat="47.79511" lon="7.03002">
        <ele>561.55</ele>
        <time>2021-10-25T16:18:16Z</time>
      </trkpt>
      <trkpt lat="47.79508" lon="7.03009">
        <ele>561.07</ele>
        <time>2021-10-25T16:18:17Z</time>
      </trkpt>
      <trkpt lat="47.79505" lon="7.03018">
        <ele>560.59</ele>
        <time>2021-10-25T16:18:18Z</time>
      </trkpt>
      <trkpt lat="47.79502" lon="7.03027">
        <ele>560.11</ele>
        <time>2021-10-25T16:18:19Z</time>
      </trkpt>
      <trkpt lat="47.795" lon="7.03037">
        <ele>559.62</ele>
        <time>2021-10-25T16:18:20Z</time>
      </trkpt>
      <trkpt lat="47.79492" lon="7.03095">
        <ele>556.26</ele>
        <time>2021-10-25T16:18:25Z</time>
      </trkpt>
      <trkpt lat="47.7949" lon="7.03106">
        <ele>554.82</ele>
        <time>2021-10-25T16:18:26Z</time>
      </trkpt>
      <trkpt lat="47.79486" lon="7.03114">
        <ele>554.82</ele>
        <time>2021-10-25T16:18:27Z</time>
      </trkpt>
      <trkpt lat="47.79481" lon="7.03119">
        <ele>554.34</ele>
        <time>2021-10-25T16:18:28Z</time>
      </trkpt>
      <trkpt lat="47.79474" lon="7.0312">
        <ele>554.34</ele>
        <time>2021-10-25T16:18:29Z</time>
      </trkpt>
      <trkpt lat="47.79467" lon="7.0312">
        <ele>552.41</ele>
        <time>2021-10-25T16:18:30Z</time>
      </trkpt>
      <trkpt lat="47.79459" lon="7.03118">
        <ele>551.93</ele>
        <time>2021-10-25T16:18:31Z</time>
      </trkpt>
      <trkpt lat="47.79454" lon="7.0311">
        <ele>550.97</ele>
        <time>2021-10-25T16:18:32Z</time>
      </trkpt>
      <trkpt lat="47.79449" lon="7.03099">
        <ele>550.49</ele>
        <time>2021-10-25T16:18:33Z</time>
      </trkpt>
      <trkpt lat="47.79438" lon="7.03078">
        <ele>548.57</ele>
        <time>2021-10-25T16:18:35Z</time>
      </trkpt>
      <trkpt lat="47.7942" lon="7.03036">
        <ele>545.69</ele>
        <time>2021-10-25T16:18:39Z</time>
      </trkpt>
      <trkpt lat="47.79411" lon="7.03014">
        <ele>543.28</ele>
        <time>2021-10-25T16:18:43Z</time>
      </trkpt>
      <trkpt lat="47.79409" lon="7.03012">
        <ele>543.28</ele>
        <time>2021-10-25T16:18:44Z</time>
      </trkpt>
      <trkpt lat="47.79407" lon="7.03011">
        <ele>543.28</ele>
        <time>2021-10-25T16:18:45Z</time>
      </trkpt>
      <trkpt lat="47.79406" lon="7.03012">
        <ele>542.8</ele>
        <time>2021-10-25T16:18:57Z</time>
      </trkpt>
      <trkpt lat="47.79404" lon="7.03013">
        <ele>542.8</ele>
        <time>2021-10-25T16:19:13Z</time>
      </trkpt>
      <trkpt lat="47.79403" lon="7.03013">
        <ele>542.8</ele>
        <time>2021-10-25T16:19:14Z</time>
      </trkpt>
      <trkpt lat="47.79402" lon="7.03014">
        <ele>542.8</ele>
        <time>2021-10-25T16:19:15Z</time>
      </trkpt>
      <trkpt lat="47.79399" lon="7.03015">
        <ele>542.32</ele>
        <time>2021-10-25T16:19:16Z</time>
      </trkpt>
      <trkpt lat="47.79394" lon="7.03016">
        <ele>541.36</ele>
        <time>2021-10-25T16:19:17Z</time>
      </trkpt>
      <trkpt lat="47.79389" lon="7.03019">
        <ele>540.4</ele>
        <time>2021-10-25T16:19:18Z</time>
      </trkpt>
      <trkpt lat="47.79386" lon="7.03022">
        <ele>539.92</ele>
        <time>2021-10-25T16:19:19Z</time>
      </trkpt>
      <trkpt lat="47.79384" lon="7.03024">
        <ele>539.92</ele>
        <time>2021-10-25T16:19:20Z</time>
      </trkpt>
      <trkpt lat="47.79383" lon="7.03025">
        <ele>539.44</ele>
        <time>2021-10-25T16:19:21Z</time>
      </trkpt>
      <trkpt lat="47.79381" lon="7.03024">
        <ele>539.44</ele>
        <time>2021-10-25T16:19:22Z</time>
      </trkpt>
      <trkpt lat="47.7938" lon="7.03022">
        <ele>538.96</ele>
        <time>2021-10-25T16:19:23Z</time>
      </trkpt>
      <trkpt lat="47.7938" lon="7.0302">
        <ele>538.96</ele>
        <time>2021-10-25T16:19:24Z</time>
      </trkpt>
      <trkpt lat="47.7938" lon="7.03018">
        <ele>538.96</ele>
        <time>2021-10-25T16:19:25Z</time>
      </trkpt>
      <trkpt lat="47.79382" lon="7.03009">
        <ele>537.51</ele>
        <time>2021-10-25T16:19:29Z</time>
      </trkpt>
      <trkpt lat="47.79384" lon="7.03007">
        <ele>537.51</ele>
        <time>2021-10-25T16:19:30Z</time>
      </trkpt>
      <trkpt lat="47.79386" lon="7.03004">
        <ele>537.03</ele>
        <time>2021-10-25T16:19:31Z</time>
      </trkpt>
      <trkpt lat="47.79387" lon="7.03003">
        <ele>537.03</ele>
        <time>2021-10-25T16:19:39Z</time>
      </trkpt>
      <trkpt lat="47.79387" lon="7.03002">
        <ele>537.03</ele>
        <time>2021-10-25T16:20:07Z</time>
      </trkpt>
      <trkpt lat="47.79387" lon="7.03002">
        <ele>534.15</ele>
        <time>2021-10-25T16:20:15Z</time>
      </trkpt>
      <trkpt lat="47.79387" lon="7.03002">
        <ele>538.96</ele>
        <time>2021-10-25T16:20:16Z</time>
      </trkpt>
      <trkpt lat="47.79387" lon="7.03002">
        <ele>537.51</ele>
        <time>2021-10-25T16:20:17Z</time>
      </trkpt>
      <trkpt lat="47.79387" lon="7.03002">
        <ele>535.59</ele>
        <time>2021-10-25T16:20:18Z</time>
      </trkpt>
      <trkpt lat="47.79387" lon="7.03002">
        <ele>538.48</ele>
        <time>2021-10-25T16:20:19Z</time>
      </trkpt>
      <trkpt lat="47.79386" lon="7.03002">
        <ele>537.03</ele>
        <time>2021-10-25T16:20:21Z</time>
      </trkpt>
    </trkseg>
  </trk>
</gpx>